<?xml version="1.0" encoding="UTF-8" standalone="no" ?>
<gpx xmlns="http://www.topografix.com/GPX/1/1" xmlns:xsi="http://www.w3.org/2001/XMLSchema-instance" xsi:schemaLocation="http://www.topografix.com/GPX/1/1 http://www.topografix.com/GPX/1/1/gpx.xsd" version="1.1" creator="VisuGPX - https://www.visugpx.com">
  <metadata>
    <name>SE-N-St Aignan La Chevrolière Le Bignon Chateau Thébaud Vertou Basse Goulaine St Sebastien Pirmil</name>
    <desc><![CDATA[SE-N-St Aignan La Chevrolière Le Bignon Chateau Thébaud Vertou Basse Goulaine St Sebastien Pirmil]]></desc>
  </metadata>
  <trk>
    <name><![CDATA[2021-02-28 11:40 +01:00]]></name>
    <trkseg>
      <trkpt lat="47.16786" lon="-1.62656">
        <ele>53</ele>
        <time>2021-02-28T10:40:45.996Z</time>
      </trkpt>
      <trkpt lat="47.16763" lon="-1.62664">
        <ele>57</ele>
        <time>2021-02-28T10:40:48.014Z</time>
      </trkpt>
      <trkpt lat="47.16782" lon="-1.62662">
        <ele>68</ele>
        <time>2021-02-28T10:40:49.286Z</time>
      </trkpt>
      <trkpt lat="47.16778" lon="-1.6265">
        <ele>67</ele>
        <time>2021-02-28T10:42:20.000Z</time>
      </trkpt>
      <trkpt lat="47.16789" lon="-1.62645">
        <ele>71</ele>
        <time>2021-02-28T10:42:39.000Z</time>
      </trkpt>
      <trkpt lat="47.16799" lon="-1.62632">
        <ele>71</ele>
        <time>2021-02-28T10:42:42.000Z</time>
      </trkpt>
      <trkpt lat="47.16807" lon="-1.62621">
        <ele>70</ele>
        <time>2021-02-28T10:42:44.000Z</time>
      </trkpt>
      <trkpt lat="47.16814" lon="-1.6261">
        <ele>70</ele>
        <time>2021-02-28T10:42:46.000Z</time>
      </trkpt>
      <trkpt lat="47.16821" lon="-1.62598">
        <ele>69</ele>
        <time>2021-02-28T10:42:48.000Z</time>
      </trkpt>
      <trkpt lat="47.16828" lon="-1.62586">
        <ele>68</ele>
        <time>2021-02-28T10:42:50.000Z</time>
      </trkpt>
      <trkpt lat="47.16829" lon="-1.62572">
        <ele>69</ele>
        <time>2021-02-28T10:42:52.000Z</time>
      </trkpt>
      <trkpt lat="47.16821" lon="-1.62561">
        <ele>69</ele>
        <time>2021-02-28T10:42:54.000Z</time>
      </trkpt>
      <trkpt lat="47.16811" lon="-1.62552">
        <ele>70</ele>
        <time>2021-02-28T10:42:56.000Z</time>
      </trkpt>
      <trkpt lat="47.168" lon="-1.62544">
        <ele>70</ele>
        <time>2021-02-28T10:42:58.000Z</time>
      </trkpt>
      <trkpt lat="47.16789" lon="-1.62536">
        <ele>70</ele>
        <time>2021-02-28T10:43:00.000Z</time>
      </trkpt>
      <trkpt lat="47.16777" lon="-1.62529">
        <ele>70</ele>
        <time>2021-02-28T10:43:02.000Z</time>
      </trkpt>
      <trkpt lat="47.16765" lon="-1.62521">
        <ele>70</ele>
        <time>2021-02-28T10:43:04.000Z</time>
      </trkpt>
      <trkpt lat="47.16753" lon="-1.62515">
        <ele>70</ele>
        <time>2021-02-28T10:43:06.000Z</time>
      </trkpt>
      <trkpt lat="47.16742" lon="-1.62509">
        <ele>71</ele>
        <time>2021-02-28T10:43:08.000Z</time>
      </trkpt>
      <trkpt lat="47.16731" lon="-1.62503">
        <ele>71</ele>
        <time>2021-02-28T10:43:10.000Z</time>
      </trkpt>
      <trkpt lat="47.16719" lon="-1.62499">
        <ele>71</ele>
        <time>2021-02-28T10:43:12.000Z</time>
      </trkpt>
      <trkpt lat="47.16711" lon="-1.62487">
        <ele>70</ele>
        <time>2021-02-28T10:43:14.000Z</time>
      </trkpt>
      <trkpt lat="47.16712" lon="-1.62469">
        <ele>70</ele>
        <time>2021-02-28T10:43:16.000Z</time>
      </trkpt>
      <trkpt lat="47.16714" lon="-1.62453">
        <ele>70</ele>
        <time>2021-02-28T10:43:18.000Z</time>
      </trkpt>
      <trkpt lat="47.16716" lon="-1.62435">
        <ele>70</ele>
        <time>2021-02-28T10:43:20.000Z</time>
      </trkpt>
      <trkpt lat="47.16722" lon="-1.6242">
        <ele>70</ele>
        <time>2021-02-28T10:43:22.000Z</time>
      </trkpt>
      <trkpt lat="47.16727" lon="-1.62409">
        <ele>70</ele>
        <time>2021-02-28T10:43:24.000Z</time>
      </trkpt>
      <trkpt lat="47.16724" lon="-1.62396">
        <ele>70</ele>
        <time>2021-02-28T10:43:26.000Z</time>
      </trkpt>
      <trkpt lat="47.16714" lon="-1.62389">
        <ele>70</ele>
        <time>2021-02-28T10:43:28.000Z</time>
      </trkpt>
      <trkpt lat="47.16705" lon="-1.62379">
        <ele>71</ele>
        <time>2021-02-28T10:43:30.000Z</time>
      </trkpt>
      <trkpt lat="47.16695" lon="-1.62368">
        <ele>71</ele>
        <time>2021-02-28T10:43:32.000Z</time>
      </trkpt>
      <trkpt lat="47.16683" lon="-1.62362">
        <ele>71</ele>
        <time>2021-02-28T10:43:34.000Z</time>
      </trkpt>
      <trkpt lat="47.1667" lon="-1.62361">
        <ele>71</ele>
        <time>2021-02-28T10:43:36.000Z</time>
      </trkpt>
      <trkpt lat="47.16658" lon="-1.62363">
        <ele>71</ele>
        <time>2021-02-28T10:43:38.000Z</time>
      </trkpt>
      <trkpt lat="47.16647" lon="-1.62371">
        <ele>71</ele>
        <time>2021-02-28T10:43:40.000Z</time>
      </trkpt>
      <trkpt lat="47.16636" lon="-1.62382">
        <ele>71</ele>
        <time>2021-02-28T10:43:42.000Z</time>
      </trkpt>
      <trkpt lat="47.16627" lon="-1.62394">
        <ele>72</ele>
        <time>2021-02-28T10:43:44.000Z</time>
      </trkpt>
      <trkpt lat="47.16619" lon="-1.62407">
        <ele>72</ele>
        <time>2021-02-28T10:43:46.000Z</time>
      </trkpt>
      <trkpt lat="47.16611" lon="-1.62422">
        <ele>72</ele>
        <time>2021-02-28T10:43:48.000Z</time>
      </trkpt>
      <trkpt lat="47.16605" lon="-1.62436">
        <ele>72</ele>
        <time>2021-02-28T10:43:50.000Z</time>
      </trkpt>
      <trkpt lat="47.16598" lon="-1.62451">
        <ele>72</ele>
        <time>2021-02-28T10:43:52.000Z</time>
      </trkpt>
      <trkpt lat="47.16592" lon="-1.62465">
        <ele>72</ele>
        <time>2021-02-28T10:43:54.000Z</time>
      </trkpt>
      <trkpt lat="47.16585" lon="-1.6248">
        <ele>72</ele>
        <time>2021-02-28T10:43:56.000Z</time>
      </trkpt>
      <trkpt lat="47.16579" lon="-1.62496">
        <ele>72</ele>
        <time>2021-02-28T10:43:58.000Z</time>
      </trkpt>
      <trkpt lat="47.16573" lon="-1.62512">
        <ele>72</ele>
        <time>2021-02-28T10:44:00.000Z</time>
      </trkpt>
      <trkpt lat="47.16567" lon="-1.62526">
        <ele>72</ele>
        <time>2021-02-28T10:44:02.000Z</time>
      </trkpt>
      <trkpt lat="47.16559" lon="-1.62539">
        <ele>72</ele>
        <time>2021-02-28T10:44:04.000Z</time>
      </trkpt>
      <trkpt lat="47.1655" lon="-1.6255">
        <ele>72</ele>
        <time>2021-02-28T10:44:06.000Z</time>
      </trkpt>
      <trkpt lat="47.1654" lon="-1.62559">
        <ele>72</ele>
        <time>2021-02-28T10:44:08.000Z</time>
      </trkpt>
      <trkpt lat="47.16529" lon="-1.62565">
        <ele>72</ele>
        <time>2021-02-28T10:44:10.000Z</time>
      </trkpt>
      <trkpt lat="47.16517" lon="-1.62562">
        <ele>72</ele>
        <time>2021-02-28T10:44:12.000Z</time>
      </trkpt>
      <trkpt lat="47.16506" lon="-1.62558">
        <ele>72</ele>
        <time>2021-02-28T10:44:14.000Z</time>
      </trkpt>
      <trkpt lat="47.16494" lon="-1.62556">
        <ele>72</ele>
        <time>2021-02-28T10:44:16.000Z</time>
      </trkpt>
      <trkpt lat="47.16484" lon="-1.62552">
        <ele>72</ele>
        <time>2021-02-28T10:44:18.000Z</time>
      </trkpt>
      <trkpt lat="47.16473" lon="-1.62549">
        <ele>72</ele>
        <time>2021-02-28T10:44:20.000Z</time>
      </trkpt>
      <trkpt lat="47.16461" lon="-1.62545">
        <ele>72</ele>
        <time>2021-02-28T10:44:22.000Z</time>
      </trkpt>
      <trkpt lat="47.1645" lon="-1.62541">
        <ele>72</ele>
        <time>2021-02-28T10:44:24.000Z</time>
      </trkpt>
      <trkpt lat="47.16438" lon="-1.6254">
        <ele>71</ele>
        <time>2021-02-28T10:44:26.000Z</time>
      </trkpt>
      <trkpt lat="47.16426" lon="-1.62547">
        <ele>71</ele>
        <time>2021-02-28T10:44:28.000Z</time>
      </trkpt>
      <trkpt lat="47.16416" lon="-1.62558">
        <ele>70</ele>
        <time>2021-02-28T10:44:30.000Z</time>
      </trkpt>
      <trkpt lat="47.16404" lon="-1.62568">
        <ele>70</ele>
        <time>2021-02-28T10:44:32.000Z</time>
      </trkpt>
      <trkpt lat="47.16392" lon="-1.62578">
        <ele>70</ele>
        <time>2021-02-28T10:44:34.000Z</time>
      </trkpt>
      <trkpt lat="47.1638" lon="-1.62583">
        <ele>70</ele>
        <time>2021-02-28T10:44:36.000Z</time>
      </trkpt>
      <trkpt lat="47.16366" lon="-1.62583">
        <ele>69</ele>
        <time>2021-02-28T10:44:38.000Z</time>
      </trkpt>
      <trkpt lat="47.16352" lon="-1.6258">
        <ele>69</ele>
        <time>2021-02-28T10:44:40.000Z</time>
      </trkpt>
      <trkpt lat="47.16337" lon="-1.62576">
        <ele>69</ele>
        <time>2021-02-28T10:44:42.000Z</time>
      </trkpt>
      <trkpt lat="47.16324" lon="-1.6257">
        <ele>69</ele>
        <time>2021-02-28T10:44:44.000Z</time>
      </trkpt>
      <trkpt lat="47.1631" lon="-1.62571">
        <ele>70</ele>
        <time>2021-02-28T10:44:46.000Z</time>
      </trkpt>
      <trkpt lat="47.16298" lon="-1.62579">
        <ele>70</ele>
        <time>2021-02-28T10:44:48.000Z</time>
      </trkpt>
      <trkpt lat="47.1629" lon="-1.62594">
        <ele>69</ele>
        <time>2021-02-28T10:44:50.000Z</time>
      </trkpt>
      <trkpt lat="47.16285" lon="-1.62613">
        <ele>70</ele>
        <time>2021-02-28T10:44:52.000Z</time>
      </trkpt>
      <trkpt lat="47.16281" lon="-1.62632">
        <ele>70</ele>
        <time>2021-02-28T10:44:54.000Z</time>
      </trkpt>
      <trkpt lat="47.16279" lon="-1.62652">
        <ele>70</ele>
        <time>2021-02-28T10:44:56.000Z</time>
      </trkpt>
      <trkpt lat="47.16278" lon="-1.62672">
        <ele>70</ele>
        <time>2021-02-28T10:44:58.000Z</time>
      </trkpt>
      <trkpt lat="47.16278" lon="-1.62689">
        <ele>71</ele>
        <time>2021-02-28T10:45:00.000Z</time>
      </trkpt>
      <trkpt lat="47.16279" lon="-1.62703">
        <ele>71</ele>
        <time>2021-02-28T10:45:02.000Z</time>
      </trkpt>
      <trkpt lat="47.16281" lon="-1.62718">
        <ele>71</ele>
        <time>2021-02-28T10:45:06.000Z</time>
      </trkpt>
      <trkpt lat="47.16278" lon="-1.62735">
        <ele>71</ele>
        <time>2021-02-28T10:45:09.000Z</time>
      </trkpt>
      <trkpt lat="47.16265" lon="-1.62735">
        <ele>72</ele>
        <time>2021-02-28T10:45:11.000Z</time>
      </trkpt>
      <trkpt lat="47.16249" lon="-1.62741">
        <ele>71</ele>
        <time>2021-02-28T10:45:13.000Z</time>
      </trkpt>
      <trkpt lat="47.16241" lon="-1.62746">
        <ele>71</ele>
        <time>2021-02-28T10:45:14.000Z</time>
      </trkpt>
      <trkpt lat="47.16232" lon="-1.62751">
        <ele>71</ele>
        <time>2021-02-28T10:45:15.000Z</time>
      </trkpt>
      <trkpt lat="47.16224" lon="-1.62757">
        <ele>70</ele>
        <time>2021-02-28T10:45:16.000Z</time>
      </trkpt>
      <trkpt lat="47.16215" lon="-1.62762">
        <ele>70</ele>
        <time>2021-02-28T10:45:17.000Z</time>
      </trkpt>
      <trkpt lat="47.16206" lon="-1.62769">
        <ele>70</ele>
        <time>2021-02-28T10:45:18.000Z</time>
      </trkpt>
      <trkpt lat="47.16197" lon="-1.62776">
        <ele>70</ele>
        <time>2021-02-28T10:45:19.000Z</time>
      </trkpt>
      <trkpt lat="47.16189" lon="-1.62785">
        <ele>69</ele>
        <time>2021-02-28T10:45:20.000Z</time>
      </trkpt>
      <trkpt lat="47.1618" lon="-1.62792">
        <ele>69</ele>
        <time>2021-02-28T10:45:21.000Z</time>
      </trkpt>
      <trkpt lat="47.16171" lon="-1.628">
        <ele>69</ele>
        <time>2021-02-28T10:45:22.000Z</time>
      </trkpt>
      <trkpt lat="47.16162" lon="-1.62807">
        <ele>68</ele>
        <time>2021-02-28T10:45:23.000Z</time>
      </trkpt>
      <trkpt lat="47.16153" lon="-1.62814">
        <ele>68</ele>
        <time>2021-02-28T10:45:24.000Z</time>
      </trkpt>
      <trkpt lat="47.16145" lon="-1.62822">
        <ele>68</ele>
        <time>2021-02-28T10:45:25.000Z</time>
      </trkpt>
      <trkpt lat="47.16136" lon="-1.6283">
        <ele>67</ele>
        <time>2021-02-28T10:45:26.000Z</time>
      </trkpt>
      <trkpt lat="47.16127" lon="-1.62837">
        <ele>67</ele>
        <time>2021-02-28T10:45:27.000Z</time>
      </trkpt>
      <trkpt lat="47.16118" lon="-1.62844">
        <ele>66</ele>
        <time>2021-02-28T10:45:28.000Z</time>
      </trkpt>
      <trkpt lat="47.1611" lon="-1.62852">
        <ele>66</ele>
        <time>2021-02-28T10:45:29.000Z</time>
      </trkpt>
      <trkpt lat="47.16101" lon="-1.62859">
        <ele>66</ele>
        <time>2021-02-28T10:45:30.000Z</time>
      </trkpt>
      <trkpt lat="47.16093" lon="-1.62866">
        <ele>66</ele>
        <time>2021-02-28T10:45:31.000Z</time>
      </trkpt>
      <trkpt lat="47.16084" lon="-1.62873">
        <ele>65</ele>
        <time>2021-02-28T10:45:32.000Z</time>
      </trkpt>
      <trkpt lat="47.16076" lon="-1.62881">
        <ele>65</ele>
        <time>2021-02-28T10:45:33.000Z</time>
      </trkpt>
      <trkpt lat="47.16067" lon="-1.62889">
        <ele>65</ele>
        <time>2021-02-28T10:45:34.000Z</time>
      </trkpt>
      <trkpt lat="47.16059" lon="-1.62896">
        <ele>65</ele>
        <time>2021-02-28T10:45:35.000Z</time>
      </trkpt>
      <trkpt lat="47.1605" lon="-1.62903">
        <ele>65</ele>
        <time>2021-02-28T10:45:36.000Z</time>
      </trkpt>
      <trkpt lat="47.16041" lon="-1.6291">
        <ele>65</ele>
        <time>2021-02-28T10:45:37.000Z</time>
      </trkpt>
      <trkpt lat="47.16033" lon="-1.62918">
        <ele>65</ele>
        <time>2021-02-28T10:45:38.000Z</time>
      </trkpt>
      <trkpt lat="47.16025" lon="-1.62925">
        <ele>65</ele>
        <time>2021-02-28T10:45:39.000Z</time>
      </trkpt>
      <trkpt lat="47.16017" lon="-1.62933">
        <ele>65</ele>
        <time>2021-02-28T10:45:40.000Z</time>
      </trkpt>
      <trkpt lat="47.16009" lon="-1.6294">
        <ele>64</ele>
        <time>2021-02-28T10:45:41.000Z</time>
      </trkpt>
      <trkpt lat="47.16001" lon="-1.62947">
        <ele>64</ele>
        <time>2021-02-28T10:45:42.000Z</time>
      </trkpt>
      <trkpt lat="47.15993" lon="-1.62954">
        <ele>64</ele>
        <time>2021-02-28T10:45:43.000Z</time>
      </trkpt>
      <trkpt lat="47.15985" lon="-1.62962">
        <ele>63</ele>
        <time>2021-02-28T10:45:44.000Z</time>
      </trkpt>
      <trkpt lat="47.15977" lon="-1.62969">
        <ele>63</ele>
        <time>2021-02-28T10:45:45.000Z</time>
      </trkpt>
      <trkpt lat="47.15968" lon="-1.62977">
        <ele>63</ele>
        <time>2021-02-28T10:45:46.000Z</time>
      </trkpt>
      <trkpt lat="47.1596" lon="-1.62984">
        <ele>62</ele>
        <time>2021-02-28T10:45:47.000Z</time>
      </trkpt>
      <trkpt lat="47.15952" lon="-1.62992">
        <ele>62</ele>
        <time>2021-02-28T10:45:48.000Z</time>
      </trkpt>
      <trkpt lat="47.15943" lon="-1.62999">
        <ele>62</ele>
        <time>2021-02-28T10:45:49.000Z</time>
      </trkpt>
      <trkpt lat="47.15935" lon="-1.63007">
        <ele>62</ele>
        <time>2021-02-28T10:45:50.000Z</time>
      </trkpt>
      <trkpt lat="47.15927" lon="-1.63014">
        <ele>61</ele>
        <time>2021-02-28T10:45:51.000Z</time>
      </trkpt>
      <trkpt lat="47.15919" lon="-1.63022">
        <ele>61</ele>
        <time>2021-02-28T10:45:52.000Z</time>
      </trkpt>
      <trkpt lat="47.15911" lon="-1.63028">
        <ele>61</ele>
        <time>2021-02-28T10:45:53.000Z</time>
      </trkpt>
      <trkpt lat="47.15903" lon="-1.63036">
        <ele>61</ele>
        <time>2021-02-28T10:45:54.000Z</time>
      </trkpt>
      <trkpt lat="47.15895" lon="-1.63042">
        <ele>61</ele>
        <time>2021-02-28T10:45:55.000Z</time>
      </trkpt>
      <trkpt lat="47.15879" lon="-1.63056">
        <ele>62</ele>
        <time>2021-02-28T10:45:57.000Z</time>
      </trkpt>
      <trkpt lat="47.15864" lon="-1.6307">
        <ele>62</ele>
        <time>2021-02-28T10:45:59.000Z</time>
      </trkpt>
      <trkpt lat="47.15849" lon="-1.63082">
        <ele>63</ele>
        <time>2021-02-28T10:46:01.000Z</time>
      </trkpt>
      <trkpt lat="47.15835" lon="-1.63096">
        <ele>64</ele>
        <time>2021-02-28T10:46:03.000Z</time>
      </trkpt>
      <trkpt lat="47.15822" lon="-1.63108">
        <ele>64</ele>
        <time>2021-02-28T10:46:05.000Z</time>
      </trkpt>
      <trkpt lat="47.15808" lon="-1.6312">
        <ele>65</ele>
        <time>2021-02-28T10:46:07.000Z</time>
      </trkpt>
      <trkpt lat="47.15795" lon="-1.63132">
        <ele>65</ele>
        <time>2021-02-28T10:46:09.000Z</time>
      </trkpt>
      <trkpt lat="47.15781" lon="-1.63144">
        <ele>65</ele>
        <time>2021-02-28T10:46:11.000Z</time>
      </trkpt>
      <trkpt lat="47.15768" lon="-1.63156">
        <ele>66</ele>
        <time>2021-02-28T10:46:13.000Z</time>
      </trkpt>
      <trkpt lat="47.15754" lon="-1.63168">
        <ele>67</ele>
        <time>2021-02-28T10:46:15.000Z</time>
      </trkpt>
      <trkpt lat="47.1574" lon="-1.63179">
        <ele>67</ele>
        <time>2021-02-28T10:46:17.000Z</time>
      </trkpt>
      <trkpt lat="47.15727" lon="-1.63192">
        <ele>67</ele>
        <time>2021-02-28T10:46:19.000Z</time>
      </trkpt>
      <trkpt lat="47.15713" lon="-1.63203">
        <ele>67</ele>
        <time>2021-02-28T10:46:21.000Z</time>
      </trkpt>
      <trkpt lat="47.157" lon="-1.63215">
        <ele>67</ele>
        <time>2021-02-28T10:46:23.000Z</time>
      </trkpt>
      <trkpt lat="47.15688" lon="-1.63226">
        <ele>66</ele>
        <time>2021-02-28T10:46:25.000Z</time>
      </trkpt>
      <trkpt lat="47.15675" lon="-1.63238">
        <ele>66</ele>
        <time>2021-02-28T10:46:27.000Z</time>
      </trkpt>
      <trkpt lat="47.15661" lon="-1.63249">
        <ele>66</ele>
        <time>2021-02-28T10:46:29.000Z</time>
      </trkpt>
      <trkpt lat="47.15648" lon="-1.63261">
        <ele>66</ele>
        <time>2021-02-28T10:46:31.000Z</time>
      </trkpt>
      <trkpt lat="47.15635" lon="-1.63274">
        <ele>65</ele>
        <time>2021-02-28T10:46:33.000Z</time>
      </trkpt>
      <trkpt lat="47.15622" lon="-1.63286">
        <ele>65</ele>
        <time>2021-02-28T10:46:35.000Z</time>
      </trkpt>
      <trkpt lat="47.15607" lon="-1.63298">
        <ele>66</ele>
        <time>2021-02-28T10:46:37.000Z</time>
      </trkpt>
      <trkpt lat="47.15594" lon="-1.63309">
        <ele>66</ele>
        <time>2021-02-28T10:46:39.000Z</time>
      </trkpt>
      <trkpt lat="47.15581" lon="-1.6332">
        <ele>66</ele>
        <time>2021-02-28T10:46:41.000Z</time>
      </trkpt>
      <trkpt lat="47.15569" lon="-1.63332">
        <ele>67</ele>
        <time>2021-02-28T10:46:43.000Z</time>
      </trkpt>
      <trkpt lat="47.15556" lon="-1.63343">
        <ele>68</ele>
        <time>2021-02-28T10:46:45.000Z</time>
      </trkpt>
      <trkpt lat="47.15544" lon="-1.63354">
        <ele>68</ele>
        <time>2021-02-28T10:46:47.000Z</time>
      </trkpt>
      <trkpt lat="47.15532" lon="-1.63365">
        <ele>69</ele>
        <time>2021-02-28T10:46:49.000Z</time>
      </trkpt>
      <trkpt lat="47.15519" lon="-1.63376">
        <ele>70</ele>
        <time>2021-02-28T10:46:51.000Z</time>
      </trkpt>
      <trkpt lat="47.15507" lon="-1.63388">
        <ele>71</ele>
        <time>2021-02-28T10:46:53.000Z</time>
      </trkpt>
      <trkpt lat="47.15495" lon="-1.63399">
        <ele>71</ele>
        <time>2021-02-28T10:46:55.000Z</time>
      </trkpt>
      <trkpt lat="47.15482" lon="-1.6341">
        <ele>71</ele>
        <time>2021-02-28T10:46:57.000Z</time>
      </trkpt>
      <trkpt lat="47.1547" lon="-1.63421">
        <ele>71</ele>
        <time>2021-02-28T10:46:59.000Z</time>
      </trkpt>
      <trkpt lat="47.15458" lon="-1.63433">
        <ele>72</ele>
        <time>2021-02-28T10:47:01.000Z</time>
      </trkpt>
      <trkpt lat="47.15446" lon="-1.63443">
        <ele>72</ele>
        <time>2021-02-28T10:47:03.000Z</time>
      </trkpt>
      <trkpt lat="47.15435" lon="-1.63454">
        <ele>72</ele>
        <time>2021-02-28T10:47:05.000Z</time>
      </trkpt>
      <trkpt lat="47.15423" lon="-1.63465">
        <ele>73</ele>
        <time>2021-02-28T10:47:07.000Z</time>
      </trkpt>
      <trkpt lat="47.15412" lon="-1.63476">
        <ele>72</ele>
        <time>2021-02-28T10:47:09.000Z</time>
      </trkpt>
      <trkpt lat="47.15402" lon="-1.6349">
        <ele>72</ele>
        <time>2021-02-28T10:47:11.000Z</time>
      </trkpt>
      <trkpt lat="47.15393" lon="-1.63504">
        <ele>73</ele>
        <time>2021-02-28T10:47:13.000Z</time>
      </trkpt>
      <trkpt lat="47.15382" lon="-1.63512">
        <ele>72</ele>
        <time>2021-02-28T10:47:15.000Z</time>
      </trkpt>
      <trkpt lat="47.15368" lon="-1.63515">
        <ele>72</ele>
        <time>2021-02-28T10:47:17.000Z</time>
      </trkpt>
      <trkpt lat="47.15356" lon="-1.63527">
        <ele>72</ele>
        <time>2021-02-28T10:47:19.000Z</time>
      </trkpt>
      <trkpt lat="47.15344" lon="-1.63539">
        <ele>72</ele>
        <time>2021-02-28T10:47:21.000Z</time>
      </trkpt>
      <trkpt lat="47.15332" lon="-1.6355">
        <ele>72</ele>
        <time>2021-02-28T10:47:23.000Z</time>
      </trkpt>
      <trkpt lat="47.1532" lon="-1.63559">
        <ele>72</ele>
        <time>2021-02-28T10:47:25.000Z</time>
      </trkpt>
      <trkpt lat="47.15308" lon="-1.63567">
        <ele>72</ele>
        <time>2021-02-28T10:47:27.000Z</time>
      </trkpt>
      <trkpt lat="47.15296" lon="-1.63578">
        <ele>72</ele>
        <time>2021-02-28T10:47:29.000Z</time>
      </trkpt>
      <trkpt lat="47.15284" lon="-1.63589">
        <ele>73</ele>
        <time>2021-02-28T10:47:31.000Z</time>
      </trkpt>
      <trkpt lat="47.15272" lon="-1.63599">
        <ele>72</ele>
        <time>2021-02-28T10:47:33.000Z</time>
      </trkpt>
      <trkpt lat="47.1526" lon="-1.63609">
        <ele>72</ele>
        <time>2021-02-28T10:47:35.000Z</time>
      </trkpt>
      <trkpt lat="47.15248" lon="-1.63619">
        <ele>71</ele>
        <time>2021-02-28T10:47:37.000Z</time>
      </trkpt>
      <trkpt lat="47.15236" lon="-1.63629">
        <ele>72</ele>
        <time>2021-02-28T10:47:39.000Z</time>
      </trkpt>
      <trkpt lat="47.15224" lon="-1.6364">
        <ele>72</ele>
        <time>2021-02-28T10:47:41.000Z</time>
      </trkpt>
      <trkpt lat="47.15212" lon="-1.63651">
        <ele>72</ele>
        <time>2021-02-28T10:47:43.000Z</time>
      </trkpt>
      <trkpt lat="47.15199" lon="-1.63661">
        <ele>72</ele>
        <time>2021-02-28T10:47:45.000Z</time>
      </trkpt>
      <trkpt lat="47.15186" lon="-1.63672">
        <ele>72</ele>
        <time>2021-02-28T10:47:47.000Z</time>
      </trkpt>
      <trkpt lat="47.15174" lon="-1.63683">
        <ele>71</ele>
        <time>2021-02-28T10:47:49.000Z</time>
      </trkpt>
      <trkpt lat="47.15161" lon="-1.63694">
        <ele>71</ele>
        <time>2021-02-28T10:47:51.000Z</time>
      </trkpt>
      <trkpt lat="47.15149" lon="-1.63706">
        <ele>71</ele>
        <time>2021-02-28T10:47:53.000Z</time>
      </trkpt>
      <trkpt lat="47.15137" lon="-1.63717">
        <ele>70</ele>
        <time>2021-02-28T10:47:55.000Z</time>
      </trkpt>
      <trkpt lat="47.15125" lon="-1.63729">
        <ele>71</ele>
        <time>2021-02-28T10:47:57.000Z</time>
      </trkpt>
      <trkpt lat="47.15113" lon="-1.63742">
        <ele>70</ele>
        <time>2021-02-28T10:47:59.000Z</time>
      </trkpt>
      <trkpt lat="47.15101" lon="-1.63755">
        <ele>70</ele>
        <time>2021-02-28T10:48:01.000Z</time>
      </trkpt>
      <trkpt lat="47.1509" lon="-1.63768">
        <ele>70</ele>
        <time>2021-02-28T10:48:03.000Z</time>
      </trkpt>
      <trkpt lat="47.15079" lon="-1.63782">
        <ele>70</ele>
        <time>2021-02-28T10:48:05.000Z</time>
      </trkpt>
      <trkpt lat="47.15067" lon="-1.63795">
        <ele>70</ele>
        <time>2021-02-28T10:48:07.000Z</time>
      </trkpt>
      <trkpt lat="47.15057" lon="-1.63809">
        <ele>70</ele>
        <time>2021-02-28T10:48:09.000Z</time>
      </trkpt>
      <trkpt lat="47.15045" lon="-1.63823">
        <ele>70</ele>
        <time>2021-02-28T10:48:11.000Z</time>
      </trkpt>
      <trkpt lat="47.15034" lon="-1.63838">
        <ele>71</ele>
        <time>2021-02-28T10:48:13.000Z</time>
      </trkpt>
      <trkpt lat="47.15023" lon="-1.63854">
        <ele>71</ele>
        <time>2021-02-28T10:48:15.000Z</time>
      </trkpt>
      <trkpt lat="47.15013" lon="-1.6387">
        <ele>71</ele>
        <time>2021-02-28T10:48:17.000Z</time>
      </trkpt>
      <trkpt lat="47.15003" lon="-1.63885">
        <ele>72</ele>
        <time>2021-02-28T10:48:19.000Z</time>
      </trkpt>
      <trkpt lat="47.14993" lon="-1.639">
        <ele>72</ele>
        <time>2021-02-28T10:48:21.000Z</time>
      </trkpt>
      <trkpt lat="47.14983" lon="-1.63915">
        <ele>72</ele>
        <time>2021-02-28T10:48:23.000Z</time>
      </trkpt>
      <trkpt lat="47.14973" lon="-1.63931">
        <ele>72</ele>
        <time>2021-02-28T10:48:25.000Z</time>
      </trkpt>
      <trkpt lat="47.14963" lon="-1.63948">
        <ele>72</ele>
        <time>2021-02-28T10:48:27.000Z</time>
      </trkpt>
      <trkpt lat="47.14954" lon="-1.63965">
        <ele>72</ele>
        <time>2021-02-28T10:48:29.000Z</time>
      </trkpt>
      <trkpt lat="47.14945" lon="-1.63982">
        <ele>72</ele>
        <time>2021-02-28T10:48:31.000Z</time>
      </trkpt>
      <trkpt lat="47.14932" lon="-1.63996">
        <ele>72</ele>
        <time>2021-02-28T10:48:33.000Z</time>
      </trkpt>
      <trkpt lat="47.14919" lon="-1.64012">
        <ele>72</ele>
        <time>2021-02-28T10:48:35.000Z</time>
      </trkpt>
      <trkpt lat="47.1491" lon="-1.6403">
        <ele>72</ele>
        <time>2021-02-28T10:48:37.000Z</time>
      </trkpt>
      <trkpt lat="47.14898" lon="-1.64041">
        <ele>72</ele>
        <time>2021-02-28T10:48:39.000Z</time>
      </trkpt>
      <trkpt lat="47.14882" lon="-1.64031">
        <ele>72</ele>
        <time>2021-02-28T10:48:41.000Z</time>
      </trkpt>
      <trkpt lat="47.14871" lon="-1.64013">
        <ele>73</ele>
        <time>2021-02-28T10:48:43.000Z</time>
      </trkpt>
      <trkpt lat="47.14861" lon="-1.63996">
        <ele>72</ele>
        <time>2021-02-28T10:48:45.000Z</time>
      </trkpt>
      <trkpt lat="47.14849" lon="-1.63988">
        <ele>72</ele>
        <time>2021-02-28T10:48:47.000Z</time>
      </trkpt>
      <trkpt lat="47.14835" lon="-1.63984">
        <ele>71</ele>
        <time>2021-02-28T10:48:49.000Z</time>
      </trkpt>
      <trkpt lat="47.14821" lon="-1.63993">
        <ele>71</ele>
        <time>2021-02-28T10:48:51.000Z</time>
      </trkpt>
      <trkpt lat="47.14809" lon="-1.64006">
        <ele>71</ele>
        <time>2021-02-28T10:48:53.000Z</time>
      </trkpt>
      <trkpt lat="47.14797" lon="-1.64019">
        <ele>71</ele>
        <time>2021-02-28T10:48:55.000Z</time>
      </trkpt>
      <trkpt lat="47.14785" lon="-1.64031">
        <ele>71</ele>
        <time>2021-02-28T10:48:57.000Z</time>
      </trkpt>
      <trkpt lat="47.14772" lon="-1.64041">
        <ele>71</ele>
        <time>2021-02-28T10:48:59.000Z</time>
      </trkpt>
      <trkpt lat="47.14758" lon="-1.6405">
        <ele>71</ele>
        <time>2021-02-28T10:49:01.000Z</time>
      </trkpt>
      <trkpt lat="47.14744" lon="-1.64057">
        <ele>72</ele>
        <time>2021-02-28T10:49:03.000Z</time>
      </trkpt>
      <trkpt lat="47.1473" lon="-1.64063">
        <ele>72</ele>
        <time>2021-02-28T10:49:05.000Z</time>
      </trkpt>
      <trkpt lat="47.14715" lon="-1.64069">
        <ele>72</ele>
        <time>2021-02-28T10:49:07.000Z</time>
      </trkpt>
      <trkpt lat="47.14701" lon="-1.64074">
        <ele>73</ele>
        <time>2021-02-28T10:49:09.000Z</time>
      </trkpt>
      <trkpt lat="47.14688" lon="-1.6408">
        <ele>73</ele>
        <time>2021-02-28T10:49:11.000Z</time>
      </trkpt>
      <trkpt lat="47.14674" lon="-1.64086">
        <ele>74</ele>
        <time>2021-02-28T10:49:13.000Z</time>
      </trkpt>
      <trkpt lat="47.1466" lon="-1.64093">
        <ele>74</ele>
        <time>2021-02-28T10:49:15.000Z</time>
      </trkpt>
      <trkpt lat="47.14647" lon="-1.641">
        <ele>73</ele>
        <time>2021-02-28T10:49:17.000Z</time>
      </trkpt>
      <trkpt lat="47.14632" lon="-1.64108">
        <ele>72</ele>
        <time>2021-02-28T10:49:19.000Z</time>
      </trkpt>
      <trkpt lat="47.14618" lon="-1.64115">
        <ele>72</ele>
        <time>2021-02-28T10:49:21.000Z</time>
      </trkpt>
      <trkpt lat="47.14604" lon="-1.64123">
        <ele>73</ele>
        <time>2021-02-28T10:49:23.000Z</time>
      </trkpt>
      <trkpt lat="47.1459" lon="-1.64132">
        <ele>73</ele>
        <time>2021-02-28T10:49:25.000Z</time>
      </trkpt>
      <trkpt lat="47.14575" lon="-1.6414">
        <ele>72</ele>
        <time>2021-02-28T10:49:27.000Z</time>
      </trkpt>
      <trkpt lat="47.1456" lon="-1.64149">
        <ele>72</ele>
        <time>2021-02-28T10:49:29.000Z</time>
      </trkpt>
      <trkpt lat="47.14546" lon="-1.64158">
        <ele>72</ele>
        <time>2021-02-28T10:49:31.000Z</time>
      </trkpt>
      <trkpt lat="47.14531" lon="-1.64168">
        <ele>72</ele>
        <time>2021-02-28T10:49:33.000Z</time>
      </trkpt>
      <trkpt lat="47.14518" lon="-1.64177">
        <ele>72</ele>
        <time>2021-02-28T10:49:35.000Z</time>
      </trkpt>
      <trkpt lat="47.14504" lon="-1.64186">
        <ele>72</ele>
        <time>2021-02-28T10:49:37.000Z</time>
      </trkpt>
      <trkpt lat="47.1449" lon="-1.64195">
        <ele>71</ele>
        <time>2021-02-28T10:49:39.000Z</time>
      </trkpt>
      <trkpt lat="47.14475" lon="-1.64204">
        <ele>70</ele>
        <time>2021-02-28T10:49:41.000Z</time>
      </trkpt>
      <trkpt lat="47.1446" lon="-1.64212">
        <ele>70</ele>
        <time>2021-02-28T10:49:43.000Z</time>
      </trkpt>
      <trkpt lat="47.14445" lon="-1.64217">
        <ele>70</ele>
        <time>2021-02-28T10:49:45.000Z</time>
      </trkpt>
      <trkpt lat="47.1443" lon="-1.64221">
        <ele>70</ele>
        <time>2021-02-28T10:49:47.000Z</time>
      </trkpt>
      <trkpt lat="47.14414" lon="-1.64224">
        <ele>70</ele>
        <time>2021-02-28T10:49:49.000Z</time>
      </trkpt>
      <trkpt lat="47.14399" lon="-1.64226">
        <ele>70</ele>
        <time>2021-02-28T10:49:51.000Z</time>
      </trkpt>
      <trkpt lat="47.14385" lon="-1.64229">
        <ele>71</ele>
        <time>2021-02-28T10:49:53.000Z</time>
      </trkpt>
      <trkpt lat="47.1437" lon="-1.64231">
        <ele>71</ele>
        <time>2021-02-28T10:49:55.000Z</time>
      </trkpt>
      <trkpt lat="47.14356" lon="-1.64233">
        <ele>71</ele>
        <time>2021-02-28T10:49:57.000Z</time>
      </trkpt>
      <trkpt lat="47.14341" lon="-1.64234">
        <ele>71</ele>
        <time>2021-02-28T10:49:59.000Z</time>
      </trkpt>
      <trkpt lat="47.14325" lon="-1.64237">
        <ele>71</ele>
        <time>2021-02-28T10:50:01.000Z</time>
      </trkpt>
      <trkpt lat="47.14308" lon="-1.6424">
        <ele>70</ele>
        <time>2021-02-28T10:50:03.000Z</time>
      </trkpt>
      <trkpt lat="47.14293" lon="-1.64245">
        <ele>70</ele>
        <time>2021-02-28T10:50:05.000Z</time>
      </trkpt>
      <trkpt lat="47.14277" lon="-1.64253">
        <ele>71</ele>
        <time>2021-02-28T10:50:07.000Z</time>
      </trkpt>
      <trkpt lat="47.14262" lon="-1.64262">
        <ele>71</ele>
        <time>2021-02-28T10:50:09.000Z</time>
      </trkpt>
      <trkpt lat="47.14247" lon="-1.64274">
        <ele>71</ele>
        <time>2021-02-28T10:50:11.000Z</time>
      </trkpt>
      <trkpt lat="47.14233" lon="-1.64286">
        <ele>70</ele>
        <time>2021-02-28T10:50:13.000Z</time>
      </trkpt>
      <trkpt lat="47.1422" lon="-1.64299">
        <ele>70</ele>
        <time>2021-02-28T10:50:15.000Z</time>
      </trkpt>
      <trkpt lat="47.14207" lon="-1.64312">
        <ele>70</ele>
        <time>2021-02-28T10:50:17.000Z</time>
      </trkpt>
      <trkpt lat="47.14194" lon="-1.64327">
        <ele>70</ele>
        <time>2021-02-28T10:50:19.000Z</time>
      </trkpt>
      <trkpt lat="47.14181" lon="-1.64341">
        <ele>69</ele>
        <time>2021-02-28T10:50:21.000Z</time>
      </trkpt>
      <trkpt lat="47.14168" lon="-1.64355">
        <ele>69</ele>
        <time>2021-02-28T10:50:23.000Z</time>
      </trkpt>
      <trkpt lat="47.14155" lon="-1.64368">
        <ele>68</ele>
        <time>2021-02-28T10:50:25.000Z</time>
      </trkpt>
      <trkpt lat="47.14142" lon="-1.64379">
        <ele>68</ele>
        <time>2021-02-28T10:50:27.000Z</time>
      </trkpt>
      <trkpt lat="47.14128" lon="-1.64389">
        <ele>68</ele>
        <time>2021-02-28T10:50:29.000Z</time>
      </trkpt>
      <trkpt lat="47.14114" lon="-1.644">
        <ele>68</ele>
        <time>2021-02-28T10:50:31.000Z</time>
      </trkpt>
      <trkpt lat="47.14099" lon="-1.64411">
        <ele>67</ele>
        <time>2021-02-28T10:50:33.000Z</time>
      </trkpt>
      <trkpt lat="47.14084" lon="-1.64423">
        <ele>67</ele>
        <time>2021-02-28T10:50:35.000Z</time>
      </trkpt>
      <trkpt lat="47.1407" lon="-1.64434">
        <ele>66</ele>
        <time>2021-02-28T10:50:37.000Z</time>
      </trkpt>
      <trkpt lat="47.14055" lon="-1.64444">
        <ele>66</ele>
        <time>2021-02-28T10:50:39.000Z</time>
      </trkpt>
      <trkpt lat="47.14041" lon="-1.64455">
        <ele>66</ele>
        <time>2021-02-28T10:50:41.000Z</time>
      </trkpt>
      <trkpt lat="47.14028" lon="-1.64467">
        <ele>65</ele>
        <time>2021-02-28T10:50:43.000Z</time>
      </trkpt>
      <trkpt lat="47.14014" lon="-1.64478">
        <ele>65</ele>
        <time>2021-02-28T10:50:45.000Z</time>
      </trkpt>
      <trkpt lat="47.14001" lon="-1.64488">
        <ele>65</ele>
        <time>2021-02-28T10:50:47.000Z</time>
      </trkpt>
      <trkpt lat="47.13988" lon="-1.645">
        <ele>65</ele>
        <time>2021-02-28T10:50:49.000Z</time>
      </trkpt>
      <trkpt lat="47.13975" lon="-1.64511">
        <ele>64</ele>
        <time>2021-02-28T10:50:51.000Z</time>
      </trkpt>
      <trkpt lat="47.13962" lon="-1.64524">
        <ele>64</ele>
        <time>2021-02-28T10:50:53.000Z</time>
      </trkpt>
      <trkpt lat="47.13949" lon="-1.64537">
        <ele>63</ele>
        <time>2021-02-28T10:50:55.000Z</time>
      </trkpt>
      <trkpt lat="47.13936" lon="-1.6455">
        <ele>63</ele>
        <time>2021-02-28T10:50:57.000Z</time>
      </trkpt>
      <trkpt lat="47.13924" lon="-1.64563">
        <ele>63</ele>
        <time>2021-02-28T10:50:59.000Z</time>
      </trkpt>
      <trkpt lat="47.13912" lon="-1.64575">
        <ele>64</ele>
        <time>2021-02-28T10:51:01.000Z</time>
      </trkpt>
      <trkpt lat="47.13899" lon="-1.64585">
        <ele>64</ele>
        <time>2021-02-28T10:51:03.000Z</time>
      </trkpt>
      <trkpt lat="47.13885" lon="-1.64593">
        <ele>63</ele>
        <time>2021-02-28T10:51:05.000Z</time>
      </trkpt>
      <trkpt lat="47.13869" lon="-1.64598">
        <ele>63</ele>
        <time>2021-02-28T10:51:07.000Z</time>
      </trkpt>
      <trkpt lat="47.13853" lon="-1.64601">
        <ele>63</ele>
        <time>2021-02-28T10:51:09.000Z</time>
      </trkpt>
      <trkpt lat="47.13838" lon="-1.64603">
        <ele>63</ele>
        <time>2021-02-28T10:51:11.000Z</time>
      </trkpt>
      <trkpt lat="47.13823" lon="-1.64603">
        <ele>64</ele>
        <time>2021-02-28T10:51:13.000Z</time>
      </trkpt>
      <trkpt lat="47.13809" lon="-1.64602">
        <ele>64</ele>
        <time>2021-02-28T10:51:15.000Z</time>
      </trkpt>
      <trkpt lat="47.13796" lon="-1.64601">
        <ele>64</ele>
        <time>2021-02-28T10:51:17.000Z</time>
      </trkpt>
      <trkpt lat="47.13782" lon="-1.64597">
        <ele>64</ele>
        <time>2021-02-28T10:51:19.000Z</time>
      </trkpt>
      <trkpt lat="47.13767" lon="-1.64594">
        <ele>65</ele>
        <time>2021-02-28T10:51:21.000Z</time>
      </trkpt>
      <trkpt lat="47.13753" lon="-1.6459">
        <ele>65</ele>
        <time>2021-02-28T10:51:23.000Z</time>
      </trkpt>
      <trkpt lat="47.13738" lon="-1.64587">
        <ele>65</ele>
        <time>2021-02-28T10:51:25.000Z</time>
      </trkpt>
      <trkpt lat="47.13724" lon="-1.64584">
        <ele>65</ele>
        <time>2021-02-28T10:51:27.000Z</time>
      </trkpt>
      <trkpt lat="47.13711" lon="-1.6458">
        <ele>65</ele>
        <time>2021-02-28T10:51:29.000Z</time>
      </trkpt>
      <trkpt lat="47.13697" lon="-1.64577">
        <ele>65</ele>
        <time>2021-02-28T10:51:31.000Z</time>
      </trkpt>
      <trkpt lat="47.13684" lon="-1.64573">
        <ele>65</ele>
        <time>2021-02-28T10:51:33.000Z</time>
      </trkpt>
      <trkpt lat="47.1367" lon="-1.64569">
        <ele>66</ele>
        <time>2021-02-28T10:51:35.000Z</time>
      </trkpt>
      <trkpt lat="47.13656" lon="-1.64566">
        <ele>66</ele>
        <time>2021-02-28T10:51:37.000Z</time>
      </trkpt>
      <trkpt lat="47.13643" lon="-1.64563">
        <ele>67</ele>
        <time>2021-02-28T10:51:39.000Z</time>
      </trkpt>
      <trkpt lat="47.13629" lon="-1.6456">
        <ele>68</ele>
        <time>2021-02-28T10:51:41.000Z</time>
      </trkpt>
      <trkpt lat="47.13616" lon="-1.64559">
        <ele>68</ele>
        <time>2021-02-28T10:51:43.000Z</time>
      </trkpt>
      <trkpt lat="47.13603" lon="-1.64558">
        <ele>69</ele>
        <time>2021-02-28T10:51:45.000Z</time>
      </trkpt>
      <trkpt lat="47.13589" lon="-1.64559">
        <ele>69</ele>
        <time>2021-02-28T10:51:47.000Z</time>
      </trkpt>
      <trkpt lat="47.13576" lon="-1.64565">
        <ele>69</ele>
        <time>2021-02-28T10:51:49.000Z</time>
      </trkpt>
      <trkpt lat="47.13564" lon="-1.64573">
        <ele>69</ele>
        <time>2021-02-28T10:51:51.000Z</time>
      </trkpt>
      <trkpt lat="47.13552" lon="-1.64583">
        <ele>69</ele>
        <time>2021-02-28T10:51:53.000Z</time>
      </trkpt>
      <trkpt lat="47.13541" lon="-1.64595">
        <ele>70</ele>
        <time>2021-02-28T10:51:55.000Z</time>
      </trkpt>
      <trkpt lat="47.1353" lon="-1.64606">
        <ele>70</ele>
        <time>2021-02-28T10:51:57.000Z</time>
      </trkpt>
      <trkpt lat="47.13518" lon="-1.64618">
        <ele>70</ele>
        <time>2021-02-28T10:51:59.000Z</time>
      </trkpt>
      <trkpt lat="47.13506" lon="-1.6463">
        <ele>70</ele>
        <time>2021-02-28T10:52:01.000Z</time>
      </trkpt>
      <trkpt lat="47.13494" lon="-1.64639">
        <ele>71</ele>
        <time>2021-02-28T10:52:03.000Z</time>
      </trkpt>
      <trkpt lat="47.13481" lon="-1.64644">
        <ele>72</ele>
        <time>2021-02-28T10:52:05.000Z</time>
      </trkpt>
      <trkpt lat="47.13467" lon="-1.64646">
        <ele>72</ele>
        <time>2021-02-28T10:52:07.000Z</time>
      </trkpt>
      <trkpt lat="47.13453" lon="-1.64645">
        <ele>72</ele>
        <time>2021-02-28T10:52:09.000Z</time>
      </trkpt>
      <trkpt lat="47.1344" lon="-1.64644">
        <ele>72</ele>
        <time>2021-02-28T10:52:11.000Z</time>
      </trkpt>
      <trkpt lat="47.13428" lon="-1.64643">
        <ele>72</ele>
        <time>2021-02-28T10:52:13.000Z</time>
      </trkpt>
      <trkpt lat="47.13417" lon="-1.64642">
        <ele>73</ele>
        <time>2021-02-28T10:52:15.000Z</time>
      </trkpt>
      <trkpt lat="47.13407" lon="-1.64642">
        <ele>73</ele>
        <time>2021-02-28T10:52:18.000Z</time>
      </trkpt>
      <trkpt lat="47.13398" lon="-1.64626">
        <ele>73</ele>
        <time>2021-02-28T10:52:24.000Z</time>
      </trkpt>
      <trkpt lat="47.13395" lon="-1.64608">
        <ele>73</ele>
        <time>2021-02-28T10:52:26.000Z</time>
      </trkpt>
      <trkpt lat="47.13391" lon="-1.6459">
        <ele>72</ele>
        <time>2021-02-28T10:52:28.000Z</time>
      </trkpt>
      <trkpt lat="47.13388" lon="-1.64571">
        <ele>73</ele>
        <time>2021-02-28T10:52:30.000Z</time>
      </trkpt>
      <trkpt lat="47.13384" lon="-1.64553">
        <ele>72</ele>
        <time>2021-02-28T10:52:32.000Z</time>
      </trkpt>
      <trkpt lat="47.1338" lon="-1.64535">
        <ele>72</ele>
        <time>2021-02-28T10:52:34.000Z</time>
      </trkpt>
      <trkpt lat="47.13374" lon="-1.64518">
        <ele>72</ele>
        <time>2021-02-28T10:52:36.000Z</time>
      </trkpt>
      <trkpt lat="47.13368" lon="-1.645">
        <ele>71</ele>
        <time>2021-02-28T10:52:38.000Z</time>
      </trkpt>
      <trkpt lat="47.13361" lon="-1.64482">
        <ele>71</ele>
        <time>2021-02-28T10:52:40.000Z</time>
      </trkpt>
      <trkpt lat="47.1335" lon="-1.64456">
        <ele>70</ele>
        <time>2021-02-28T10:52:43.000Z</time>
      </trkpt>
      <trkpt lat="47.13341" lon="-1.64438">
        <ele>69</ele>
        <time>2021-02-28T10:52:45.000Z</time>
      </trkpt>
      <trkpt lat="47.13332" lon="-1.6442">
        <ele>69</ele>
        <time>2021-02-28T10:52:47.000Z</time>
      </trkpt>
      <trkpt lat="47.13319" lon="-1.64392">
        <ele>68</ele>
        <time>2021-02-28T10:52:50.000Z</time>
      </trkpt>
      <trkpt lat="47.1331" lon="-1.64374">
        <ele>68</ele>
        <time>2021-02-28T10:52:52.000Z</time>
      </trkpt>
      <trkpt lat="47.13301" lon="-1.64355">
        <ele>68</ele>
        <time>2021-02-28T10:52:54.000Z</time>
      </trkpt>
      <trkpt lat="47.13292" lon="-1.64336">
        <ele>67</ele>
        <time>2021-02-28T10:52:56.000Z</time>
      </trkpt>
      <trkpt lat="47.13282" lon="-1.64316">
        <ele>67</ele>
        <time>2021-02-28T10:52:58.000Z</time>
      </trkpt>
      <trkpt lat="47.13274" lon="-1.64297">
        <ele>67</ele>
        <time>2021-02-28T10:53:00.000Z</time>
      </trkpt>
      <trkpt lat="47.13265" lon="-1.64278">
        <ele>66</ele>
        <time>2021-02-28T10:53:02.000Z</time>
      </trkpt>
      <trkpt lat="47.13256" lon="-1.64259">
        <ele>65</ele>
        <time>2021-02-28T10:53:04.000Z</time>
      </trkpt>
      <trkpt lat="47.13248" lon="-1.64241">
        <ele>65</ele>
        <time>2021-02-28T10:53:06.000Z</time>
      </trkpt>
      <trkpt lat="47.1324" lon="-1.64222">
        <ele>65</ele>
        <time>2021-02-28T10:53:08.000Z</time>
      </trkpt>
      <trkpt lat="47.13231" lon="-1.64204">
        <ele>65</ele>
        <time>2021-02-28T10:53:10.000Z</time>
      </trkpt>
      <trkpt lat="47.13222" lon="-1.64188">
        <ele>65</ele>
        <time>2021-02-28T10:53:12.000Z</time>
      </trkpt>
      <trkpt lat="47.13214" lon="-1.6417">
        <ele>64</ele>
        <time>2021-02-28T10:53:14.000Z</time>
      </trkpt>
      <trkpt lat="47.13206" lon="-1.64153">
        <ele>64</ele>
        <time>2021-02-28T10:53:16.000Z</time>
      </trkpt>
      <trkpt lat="47.13198" lon="-1.64136">
        <ele>63</ele>
        <time>2021-02-28T10:53:18.000Z</time>
      </trkpt>
      <trkpt lat="47.13191" lon="-1.64118">
        <ele>63</ele>
        <time>2021-02-28T10:53:20.000Z</time>
      </trkpt>
      <trkpt lat="47.1318" lon="-1.6409">
        <ele>63</ele>
        <time>2021-02-28T10:53:23.000Z</time>
      </trkpt>
      <trkpt lat="47.13172" lon="-1.64073">
        <ele>63</ele>
        <time>2021-02-28T10:53:25.000Z</time>
      </trkpt>
      <trkpt lat="47.13165" lon="-1.64055">
        <ele>63</ele>
        <time>2021-02-28T10:53:27.000Z</time>
      </trkpt>
      <trkpt lat="47.13157" lon="-1.64037">
        <ele>62</ele>
        <time>2021-02-28T10:53:29.000Z</time>
      </trkpt>
      <trkpt lat="47.13147" lon="-1.64011">
        <ele>62</ele>
        <time>2021-02-28T10:53:32.000Z</time>
      </trkpt>
      <trkpt lat="47.13139" lon="-1.63993">
        <ele>62</ele>
        <time>2021-02-28T10:53:34.000Z</time>
      </trkpt>
      <trkpt lat="47.13132" lon="-1.63975">
        <ele>63</ele>
        <time>2021-02-28T10:53:36.000Z</time>
      </trkpt>
      <trkpt lat="47.13126" lon="-1.63957">
        <ele>62</ele>
        <time>2021-02-28T10:53:38.000Z</time>
      </trkpt>
      <trkpt lat="47.13119" lon="-1.63939">
        <ele>62</ele>
        <time>2021-02-28T10:53:40.000Z</time>
      </trkpt>
      <trkpt lat="47.13112" lon="-1.6392">
        <ele>62</ele>
        <time>2021-02-28T10:53:42.000Z</time>
      </trkpt>
      <trkpt lat="47.13105" lon="-1.63901">
        <ele>62</ele>
        <time>2021-02-28T10:53:44.000Z</time>
      </trkpt>
      <trkpt lat="47.13098" lon="-1.63882">
        <ele>61</ele>
        <time>2021-02-28T10:53:46.000Z</time>
      </trkpt>
      <trkpt lat="47.13088" lon="-1.63854">
        <ele>61</ele>
        <time>2021-02-28T10:53:49.000Z</time>
      </trkpt>
      <trkpt lat="47.13077" lon="-1.63827">
        <ele>61</ele>
        <time>2021-02-28T10:53:52.000Z</time>
      </trkpt>
      <trkpt lat="47.13069" lon="-1.6381">
        <ele>60</ele>
        <time>2021-02-28T10:53:54.000Z</time>
      </trkpt>
      <trkpt lat="47.13061" lon="-1.63792">
        <ele>60</ele>
        <time>2021-02-28T10:53:56.000Z</time>
      </trkpt>
      <trkpt lat="47.13053" lon="-1.63775">
        <ele>60</ele>
        <time>2021-02-28T10:53:58.000Z</time>
      </trkpt>
      <trkpt lat="47.13045" lon="-1.63759">
        <ele>61</ele>
        <time>2021-02-28T10:54:00.000Z</time>
      </trkpt>
      <trkpt lat="47.13037" lon="-1.63743">
        <ele>61</ele>
        <time>2021-02-28T10:54:02.000Z</time>
      </trkpt>
      <trkpt lat="47.13029" lon="-1.63728">
        <ele>61</ele>
        <time>2021-02-28T10:54:04.000Z</time>
      </trkpt>
      <trkpt lat="47.13022" lon="-1.63713">
        <ele>61</ele>
        <time>2021-02-28T10:54:06.000Z</time>
      </trkpt>
      <trkpt lat="47.13014" lon="-1.63696">
        <ele>62</ele>
        <time>2021-02-28T10:54:08.000Z</time>
      </trkpt>
      <trkpt lat="47.13006" lon="-1.6368">
        <ele>62</ele>
        <time>2021-02-28T10:54:10.000Z</time>
      </trkpt>
      <trkpt lat="47.12997" lon="-1.63663">
        <ele>61</ele>
        <time>2021-02-28T10:54:12.000Z</time>
      </trkpt>
      <trkpt lat="47.12991" lon="-1.63644">
        <ele>60</ele>
        <time>2021-02-28T10:54:14.000Z</time>
      </trkpt>
      <trkpt lat="47.12985" lon="-1.63625">
        <ele>60</ele>
        <time>2021-02-28T10:54:16.000Z</time>
      </trkpt>
      <trkpt lat="47.12979" lon="-1.63606">
        <ele>59</ele>
        <time>2021-02-28T10:54:18.000Z</time>
      </trkpt>
      <trkpt lat="47.12969" lon="-1.6358">
        <ele>58</ele>
        <time>2021-02-28T10:54:21.000Z</time>
      </trkpt>
      <trkpt lat="47.12962" lon="-1.63563">
        <ele>58</ele>
        <time>2021-02-28T10:54:23.000Z</time>
      </trkpt>
      <trkpt lat="47.12954" lon="-1.63545">
        <ele>58</ele>
        <time>2021-02-28T10:54:25.000Z</time>
      </trkpt>
      <trkpt lat="47.12947" lon="-1.63528">
        <ele>58</ele>
        <time>2021-02-28T10:54:27.000Z</time>
      </trkpt>
      <trkpt lat="47.12941" lon="-1.6351">
        <ele>58</ele>
        <time>2021-02-28T10:54:29.000Z</time>
      </trkpt>
      <trkpt lat="47.12934" lon="-1.63491">
        <ele>58</ele>
        <time>2021-02-28T10:54:31.000Z</time>
      </trkpt>
      <trkpt lat="47.12928" lon="-1.63473">
        <ele>58</ele>
        <time>2021-02-28T10:54:33.000Z</time>
      </trkpt>
      <trkpt lat="47.12921" lon="-1.63455">
        <ele>58</ele>
        <time>2021-02-28T10:54:35.000Z</time>
      </trkpt>
      <trkpt lat="47.12914" lon="-1.63438">
        <ele>57</ele>
        <time>2021-02-28T10:54:37.000Z</time>
      </trkpt>
      <trkpt lat="47.12907" lon="-1.6342">
        <ele>57</ele>
        <time>2021-02-28T10:54:39.000Z</time>
      </trkpt>
      <trkpt lat="47.129" lon="-1.63403">
        <ele>57</ele>
        <time>2021-02-28T10:54:41.000Z</time>
      </trkpt>
      <trkpt lat="47.12894" lon="-1.63386">
        <ele>56</ele>
        <time>2021-02-28T10:54:43.000Z</time>
      </trkpt>
      <trkpt lat="47.12887" lon="-1.63368">
        <ele>56</ele>
        <time>2021-02-28T10:54:45.000Z</time>
      </trkpt>
      <trkpt lat="47.1288" lon="-1.6335">
        <ele>56</ele>
        <time>2021-02-28T10:54:47.000Z</time>
      </trkpt>
      <trkpt lat="47.12873" lon="-1.63331">
        <ele>55</ele>
        <time>2021-02-28T10:54:49.000Z</time>
      </trkpt>
      <trkpt lat="47.12866" lon="-1.63312">
        <ele>55</ele>
        <time>2021-02-28T10:54:51.000Z</time>
      </trkpt>
      <trkpt lat="47.12859" lon="-1.63294">
        <ele>55</ele>
        <time>2021-02-28T10:54:53.000Z</time>
      </trkpt>
      <trkpt lat="47.12851" lon="-1.63276">
        <ele>55</ele>
        <time>2021-02-28T10:54:55.000Z</time>
      </trkpt>
      <trkpt lat="47.12844" lon="-1.63259">
        <ele>55</ele>
        <time>2021-02-28T10:54:57.000Z</time>
      </trkpt>
      <trkpt lat="47.12837" lon="-1.63241">
        <ele>55</ele>
        <time>2021-02-28T10:54:59.000Z</time>
      </trkpt>
      <trkpt lat="47.1283" lon="-1.63224">
        <ele>56</ele>
        <time>2021-02-28T10:55:01.000Z</time>
      </trkpt>
      <trkpt lat="47.12823" lon="-1.63207">
        <ele>57</ele>
        <time>2021-02-28T10:55:03.000Z</time>
      </trkpt>
      <trkpt lat="47.12816" lon="-1.6319">
        <ele>57</ele>
        <time>2021-02-28T10:55:05.000Z</time>
      </trkpt>
      <trkpt lat="47.12808" lon="-1.6317">
        <ele>57</ele>
        <time>2021-02-28T10:55:07.000Z</time>
      </trkpt>
      <trkpt lat="47.128" lon="-1.63153">
        <ele>58</ele>
        <time>2021-02-28T10:55:09.000Z</time>
      </trkpt>
      <trkpt lat="47.12794" lon="-1.63134">
        <ele>59</ele>
        <time>2021-02-28T10:55:11.000Z</time>
      </trkpt>
      <trkpt lat="47.12786" lon="-1.63116">
        <ele>59</ele>
        <time>2021-02-28T10:55:13.000Z</time>
      </trkpt>
      <trkpt lat="47.12779" lon="-1.63097">
        <ele>60</ele>
        <time>2021-02-28T10:55:15.000Z</time>
      </trkpt>
      <trkpt lat="47.12772" lon="-1.63079">
        <ele>60</ele>
        <time>2021-02-28T10:55:17.000Z</time>
      </trkpt>
      <trkpt lat="47.12765" lon="-1.63062">
        <ele>62</ele>
        <time>2021-02-28T10:55:19.000Z</time>
      </trkpt>
      <trkpt lat="47.12758" lon="-1.63045">
        <ele>62</ele>
        <time>2021-02-28T10:55:21.000Z</time>
      </trkpt>
      <trkpt lat="47.12752" lon="-1.63027">
        <ele>62</ele>
        <time>2021-02-28T10:55:23.000Z</time>
      </trkpt>
      <trkpt lat="47.12745" lon="-1.6301">
        <ele>63</ele>
        <time>2021-02-28T10:55:25.000Z</time>
      </trkpt>
      <trkpt lat="47.12738" lon="-1.62993">
        <ele>63</ele>
        <time>2021-02-28T10:55:27.000Z</time>
      </trkpt>
      <trkpt lat="47.12732" lon="-1.62975">
        <ele>62</ele>
        <time>2021-02-28T10:55:29.000Z</time>
      </trkpt>
      <trkpt lat="47.12725" lon="-1.62958">
        <ele>62</ele>
        <time>2021-02-28T10:55:31.000Z</time>
      </trkpt>
      <trkpt lat="47.12719" lon="-1.6294">
        <ele>62</ele>
        <time>2021-02-28T10:55:33.000Z</time>
      </trkpt>
      <trkpt lat="47.1271" lon="-1.62916">
        <ele>61</ele>
        <time>2021-02-28T10:55:36.000Z</time>
      </trkpt>
      <trkpt lat="47.12704" lon="-1.62899">
        <ele>60</ele>
        <time>2021-02-28T10:55:38.000Z</time>
      </trkpt>
      <trkpt lat="47.12697" lon="-1.62883">
        <ele>60</ele>
        <time>2021-02-28T10:55:40.000Z</time>
      </trkpt>
      <trkpt lat="47.1269" lon="-1.62867">
        <ele>61</ele>
        <time>2021-02-28T10:55:42.000Z</time>
      </trkpt>
      <trkpt lat="47.12683" lon="-1.6285">
        <ele>62</ele>
        <time>2021-02-28T10:55:44.000Z</time>
      </trkpt>
      <trkpt lat="47.12675" lon="-1.62834">
        <ele>62</ele>
        <time>2021-02-28T10:55:46.000Z</time>
      </trkpt>
      <trkpt lat="47.12667" lon="-1.62818">
        <ele>62</ele>
        <time>2021-02-28T10:55:48.000Z</time>
      </trkpt>
      <trkpt lat="47.12659" lon="-1.62801">
        <ele>61</ele>
        <time>2021-02-28T10:55:50.000Z</time>
      </trkpt>
      <trkpt lat="47.12655" lon="-1.62782">
        <ele>60</ele>
        <time>2021-02-28T10:55:52.000Z</time>
      </trkpt>
      <trkpt lat="47.12648" lon="-1.62765">
        <ele>60</ele>
        <time>2021-02-28T10:55:54.000Z</time>
      </trkpt>
      <trkpt lat="47.12641" lon="-1.62748">
        <ele>59</ele>
        <time>2021-02-28T10:55:56.000Z</time>
      </trkpt>
      <trkpt lat="47.12632" lon="-1.62732">
        <ele>59</ele>
        <time>2021-02-28T10:55:58.000Z</time>
      </trkpt>
      <trkpt lat="47.12624" lon="-1.62715">
        <ele>59</ele>
        <time>2021-02-28T10:56:00.000Z</time>
      </trkpt>
      <trkpt lat="47.12615" lon="-1.62698">
        <ele>59</ele>
        <time>2021-02-28T10:56:02.000Z</time>
      </trkpt>
      <trkpt lat="47.12603" lon="-1.62673">
        <ele>58</ele>
        <time>2021-02-28T10:56:05.000Z</time>
      </trkpt>
      <trkpt lat="47.12596" lon="-1.62657">
        <ele>58</ele>
        <time>2021-02-28T10:56:07.000Z</time>
      </trkpt>
      <trkpt lat="47.12588" lon="-1.6264">
        <ele>58</ele>
        <time>2021-02-28T10:56:09.000Z</time>
      </trkpt>
      <trkpt lat="47.12582" lon="-1.62623">
        <ele>58</ele>
        <time>2021-02-28T10:56:11.000Z</time>
      </trkpt>
      <trkpt lat="47.12576" lon="-1.62605">
        <ele>58</ele>
        <time>2021-02-28T10:56:13.000Z</time>
      </trkpt>
      <trkpt lat="47.12571" lon="-1.62586">
        <ele>58</ele>
        <time>2021-02-28T10:56:15.000Z</time>
      </trkpt>
      <trkpt lat="47.12567" lon="-1.62568">
        <ele>58</ele>
        <time>2021-02-28T10:56:17.000Z</time>
      </trkpt>
      <trkpt lat="47.12564" lon="-1.62549">
        <ele>58</ele>
        <time>2021-02-28T10:56:19.000Z</time>
      </trkpt>
      <trkpt lat="47.1256" lon="-1.6253">
        <ele>57</ele>
        <time>2021-02-28T10:56:21.000Z</time>
      </trkpt>
      <trkpt lat="47.12557" lon="-1.6251">
        <ele>57</ele>
        <time>2021-02-28T10:56:23.000Z</time>
      </trkpt>
      <trkpt lat="47.12554" lon="-1.62491">
        <ele>57</ele>
        <time>2021-02-28T10:56:25.000Z</time>
      </trkpt>
      <trkpt lat="47.1255" lon="-1.62473">
        <ele>57</ele>
        <time>2021-02-28T10:56:27.000Z</time>
      </trkpt>
      <trkpt lat="47.12546" lon="-1.62454">
        <ele>57</ele>
        <time>2021-02-28T10:56:29.000Z</time>
      </trkpt>
      <trkpt lat="47.1254" lon="-1.62435">
        <ele>57</ele>
        <time>2021-02-28T10:56:31.000Z</time>
      </trkpt>
      <trkpt lat="47.12534" lon="-1.62416">
        <ele>57</ele>
        <time>2021-02-28T10:56:33.000Z</time>
      </trkpt>
      <trkpt lat="47.12528" lon="-1.62396">
        <ele>57</ele>
        <time>2021-02-28T10:56:35.000Z</time>
      </trkpt>
      <trkpt lat="47.12521" lon="-1.62379">
        <ele>57</ele>
        <time>2021-02-28T10:56:37.000Z</time>
      </trkpt>
      <trkpt lat="47.12513" lon="-1.62361">
        <ele>57</ele>
        <time>2021-02-28T10:56:39.000Z</time>
      </trkpt>
      <trkpt lat="47.12505" lon="-1.62344">
        <ele>57</ele>
        <time>2021-02-28T10:56:41.000Z</time>
      </trkpt>
      <trkpt lat="47.12497" lon="-1.62328">
        <ele>57</ele>
        <time>2021-02-28T10:56:43.000Z</time>
      </trkpt>
      <trkpt lat="47.12488" lon="-1.62313">
        <ele>57</ele>
        <time>2021-02-28T10:56:45.000Z</time>
      </trkpt>
      <trkpt lat="47.12479" lon="-1.62299">
        <ele>57</ele>
        <time>2021-02-28T10:56:47.000Z</time>
      </trkpt>
      <trkpt lat="47.1247" lon="-1.62285">
        <ele>57</ele>
        <time>2021-02-28T10:56:49.000Z</time>
      </trkpt>
      <trkpt lat="47.12457" lon="-1.62265">
        <ele>57</ele>
        <time>2021-02-28T10:56:52.000Z</time>
      </trkpt>
      <trkpt lat="47.12447" lon="-1.62251">
        <ele>57</ele>
        <time>2021-02-28T10:56:54.000Z</time>
      </trkpt>
      <trkpt lat="47.12438" lon="-1.62237">
        <ele>57</ele>
        <time>2021-02-28T10:56:56.000Z</time>
      </trkpt>
      <trkpt lat="47.12428" lon="-1.62222">
        <ele>57</ele>
        <time>2021-02-28T10:56:58.000Z</time>
      </trkpt>
      <trkpt lat="47.12419" lon="-1.62206">
        <ele>57</ele>
        <time>2021-02-28T10:57:00.000Z</time>
      </trkpt>
      <trkpt lat="47.12411" lon="-1.6219">
        <ele>57</ele>
        <time>2021-02-28T10:57:02.000Z</time>
      </trkpt>
      <trkpt lat="47.12403" lon="-1.62174">
        <ele>57</ele>
        <time>2021-02-28T10:57:04.000Z</time>
      </trkpt>
      <trkpt lat="47.12397" lon="-1.62156">
        <ele>57</ele>
        <time>2021-02-28T10:57:06.000Z</time>
      </trkpt>
      <trkpt lat="47.12392" lon="-1.62138">
        <ele>57</ele>
        <time>2021-02-28T10:57:08.000Z</time>
      </trkpt>
      <trkpt lat="47.12387" lon="-1.62119">
        <ele>57</ele>
        <time>2021-02-28T10:57:10.000Z</time>
      </trkpt>
      <trkpt lat="47.12385" lon="-1.621">
        <ele>57</ele>
        <time>2021-02-28T10:57:12.000Z</time>
      </trkpt>
      <trkpt lat="47.12383" lon="-1.6208">
        <ele>57</ele>
        <time>2021-02-28T10:57:14.000Z</time>
      </trkpt>
      <trkpt lat="47.12383" lon="-1.62061">
        <ele>57</ele>
        <time>2021-02-28T10:57:16.000Z</time>
      </trkpt>
      <trkpt lat="47.12383" lon="-1.62042">
        <ele>57</ele>
        <time>2021-02-28T10:57:18.000Z</time>
      </trkpt>
      <trkpt lat="47.12385" lon="-1.62024">
        <ele>57</ele>
        <time>2021-02-28T10:57:20.000Z</time>
      </trkpt>
      <trkpt lat="47.12389" lon="-1.62006">
        <ele>57</ele>
        <time>2021-02-28T10:57:22.000Z</time>
      </trkpt>
      <trkpt lat="47.12393" lon="-1.61989">
        <ele>58</ele>
        <time>2021-02-28T10:57:24.000Z</time>
      </trkpt>
      <trkpt lat="47.12398" lon="-1.61972">
        <ele>59</ele>
        <time>2021-02-28T10:57:26.000Z</time>
      </trkpt>
      <trkpt lat="47.12402" lon="-1.61954">
        <ele>59</ele>
        <time>2021-02-28T10:57:28.000Z</time>
      </trkpt>
      <trkpt lat="47.12406" lon="-1.61936">
        <ele>59</ele>
        <time>2021-02-28T10:57:30.000Z</time>
      </trkpt>
      <trkpt lat="47.12411" lon="-1.61919">
        <ele>59</ele>
        <time>2021-02-28T10:57:32.000Z</time>
      </trkpt>
      <trkpt lat="47.12415" lon="-1.61902">
        <ele>60</ele>
        <time>2021-02-28T10:57:34.000Z</time>
      </trkpt>
      <trkpt lat="47.12419" lon="-1.61885">
        <ele>60</ele>
        <time>2021-02-28T10:57:36.000Z</time>
      </trkpt>
      <trkpt lat="47.12425" lon="-1.61872">
        <ele>60</ele>
        <time>2021-02-28T10:57:38.000Z</time>
      </trkpt>
      <trkpt lat="47.1243" lon="-1.61858">
        <ele>60</ele>
        <time>2021-02-28T10:57:40.000Z</time>
      </trkpt>
      <trkpt lat="47.12434" lon="-1.6184">
        <ele>60</ele>
        <time>2021-02-28T10:57:42.000Z</time>
      </trkpt>
      <trkpt lat="47.12438" lon="-1.61821">
        <ele>60</ele>
        <time>2021-02-28T10:57:44.000Z</time>
      </trkpt>
      <trkpt lat="47.12441" lon="-1.61802">
        <ele>61</ele>
        <time>2021-02-28T10:57:46.000Z</time>
      </trkpt>
      <trkpt lat="47.12446" lon="-1.61784">
        <ele>61</ele>
        <time>2021-02-28T10:57:48.000Z</time>
      </trkpt>
      <trkpt lat="47.1245" lon="-1.61767">
        <ele>61</ele>
        <time>2021-02-28T10:57:50.000Z</time>
      </trkpt>
      <trkpt lat="47.12455" lon="-1.6175">
        <ele>61</ele>
        <time>2021-02-28T10:57:52.000Z</time>
      </trkpt>
      <trkpt lat="47.12459" lon="-1.61733">
        <ele>61</ele>
        <time>2021-02-28T10:57:54.000Z</time>
      </trkpt>
      <trkpt lat="47.12464" lon="-1.61715">
        <ele>61</ele>
        <time>2021-02-28T10:57:56.000Z</time>
      </trkpt>
      <trkpt lat="47.12468" lon="-1.61698">
        <ele>61</ele>
        <time>2021-02-28T10:57:58.000Z</time>
      </trkpt>
      <trkpt lat="47.12472" lon="-1.6168">
        <ele>62</ele>
        <time>2021-02-28T10:58:00.000Z</time>
      </trkpt>
      <trkpt lat="47.12475" lon="-1.61662">
        <ele>62</ele>
        <time>2021-02-28T10:58:02.000Z</time>
      </trkpt>
      <trkpt lat="47.12478" lon="-1.61644">
        <ele>62</ele>
        <time>2021-02-28T10:58:04.000Z</time>
      </trkpt>
      <trkpt lat="47.12479" lon="-1.61625">
        <ele>62</ele>
        <time>2021-02-28T10:58:06.000Z</time>
      </trkpt>
      <trkpt lat="47.12478" lon="-1.61605">
        <ele>62</ele>
        <time>2021-02-28T10:58:08.000Z</time>
      </trkpt>
      <trkpt lat="47.12477" lon="-1.61585">
        <ele>61</ele>
        <time>2021-02-28T10:58:10.000Z</time>
      </trkpt>
      <trkpt lat="47.12475" lon="-1.61567">
        <ele>62</ele>
        <time>2021-02-28T10:58:12.000Z</time>
      </trkpt>
      <trkpt lat="47.12473" lon="-1.61549">
        <ele>62</ele>
        <time>2021-02-28T10:58:14.000Z</time>
      </trkpt>
      <trkpt lat="47.12471" lon="-1.61531">
        <ele>62</ele>
        <time>2021-02-28T10:58:16.000Z</time>
      </trkpt>
      <trkpt lat="47.12468" lon="-1.61513">
        <ele>62</ele>
        <time>2021-02-28T10:58:18.000Z</time>
      </trkpt>
      <trkpt lat="47.12466" lon="-1.61496">
        <ele>61</ele>
        <time>2021-02-28T10:58:20.000Z</time>
      </trkpt>
      <trkpt lat="47.12464" lon="-1.61477">
        <ele>61</ele>
        <time>2021-02-28T10:58:22.000Z</time>
      </trkpt>
      <trkpt lat="47.12462" lon="-1.61459">
        <ele>61</ele>
        <time>2021-02-28T10:58:24.000Z</time>
      </trkpt>
      <trkpt lat="47.1246" lon="-1.61441">
        <ele>62</ele>
        <time>2021-02-28T10:58:26.000Z</time>
      </trkpt>
      <trkpt lat="47.12458" lon="-1.61423">
        <ele>62</ele>
        <time>2021-02-28T10:58:28.000Z</time>
      </trkpt>
      <trkpt lat="47.12456" lon="-1.61407">
        <ele>62</ele>
        <time>2021-02-28T10:58:30.000Z</time>
      </trkpt>
      <trkpt lat="47.12455" lon="-1.6139">
        <ele>62</ele>
        <time>2021-02-28T10:58:32.000Z</time>
      </trkpt>
      <trkpt lat="47.12455" lon="-1.61373">
        <ele>63</ele>
        <time>2021-02-28T10:58:34.000Z</time>
      </trkpt>
      <trkpt lat="47.12456" lon="-1.61357">
        <ele>64</ele>
        <time>2021-02-28T10:58:36.000Z</time>
      </trkpt>
      <trkpt lat="47.12458" lon="-1.61341">
        <ele>64</ele>
        <time>2021-02-28T10:58:38.000Z</time>
      </trkpt>
      <trkpt lat="47.12462" lon="-1.61325">
        <ele>64</ele>
        <time>2021-02-28T10:58:40.000Z</time>
      </trkpt>
      <trkpt lat="47.12468" lon="-1.61309">
        <ele>64</ele>
        <time>2021-02-28T10:58:42.000Z</time>
      </trkpt>
      <trkpt lat="47.12473" lon="-1.61294">
        <ele>64</ele>
        <time>2021-02-28T10:58:44.000Z</time>
      </trkpt>
      <trkpt lat="47.12478" lon="-1.61279">
        <ele>65</ele>
        <time>2021-02-28T10:58:46.000Z</time>
      </trkpt>
      <trkpt lat="47.12483" lon="-1.61263">
        <ele>65</ele>
        <time>2021-02-28T10:58:48.000Z</time>
      </trkpt>
      <trkpt lat="47.12489" lon="-1.61248">
        <ele>65</ele>
        <time>2021-02-28T10:58:50.000Z</time>
      </trkpt>
      <trkpt lat="47.12493" lon="-1.61232">
        <ele>65</ele>
        <time>2021-02-28T10:58:52.000Z</time>
      </trkpt>
      <trkpt lat="47.12496" lon="-1.61216">
        <ele>66</ele>
        <time>2021-02-28T10:58:54.000Z</time>
      </trkpt>
      <trkpt lat="47.12499" lon="-1.61199">
        <ele>66</ele>
        <time>2021-02-28T10:58:56.000Z</time>
      </trkpt>
      <trkpt lat="47.12501" lon="-1.61183">
        <ele>66</ele>
        <time>2021-02-28T10:58:58.000Z</time>
      </trkpt>
      <trkpt lat="47.12503" lon="-1.61166">
        <ele>66</ele>
        <time>2021-02-28T10:59:00.000Z</time>
      </trkpt>
      <trkpt lat="47.12505" lon="-1.6115">
        <ele>66</ele>
        <time>2021-02-28T10:59:02.000Z</time>
      </trkpt>
      <trkpt lat="47.12506" lon="-1.61133">
        <ele>66</ele>
        <time>2021-02-28T10:59:04.000Z</time>
      </trkpt>
      <trkpt lat="47.12508" lon="-1.61116">
        <ele>66</ele>
        <time>2021-02-28T10:59:06.000Z</time>
      </trkpt>
      <trkpt lat="47.12509" lon="-1.61099">
        <ele>66</ele>
        <time>2021-02-28T10:59:08.000Z</time>
      </trkpt>
      <trkpt lat="47.12511" lon="-1.61083">
        <ele>66</ele>
        <time>2021-02-28T10:59:10.000Z</time>
      </trkpt>
      <trkpt lat="47.12513" lon="-1.61066">
        <ele>66</ele>
        <time>2021-02-28T10:59:12.000Z</time>
      </trkpt>
      <trkpt lat="47.12515" lon="-1.61049">
        <ele>66</ele>
        <time>2021-02-28T10:59:14.000Z</time>
      </trkpt>
      <trkpt lat="47.12516" lon="-1.61033">
        <ele>66</ele>
        <time>2021-02-28T10:59:16.000Z</time>
      </trkpt>
      <trkpt lat="47.12518" lon="-1.61016">
        <ele>65</ele>
        <time>2021-02-28T10:59:18.000Z</time>
      </trkpt>
      <trkpt lat="47.12519" lon="-1.60999">
        <ele>65</ele>
        <time>2021-02-28T10:59:20.000Z</time>
      </trkpt>
      <trkpt lat="47.12521" lon="-1.60982">
        <ele>65</ele>
        <time>2021-02-28T10:59:22.000Z</time>
      </trkpt>
      <trkpt lat="47.12522" lon="-1.60965">
        <ele>65</ele>
        <time>2021-02-28T10:59:24.000Z</time>
      </trkpt>
      <trkpt lat="47.12524" lon="-1.60949">
        <ele>65</ele>
        <time>2021-02-28T10:59:26.000Z</time>
      </trkpt>
      <trkpt lat="47.12525" lon="-1.60933">
        <ele>65</ele>
        <time>2021-02-28T10:59:28.000Z</time>
      </trkpt>
      <trkpt lat="47.12526" lon="-1.60917">
        <ele>65</ele>
        <time>2021-02-28T10:59:30.000Z</time>
      </trkpt>
      <trkpt lat="47.12528" lon="-1.609">
        <ele>64</ele>
        <time>2021-02-28T10:59:32.000Z</time>
      </trkpt>
      <trkpt lat="47.12529" lon="-1.60883">
        <ele>63</ele>
        <time>2021-02-28T10:59:34.000Z</time>
      </trkpt>
      <trkpt lat="47.1253" lon="-1.60867">
        <ele>64</ele>
        <time>2021-02-28T10:59:36.000Z</time>
      </trkpt>
      <trkpt lat="47.12532" lon="-1.6085">
        <ele>63</ele>
        <time>2021-02-28T10:59:38.000Z</time>
      </trkpt>
      <trkpt lat="47.12534" lon="-1.60833">
        <ele>64</ele>
        <time>2021-02-28T10:59:40.000Z</time>
      </trkpt>
      <trkpt lat="47.12536" lon="-1.60817">
        <ele>64</ele>
        <time>2021-02-28T10:59:42.000Z</time>
      </trkpt>
      <trkpt lat="47.12537" lon="-1.608">
        <ele>64</ele>
        <time>2021-02-28T10:59:44.000Z</time>
      </trkpt>
      <trkpt lat="47.1254" lon="-1.60783">
        <ele>64</ele>
        <time>2021-02-28T10:59:46.000Z</time>
      </trkpt>
      <trkpt lat="47.12541" lon="-1.60765">
        <ele>64</ele>
        <time>2021-02-28T10:59:48.000Z</time>
      </trkpt>
      <trkpt lat="47.12542" lon="-1.60747">
        <ele>64</ele>
        <time>2021-02-28T10:59:50.000Z</time>
      </trkpt>
      <trkpt lat="47.12543" lon="-1.6073">
        <ele>64</ele>
        <time>2021-02-28T10:59:52.000Z</time>
      </trkpt>
      <trkpt lat="47.12543" lon="-1.60713">
        <ele>63</ele>
        <time>2021-02-28T10:59:54.000Z</time>
      </trkpt>
      <trkpt lat="47.12543" lon="-1.60696">
        <ele>63</ele>
        <time>2021-02-28T10:59:56.000Z</time>
      </trkpt>
      <trkpt lat="47.12543" lon="-1.60677">
        <ele>63</ele>
        <time>2021-02-28T10:59:58.000Z</time>
      </trkpt>
      <trkpt lat="47.12543" lon="-1.60659">
        <ele>63</ele>
        <time>2021-02-28T11:00:00.000Z</time>
      </trkpt>
      <trkpt lat="47.12542" lon="-1.60643">
        <ele>63</ele>
        <time>2021-02-28T11:00:02.000Z</time>
      </trkpt>
      <trkpt lat="47.12541" lon="-1.60625">
        <ele>63</ele>
        <time>2021-02-28T11:00:04.000Z</time>
      </trkpt>
      <trkpt lat="47.12541" lon="-1.60608">
        <ele>63</ele>
        <time>2021-02-28T11:00:06.000Z</time>
      </trkpt>
      <trkpt lat="47.12541" lon="-1.6059">
        <ele>63</ele>
        <time>2021-02-28T11:00:08.000Z</time>
      </trkpt>
      <trkpt lat="47.1254" lon="-1.60572">
        <ele>63</ele>
        <time>2021-02-28T11:00:10.000Z</time>
      </trkpt>
      <trkpt lat="47.1254" lon="-1.60554">
        <ele>62</ele>
        <time>2021-02-28T11:00:12.000Z</time>
      </trkpt>
      <trkpt lat="47.12539" lon="-1.60536">
        <ele>62</ele>
        <time>2021-02-28T11:00:14.000Z</time>
      </trkpt>
      <trkpt lat="47.12538" lon="-1.60519">
        <ele>62</ele>
        <time>2021-02-28T11:00:16.000Z</time>
      </trkpt>
      <trkpt lat="47.12537" lon="-1.60501">
        <ele>62</ele>
        <time>2021-02-28T11:00:18.000Z</time>
      </trkpt>
      <trkpt lat="47.12534" lon="-1.60484">
        <ele>62</ele>
        <time>2021-02-28T11:00:20.000Z</time>
      </trkpt>
      <trkpt lat="47.12532" lon="-1.60467">
        <ele>62</ele>
        <time>2021-02-28T11:00:22.000Z</time>
      </trkpt>
      <trkpt lat="47.12529" lon="-1.6045">
        <ele>62</ele>
        <time>2021-02-28T11:00:24.000Z</time>
      </trkpt>
      <trkpt lat="47.12526" lon="-1.60434">
        <ele>62</ele>
        <time>2021-02-28T11:00:26.000Z</time>
      </trkpt>
      <trkpt lat="47.12523" lon="-1.60417">
        <ele>62</ele>
        <time>2021-02-28T11:00:28.000Z</time>
      </trkpt>
      <trkpt lat="47.12519" lon="-1.60399">
        <ele>61</ele>
        <time>2021-02-28T11:00:30.000Z</time>
      </trkpt>
      <trkpt lat="47.12517" lon="-1.60382">
        <ele>61</ele>
        <time>2021-02-28T11:00:32.000Z</time>
      </trkpt>
      <trkpt lat="47.12514" lon="-1.60365">
        <ele>61</ele>
        <time>2021-02-28T11:00:34.000Z</time>
      </trkpt>
      <trkpt lat="47.1251" lon="-1.60348">
        <ele>60</ele>
        <time>2021-02-28T11:00:36.000Z</time>
      </trkpt>
      <trkpt lat="47.12507" lon="-1.6033">
        <ele>60</ele>
        <time>2021-02-28T11:00:38.000Z</time>
      </trkpt>
      <trkpt lat="47.12504" lon="-1.60312">
        <ele>60</ele>
        <time>2021-02-28T11:00:40.000Z</time>
      </trkpt>
      <trkpt lat="47.12501" lon="-1.60295">
        <ele>59</ele>
        <time>2021-02-28T11:00:42.000Z</time>
      </trkpt>
      <trkpt lat="47.12497" lon="-1.60279">
        <ele>59</ele>
        <time>2021-02-28T11:00:44.000Z</time>
      </trkpt>
      <trkpt lat="47.12493" lon="-1.60263">
        <ele>58</ele>
        <time>2021-02-28T11:00:46.000Z</time>
      </trkpt>
      <trkpt lat="47.12489" lon="-1.60246">
        <ele>58</ele>
        <time>2021-02-28T11:00:48.000Z</time>
      </trkpt>
      <trkpt lat="47.12486" lon="-1.60229">
        <ele>57</ele>
        <time>2021-02-28T11:00:50.000Z</time>
      </trkpt>
      <trkpt lat="47.12483" lon="-1.60212">
        <ele>57</ele>
        <time>2021-02-28T11:00:52.000Z</time>
      </trkpt>
      <trkpt lat="47.12481" lon="-1.60196">
        <ele>56</ele>
        <time>2021-02-28T11:00:54.000Z</time>
      </trkpt>
      <trkpt lat="47.12479" lon="-1.6018">
        <ele>56</ele>
        <time>2021-02-28T11:00:56.000Z</time>
      </trkpt>
      <trkpt lat="47.12478" lon="-1.60163">
        <ele>56</ele>
        <time>2021-02-28T11:00:58.000Z</time>
      </trkpt>
      <trkpt lat="47.12476" lon="-1.60146">
        <ele>56</ele>
        <time>2021-02-28T11:01:00.000Z</time>
      </trkpt>
      <trkpt lat="47.12475" lon="-1.60129">
        <ele>56</ele>
        <time>2021-02-28T11:01:02.000Z</time>
      </trkpt>
      <trkpt lat="47.12474" lon="-1.60111">
        <ele>56</ele>
        <time>2021-02-28T11:01:04.000Z</time>
      </trkpt>
      <trkpt lat="47.12474" lon="-1.60094">
        <ele>56</ele>
        <time>2021-02-28T11:01:06.000Z</time>
      </trkpt>
      <trkpt lat="47.12473" lon="-1.60076">
        <ele>56</ele>
        <time>2021-02-28T11:01:08.000Z</time>
      </trkpt>
      <trkpt lat="47.12472" lon="-1.60058">
        <ele>56</ele>
        <time>2021-02-28T11:01:10.000Z</time>
      </trkpt>
      <trkpt lat="47.12471" lon="-1.60041">
        <ele>56</ele>
        <time>2021-02-28T11:01:12.000Z</time>
      </trkpt>
      <trkpt lat="47.12471" lon="-1.60022">
        <ele>56</ele>
        <time>2021-02-28T11:01:14.000Z</time>
      </trkpt>
      <trkpt lat="47.1247" lon="-1.60005">
        <ele>56</ele>
        <time>2021-02-28T11:01:16.000Z</time>
      </trkpt>
      <trkpt lat="47.12468" lon="-1.59988">
        <ele>56</ele>
        <time>2021-02-28T11:01:18.000Z</time>
      </trkpt>
      <trkpt lat="47.12468" lon="-1.59971">
        <ele>56</ele>
        <time>2021-02-28T11:01:20.000Z</time>
      </trkpt>
      <trkpt lat="47.12466" lon="-1.59952">
        <ele>56</ele>
        <time>2021-02-28T11:01:22.000Z</time>
      </trkpt>
      <trkpt lat="47.12466" lon="-1.59934">
        <ele>57</ele>
        <time>2021-02-28T11:01:24.000Z</time>
      </trkpt>
      <trkpt lat="47.12465" lon="-1.59917">
        <ele>57</ele>
        <time>2021-02-28T11:01:26.000Z</time>
      </trkpt>
      <trkpt lat="47.12464" lon="-1.599">
        <ele>58</ele>
        <time>2021-02-28T11:01:28.000Z</time>
      </trkpt>
      <trkpt lat="47.12463" lon="-1.59883">
        <ele>59</ele>
        <time>2021-02-28T11:01:30.000Z</time>
      </trkpt>
      <trkpt lat="47.12462" lon="-1.59864">
        <ele>59</ele>
        <time>2021-02-28T11:01:32.000Z</time>
      </trkpt>
      <trkpt lat="47.12461" lon="-1.59847">
        <ele>59</ele>
        <time>2021-02-28T11:01:34.000Z</time>
      </trkpt>
      <trkpt lat="47.12459" lon="-1.59829">
        <ele>59</ele>
        <time>2021-02-28T11:01:36.000Z</time>
      </trkpt>
      <trkpt lat="47.12458" lon="-1.59811">
        <ele>59</ele>
        <time>2021-02-28T11:01:38.000Z</time>
      </trkpt>
      <trkpt lat="47.12458" lon="-1.59794">
        <ele>59</ele>
        <time>2021-02-28T11:01:40.000Z</time>
      </trkpt>
      <trkpt lat="47.12458" lon="-1.59777">
        <ele>59</ele>
        <time>2021-02-28T11:01:42.000Z</time>
      </trkpt>
      <trkpt lat="47.12457" lon="-1.5976">
        <ele>59</ele>
        <time>2021-02-28T11:01:44.000Z</time>
      </trkpt>
      <trkpt lat="47.12456" lon="-1.59743">
        <ele>59</ele>
        <time>2021-02-28T11:01:46.000Z</time>
      </trkpt>
      <trkpt lat="47.12455" lon="-1.59726">
        <ele>59</ele>
        <time>2021-02-28T11:01:48.000Z</time>
      </trkpt>
      <trkpt lat="47.12455" lon="-1.59709">
        <ele>59</ele>
        <time>2021-02-28T11:01:50.000Z</time>
      </trkpt>
      <trkpt lat="47.12454" lon="-1.59692">
        <ele>59</ele>
        <time>2021-02-28T11:01:52.000Z</time>
      </trkpt>
      <trkpt lat="47.12453" lon="-1.59675">
        <ele>59</ele>
        <time>2021-02-28T11:01:54.000Z</time>
      </trkpt>
      <trkpt lat="47.12453" lon="-1.59657">
        <ele>59</ele>
        <time>2021-02-28T11:01:56.000Z</time>
      </trkpt>
      <trkpt lat="47.12452" lon="-1.5964">
        <ele>58</ele>
        <time>2021-02-28T11:01:58.000Z</time>
      </trkpt>
      <trkpt lat="47.12452" lon="-1.59623">
        <ele>58</ele>
        <time>2021-02-28T11:02:00.000Z</time>
      </trkpt>
      <trkpt lat="47.12451" lon="-1.59606">
        <ele>58</ele>
        <time>2021-02-28T11:02:02.000Z</time>
      </trkpt>
      <trkpt lat="47.1245" lon="-1.59589">
        <ele>57</ele>
        <time>2021-02-28T11:02:04.000Z</time>
      </trkpt>
      <trkpt lat="47.12449" lon="-1.59572">
        <ele>57</ele>
        <time>2021-02-28T11:02:06.000Z</time>
      </trkpt>
      <trkpt lat="47.12448" lon="-1.59555">
        <ele>57</ele>
        <time>2021-02-28T11:02:08.000Z</time>
      </trkpt>
      <trkpt lat="47.12447" lon="-1.59538">
        <ele>57</ele>
        <time>2021-02-28T11:02:10.000Z</time>
      </trkpt>
      <trkpt lat="47.12446" lon="-1.59521">
        <ele>57</ele>
        <time>2021-02-28T11:02:12.000Z</time>
      </trkpt>
      <trkpt lat="47.12445" lon="-1.59504">
        <ele>57</ele>
        <time>2021-02-28T11:02:14.000Z</time>
      </trkpt>
      <trkpt lat="47.12444" lon="-1.59487">
        <ele>57</ele>
        <time>2021-02-28T11:02:16.000Z</time>
      </trkpt>
      <trkpt lat="47.12443" lon="-1.5947">
        <ele>56</ele>
        <time>2021-02-28T11:02:18.000Z</time>
      </trkpt>
      <trkpt lat="47.12443" lon="-1.59452">
        <ele>56</ele>
        <time>2021-02-28T11:02:20.000Z</time>
      </trkpt>
      <trkpt lat="47.12442" lon="-1.59434">
        <ele>56</ele>
        <time>2021-02-28T11:02:22.000Z</time>
      </trkpt>
      <trkpt lat="47.12441" lon="-1.59415">
        <ele>57</ele>
        <time>2021-02-28T11:02:24.000Z</time>
      </trkpt>
      <trkpt lat="47.12441" lon="-1.59397">
        <ele>56</ele>
        <time>2021-02-28T11:02:26.000Z</time>
      </trkpt>
      <trkpt lat="47.1244" lon="-1.59379">
        <ele>56</ele>
        <time>2021-02-28T11:02:28.000Z</time>
      </trkpt>
      <trkpt lat="47.12439" lon="-1.59361">
        <ele>56</ele>
        <time>2021-02-28T11:02:30.000Z</time>
      </trkpt>
      <trkpt lat="47.12438" lon="-1.59344">
        <ele>56</ele>
        <time>2021-02-28T11:02:32.000Z</time>
      </trkpt>
      <trkpt lat="47.12437" lon="-1.59326">
        <ele>56</ele>
        <time>2021-02-28T11:02:34.000Z</time>
      </trkpt>
      <trkpt lat="47.12436" lon="-1.59309">
        <ele>55</ele>
        <time>2021-02-28T11:02:36.000Z</time>
      </trkpt>
      <trkpt lat="47.12435" lon="-1.59291">
        <ele>55</ele>
        <time>2021-02-28T11:02:38.000Z</time>
      </trkpt>
      <trkpt lat="47.12434" lon="-1.59273">
        <ele>55</ele>
        <time>2021-02-28T11:02:40.000Z</time>
      </trkpt>
      <trkpt lat="47.12433" lon="-1.59256">
        <ele>55</ele>
        <time>2021-02-28T11:02:42.000Z</time>
      </trkpt>
      <trkpt lat="47.12432" lon="-1.59238">
        <ele>55</ele>
        <time>2021-02-28T11:02:44.000Z</time>
      </trkpt>
      <trkpt lat="47.1243" lon="-1.59221">
        <ele>55</ele>
        <time>2021-02-28T11:02:46.000Z</time>
      </trkpt>
      <trkpt lat="47.12427" lon="-1.59205">
        <ele>55</ele>
        <time>2021-02-28T11:02:48.000Z</time>
      </trkpt>
      <trkpt lat="47.12425" lon="-1.59187">
        <ele>54</ele>
        <time>2021-02-28T11:02:50.000Z</time>
      </trkpt>
      <trkpt lat="47.12427" lon="-1.59169">
        <ele>55</ele>
        <time>2021-02-28T11:02:52.000Z</time>
      </trkpt>
      <trkpt lat="47.12428" lon="-1.5915">
        <ele>54</ele>
        <time>2021-02-28T11:02:54.000Z</time>
      </trkpt>
      <trkpt lat="47.12428" lon="-1.59132">
        <ele>54</ele>
        <time>2021-02-28T11:02:56.000Z</time>
      </trkpt>
      <trkpt lat="47.12428" lon="-1.59113">
        <ele>54</ele>
        <time>2021-02-28T11:02:58.000Z</time>
      </trkpt>
      <trkpt lat="47.12427" lon="-1.59094">
        <ele>54</ele>
        <time>2021-02-28T11:03:00.000Z</time>
      </trkpt>
      <trkpt lat="47.12426" lon="-1.59077">
        <ele>54</ele>
        <time>2021-02-28T11:03:02.000Z</time>
      </trkpt>
      <trkpt lat="47.12425" lon="-1.59059">
        <ele>54</ele>
        <time>2021-02-28T11:03:04.000Z</time>
      </trkpt>
      <trkpt lat="47.12424" lon="-1.59042">
        <ele>54</ele>
        <time>2021-02-28T11:03:06.000Z</time>
      </trkpt>
      <trkpt lat="47.12423" lon="-1.59026">
        <ele>54</ele>
        <time>2021-02-28T11:03:08.000Z</time>
      </trkpt>
      <trkpt lat="47.12422" lon="-1.59008">
        <ele>54</ele>
        <time>2021-02-28T11:03:10.000Z</time>
      </trkpt>
      <trkpt lat="47.12421" lon="-1.58991">
        <ele>55</ele>
        <time>2021-02-28T11:03:12.000Z</time>
      </trkpt>
      <trkpt lat="47.1242" lon="-1.58975">
        <ele>56</ele>
        <time>2021-02-28T11:03:14.000Z</time>
      </trkpt>
      <trkpt lat="47.1242" lon="-1.58958">
        <ele>56</ele>
        <time>2021-02-28T11:03:16.000Z</time>
      </trkpt>
      <trkpt lat="47.12418" lon="-1.58942">
        <ele>57</ele>
        <time>2021-02-28T11:03:18.000Z</time>
      </trkpt>
      <trkpt lat="47.12417" lon="-1.58926">
        <ele>57</ele>
        <time>2021-02-28T11:03:20.000Z</time>
      </trkpt>
      <trkpt lat="47.12416" lon="-1.5891">
        <ele>57</ele>
        <time>2021-02-28T11:03:22.000Z</time>
      </trkpt>
      <trkpt lat="47.12415" lon="-1.58893">
        <ele>57</ele>
        <time>2021-02-28T11:03:24.000Z</time>
      </trkpt>
      <trkpt lat="47.12413" lon="-1.58877">
        <ele>58</ele>
        <time>2021-02-28T11:03:26.000Z</time>
      </trkpt>
      <trkpt lat="47.12412" lon="-1.5886">
        <ele>58</ele>
        <time>2021-02-28T11:03:28.000Z</time>
      </trkpt>
      <trkpt lat="47.1241" lon="-1.58844">
        <ele>58</ele>
        <time>2021-02-28T11:03:30.000Z</time>
      </trkpt>
      <trkpt lat="47.12408" lon="-1.58828">
        <ele>58</ele>
        <time>2021-02-28T11:03:32.000Z</time>
      </trkpt>
      <trkpt lat="47.12406" lon="-1.58811">
        <ele>59</ele>
        <time>2021-02-28T11:03:34.000Z</time>
      </trkpt>
      <trkpt lat="47.12404" lon="-1.58796">
        <ele>59</ele>
        <time>2021-02-28T11:03:36.000Z</time>
      </trkpt>
      <trkpt lat="47.12402" lon="-1.5878">
        <ele>59</ele>
        <time>2021-02-28T11:03:38.000Z</time>
      </trkpt>
      <trkpt lat="47.12399" lon="-1.58764">
        <ele>59</ele>
        <time>2021-02-28T11:03:40.000Z</time>
      </trkpt>
      <trkpt lat="47.12396" lon="-1.58747">
        <ele>59</ele>
        <time>2021-02-28T11:03:42.000Z</time>
      </trkpt>
      <trkpt lat="47.12393" lon="-1.58731">
        <ele>58</ele>
        <time>2021-02-28T11:03:44.000Z</time>
      </trkpt>
      <trkpt lat="47.12389" lon="-1.58715">
        <ele>58</ele>
        <time>2021-02-28T11:03:46.000Z</time>
      </trkpt>
      <trkpt lat="47.12385" lon="-1.58699">
        <ele>58</ele>
        <time>2021-02-28T11:03:48.000Z</time>
      </trkpt>
      <trkpt lat="47.12382" lon="-1.58682">
        <ele>58</ele>
        <time>2021-02-28T11:03:50.000Z</time>
      </trkpt>
      <trkpt lat="47.12377" lon="-1.58666">
        <ele>58</ele>
        <time>2021-02-28T11:03:52.000Z</time>
      </trkpt>
      <trkpt lat="47.12373" lon="-1.58649">
        <ele>58</ele>
        <time>2021-02-28T11:03:54.000Z</time>
      </trkpt>
      <trkpt lat="47.1237" lon="-1.58632">
        <ele>57</ele>
        <time>2021-02-28T11:03:56.000Z</time>
      </trkpt>
      <trkpt lat="47.12366" lon="-1.58614">
        <ele>57</ele>
        <time>2021-02-28T11:03:58.000Z</time>
      </trkpt>
      <trkpt lat="47.12362" lon="-1.58596">
        <ele>56</ele>
        <time>2021-02-28T11:04:00.000Z</time>
      </trkpt>
      <trkpt lat="47.12358" lon="-1.58577">
        <ele>56</ele>
        <time>2021-02-28T11:04:02.000Z</time>
      </trkpt>
      <trkpt lat="47.12354" lon="-1.58559">
        <ele>56</ele>
        <time>2021-02-28T11:04:04.000Z</time>
      </trkpt>
      <trkpt lat="47.1235" lon="-1.58542">
        <ele>55</ele>
        <time>2021-02-28T11:04:06.000Z</time>
      </trkpt>
      <trkpt lat="47.12346" lon="-1.58524">
        <ele>55</ele>
        <time>2021-02-28T11:04:08.000Z</time>
      </trkpt>
      <trkpt lat="47.12341" lon="-1.58507">
        <ele>54</ele>
        <time>2021-02-28T11:04:10.000Z</time>
      </trkpt>
      <trkpt lat="47.12337" lon="-1.5849">
        <ele>54</ele>
        <time>2021-02-28T11:04:12.000Z</time>
      </trkpt>
      <trkpt lat="47.12333" lon="-1.58473">
        <ele>54</ele>
        <time>2021-02-28T11:04:14.000Z</time>
      </trkpt>
      <trkpt lat="47.12328" lon="-1.58459">
        <ele>54</ele>
        <time>2021-02-28T11:04:16.000Z</time>
      </trkpt>
      <trkpt lat="47.12321" lon="-1.58446">
        <ele>55</ele>
        <time>2021-02-28T11:04:18.000Z</time>
      </trkpt>
      <trkpt lat="47.12314" lon="-1.58433">
        <ele>55</ele>
        <time>2021-02-28T11:04:20.000Z</time>
      </trkpt>
      <trkpt lat="47.12307" lon="-1.58418">
        <ele>55</ele>
        <time>2021-02-28T11:04:22.000Z</time>
      </trkpt>
      <trkpt lat="47.12301" lon="-1.58404">
        <ele>54</ele>
        <time>2021-02-28T11:04:24.000Z</time>
      </trkpt>
      <trkpt lat="47.12297" lon="-1.58387">
        <ele>54</ele>
        <time>2021-02-28T11:04:26.000Z</time>
      </trkpt>
      <trkpt lat="47.12297" lon="-1.58368">
        <ele>54</ele>
        <time>2021-02-28T11:04:28.000Z</time>
      </trkpt>
      <trkpt lat="47.12295" lon="-1.58349">
        <ele>54</ele>
        <time>2021-02-28T11:04:30.000Z</time>
      </trkpt>
      <trkpt lat="47.12288" lon="-1.58332">
        <ele>53</ele>
        <time>2021-02-28T11:04:32.000Z</time>
      </trkpt>
      <trkpt lat="47.12274" lon="-1.58321">
        <ele>52</ele>
        <time>2021-02-28T11:04:34.000Z</time>
      </trkpt>
      <trkpt lat="47.1226" lon="-1.58314">
        <ele>52</ele>
        <time>2021-02-28T11:04:36.000Z</time>
      </trkpt>
      <trkpt lat="47.12249" lon="-1.58304">
        <ele>52</ele>
        <time>2021-02-28T11:04:38.000Z</time>
      </trkpt>
      <trkpt lat="47.12238" lon="-1.58293">
        <ele>53</ele>
        <time>2021-02-28T11:04:40.000Z</time>
      </trkpt>
      <trkpt lat="47.12228" lon="-1.58283">
        <ele>53</ele>
        <time>2021-02-28T11:04:42.000Z</time>
      </trkpt>
      <trkpt lat="47.12217" lon="-1.58273">
        <ele>53</ele>
        <time>2021-02-28T11:04:44.000Z</time>
      </trkpt>
      <trkpt lat="47.12207" lon="-1.58262">
        <ele>52</ele>
        <time>2021-02-28T11:04:46.000Z</time>
      </trkpt>
      <trkpt lat="47.12197" lon="-1.58252">
        <ele>52</ele>
        <time>2021-02-28T11:04:48.000Z</time>
      </trkpt>
      <trkpt lat="47.12186" lon="-1.58241">
        <ele>52</ele>
        <time>2021-02-28T11:04:50.000Z</time>
      </trkpt>
      <trkpt lat="47.12176" lon="-1.58231">
        <ele>52</ele>
        <time>2021-02-28T11:04:52.000Z</time>
      </trkpt>
      <trkpt lat="47.12166" lon="-1.58223">
        <ele>52</ele>
        <time>2021-02-28T11:04:54.000Z</time>
      </trkpt>
      <trkpt lat="47.12155" lon="-1.58214">
        <ele>52</ele>
        <time>2021-02-28T11:04:56.000Z</time>
      </trkpt>
      <trkpt lat="47.12146" lon="-1.58205">
        <ele>53</ele>
        <time>2021-02-28T11:04:58.000Z</time>
      </trkpt>
      <trkpt lat="47.12137" lon="-1.58197">
        <ele>54</ele>
        <time>2021-02-28T11:05:00.000Z</time>
      </trkpt>
      <trkpt lat="47.12128" lon="-1.58187">
        <ele>54</ele>
        <time>2021-02-28T11:05:02.000Z</time>
      </trkpt>
      <trkpt lat="47.1212" lon="-1.58178">
        <ele>55</ele>
        <time>2021-02-28T11:05:04.000Z</time>
      </trkpt>
      <trkpt lat="47.12111" lon="-1.5817">
        <ele>55</ele>
        <time>2021-02-28T11:05:06.000Z</time>
      </trkpt>
      <trkpt lat="47.12102" lon="-1.58163">
        <ele>55</ele>
        <time>2021-02-28T11:05:08.000Z</time>
      </trkpt>
      <trkpt lat="47.12092" lon="-1.58156">
        <ele>55</ele>
        <time>2021-02-28T11:05:10.000Z</time>
      </trkpt>
      <trkpt lat="47.12082" lon="-1.5815">
        <ele>55</ele>
        <time>2021-02-28T11:05:12.000Z</time>
      </trkpt>
      <trkpt lat="47.12071" lon="-1.58143">
        <ele>56</ele>
        <time>2021-02-28T11:05:14.000Z</time>
      </trkpt>
      <trkpt lat="47.12061" lon="-1.58137">
        <ele>57</ele>
        <time>2021-02-28T11:05:16.000Z</time>
      </trkpt>
      <trkpt lat="47.12051" lon="-1.58131">
        <ele>59</ele>
        <time>2021-02-28T11:05:18.000Z</time>
      </trkpt>
      <trkpt lat="47.12041" lon="-1.58125">
        <ele>60</ele>
        <time>2021-02-28T11:05:20.000Z</time>
      </trkpt>
      <trkpt lat="47.12032" lon="-1.58119">
        <ele>60</ele>
        <time>2021-02-28T11:05:22.000Z</time>
      </trkpt>
      <trkpt lat="47.12023" lon="-1.58113">
        <ele>61</ele>
        <time>2021-02-28T11:05:25.000Z</time>
      </trkpt>
      <trkpt lat="47.1201" lon="-1.58108">
        <ele>61</ele>
        <time>2021-02-28T11:05:28.000Z</time>
      </trkpt>
      <trkpt lat="47.12" lon="-1.58106">
        <ele>61</ele>
        <time>2021-02-28T11:05:30.000Z</time>
      </trkpt>
      <trkpt lat="47.1199" lon="-1.58102">
        <ele>61</ele>
        <time>2021-02-28T11:05:32.000Z</time>
      </trkpt>
      <trkpt lat="47.11978" lon="-1.58099">
        <ele>60</ele>
        <time>2021-02-28T11:05:34.000Z</time>
      </trkpt>
      <trkpt lat="47.11967" lon="-1.58096">
        <ele>60</ele>
        <time>2021-02-28T11:05:36.000Z</time>
      </trkpt>
      <trkpt lat="47.11955" lon="-1.58094">
        <ele>60</ele>
        <time>2021-02-28T11:05:38.000Z</time>
      </trkpt>
      <trkpt lat="47.11943" lon="-1.5809">
        <ele>60</ele>
        <time>2021-02-28T11:05:40.000Z</time>
      </trkpt>
      <trkpt lat="47.1193" lon="-1.58087">
        <ele>60</ele>
        <time>2021-02-28T11:05:42.000Z</time>
      </trkpt>
      <trkpt lat="47.11917" lon="-1.58084">
        <ele>59</ele>
        <time>2021-02-28T11:05:44.000Z</time>
      </trkpt>
      <trkpt lat="47.11905" lon="-1.58081">
        <ele>59</ele>
        <time>2021-02-28T11:05:46.000Z</time>
      </trkpt>
      <trkpt lat="47.11893" lon="-1.58078">
        <ele>58</ele>
        <time>2021-02-28T11:05:48.000Z</time>
      </trkpt>
      <trkpt lat="47.1188" lon="-1.58074">
        <ele>58</ele>
        <time>2021-02-28T11:05:50.000Z</time>
      </trkpt>
      <trkpt lat="47.11867" lon="-1.58071">
        <ele>57</ele>
        <time>2021-02-28T11:05:52.000Z</time>
      </trkpt>
      <trkpt lat="47.11854" lon="-1.58067">
        <ele>57</ele>
        <time>2021-02-28T11:05:54.000Z</time>
      </trkpt>
      <trkpt lat="47.1184" lon="-1.58065">
        <ele>56</ele>
        <time>2021-02-28T11:05:56.000Z</time>
      </trkpt>
      <trkpt lat="47.11827" lon="-1.58061">
        <ele>56</ele>
        <time>2021-02-28T11:05:58.000Z</time>
      </trkpt>
      <trkpt lat="47.11814" lon="-1.58057">
        <ele>56</ele>
        <time>2021-02-28T11:06:00.000Z</time>
      </trkpt>
      <trkpt lat="47.118" lon="-1.58055">
        <ele>56</ele>
        <time>2021-02-28T11:06:02.000Z</time>
      </trkpt>
      <trkpt lat="47.11787" lon="-1.58052">
        <ele>55</ele>
        <time>2021-02-28T11:06:04.000Z</time>
      </trkpt>
      <trkpt lat="47.11774" lon="-1.58049">
        <ele>54</ele>
        <time>2021-02-28T11:06:06.000Z</time>
      </trkpt>
      <trkpt lat="47.11761" lon="-1.58045">
        <ele>55</ele>
        <time>2021-02-28T11:06:08.000Z</time>
      </trkpt>
      <trkpt lat="47.11748" lon="-1.58043">
        <ele>55</ele>
        <time>2021-02-28T11:06:10.000Z</time>
      </trkpt>
      <trkpt lat="47.11735" lon="-1.58041">
        <ele>55</ele>
        <time>2021-02-28T11:06:12.000Z</time>
      </trkpt>
      <trkpt lat="47.11722" lon="-1.58039">
        <ele>54</ele>
        <time>2021-02-28T11:06:14.000Z</time>
      </trkpt>
      <trkpt lat="47.11709" lon="-1.58038">
        <ele>54</ele>
        <time>2021-02-28T11:06:16.000Z</time>
      </trkpt>
      <trkpt lat="47.11696" lon="-1.58037">
        <ele>54</ele>
        <time>2021-02-28T11:06:18.000Z</time>
      </trkpt>
      <trkpt lat="47.11683" lon="-1.58036">
        <ele>54</ele>
        <time>2021-02-28T11:06:20.000Z</time>
      </trkpt>
      <trkpt lat="47.1167" lon="-1.58036">
        <ele>54</ele>
        <time>2021-02-28T11:06:22.000Z</time>
      </trkpt>
      <trkpt lat="47.11656" lon="-1.58039">
        <ele>54</ele>
        <time>2021-02-28T11:06:24.000Z</time>
      </trkpt>
      <trkpt lat="47.11643" lon="-1.58045">
        <ele>54</ele>
        <time>2021-02-28T11:06:26.000Z</time>
      </trkpt>
      <trkpt lat="47.11631" lon="-1.58043">
        <ele>54</ele>
        <time>2021-02-28T11:06:28.000Z</time>
      </trkpt>
      <trkpt lat="47.11617" lon="-1.58037">
        <ele>54</ele>
        <time>2021-02-28T11:06:30.000Z</time>
      </trkpt>
      <trkpt lat="47.11605" lon="-1.58032">
        <ele>54</ele>
        <time>2021-02-28T11:06:32.000Z</time>
      </trkpt>
      <trkpt lat="47.11592" lon="-1.5803">
        <ele>54</ele>
        <time>2021-02-28T11:06:34.000Z</time>
      </trkpt>
      <trkpt lat="47.11578" lon="-1.58029">
        <ele>54</ele>
        <time>2021-02-28T11:06:36.000Z</time>
      </trkpt>
      <trkpt lat="47.11565" lon="-1.58029">
        <ele>53</ele>
        <time>2021-02-28T11:06:38.000Z</time>
      </trkpt>
      <trkpt lat="47.11552" lon="-1.58029">
        <ele>53</ele>
        <time>2021-02-28T11:06:40.000Z</time>
      </trkpt>
      <trkpt lat="47.11539" lon="-1.58029">
        <ele>54</ele>
        <time>2021-02-28T11:06:42.000Z</time>
      </trkpt>
      <trkpt lat="47.11526" lon="-1.58029">
        <ele>54</ele>
        <time>2021-02-28T11:06:44.000Z</time>
      </trkpt>
      <trkpt lat="47.11513" lon="-1.58029">
        <ele>53</ele>
        <time>2021-02-28T11:06:46.000Z</time>
      </trkpt>
      <trkpt lat="47.115" lon="-1.58029">
        <ele>53</ele>
        <time>2021-02-28T11:06:48.000Z</time>
      </trkpt>
      <trkpt lat="47.11486" lon="-1.58031">
        <ele>52</ele>
        <time>2021-02-28T11:06:50.000Z</time>
      </trkpt>
      <trkpt lat="47.11472" lon="-1.58034">
        <ele>53</ele>
        <time>2021-02-28T11:06:52.000Z</time>
      </trkpt>
      <trkpt lat="47.11459" lon="-1.58039">
        <ele>53</ele>
        <time>2021-02-28T11:06:54.000Z</time>
      </trkpt>
      <trkpt lat="47.11445" lon="-1.58044">
        <ele>53</ele>
        <time>2021-02-28T11:06:56.000Z</time>
      </trkpt>
      <trkpt lat="47.11432" lon="-1.58049">
        <ele>53</ele>
        <time>2021-02-28T11:06:58.000Z</time>
      </trkpt>
      <trkpt lat="47.11419" lon="-1.58056">
        <ele>53</ele>
        <time>2021-02-28T11:07:00.000Z</time>
      </trkpt>
      <trkpt lat="47.11406" lon="-1.58064">
        <ele>53</ele>
        <time>2021-02-28T11:07:02.000Z</time>
      </trkpt>
      <trkpt lat="47.11393" lon="-1.58072">
        <ele>53</ele>
        <time>2021-02-28T11:07:04.000Z</time>
      </trkpt>
      <trkpt lat="47.1138" lon="-1.5808">
        <ele>53</ele>
        <time>2021-02-28T11:07:06.000Z</time>
      </trkpt>
      <trkpt lat="47.11368" lon="-1.58088">
        <ele>53</ele>
        <time>2021-02-28T11:07:08.000Z</time>
      </trkpt>
      <trkpt lat="47.11355" lon="-1.58096">
        <ele>53</ele>
        <time>2021-02-28T11:07:10.000Z</time>
      </trkpt>
      <trkpt lat="47.11343" lon="-1.58103">
        <ele>53</ele>
        <time>2021-02-28T11:07:12.000Z</time>
      </trkpt>
      <trkpt lat="47.11331" lon="-1.5811">
        <ele>53</ele>
        <time>2021-02-28T11:07:14.000Z</time>
      </trkpt>
      <trkpt lat="47.11319" lon="-1.58118">
        <ele>53</ele>
        <time>2021-02-28T11:07:16.000Z</time>
      </trkpt>
      <trkpt lat="47.11307" lon="-1.58126">
        <ele>53</ele>
        <time>2021-02-28T11:07:18.000Z</time>
      </trkpt>
      <trkpt lat="47.11295" lon="-1.58135">
        <ele>53</ele>
        <time>2021-02-28T11:07:20.000Z</time>
      </trkpt>
      <trkpt lat="47.11284" lon="-1.58145">
        <ele>53</ele>
        <time>2021-02-28T11:07:22.000Z</time>
      </trkpt>
      <trkpt lat="47.11272" lon="-1.58155">
        <ele>53</ele>
        <time>2021-02-28T11:07:24.000Z</time>
      </trkpt>
      <trkpt lat="47.11261" lon="-1.58166">
        <ele>53</ele>
        <time>2021-02-28T11:07:26.000Z</time>
      </trkpt>
      <trkpt lat="47.1125" lon="-1.58177">
        <ele>53</ele>
        <time>2021-02-28T11:07:28.000Z</time>
      </trkpt>
      <trkpt lat="47.11239" lon="-1.58189">
        <ele>53</ele>
        <time>2021-02-28T11:07:30.000Z</time>
      </trkpt>
      <trkpt lat="47.11229" lon="-1.58201">
        <ele>53</ele>
        <time>2021-02-28T11:07:32.000Z</time>
      </trkpt>
      <trkpt lat="47.11219" lon="-1.58214">
        <ele>54</ele>
        <time>2021-02-28T11:07:34.000Z</time>
      </trkpt>
      <trkpt lat="47.11209" lon="-1.58227">
        <ele>54</ele>
        <time>2021-02-28T11:07:36.000Z</time>
      </trkpt>
      <trkpt lat="47.11199" lon="-1.5824">
        <ele>54</ele>
        <time>2021-02-28T11:07:38.000Z</time>
      </trkpt>
      <trkpt lat="47.11189" lon="-1.58255">
        <ele>54</ele>
        <time>2021-02-28T11:07:40.000Z</time>
      </trkpt>
      <trkpt lat="47.1118" lon="-1.58268">
        <ele>54</ele>
        <time>2021-02-28T11:07:42.000Z</time>
      </trkpt>
      <trkpt lat="47.11171" lon="-1.58281">
        <ele>54</ele>
        <time>2021-02-28T11:07:44.000Z</time>
      </trkpt>
      <trkpt lat="47.11162" lon="-1.58295">
        <ele>54</ele>
        <time>2021-02-28T11:07:46.000Z</time>
      </trkpt>
      <trkpt lat="47.11154" lon="-1.58309">
        <ele>55</ele>
        <time>2021-02-28T11:07:48.000Z</time>
      </trkpt>
      <trkpt lat="47.11145" lon="-1.58322">
        <ele>55</ele>
        <time>2021-02-28T11:07:50.000Z</time>
      </trkpt>
      <trkpt lat="47.11136" lon="-1.58336">
        <ele>55</ele>
        <time>2021-02-28T11:07:52.000Z</time>
      </trkpt>
      <trkpt lat="47.11127" lon="-1.5835">
        <ele>55</ele>
        <time>2021-02-28T11:07:54.000Z</time>
      </trkpt>
      <trkpt lat="47.11118" lon="-1.58364">
        <ele>56</ele>
        <time>2021-02-28T11:07:56.000Z</time>
      </trkpt>
      <trkpt lat="47.11109" lon="-1.58377">
        <ele>56</ele>
        <time>2021-02-28T11:07:58.000Z</time>
      </trkpt>
      <trkpt lat="47.111" lon="-1.58391">
        <ele>56</ele>
        <time>2021-02-28T11:08:00.000Z</time>
      </trkpt>
      <trkpt lat="47.11091" lon="-1.58404">
        <ele>55</ele>
        <time>2021-02-28T11:08:02.000Z</time>
      </trkpt>
      <trkpt lat="47.11081" lon="-1.58418">
        <ele>56</ele>
        <time>2021-02-28T11:08:04.000Z</time>
      </trkpt>
      <trkpt lat="47.11072" lon="-1.58431">
        <ele>56</ele>
        <time>2021-02-28T11:08:06.000Z</time>
      </trkpt>
      <trkpt lat="47.11063" lon="-1.58445">
        <ele>56</ele>
        <time>2021-02-28T11:08:08.000Z</time>
      </trkpt>
      <trkpt lat="47.11055" lon="-1.58458">
        <ele>57</ele>
        <time>2021-02-28T11:08:10.000Z</time>
      </trkpt>
      <trkpt lat="47.11046" lon="-1.58472">
        <ele>57</ele>
        <time>2021-02-28T11:08:12.000Z</time>
      </trkpt>
      <trkpt lat="47.11037" lon="-1.58485">
        <ele>57</ele>
        <time>2021-02-28T11:08:14.000Z</time>
      </trkpt>
      <trkpt lat="47.11029" lon="-1.58498">
        <ele>58</ele>
        <time>2021-02-28T11:08:16.000Z</time>
      </trkpt>
      <trkpt lat="47.1102" lon="-1.58512">
        <ele>58</ele>
        <time>2021-02-28T11:08:18.000Z</time>
      </trkpt>
      <trkpt lat="47.11012" lon="-1.58525">
        <ele>58</ele>
        <time>2021-02-28T11:08:20.000Z</time>
      </trkpt>
      <trkpt lat="47.11003" lon="-1.58539">
        <ele>58</ele>
        <time>2021-02-28T11:08:22.000Z</time>
      </trkpt>
      <trkpt lat="47.10995" lon="-1.58552">
        <ele>58</ele>
        <time>2021-02-28T11:08:24.000Z</time>
      </trkpt>
      <trkpt lat="47.10986" lon="-1.58566">
        <ele>59</ele>
        <time>2021-02-28T11:08:26.000Z</time>
      </trkpt>
      <trkpt lat="47.10978" lon="-1.58579">
        <ele>59</ele>
        <time>2021-02-28T11:08:28.000Z</time>
      </trkpt>
      <trkpt lat="47.10969" lon="-1.58593">
        <ele>60</ele>
        <time>2021-02-28T11:08:30.000Z</time>
      </trkpt>
      <trkpt lat="47.10959" lon="-1.58608">
        <ele>60</ele>
        <time>2021-02-28T11:08:32.000Z</time>
      </trkpt>
      <trkpt lat="47.1095" lon="-1.58621">
        <ele>60</ele>
        <time>2021-02-28T11:08:34.000Z</time>
      </trkpt>
      <trkpt lat="47.1094" lon="-1.58634">
        <ele>60</ele>
        <time>2021-02-28T11:08:36.000Z</time>
      </trkpt>
      <trkpt lat="47.10931" lon="-1.58647">
        <ele>60</ele>
        <time>2021-02-28T11:08:38.000Z</time>
      </trkpt>
      <trkpt lat="47.10923" lon="-1.58661">
        <ele>61</ele>
        <time>2021-02-28T11:08:40.000Z</time>
      </trkpt>
      <trkpt lat="47.10914" lon="-1.58674">
        <ele>62</ele>
        <time>2021-02-28T11:08:42.000Z</time>
      </trkpt>
      <trkpt lat="47.10905" lon="-1.58686">
        <ele>62</ele>
        <time>2021-02-28T11:08:44.000Z</time>
      </trkpt>
      <trkpt lat="47.10895" lon="-1.587">
        <ele>62</ele>
        <time>2021-02-28T11:08:46.000Z</time>
      </trkpt>
      <trkpt lat="47.10887" lon="-1.58714">
        <ele>62</ele>
        <time>2021-02-28T11:08:48.000Z</time>
      </trkpt>
      <trkpt lat="47.10878" lon="-1.58727">
        <ele>63</ele>
        <time>2021-02-28T11:08:50.000Z</time>
      </trkpt>
      <trkpt lat="47.1087" lon="-1.5874">
        <ele>63</ele>
        <time>2021-02-28T11:08:52.000Z</time>
      </trkpt>
      <trkpt lat="47.10861" lon="-1.58753">
        <ele>62</ele>
        <time>2021-02-28T11:08:54.000Z</time>
      </trkpt>
      <trkpt lat="47.10852" lon="-1.58767">
        <ele>63</ele>
        <time>2021-02-28T11:08:56.000Z</time>
      </trkpt>
      <trkpt lat="47.10842" lon="-1.5878">
        <ele>64</ele>
        <time>2021-02-28T11:08:58.000Z</time>
      </trkpt>
      <trkpt lat="47.10833" lon="-1.58793">
        <ele>65</ele>
        <time>2021-02-28T11:09:00.000Z</time>
      </trkpt>
      <trkpt lat="47.10824" lon="-1.58807">
        <ele>65</ele>
        <time>2021-02-28T11:09:02.000Z</time>
      </trkpt>
      <trkpt lat="47.10815" lon="-1.5882">
        <ele>65</ele>
        <time>2021-02-28T11:09:04.000Z</time>
      </trkpt>
      <trkpt lat="47.10807" lon="-1.58833">
        <ele>65</ele>
        <time>2021-02-28T11:09:06.000Z</time>
      </trkpt>
      <trkpt lat="47.10798" lon="-1.58847">
        <ele>65</ele>
        <time>2021-02-28T11:09:08.000Z</time>
      </trkpt>
      <trkpt lat="47.1079" lon="-1.5886">
        <ele>66</ele>
        <time>2021-02-28T11:09:10.000Z</time>
      </trkpt>
      <trkpt lat="47.10782" lon="-1.58874">
        <ele>66</ele>
        <time>2021-02-28T11:09:12.000Z</time>
      </trkpt>
      <trkpt lat="47.10774" lon="-1.58888">
        <ele>66</ele>
        <time>2021-02-28T11:09:14.000Z</time>
      </trkpt>
      <trkpt lat="47.10766" lon="-1.58902">
        <ele>67</ele>
        <time>2021-02-28T11:09:16.000Z</time>
      </trkpt>
      <trkpt lat="47.10757" lon="-1.58914">
        <ele>67</ele>
        <time>2021-02-28T11:09:18.000Z</time>
      </trkpt>
      <trkpt lat="47.10749" lon="-1.58929">
        <ele>66</ele>
        <time>2021-02-28T11:09:20.000Z</time>
      </trkpt>
      <trkpt lat="47.10744" lon="-1.58945">
        <ele>66</ele>
        <time>2021-02-28T11:09:22.000Z</time>
      </trkpt>
      <trkpt lat="47.10737" lon="-1.58961">
        <ele>66</ele>
        <time>2021-02-28T11:09:24.000Z</time>
      </trkpt>
      <trkpt lat="47.10731" lon="-1.58976">
        <ele>67</ele>
        <time>2021-02-28T11:09:26.000Z</time>
      </trkpt>
      <trkpt lat="47.10724" lon="-1.58992">
        <ele>67</ele>
        <time>2021-02-28T11:09:28.000Z</time>
      </trkpt>
      <trkpt lat="47.10718" lon="-1.59009">
        <ele>66</ele>
        <time>2021-02-28T11:09:30.000Z</time>
      </trkpt>
      <trkpt lat="47.10711" lon="-1.59025">
        <ele>66</ele>
        <time>2021-02-28T11:09:32.000Z</time>
      </trkpt>
      <trkpt lat="47.10705" lon="-1.59042">
        <ele>66</ele>
        <time>2021-02-28T11:09:34.000Z</time>
      </trkpt>
      <trkpt lat="47.10698" lon="-1.59059">
        <ele>66</ele>
        <time>2021-02-28T11:09:36.000Z</time>
      </trkpt>
      <trkpt lat="47.10692" lon="-1.59077">
        <ele>66</ele>
        <time>2021-02-28T11:09:38.000Z</time>
      </trkpt>
      <trkpt lat="47.10685" lon="-1.59095">
        <ele>66</ele>
        <time>2021-02-28T11:09:40.000Z</time>
      </trkpt>
      <trkpt lat="47.10678" lon="-1.59114">
        <ele>65</ele>
        <time>2021-02-28T11:09:42.000Z</time>
      </trkpt>
      <trkpt lat="47.10672" lon="-1.59133">
        <ele>65</ele>
        <time>2021-02-28T11:09:44.000Z</time>
      </trkpt>
      <trkpt lat="47.10665" lon="-1.59153">
        <ele>65</ele>
        <time>2021-02-28T11:09:46.000Z</time>
      </trkpt>
      <trkpt lat="47.10657" lon="-1.59172">
        <ele>65</ele>
        <time>2021-02-28T11:09:48.000Z</time>
      </trkpt>
      <trkpt lat="47.10647" lon="-1.59192">
        <ele>64</ele>
        <time>2021-02-28T11:09:50.000Z</time>
      </trkpt>
      <trkpt lat="47.10637" lon="-1.59211">
        <ele>63</ele>
        <time>2021-02-28T11:09:52.000Z</time>
      </trkpt>
      <trkpt lat="47.10627" lon="-1.59231">
        <ele>63</ele>
        <time>2021-02-28T11:09:54.000Z</time>
      </trkpt>
      <trkpt lat="47.10615" lon="-1.59248">
        <ele>63</ele>
        <time>2021-02-28T11:09:56.000Z</time>
      </trkpt>
      <trkpt lat="47.10605" lon="-1.59268">
        <ele>63</ele>
        <time>2021-02-28T11:09:58.000Z</time>
      </trkpt>
      <trkpt lat="47.10595" lon="-1.59288">
        <ele>62</ele>
        <time>2021-02-28T11:10:00.000Z</time>
      </trkpt>
      <trkpt lat="47.10583" lon="-1.59308">
        <ele>62</ele>
        <time>2021-02-28T11:10:02.000Z</time>
      </trkpt>
      <trkpt lat="47.10573" lon="-1.59327">
        <ele>62</ele>
        <time>2021-02-28T11:10:04.000Z</time>
      </trkpt>
      <trkpt lat="47.10561" lon="-1.59348">
        <ele>62</ele>
        <time>2021-02-28T11:10:06.000Z</time>
      </trkpt>
      <trkpt lat="47.10556" lon="-1.59358">
        <ele>61</ele>
        <time>2021-02-28T11:10:07.000Z</time>
      </trkpt>
      <trkpt lat="47.10544" lon="-1.59376">
        <ele>61</ele>
        <time>2021-02-28T11:10:09.000Z</time>
      </trkpt>
      <trkpt lat="47.10533" lon="-1.59396">
        <ele>61</ele>
        <time>2021-02-28T11:10:11.000Z</time>
      </trkpt>
      <trkpt lat="47.10522" lon="-1.59414">
        <ele>60</ele>
        <time>2021-02-28T11:10:13.000Z</time>
      </trkpt>
      <trkpt lat="47.10511" lon="-1.59432">
        <ele>60</ele>
        <time>2021-02-28T11:10:15.000Z</time>
      </trkpt>
      <trkpt lat="47.10501" lon="-1.59451">
        <ele>60</ele>
        <time>2021-02-28T11:10:17.000Z</time>
      </trkpt>
      <trkpt lat="47.1049" lon="-1.59469">
        <ele>60</ele>
        <time>2021-02-28T11:10:19.000Z</time>
      </trkpt>
      <trkpt lat="47.10479" lon="-1.59487">
        <ele>59</ele>
        <time>2021-02-28T11:10:21.000Z</time>
      </trkpt>
      <trkpt lat="47.10468" lon="-1.59506">
        <ele>59</ele>
        <time>2021-02-28T11:10:23.000Z</time>
      </trkpt>
      <trkpt lat="47.10457" lon="-1.59524">
        <ele>59</ele>
        <time>2021-02-28T11:10:25.000Z</time>
      </trkpt>
      <trkpt lat="47.10446" lon="-1.59543">
        <ele>59</ele>
        <time>2021-02-28T11:10:27.000Z</time>
      </trkpt>
      <trkpt lat="47.10435" lon="-1.5956">
        <ele>60</ele>
        <time>2021-02-28T11:10:29.000Z</time>
      </trkpt>
      <trkpt lat="47.10425" lon="-1.59578">
        <ele>60</ele>
        <time>2021-02-28T11:10:31.000Z</time>
      </trkpt>
      <trkpt lat="47.10414" lon="-1.59596">
        <ele>59</ele>
        <time>2021-02-28T11:10:33.000Z</time>
      </trkpt>
      <trkpt lat="47.10404" lon="-1.59614">
        <ele>59</ele>
        <time>2021-02-28T11:10:35.000Z</time>
      </trkpt>
      <trkpt lat="47.10392" lon="-1.59631">
        <ele>59</ele>
        <time>2021-02-28T11:10:37.000Z</time>
      </trkpt>
      <trkpt lat="47.10381" lon="-1.59649">
        <ele>60</ele>
        <time>2021-02-28T11:10:39.000Z</time>
      </trkpt>
      <trkpt lat="47.10371" lon="-1.59667">
        <ele>59</ele>
        <time>2021-02-28T11:10:41.000Z</time>
      </trkpt>
      <trkpt lat="47.1036" lon="-1.59685">
        <ele>59</ele>
        <time>2021-02-28T11:10:43.000Z</time>
      </trkpt>
      <trkpt lat="47.10349" lon="-1.59704">
        <ele>59</ele>
        <time>2021-02-28T11:10:45.000Z</time>
      </trkpt>
      <trkpt lat="47.10337" lon="-1.59722">
        <ele>58</ele>
        <time>2021-02-28T11:10:47.000Z</time>
      </trkpt>
      <trkpt lat="47.10326" lon="-1.59741">
        <ele>58</ele>
        <time>2021-02-28T11:10:49.000Z</time>
      </trkpt>
      <trkpt lat="47.10315" lon="-1.59759">
        <ele>58</ele>
        <time>2021-02-28T11:10:51.000Z</time>
      </trkpt>
      <trkpt lat="47.10304" lon="-1.59778">
        <ele>58</ele>
        <time>2021-02-28T11:10:53.000Z</time>
      </trkpt>
      <trkpt lat="47.10292" lon="-1.59798">
        <ele>58</ele>
        <time>2021-02-28T11:10:55.000Z</time>
      </trkpt>
      <trkpt lat="47.10281" lon="-1.59816">
        <ele>58</ele>
        <time>2021-02-28T11:10:57.000Z</time>
      </trkpt>
      <trkpt lat="47.10271" lon="-1.59835">
        <ele>58</ele>
        <time>2021-02-28T11:10:59.000Z</time>
      </trkpt>
      <trkpt lat="47.10259" lon="-1.59854">
        <ele>57</ele>
        <time>2021-02-28T11:11:01.000Z</time>
      </trkpt>
      <trkpt lat="47.10248" lon="-1.59872">
        <ele>57</ele>
        <time>2021-02-28T11:11:03.000Z</time>
      </trkpt>
      <trkpt lat="47.10237" lon="-1.5989">
        <ele>57</ele>
        <time>2021-02-28T11:11:05.000Z</time>
      </trkpt>
      <trkpt lat="47.10226" lon="-1.59909">
        <ele>57</ele>
        <time>2021-02-28T11:11:07.000Z</time>
      </trkpt>
      <trkpt lat="47.10216" lon="-1.59927">
        <ele>57</ele>
        <time>2021-02-28T11:11:09.000Z</time>
      </trkpt>
      <trkpt lat="47.10205" lon="-1.59945">
        <ele>57</ele>
        <time>2021-02-28T11:11:11.000Z</time>
      </trkpt>
      <trkpt lat="47.10194" lon="-1.59963">
        <ele>57</ele>
        <time>2021-02-28T11:11:13.000Z</time>
      </trkpt>
      <trkpt lat="47.10183" lon="-1.59982">
        <ele>56</ele>
        <time>2021-02-28T11:11:15.000Z</time>
      </trkpt>
      <trkpt lat="47.10173" lon="-1.6">
        <ele>56</ele>
        <time>2021-02-28T11:11:17.000Z</time>
      </trkpt>
      <trkpt lat="47.10162" lon="-1.60018">
        <ele>57</ele>
        <time>2021-02-28T11:11:19.000Z</time>
      </trkpt>
      <trkpt lat="47.1015" lon="-1.60036">
        <ele>57</ele>
        <time>2021-02-28T11:11:21.000Z</time>
      </trkpt>
      <trkpt lat="47.10139" lon="-1.60054">
        <ele>57</ele>
        <time>2021-02-28T11:11:23.000Z</time>
      </trkpt>
      <trkpt lat="47.10129" lon="-1.60071">
        <ele>57</ele>
        <time>2021-02-28T11:11:25.000Z</time>
      </trkpt>
      <trkpt lat="47.10119" lon="-1.60089">
        <ele>57</ele>
        <time>2021-02-28T11:11:27.000Z</time>
      </trkpt>
      <trkpt lat="47.1011" lon="-1.60108">
        <ele>57</ele>
        <time>2021-02-28T11:11:29.000Z</time>
      </trkpt>
      <trkpt lat="47.10107" lon="-1.60131">
        <ele>57</ele>
        <time>2021-02-28T11:11:31.000Z</time>
      </trkpt>
      <trkpt lat="47.10101" lon="-1.60152">
        <ele>58</ele>
        <time>2021-02-28T11:11:33.000Z</time>
      </trkpt>
      <trkpt lat="47.10092" lon="-1.6017">
        <ele>58</ele>
        <time>2021-02-28T11:11:35.000Z</time>
      </trkpt>
      <trkpt lat="47.10087" lon="-1.60192">
        <ele>57</ele>
        <time>2021-02-28T11:11:37.000Z</time>
      </trkpt>
      <trkpt lat="47.10085" lon="-1.60214">
        <ele>58</ele>
        <time>2021-02-28T11:11:39.000Z</time>
      </trkpt>
      <trkpt lat="47.10082" lon="-1.60236">
        <ele>58</ele>
        <time>2021-02-28T11:11:41.000Z</time>
      </trkpt>
      <trkpt lat="47.1008" lon="-1.60257">
        <ele>58</ele>
        <time>2021-02-28T11:11:43.000Z</time>
      </trkpt>
      <trkpt lat="47.10078" lon="-1.60279">
        <ele>58</ele>
        <time>2021-02-28T11:11:45.000Z</time>
      </trkpt>
      <trkpt lat="47.10077" lon="-1.60301">
        <ele>58</ele>
        <time>2021-02-28T11:11:47.000Z</time>
      </trkpt>
      <trkpt lat="47.10075" lon="-1.60323">
        <ele>58</ele>
        <time>2021-02-28T11:11:49.000Z</time>
      </trkpt>
      <trkpt lat="47.10073" lon="-1.60345">
        <ele>58</ele>
        <time>2021-02-28T11:11:51.000Z</time>
      </trkpt>
      <trkpt lat="47.10071" lon="-1.60367">
        <ele>59</ele>
        <time>2021-02-28T11:11:53.000Z</time>
      </trkpt>
      <trkpt lat="47.10068" lon="-1.60389">
        <ele>59</ele>
        <time>2021-02-28T11:11:55.000Z</time>
      </trkpt>
      <trkpt lat="47.10065" lon="-1.60411">
        <ele>58</ele>
        <time>2021-02-28T11:11:57.000Z</time>
      </trkpt>
      <trkpt lat="47.10062" lon="-1.60433">
        <ele>58</ele>
        <time>2021-02-28T11:11:59.000Z</time>
      </trkpt>
      <trkpt lat="47.10059" lon="-1.60455">
        <ele>59</ele>
        <time>2021-02-28T11:12:01.000Z</time>
      </trkpt>
      <trkpt lat="47.10055" lon="-1.60477">
        <ele>59</ele>
        <time>2021-02-28T11:12:03.000Z</time>
      </trkpt>
      <trkpt lat="47.10051" lon="-1.60499">
        <ele>60</ele>
        <time>2021-02-28T11:12:05.000Z</time>
      </trkpt>
      <trkpt lat="47.10045" lon="-1.6052">
        <ele>60</ele>
        <time>2021-02-28T11:12:07.000Z</time>
      </trkpt>
      <trkpt lat="47.10039" lon="-1.60541">
        <ele>60</ele>
        <time>2021-02-28T11:12:09.000Z</time>
      </trkpt>
      <trkpt lat="47.10033" lon="-1.60562">
        <ele>60</ele>
        <time>2021-02-28T11:12:11.000Z</time>
      </trkpt>
      <trkpt lat="47.10027" lon="-1.60582">
        <ele>60</ele>
        <time>2021-02-28T11:12:13.000Z</time>
      </trkpt>
      <trkpt lat="47.1002" lon="-1.60602">
        <ele>59</ele>
        <time>2021-02-28T11:12:15.000Z</time>
      </trkpt>
      <trkpt lat="47.10014" lon="-1.60622">
        <ele>59</ele>
        <time>2021-02-28T11:12:17.000Z</time>
      </trkpt>
      <trkpt lat="47.10008" lon="-1.60642">
        <ele>59</ele>
        <time>2021-02-28T11:12:19.000Z</time>
      </trkpt>
      <trkpt lat="47.10002" lon="-1.60663">
        <ele>59</ele>
        <time>2021-02-28T11:12:21.000Z</time>
      </trkpt>
      <trkpt lat="47.09997" lon="-1.60683">
        <ele>59</ele>
        <time>2021-02-28T11:12:23.000Z</time>
      </trkpt>
      <trkpt lat="47.09991" lon="-1.60704">
        <ele>59</ele>
        <time>2021-02-28T11:12:25.000Z</time>
      </trkpt>
      <trkpt lat="47.09985" lon="-1.60723">
        <ele>59</ele>
        <time>2021-02-28T11:12:27.000Z</time>
      </trkpt>
      <trkpt lat="47.09978" lon="-1.60743">
        <ele>59</ele>
        <time>2021-02-28T11:12:29.000Z</time>
      </trkpt>
      <trkpt lat="47.09972" lon="-1.60763">
        <ele>59</ele>
        <time>2021-02-28T11:12:31.000Z</time>
      </trkpt>
      <trkpt lat="47.09966" lon="-1.60783">
        <ele>58</ele>
        <time>2021-02-28T11:12:33.000Z</time>
      </trkpt>
      <trkpt lat="47.0996" lon="-1.60803">
        <ele>58</ele>
        <time>2021-02-28T11:12:35.000Z</time>
      </trkpt>
      <trkpt lat="47.09954" lon="-1.60824">
        <ele>58</ele>
        <time>2021-02-28T11:12:37.000Z</time>
      </trkpt>
      <trkpt lat="47.09948" lon="-1.60844">
        <ele>58</ele>
        <time>2021-02-28T11:12:39.000Z</time>
      </trkpt>
      <trkpt lat="47.0994" lon="-1.60864">
        <ele>58</ele>
        <time>2021-02-28T11:12:41.000Z</time>
      </trkpt>
      <trkpt lat="47.09933" lon="-1.60884">
        <ele>57</ele>
        <time>2021-02-28T11:12:43.000Z</time>
      </trkpt>
      <trkpt lat="47.09924" lon="-1.60903">
        <ele>57</ele>
        <time>2021-02-28T11:12:45.000Z</time>
      </trkpt>
      <trkpt lat="47.09916" lon="-1.60924">
        <ele>57</ele>
        <time>2021-02-28T11:12:47.000Z</time>
      </trkpt>
      <trkpt lat="47.09908" lon="-1.60944">
        <ele>57</ele>
        <time>2021-02-28T11:12:49.000Z</time>
      </trkpt>
      <trkpt lat="47.099" lon="-1.60966">
        <ele>56</ele>
        <time>2021-02-28T11:12:51.000Z</time>
      </trkpt>
      <trkpt lat="47.09892" lon="-1.60987">
        <ele>55</ele>
        <time>2021-02-28T11:12:53.000Z</time>
      </trkpt>
      <trkpt lat="47.09883" lon="-1.61009">
        <ele>55</ele>
        <time>2021-02-28T11:12:55.000Z</time>
      </trkpt>
      <trkpt lat="47.09874" lon="-1.61029">
        <ele>55</ele>
        <time>2021-02-28T11:12:57.000Z</time>
      </trkpt>
      <trkpt lat="47.09865" lon="-1.61051">
        <ele>54</ele>
        <time>2021-02-28T11:12:59.000Z</time>
      </trkpt>
      <trkpt lat="47.09854" lon="-1.61071">
        <ele>54</ele>
        <time>2021-02-28T11:13:01.000Z</time>
      </trkpt>
      <trkpt lat="47.09841" lon="-1.61086">
        <ele>54</ele>
        <time>2021-02-28T11:13:03.000Z</time>
      </trkpt>
      <trkpt lat="47.09833" lon="-1.61093">
        <ele>54</ele>
        <time>2021-02-28T11:13:04.000Z</time>
      </trkpt>
      <trkpt lat="47.09825" lon="-1.61099">
        <ele>54</ele>
        <time>2021-02-28T11:13:05.000Z</time>
      </trkpt>
      <trkpt lat="47.09816" lon="-1.61104">
        <ele>54</ele>
        <time>2021-02-28T11:13:06.000Z</time>
      </trkpt>
      <trkpt lat="47.098" lon="-1.6111">
        <ele>53</ele>
        <time>2021-02-28T11:13:08.000Z</time>
      </trkpt>
      <trkpt lat="47.09783" lon="-1.61114">
        <ele>53</ele>
        <time>2021-02-28T11:13:10.000Z</time>
      </trkpt>
      <trkpt lat="47.09766" lon="-1.61115">
        <ele>53</ele>
        <time>2021-02-28T11:13:12.000Z</time>
      </trkpt>
      <trkpt lat="47.0975" lon="-1.61117">
        <ele>52</ele>
        <time>2021-02-28T11:13:14.000Z</time>
      </trkpt>
      <trkpt lat="47.09734" lon="-1.61119">
        <ele>52</ele>
        <time>2021-02-28T11:13:16.000Z</time>
      </trkpt>
      <trkpt lat="47.09718" lon="-1.61121">
        <ele>52</ele>
        <time>2021-02-28T11:13:18.000Z</time>
      </trkpt>
      <trkpt lat="47.09703" lon="-1.61122">
        <ele>52</ele>
        <time>2021-02-28T11:13:20.000Z</time>
      </trkpt>
      <trkpt lat="47.09688" lon="-1.61125">
        <ele>51</ele>
        <time>2021-02-28T11:13:22.000Z</time>
      </trkpt>
      <trkpt lat="47.09674" lon="-1.61127">
        <ele>51</ele>
        <time>2021-02-28T11:13:24.000Z</time>
      </trkpt>
      <trkpt lat="47.09659" lon="-1.61127">
        <ele>52</ele>
        <time>2021-02-28T11:13:26.000Z</time>
      </trkpt>
      <trkpt lat="47.09646" lon="-1.61128">
        <ele>52</ele>
        <time>2021-02-28T11:13:28.000Z</time>
      </trkpt>
      <trkpt lat="47.09632" lon="-1.6113">
        <ele>52</ele>
        <time>2021-02-28T11:13:30.000Z</time>
      </trkpt>
      <trkpt lat="47.09619" lon="-1.61132">
        <ele>52</ele>
        <time>2021-02-28T11:13:32.000Z</time>
      </trkpt>
      <trkpt lat="47.09605" lon="-1.61133">
        <ele>52</ele>
        <time>2021-02-28T11:13:34.000Z</time>
      </trkpt>
      <trkpt lat="47.09591" lon="-1.61136">
        <ele>52</ele>
        <time>2021-02-28T11:13:36.000Z</time>
      </trkpt>
      <trkpt lat="47.09579" lon="-1.61137">
        <ele>52</ele>
        <time>2021-02-28T11:13:38.000Z</time>
      </trkpt>
      <trkpt lat="47.09566" lon="-1.61139">
        <ele>52</ele>
        <time>2021-02-28T11:13:40.000Z</time>
      </trkpt>
      <trkpt lat="47.09552" lon="-1.61141">
        <ele>53</ele>
        <time>2021-02-28T11:13:42.000Z</time>
      </trkpt>
      <trkpt lat="47.09539" lon="-1.61143">
        <ele>53</ele>
        <time>2021-02-28T11:13:44.000Z</time>
      </trkpt>
      <trkpt lat="47.09525" lon="-1.61146">
        <ele>53</ele>
        <time>2021-02-28T11:13:46.000Z</time>
      </trkpt>
      <trkpt lat="47.09512" lon="-1.61149">
        <ele>53</ele>
        <time>2021-02-28T11:13:48.000Z</time>
      </trkpt>
      <trkpt lat="47.09499" lon="-1.61157">
        <ele>53</ele>
        <time>2021-02-28T11:13:50.000Z</time>
      </trkpt>
      <trkpt lat="47.09487" lon="-1.61165">
        <ele>54</ele>
        <time>2021-02-28T11:13:52.000Z</time>
      </trkpt>
      <trkpt lat="47.09476" lon="-1.61177">
        <ele>54</ele>
        <time>2021-02-28T11:13:54.000Z</time>
      </trkpt>
      <trkpt lat="47.09465" lon="-1.6119">
        <ele>54</ele>
        <time>2021-02-28T11:13:56.000Z</time>
      </trkpt>
      <trkpt lat="47.09455" lon="-1.61202">
        <ele>54</ele>
        <time>2021-02-28T11:13:58.000Z</time>
      </trkpt>
      <trkpt lat="47.09445" lon="-1.61214">
        <ele>54</ele>
        <time>2021-02-28T11:14:00.000Z</time>
      </trkpt>
      <trkpt lat="47.09434" lon="-1.61226">
        <ele>54</ele>
        <time>2021-02-28T11:14:02.000Z</time>
      </trkpt>
      <trkpt lat="47.09423" lon="-1.61237">
        <ele>55</ele>
        <time>2021-02-28T11:14:04.000Z</time>
      </trkpt>
      <trkpt lat="47.0941" lon="-1.61238">
        <ele>56</ele>
        <time>2021-02-28T11:14:06.000Z</time>
      </trkpt>
      <trkpt lat="47.09397" lon="-1.61231">
        <ele>56</ele>
        <time>2021-02-28T11:14:08.000Z</time>
      </trkpt>
      <trkpt lat="47.09384" lon="-1.61225">
        <ele>56</ele>
        <time>2021-02-28T11:14:10.000Z</time>
      </trkpt>
      <trkpt lat="47.09371" lon="-1.61219">
        <ele>57</ele>
        <time>2021-02-28T11:14:12.000Z</time>
      </trkpt>
      <trkpt lat="47.09358" lon="-1.61214">
        <ele>57</ele>
        <time>2021-02-28T11:14:14.000Z</time>
      </trkpt>
      <trkpt lat="47.09345" lon="-1.61209">
        <ele>58</ele>
        <time>2021-02-28T11:14:16.000Z</time>
      </trkpt>
      <trkpt lat="47.09331" lon="-1.61206">
        <ele>58</ele>
        <time>2021-02-28T11:14:18.000Z</time>
      </trkpt>
      <trkpt lat="47.09318" lon="-1.61202">
        <ele>58</ele>
        <time>2021-02-28T11:14:20.000Z</time>
      </trkpt>
      <trkpt lat="47.09305" lon="-1.61199">
        <ele>58</ele>
        <time>2021-02-28T11:14:22.000Z</time>
      </trkpt>
      <trkpt lat="47.09294" lon="-1.61196">
        <ele>59</ele>
        <time>2021-02-28T11:14:24.000Z</time>
      </trkpt>
      <trkpt lat="47.09282" lon="-1.61191">
        <ele>60</ele>
        <time>2021-02-28T11:14:27.000Z</time>
      </trkpt>
      <trkpt lat="47.09272" lon="-1.6119">
        <ele>60</ele>
        <time>2021-02-28T11:14:34.000Z</time>
      </trkpt>
      <trkpt lat="47.09263" lon="-1.61187">
        <ele>60</ele>
        <time>2021-02-28T11:14:47.000Z</time>
      </trkpt>
      <trkpt lat="47.09254" lon="-1.61183">
        <ele>61</ele>
        <time>2021-02-28T11:14:49.000Z</time>
      </trkpt>
      <trkpt lat="47.09243" lon="-1.61179">
        <ele>61</ele>
        <time>2021-02-28T11:14:51.000Z</time>
      </trkpt>
      <trkpt lat="47.09232" lon="-1.61173">
        <ele>61</ele>
        <time>2021-02-28T11:14:53.000Z</time>
      </trkpt>
      <trkpt lat="47.09221" lon="-1.61161">
        <ele>62</ele>
        <time>2021-02-28T11:14:55.000Z</time>
      </trkpt>
      <trkpt lat="47.09212" lon="-1.61148">
        <ele>62</ele>
        <time>2021-02-28T11:14:57.000Z</time>
      </trkpt>
      <trkpt lat="47.09209" lon="-1.6113">
        <ele>61</ele>
        <time>2021-02-28T11:14:59.000Z</time>
      </trkpt>
      <trkpt lat="47.09209" lon="-1.61112">
        <ele>61</ele>
        <time>2021-02-28T11:15:01.000Z</time>
      </trkpt>
      <trkpt lat="47.09208" lon="-1.61094">
        <ele>61</ele>
        <time>2021-02-28T11:15:03.000Z</time>
      </trkpt>
      <trkpt lat="47.09207" lon="-1.61076">
        <ele>61</ele>
        <time>2021-02-28T11:15:05.000Z</time>
      </trkpt>
      <trkpt lat="47.09205" lon="-1.61059">
        <ele>60</ele>
        <time>2021-02-28T11:15:07.000Z</time>
      </trkpt>
      <trkpt lat="47.09205" lon="-1.61041">
        <ele>60</ele>
        <time>2021-02-28T11:15:09.000Z</time>
      </trkpt>
      <trkpt lat="47.09203" lon="-1.61024">
        <ele>60</ele>
        <time>2021-02-28T11:15:11.000Z</time>
      </trkpt>
      <trkpt lat="47.09202" lon="-1.61008">
        <ele>60</ele>
        <time>2021-02-28T11:15:13.000Z</time>
      </trkpt>
      <trkpt lat="47.092" lon="-1.6099">
        <ele>60</ele>
        <time>2021-02-28T11:15:15.000Z</time>
      </trkpt>
      <trkpt lat="47.09199" lon="-1.60973">
        <ele>60</ele>
        <time>2021-02-28T11:15:17.000Z</time>
      </trkpt>
      <trkpt lat="47.09198" lon="-1.60955">
        <ele>59</ele>
        <time>2021-02-28T11:15:19.000Z</time>
      </trkpt>
      <trkpt lat="47.09195" lon="-1.60938">
        <ele>59</ele>
        <time>2021-02-28T11:15:21.000Z</time>
      </trkpt>
      <trkpt lat="47.09193" lon="-1.6092">
        <ele>59</ele>
        <time>2021-02-28T11:15:23.000Z</time>
      </trkpt>
      <trkpt lat="47.09189" lon="-1.60903">
        <ele>59</ele>
        <time>2021-02-28T11:15:25.000Z</time>
      </trkpt>
      <trkpt lat="47.09186" lon="-1.60886">
        <ele>59</ele>
        <time>2021-02-28T11:15:27.000Z</time>
      </trkpt>
      <trkpt lat="47.09183" lon="-1.60869">
        <ele>60</ele>
        <time>2021-02-28T11:15:29.000Z</time>
      </trkpt>
      <trkpt lat="47.09179" lon="-1.60854">
        <ele>60</ele>
        <time>2021-02-28T11:15:31.000Z</time>
      </trkpt>
      <trkpt lat="47.09175" lon="-1.60838">
        <ele>59</ele>
        <time>2021-02-28T11:15:33.000Z</time>
      </trkpt>
      <trkpt lat="47.09171" lon="-1.60821">
        <ele>59</ele>
        <time>2021-02-28T11:15:35.000Z</time>
      </trkpt>
      <trkpt lat="47.09167" lon="-1.60804">
        <ele>59</ele>
        <time>2021-02-28T11:15:37.000Z</time>
      </trkpt>
      <trkpt lat="47.09164" lon="-1.60788">
        <ele>59</ele>
        <time>2021-02-28T11:15:39.000Z</time>
      </trkpt>
      <trkpt lat="47.09161" lon="-1.60772">
        <ele>59</ele>
        <time>2021-02-28T11:15:41.000Z</time>
      </trkpt>
      <trkpt lat="47.09157" lon="-1.60756">
        <ele>59</ele>
        <time>2021-02-28T11:15:43.000Z</time>
      </trkpt>
      <trkpt lat="47.09154" lon="-1.6074">
        <ele>59</ele>
        <time>2021-02-28T11:15:45.000Z</time>
      </trkpt>
      <trkpt lat="47.0915" lon="-1.60724">
        <ele>59</ele>
        <time>2021-02-28T11:15:47.000Z</time>
      </trkpt>
      <trkpt lat="47.09146" lon="-1.60709">
        <ele>59</ele>
        <time>2021-02-28T11:15:49.000Z</time>
      </trkpt>
      <trkpt lat="47.09143" lon="-1.60692">
        <ele>59</ele>
        <time>2021-02-28T11:15:51.000Z</time>
      </trkpt>
      <trkpt lat="47.09139" lon="-1.60676">
        <ele>59</ele>
        <time>2021-02-28T11:15:53.000Z</time>
      </trkpt>
      <trkpt lat="47.09136" lon="-1.6066">
        <ele>59</ele>
        <time>2021-02-28T11:15:55.000Z</time>
      </trkpt>
      <trkpt lat="47.09132" lon="-1.60643">
        <ele>59</ele>
        <time>2021-02-28T11:15:57.000Z</time>
      </trkpt>
      <trkpt lat="47.09127" lon="-1.60627">
        <ele>58</ele>
        <time>2021-02-28T11:15:59.000Z</time>
      </trkpt>
      <trkpt lat="47.09123" lon="-1.60612">
        <ele>58</ele>
        <time>2021-02-28T11:16:01.000Z</time>
      </trkpt>
      <trkpt lat="47.09117" lon="-1.60597">
        <ele>58</ele>
        <time>2021-02-28T11:16:03.000Z</time>
      </trkpt>
      <trkpt lat="47.09111" lon="-1.60582">
        <ele>58</ele>
        <time>2021-02-28T11:16:05.000Z</time>
      </trkpt>
      <trkpt lat="47.09106" lon="-1.60567">
        <ele>58</ele>
        <time>2021-02-28T11:16:07.000Z</time>
      </trkpt>
      <trkpt lat="47.091" lon="-1.60553">
        <ele>58</ele>
        <time>2021-02-28T11:16:09.000Z</time>
      </trkpt>
      <trkpt lat="47.09094" lon="-1.60538">
        <ele>58</ele>
        <time>2021-02-28T11:16:11.000Z</time>
      </trkpt>
      <trkpt lat="47.09088" lon="-1.60524">
        <ele>58</ele>
        <time>2021-02-28T11:16:13.000Z</time>
      </trkpt>
      <trkpt lat="47.09082" lon="-1.6051">
        <ele>58</ele>
        <time>2021-02-28T11:16:15.000Z</time>
      </trkpt>
      <trkpt lat="47.09076" lon="-1.60496">
        <ele>58</ele>
        <time>2021-02-28T11:16:17.000Z</time>
      </trkpt>
      <trkpt lat="47.09069" lon="-1.60483">
        <ele>58</ele>
        <time>2021-02-28T11:16:19.000Z</time>
      </trkpt>
      <trkpt lat="47.09062" lon="-1.60469">
        <ele>58</ele>
        <time>2021-02-28T11:16:21.000Z</time>
      </trkpt>
      <trkpt lat="47.09056" lon="-1.60455">
        <ele>58</ele>
        <time>2021-02-28T11:16:23.000Z</time>
      </trkpt>
      <trkpt lat="47.09049" lon="-1.60442">
        <ele>58</ele>
        <time>2021-02-28T11:16:25.000Z</time>
      </trkpt>
      <trkpt lat="47.09041" lon="-1.60429">
        <ele>58</ele>
        <time>2021-02-28T11:16:27.000Z</time>
      </trkpt>
      <trkpt lat="47.09034" lon="-1.60416">
        <ele>58</ele>
        <time>2021-02-28T11:16:29.000Z</time>
      </trkpt>
      <trkpt lat="47.09028" lon="-1.60402">
        <ele>58</ele>
        <time>2021-02-28T11:16:31.000Z</time>
      </trkpt>
      <trkpt lat="47.09021" lon="-1.60389">
        <ele>58</ele>
        <time>2021-02-28T11:16:33.000Z</time>
      </trkpt>
      <trkpt lat="47.09014" lon="-1.60375">
        <ele>58</ele>
        <time>2021-02-28T11:16:35.000Z</time>
      </trkpt>
      <trkpt lat="47.09007" lon="-1.60362">
        <ele>58</ele>
        <time>2021-02-28T11:16:37.000Z</time>
      </trkpt>
      <trkpt lat="47.09" lon="-1.60349">
        <ele>58</ele>
        <time>2021-02-28T11:16:39.000Z</time>
      </trkpt>
      <trkpt lat="47.08993" lon="-1.60336">
        <ele>58</ele>
        <time>2021-02-28T11:16:41.000Z</time>
      </trkpt>
      <trkpt lat="47.08986" lon="-1.60322">
        <ele>58</ele>
        <time>2021-02-28T11:16:43.000Z</time>
      </trkpt>
      <trkpt lat="47.0898" lon="-1.60308">
        <ele>58</ele>
        <time>2021-02-28T11:16:45.000Z</time>
      </trkpt>
      <trkpt lat="47.08973" lon="-1.60295">
        <ele>59</ele>
        <time>2021-02-28T11:16:47.000Z</time>
      </trkpt>
      <trkpt lat="47.08966" lon="-1.60281">
        <ele>59</ele>
        <time>2021-02-28T11:16:49.000Z</time>
      </trkpt>
      <trkpt lat="47.0896" lon="-1.60268">
        <ele>58</ele>
        <time>2021-02-28T11:16:51.000Z</time>
      </trkpt>
      <trkpt lat="47.08953" lon="-1.60254">
        <ele>58</ele>
        <time>2021-02-28T11:16:53.000Z</time>
      </trkpt>
      <trkpt lat="47.08946" lon="-1.60241">
        <ele>58</ele>
        <time>2021-02-28T11:16:55.000Z</time>
      </trkpt>
      <trkpt lat="47.08939" lon="-1.60226">
        <ele>59</ele>
        <time>2021-02-28T11:16:57.000Z</time>
      </trkpt>
      <trkpt lat="47.08931" lon="-1.60213">
        <ele>59</ele>
        <time>2021-02-28T11:16:59.000Z</time>
      </trkpt>
      <trkpt lat="47.08924" lon="-1.60198">
        <ele>59</ele>
        <time>2021-02-28T11:17:01.000Z</time>
      </trkpt>
      <trkpt lat="47.08917" lon="-1.60185">
        <ele>59</ele>
        <time>2021-02-28T11:17:03.000Z</time>
      </trkpt>
      <trkpt lat="47.0891" lon="-1.60171">
        <ele>59</ele>
        <time>2021-02-28T11:17:05.000Z</time>
      </trkpt>
      <trkpt lat="47.08903" lon="-1.60158">
        <ele>59</ele>
        <time>2021-02-28T11:17:07.000Z</time>
      </trkpt>
      <trkpt lat="47.08897" lon="-1.60145">
        <ele>59</ele>
        <time>2021-02-28T11:17:09.000Z</time>
      </trkpt>
      <trkpt lat="47.0889" lon="-1.60131">
        <ele>59</ele>
        <time>2021-02-28T11:17:11.000Z</time>
      </trkpt>
      <trkpt lat="47.08883" lon="-1.60118">
        <ele>60</ele>
        <time>2021-02-28T11:17:13.000Z</time>
      </trkpt>
      <trkpt lat="47.08877" lon="-1.60104">
        <ele>60</ele>
        <time>2021-02-28T11:17:15.000Z</time>
      </trkpt>
      <trkpt lat="47.0887" lon="-1.6009">
        <ele>60</ele>
        <time>2021-02-28T11:17:17.000Z</time>
      </trkpt>
      <trkpt lat="47.08864" lon="-1.60076">
        <ele>60</ele>
        <time>2021-02-28T11:17:19.000Z</time>
      </trkpt>
      <trkpt lat="47.08857" lon="-1.60063">
        <ele>60</ele>
        <time>2021-02-28T11:17:21.000Z</time>
      </trkpt>
      <trkpt lat="47.0885" lon="-1.60051">
        <ele>60</ele>
        <time>2021-02-28T11:17:23.000Z</time>
      </trkpt>
      <trkpt lat="47.08844" lon="-1.60039">
        <ele>61</ele>
        <time>2021-02-28T11:17:25.000Z</time>
      </trkpt>
      <trkpt lat="47.08838" lon="-1.60026">
        <ele>61</ele>
        <time>2021-02-28T11:17:27.000Z</time>
      </trkpt>
      <trkpt lat="47.08831" lon="-1.60012">
        <ele>62</ele>
        <time>2021-02-28T11:17:29.000Z</time>
      </trkpt>
      <trkpt lat="47.08823" lon="-1.59998">
        <ele>62</ele>
        <time>2021-02-28T11:17:31.000Z</time>
      </trkpt>
      <trkpt lat="47.08815" lon="-1.59983">
        <ele>61</ele>
        <time>2021-02-28T11:17:33.000Z</time>
      </trkpt>
      <trkpt lat="47.08807" lon="-1.59966">
        <ele>61</ele>
        <time>2021-02-28T11:17:35.000Z</time>
      </trkpt>
      <trkpt lat="47.08799" lon="-1.59952">
        <ele>60</ele>
        <time>2021-02-28T11:17:37.000Z</time>
      </trkpt>
      <trkpt lat="47.08791" lon="-1.59936">
        <ele>60</ele>
        <time>2021-02-28T11:17:39.000Z</time>
      </trkpt>
      <trkpt lat="47.08784" lon="-1.59922">
        <ele>59</ele>
        <time>2021-02-28T11:17:41.000Z</time>
      </trkpt>
      <trkpt lat="47.08776" lon="-1.59907">
        <ele>58</ele>
        <time>2021-02-28T11:17:43.000Z</time>
      </trkpt>
      <trkpt lat="47.08769" lon="-1.59893">
        <ele>58</ele>
        <time>2021-02-28T11:17:45.000Z</time>
      </trkpt>
      <trkpt lat="47.08761" lon="-1.59878">
        <ele>58</ele>
        <time>2021-02-28T11:17:47.000Z</time>
      </trkpt>
      <trkpt lat="47.08753" lon="-1.59864">
        <ele>57</ele>
        <time>2021-02-28T11:17:49.000Z</time>
      </trkpt>
      <trkpt lat="47.08746" lon="-1.59849">
        <ele>57</ele>
        <time>2021-02-28T11:17:51.000Z</time>
      </trkpt>
      <trkpt lat="47.08738" lon="-1.59835">
        <ele>57</ele>
        <time>2021-02-28T11:17:53.000Z</time>
      </trkpt>
      <trkpt lat="47.08731" lon="-1.5982">
        <ele>57</ele>
        <time>2021-02-28T11:17:55.000Z</time>
      </trkpt>
      <trkpt lat="47.08724" lon="-1.59805">
        <ele>57</ele>
        <time>2021-02-28T11:17:57.000Z</time>
      </trkpt>
      <trkpt lat="47.08716" lon="-1.59791">
        <ele>57</ele>
        <time>2021-02-28T11:17:59.000Z</time>
      </trkpt>
      <trkpt lat="47.08709" lon="-1.59776">
        <ele>56</ele>
        <time>2021-02-28T11:18:01.000Z</time>
      </trkpt>
      <trkpt lat="47.08702" lon="-1.59761">
        <ele>56</ele>
        <time>2021-02-28T11:18:03.000Z</time>
      </trkpt>
      <trkpt lat="47.08695" lon="-1.59745">
        <ele>56</ele>
        <time>2021-02-28T11:18:05.000Z</time>
      </trkpt>
      <trkpt lat="47.08688" lon="-1.59729">
        <ele>56</ele>
        <time>2021-02-28T11:18:07.000Z</time>
      </trkpt>
      <trkpt lat="47.08681" lon="-1.59713">
        <ele>56</ele>
        <time>2021-02-28T11:18:09.000Z</time>
      </trkpt>
      <trkpt lat="47.08674" lon="-1.59697">
        <ele>55</ele>
        <time>2021-02-28T11:18:11.000Z</time>
      </trkpt>
      <trkpt lat="47.08668" lon="-1.59681">
        <ele>55</ele>
        <time>2021-02-28T11:18:13.000Z</time>
      </trkpt>
      <trkpt lat="47.08661" lon="-1.59665">
        <ele>55</ele>
        <time>2021-02-28T11:18:15.000Z</time>
      </trkpt>
      <trkpt lat="47.08655" lon="-1.5965">
        <ele>55</ele>
        <time>2021-02-28T11:18:17.000Z</time>
      </trkpt>
      <trkpt lat="47.08648" lon="-1.59634">
        <ele>55</ele>
        <time>2021-02-28T11:18:19.000Z</time>
      </trkpt>
      <trkpt lat="47.08642" lon="-1.59618">
        <ele>55</ele>
        <time>2021-02-28T11:18:21.000Z</time>
      </trkpt>
      <trkpt lat="47.08637" lon="-1.59603">
        <ele>54</ele>
        <time>2021-02-28T11:18:23.000Z</time>
      </trkpt>
      <trkpt lat="47.08632" lon="-1.59589">
        <ele>55</ele>
        <time>2021-02-28T11:18:25.000Z</time>
      </trkpt>
      <trkpt lat="47.08626" lon="-1.59576">
        <ele>54</ele>
        <time>2021-02-28T11:18:27.000Z</time>
      </trkpt>
      <trkpt lat="47.08621" lon="-1.59562">
        <ele>55</ele>
        <time>2021-02-28T11:18:29.000Z</time>
      </trkpt>
      <trkpt lat="47.08615" lon="-1.59548">
        <ele>55</ele>
        <time>2021-02-28T11:18:31.000Z</time>
      </trkpt>
      <trkpt lat="47.08609" lon="-1.59534">
        <ele>55</ele>
        <time>2021-02-28T11:18:33.000Z</time>
      </trkpt>
      <trkpt lat="47.08603" lon="-1.5952">
        <ele>55</ele>
        <time>2021-02-28T11:18:35.000Z</time>
      </trkpt>
      <trkpt lat="47.08597" lon="-1.59505">
        <ele>55</ele>
        <time>2021-02-28T11:18:37.000Z</time>
      </trkpt>
      <trkpt lat="47.08591" lon="-1.59491">
        <ele>55</ele>
        <time>2021-02-28T11:18:39.000Z</time>
      </trkpt>
      <trkpt lat="47.08586" lon="-1.59477">
        <ele>55</ele>
        <time>2021-02-28T11:18:41.000Z</time>
      </trkpt>
      <trkpt lat="47.0858" lon="-1.59462">
        <ele>55</ele>
        <time>2021-02-28T11:18:43.000Z</time>
      </trkpt>
      <trkpt lat="47.08574" lon="-1.59447">
        <ele>55</ele>
        <time>2021-02-28T11:18:45.000Z</time>
      </trkpt>
      <trkpt lat="47.08568" lon="-1.59432">
        <ele>55</ele>
        <time>2021-02-28T11:18:47.000Z</time>
      </trkpt>
      <trkpt lat="47.08562" lon="-1.59417">
        <ele>55</ele>
        <time>2021-02-28T11:18:49.000Z</time>
      </trkpt>
      <trkpt lat="47.08556" lon="-1.59402">
        <ele>54</ele>
        <time>2021-02-28T11:18:51.000Z</time>
      </trkpt>
      <trkpt lat="47.0855" lon="-1.59387">
        <ele>54</ele>
        <time>2021-02-28T11:18:53.000Z</time>
      </trkpt>
      <trkpt lat="47.08544" lon="-1.59372">
        <ele>54</ele>
        <time>2021-02-28T11:18:55.000Z</time>
      </trkpt>
      <trkpt lat="47.08537" lon="-1.59356">
        <ele>54</ele>
        <time>2021-02-28T11:18:57.000Z</time>
      </trkpt>
      <trkpt lat="47.08531" lon="-1.5934">
        <ele>53</ele>
        <time>2021-02-28T11:18:59.000Z</time>
      </trkpt>
      <trkpt lat="47.08525" lon="-1.59324">
        <ele>53</ele>
        <time>2021-02-28T11:19:01.000Z</time>
      </trkpt>
      <trkpt lat="47.08519" lon="-1.59308">
        <ele>54</ele>
        <time>2021-02-28T11:19:03.000Z</time>
      </trkpt>
      <trkpt lat="47.08512" lon="-1.59293">
        <ele>54</ele>
        <time>2021-02-28T11:19:05.000Z</time>
      </trkpt>
      <trkpt lat="47.08506" lon="-1.59278">
        <ele>54</ele>
        <time>2021-02-28T11:19:07.000Z</time>
      </trkpt>
      <trkpt lat="47.08501" lon="-1.59262">
        <ele>54</ele>
        <time>2021-02-28T11:19:09.000Z</time>
      </trkpt>
      <trkpt lat="47.08495" lon="-1.59247">
        <ele>54</ele>
        <time>2021-02-28T11:19:11.000Z</time>
      </trkpt>
      <trkpt lat="47.08489" lon="-1.59233">
        <ele>54</ele>
        <time>2021-02-28T11:19:13.000Z</time>
      </trkpt>
      <trkpt lat="47.08483" lon="-1.59219">
        <ele>55</ele>
        <time>2021-02-28T11:19:15.000Z</time>
      </trkpt>
      <trkpt lat="47.08477" lon="-1.59205">
        <ele>55</ele>
        <time>2021-02-28T11:19:17.000Z</time>
      </trkpt>
      <trkpt lat="47.08471" lon="-1.59191">
        <ele>55</ele>
        <time>2021-02-28T11:19:19.000Z</time>
      </trkpt>
      <trkpt lat="47.08465" lon="-1.59177">
        <ele>55</ele>
        <time>2021-02-28T11:19:21.000Z</time>
      </trkpt>
      <trkpt lat="47.08459" lon="-1.59162">
        <ele>55</ele>
        <time>2021-02-28T11:19:23.000Z</time>
      </trkpt>
      <trkpt lat="47.08454" lon="-1.59148">
        <ele>55</ele>
        <time>2021-02-28T11:19:25.000Z</time>
      </trkpt>
      <trkpt lat="47.08448" lon="-1.59134">
        <ele>56</ele>
        <time>2021-02-28T11:19:27.000Z</time>
      </trkpt>
      <trkpt lat="47.08442" lon="-1.59119">
        <ele>56</ele>
        <time>2021-02-28T11:19:29.000Z</time>
      </trkpt>
      <trkpt lat="47.08436" lon="-1.59106">
        <ele>56</ele>
        <time>2021-02-28T11:19:31.000Z</time>
      </trkpt>
      <trkpt lat="47.08431" lon="-1.59092">
        <ele>56</ele>
        <time>2021-02-28T11:19:33.000Z</time>
      </trkpt>
      <trkpt lat="47.08426" lon="-1.59079">
        <ele>56</ele>
        <time>2021-02-28T11:19:35.000Z</time>
      </trkpt>
      <trkpt lat="47.0842" lon="-1.59065">
        <ele>56</ele>
        <time>2021-02-28T11:19:37.000Z</time>
      </trkpt>
      <trkpt lat="47.08415" lon="-1.59052">
        <ele>56</ele>
        <time>2021-02-28T11:19:39.000Z</time>
      </trkpt>
      <trkpt lat="47.08409" lon="-1.59039">
        <ele>56</ele>
        <time>2021-02-28T11:19:41.000Z</time>
      </trkpt>
      <trkpt lat="47.08404" lon="-1.59025">
        <ele>56</ele>
        <time>2021-02-28T11:19:43.000Z</time>
      </trkpt>
      <trkpt lat="47.08398" lon="-1.59011">
        <ele>56</ele>
        <time>2021-02-28T11:19:45.000Z</time>
      </trkpt>
      <trkpt lat="47.08392" lon="-1.58996">
        <ele>55</ele>
        <time>2021-02-28T11:19:47.000Z</time>
      </trkpt>
      <trkpt lat="47.08386" lon="-1.58981">
        <ele>55</ele>
        <time>2021-02-28T11:19:49.000Z</time>
      </trkpt>
      <trkpt lat="47.0838" lon="-1.58966">
        <ele>55</ele>
        <time>2021-02-28T11:19:51.000Z</time>
      </trkpt>
      <trkpt lat="47.08374" lon="-1.5895">
        <ele>55</ele>
        <time>2021-02-28T11:19:53.000Z</time>
      </trkpt>
      <trkpt lat="47.08367" lon="-1.58934">
        <ele>54</ele>
        <time>2021-02-28T11:19:55.000Z</time>
      </trkpt>
      <trkpt lat="47.08361" lon="-1.58918">
        <ele>54</ele>
        <time>2021-02-28T11:19:57.000Z</time>
      </trkpt>
      <trkpt lat="47.08355" lon="-1.58903">
        <ele>54</ele>
        <time>2021-02-28T11:19:59.000Z</time>
      </trkpt>
      <trkpt lat="47.08348" lon="-1.58887">
        <ele>54</ele>
        <time>2021-02-28T11:20:01.000Z</time>
      </trkpt>
      <trkpt lat="47.08342" lon="-1.58872">
        <ele>55</ele>
        <time>2021-02-28T11:20:03.000Z</time>
      </trkpt>
      <trkpt lat="47.08335" lon="-1.58858">
        <ele>55</ele>
        <time>2021-02-28T11:20:05.000Z</time>
      </trkpt>
      <trkpt lat="47.0833" lon="-1.58843">
        <ele>55</ele>
        <time>2021-02-28T11:20:07.000Z</time>
      </trkpt>
      <trkpt lat="47.08324" lon="-1.58828">
        <ele>54</ele>
        <time>2021-02-28T11:20:09.000Z</time>
      </trkpt>
      <trkpt lat="47.08318" lon="-1.58814">
        <ele>55</ele>
        <time>2021-02-28T11:20:11.000Z</time>
      </trkpt>
      <trkpt lat="47.08312" lon="-1.588">
        <ele>55</ele>
        <time>2021-02-28T11:20:13.000Z</time>
      </trkpt>
      <trkpt lat="47.08307" lon="-1.58787">
        <ele>55</ele>
        <time>2021-02-28T11:20:15.000Z</time>
      </trkpt>
      <trkpt lat="47.08301" lon="-1.58773">
        <ele>55</ele>
        <time>2021-02-28T11:20:17.000Z</time>
      </trkpt>
      <trkpt lat="47.08296" lon="-1.5876">
        <ele>55</ele>
        <time>2021-02-28T11:20:19.000Z</time>
      </trkpt>
      <trkpt lat="47.08291" lon="-1.58747">
        <ele>55</ele>
        <time>2021-02-28T11:20:21.000Z</time>
      </trkpt>
      <trkpt lat="47.08286" lon="-1.58733">
        <ele>55</ele>
        <time>2021-02-28T11:20:23.000Z</time>
      </trkpt>
      <trkpt lat="47.0828" lon="-1.5872">
        <ele>55</ele>
        <time>2021-02-28T11:20:25.000Z</time>
      </trkpt>
      <trkpt lat="47.08274" lon="-1.58706">
        <ele>55</ele>
        <time>2021-02-28T11:20:27.000Z</time>
      </trkpt>
      <trkpt lat="47.08268" lon="-1.58692">
        <ele>55</ele>
        <time>2021-02-28T11:20:29.000Z</time>
      </trkpt>
      <trkpt lat="47.08263" lon="-1.58679">
        <ele>55</ele>
        <time>2021-02-28T11:20:31.000Z</time>
      </trkpt>
      <trkpt lat="47.08257" lon="-1.58664">
        <ele>55</ele>
        <time>2021-02-28T11:20:33.000Z</time>
      </trkpt>
      <trkpt lat="47.08252" lon="-1.5865">
        <ele>55</ele>
        <time>2021-02-28T11:20:35.000Z</time>
      </trkpt>
      <trkpt lat="47.08246" lon="-1.58636">
        <ele>55</ele>
        <time>2021-02-28T11:20:37.000Z</time>
      </trkpt>
      <trkpt lat="47.0824" lon="-1.58622">
        <ele>56</ele>
        <time>2021-02-28T11:20:39.000Z</time>
      </trkpt>
      <trkpt lat="47.08235" lon="-1.58608">
        <ele>56</ele>
        <time>2021-02-28T11:20:41.000Z</time>
      </trkpt>
      <trkpt lat="47.0823" lon="-1.58594">
        <ele>56</ele>
        <time>2021-02-28T11:20:43.000Z</time>
      </trkpt>
      <trkpt lat="47.08224" lon="-1.5858">
        <ele>56</ele>
        <time>2021-02-28T11:20:45.000Z</time>
      </trkpt>
      <trkpt lat="47.08218" lon="-1.58566">
        <ele>56</ele>
        <time>2021-02-28T11:20:47.000Z</time>
      </trkpt>
      <trkpt lat="47.08212" lon="-1.58553">
        <ele>55</ele>
        <time>2021-02-28T11:20:49.000Z</time>
      </trkpt>
      <trkpt lat="47.08206" lon="-1.58538">
        <ele>55</ele>
        <time>2021-02-28T11:20:51.000Z</time>
      </trkpt>
      <trkpt lat="47.082" lon="-1.58524">
        <ele>55</ele>
        <time>2021-02-28T11:20:53.000Z</time>
      </trkpt>
      <trkpt lat="47.08194" lon="-1.58509">
        <ele>56</ele>
        <time>2021-02-28T11:20:55.000Z</time>
      </trkpt>
      <trkpt lat="47.08188" lon="-1.58495">
        <ele>56</ele>
        <time>2021-02-28T11:20:57.000Z</time>
      </trkpt>
      <trkpt lat="47.08182" lon="-1.5848">
        <ele>56</ele>
        <time>2021-02-28T11:20:59.000Z</time>
      </trkpt>
      <trkpt lat="47.08176" lon="-1.58465">
        <ele>56</ele>
        <time>2021-02-28T11:21:01.000Z</time>
      </trkpt>
      <trkpt lat="47.0817" lon="-1.58452">
        <ele>56</ele>
        <time>2021-02-28T11:21:03.000Z</time>
      </trkpt>
      <trkpt lat="47.08165" lon="-1.58438">
        <ele>56</ele>
        <time>2021-02-28T11:21:05.000Z</time>
      </trkpt>
      <trkpt lat="47.0816" lon="-1.58423">
        <ele>57</ele>
        <time>2021-02-28T11:21:07.000Z</time>
      </trkpt>
      <trkpt lat="47.08155" lon="-1.5841">
        <ele>57</ele>
        <time>2021-02-28T11:21:09.000Z</time>
      </trkpt>
      <trkpt lat="47.08151" lon="-1.58395">
        <ele>57</ele>
        <time>2021-02-28T11:21:11.000Z</time>
      </trkpt>
      <trkpt lat="47.08147" lon="-1.5838">
        <ele>57</ele>
        <time>2021-02-28T11:21:13.000Z</time>
      </trkpt>
      <trkpt lat="47.08144" lon="-1.58365">
        <ele>57</ele>
        <time>2021-02-28T11:21:15.000Z</time>
      </trkpt>
      <trkpt lat="47.08141" lon="-1.5835">
        <ele>57</ele>
        <time>2021-02-28T11:21:17.000Z</time>
      </trkpt>
      <trkpt lat="47.08139" lon="-1.58335">
        <ele>57</ele>
        <time>2021-02-28T11:21:19.000Z</time>
      </trkpt>
      <trkpt lat="47.08137" lon="-1.5832">
        <ele>57</ele>
        <time>2021-02-28T11:21:21.000Z</time>
      </trkpt>
      <trkpt lat="47.08135" lon="-1.58304">
        <ele>58</ele>
        <time>2021-02-28T11:21:23.000Z</time>
      </trkpt>
      <trkpt lat="47.08133" lon="-1.58289">
        <ele>58</ele>
        <time>2021-02-28T11:21:25.000Z</time>
      </trkpt>
      <trkpt lat="47.08131" lon="-1.58274">
        <ele>58</ele>
        <time>2021-02-28T11:21:27.000Z</time>
      </trkpt>
      <trkpt lat="47.08128" lon="-1.58259">
        <ele>58</ele>
        <time>2021-02-28T11:21:29.000Z</time>
      </trkpt>
      <trkpt lat="47.08125" lon="-1.58243">
        <ele>58</ele>
        <time>2021-02-28T11:21:31.000Z</time>
      </trkpt>
      <trkpt lat="47.08121" lon="-1.58228">
        <ele>58</ele>
        <time>2021-02-28T11:21:33.000Z</time>
      </trkpt>
      <trkpt lat="47.08116" lon="-1.58214">
        <ele>58</ele>
        <time>2021-02-28T11:21:35.000Z</time>
      </trkpt>
      <trkpt lat="47.08111" lon="-1.58202">
        <ele>58</ele>
        <time>2021-02-28T11:21:37.000Z</time>
      </trkpt>
      <trkpt lat="47.08105" lon="-1.58188">
        <ele>58</ele>
        <time>2021-02-28T11:21:39.000Z</time>
      </trkpt>
      <trkpt lat="47.08098" lon="-1.58176">
        <ele>58</ele>
        <time>2021-02-28T11:21:41.000Z</time>
      </trkpt>
      <trkpt lat="47.08092" lon="-1.58163">
        <ele>59</ele>
        <time>2021-02-28T11:21:43.000Z</time>
      </trkpt>
      <trkpt lat="47.08085" lon="-1.5815">
        <ele>59</ele>
        <time>2021-02-28T11:21:45.000Z</time>
      </trkpt>
      <trkpt lat="47.08078" lon="-1.58138">
        <ele>59</ele>
        <time>2021-02-28T11:21:47.000Z</time>
      </trkpt>
      <trkpt lat="47.08072" lon="-1.58126">
        <ele>59</ele>
        <time>2021-02-28T11:21:49.000Z</time>
      </trkpt>
      <trkpt lat="47.08064" lon="-1.58113">
        <ele>59</ele>
        <time>2021-02-28T11:21:51.000Z</time>
      </trkpt>
      <trkpt lat="47.08057" lon="-1.581">
        <ele>59</ele>
        <time>2021-02-28T11:21:53.000Z</time>
      </trkpt>
      <trkpt lat="47.08051" lon="-1.58086">
        <ele>58</ele>
        <time>2021-02-28T11:21:55.000Z</time>
      </trkpt>
      <trkpt lat="47.08043" lon="-1.58074">
        <ele>59</ele>
        <time>2021-02-28T11:21:57.000Z</time>
      </trkpt>
      <trkpt lat="47.08036" lon="-1.58061">
        <ele>59</ele>
        <time>2021-02-28T11:21:59.000Z</time>
      </trkpt>
      <trkpt lat="47.08029" lon="-1.58049">
        <ele>59</ele>
        <time>2021-02-28T11:22:01.000Z</time>
      </trkpt>
      <trkpt lat="47.08022" lon="-1.58036">
        <ele>59</ele>
        <time>2021-02-28T11:22:03.000Z</time>
      </trkpt>
      <trkpt lat="47.08015" lon="-1.58024">
        <ele>59</ele>
        <time>2021-02-28T11:22:05.000Z</time>
      </trkpt>
      <trkpt lat="47.08009" lon="-1.58011">
        <ele>59</ele>
        <time>2021-02-28T11:22:07.000Z</time>
      </trkpt>
      <trkpt lat="47.08003" lon="-1.57997">
        <ele>59</ele>
        <time>2021-02-28T11:22:09.000Z</time>
      </trkpt>
      <trkpt lat="47.07997" lon="-1.57983">
        <ele>59</ele>
        <time>2021-02-28T11:22:11.000Z</time>
      </trkpt>
      <trkpt lat="47.07991" lon="-1.57969">
        <ele>59</ele>
        <time>2021-02-28T11:22:13.000Z</time>
      </trkpt>
      <trkpt lat="47.07986" lon="-1.57954">
        <ele>59</ele>
        <time>2021-02-28T11:22:15.000Z</time>
      </trkpt>
      <trkpt lat="47.0798" lon="-1.57941">
        <ele>59</ele>
        <time>2021-02-28T11:22:17.000Z</time>
      </trkpt>
      <trkpt lat="47.07974" lon="-1.57927">
        <ele>59</ele>
        <time>2021-02-28T11:22:19.000Z</time>
      </trkpt>
      <trkpt lat="47.07969" lon="-1.57913">
        <ele>59</ele>
        <time>2021-02-28T11:22:21.000Z</time>
      </trkpt>
      <trkpt lat="47.07964" lon="-1.579">
        <ele>59</ele>
        <time>2021-02-28T11:22:23.000Z</time>
      </trkpt>
      <trkpt lat="47.07958" lon="-1.57886">
        <ele>59</ele>
        <time>2021-02-28T11:22:25.000Z</time>
      </trkpt>
      <trkpt lat="47.07953" lon="-1.57872">
        <ele>59</ele>
        <time>2021-02-28T11:22:27.000Z</time>
      </trkpt>
      <trkpt lat="47.07947" lon="-1.57858">
        <ele>59</ele>
        <time>2021-02-28T11:22:29.000Z</time>
      </trkpt>
      <trkpt lat="47.07942" lon="-1.57844">
        <ele>59</ele>
        <time>2021-02-28T11:22:31.000Z</time>
      </trkpt>
      <trkpt lat="47.07936" lon="-1.5783">
        <ele>59</ele>
        <time>2021-02-28T11:22:33.000Z</time>
      </trkpt>
      <trkpt lat="47.07931" lon="-1.57817">
        <ele>60</ele>
        <time>2021-02-28T11:22:35.000Z</time>
      </trkpt>
      <trkpt lat="47.07926" lon="-1.57803">
        <ele>59</ele>
        <time>2021-02-28T11:22:37.000Z</time>
      </trkpt>
      <trkpt lat="47.0792" lon="-1.5779">
        <ele>59</ele>
        <time>2021-02-28T11:22:39.000Z</time>
      </trkpt>
      <trkpt lat="47.07915" lon="-1.57776">
        <ele>59</ele>
        <time>2021-02-28T11:22:41.000Z</time>
      </trkpt>
      <trkpt lat="47.07909" lon="-1.57762">
        <ele>59</ele>
        <time>2021-02-28T11:22:43.000Z</time>
      </trkpt>
      <trkpt lat="47.07902" lon="-1.57748">
        <ele>59</ele>
        <time>2021-02-28T11:22:45.000Z</time>
      </trkpt>
      <trkpt lat="47.07897" lon="-1.57732">
        <ele>58</ele>
        <time>2021-02-28T11:22:47.000Z</time>
      </trkpt>
      <trkpt lat="47.07891" lon="-1.57718">
        <ele>59</ele>
        <time>2021-02-28T11:22:49.000Z</time>
      </trkpt>
      <trkpt lat="47.07885" lon="-1.57703">
        <ele>58</ele>
        <time>2021-02-28T11:22:51.000Z</time>
      </trkpt>
      <trkpt lat="47.07879" lon="-1.57688">
        <ele>58</ele>
        <time>2021-02-28T11:22:53.000Z</time>
      </trkpt>
      <trkpt lat="47.07873" lon="-1.57673">
        <ele>58</ele>
        <time>2021-02-28T11:22:55.000Z</time>
      </trkpt>
      <trkpt lat="47.07867" lon="-1.57657">
        <ele>58</ele>
        <time>2021-02-28T11:22:57.000Z</time>
      </trkpt>
      <trkpt lat="47.07861" lon="-1.57642">
        <ele>57</ele>
        <time>2021-02-28T11:22:59.000Z</time>
      </trkpt>
      <trkpt lat="47.07856" lon="-1.57626">
        <ele>57</ele>
        <time>2021-02-28T11:23:01.000Z</time>
      </trkpt>
      <trkpt lat="47.07851" lon="-1.5761">
        <ele>57</ele>
        <time>2021-02-28T11:23:03.000Z</time>
      </trkpt>
      <trkpt lat="47.07846" lon="-1.57596">
        <ele>57</ele>
        <time>2021-02-28T11:23:05.000Z</time>
      </trkpt>
      <trkpt lat="47.07841" lon="-1.57581">
        <ele>58</ele>
        <time>2021-02-28T11:23:07.000Z</time>
      </trkpt>
      <trkpt lat="47.07837" lon="-1.57566">
        <ele>58</ele>
        <time>2021-02-28T11:23:09.000Z</time>
      </trkpt>
      <trkpt lat="47.07832" lon="-1.5755">
        <ele>57</ele>
        <time>2021-02-28T11:23:11.000Z</time>
      </trkpt>
      <trkpt lat="47.07828" lon="-1.57534">
        <ele>57</ele>
        <time>2021-02-28T11:23:13.000Z</time>
      </trkpt>
      <trkpt lat="47.07824" lon="-1.57519">
        <ele>57</ele>
        <time>2021-02-28T11:23:15.000Z</time>
      </trkpt>
      <trkpt lat="47.0782" lon="-1.57503">
        <ele>57</ele>
        <time>2021-02-28T11:23:17.000Z</time>
      </trkpt>
      <trkpt lat="47.07816" lon="-1.57487">
        <ele>57</ele>
        <time>2021-02-28T11:23:19.000Z</time>
      </trkpt>
      <trkpt lat="47.07811" lon="-1.57472">
        <ele>56</ele>
        <time>2021-02-28T11:23:21.000Z</time>
      </trkpt>
      <trkpt lat="47.07807" lon="-1.57455">
        <ele>56</ele>
        <time>2021-02-28T11:23:23.000Z</time>
      </trkpt>
      <trkpt lat="47.07802" lon="-1.57439">
        <ele>56</ele>
        <time>2021-02-28T11:23:25.000Z</time>
      </trkpt>
      <trkpt lat="47.07798" lon="-1.57424">
        <ele>56</ele>
        <time>2021-02-28T11:23:27.000Z</time>
      </trkpt>
      <trkpt lat="47.07793" lon="-1.57409">
        <ele>56</ele>
        <time>2021-02-28T11:23:29.000Z</time>
      </trkpt>
      <trkpt lat="47.07789" lon="-1.57394">
        <ele>56</ele>
        <time>2021-02-28T11:23:31.000Z</time>
      </trkpt>
      <trkpt lat="47.07784" lon="-1.57381">
        <ele>56</ele>
        <time>2021-02-28T11:23:33.000Z</time>
      </trkpt>
      <trkpt lat="47.07779" lon="-1.57369">
        <ele>56</ele>
        <time>2021-02-28T11:23:35.000Z</time>
      </trkpt>
      <trkpt lat="47.07778" lon="-1.5735">
        <ele>57</ele>
        <time>2021-02-28T11:23:38.000Z</time>
      </trkpt>
      <trkpt lat="47.07785" lon="-1.57339">
        <ele>57</ele>
        <time>2021-02-28T11:23:40.000Z</time>
      </trkpt>
      <trkpt lat="47.07793" lon="-1.57329">
        <ele>58</ele>
        <time>2021-02-28T11:23:42.000Z</time>
      </trkpt>
      <trkpt lat="47.07802" lon="-1.57318">
        <ele>58</ele>
        <time>2021-02-28T11:23:44.000Z</time>
      </trkpt>
      <trkpt lat="47.07811" lon="-1.57307">
        <ele>58</ele>
        <time>2021-02-28T11:23:46.000Z</time>
      </trkpt>
      <trkpt lat="47.07821" lon="-1.57297">
        <ele>58</ele>
        <time>2021-02-28T11:23:48.000Z</time>
      </trkpt>
      <trkpt lat="47.0783" lon="-1.57288">
        <ele>58</ele>
        <time>2021-02-28T11:23:50.000Z</time>
      </trkpt>
      <trkpt lat="47.07839" lon="-1.57277">
        <ele>59</ele>
        <time>2021-02-28T11:23:52.000Z</time>
      </trkpt>
      <trkpt lat="47.07847" lon="-1.57267">
        <ele>60</ele>
        <time>2021-02-28T11:23:54.000Z</time>
      </trkpt>
      <trkpt lat="47.07855" lon="-1.57254">
        <ele>60</ele>
        <time>2021-02-28T11:23:56.000Z</time>
      </trkpt>
      <trkpt lat="47.07861" lon="-1.5724">
        <ele>61</ele>
        <time>2021-02-28T11:23:58.000Z</time>
      </trkpt>
      <trkpt lat="47.07866" lon="-1.57225">
        <ele>61</ele>
        <time>2021-02-28T11:24:00.000Z</time>
      </trkpt>
      <trkpt lat="47.07868" lon="-1.5721">
        <ele>62</ele>
        <time>2021-02-28T11:24:02.000Z</time>
      </trkpt>
      <trkpt lat="47.07872" lon="-1.57195">
        <ele>62</ele>
        <time>2021-02-28T11:24:04.000Z</time>
      </trkpt>
      <trkpt lat="47.07874" lon="-1.5718">
        <ele>62</ele>
        <time>2021-02-28T11:24:06.000Z</time>
      </trkpt>
      <trkpt lat="47.07876" lon="-1.57165">
        <ele>62</ele>
        <time>2021-02-28T11:24:08.000Z</time>
      </trkpt>
      <trkpt lat="47.07879" lon="-1.5715">
        <ele>62</ele>
        <time>2021-02-28T11:24:10.000Z</time>
      </trkpt>
      <trkpt lat="47.07882" lon="-1.57135">
        <ele>62</ele>
        <time>2021-02-28T11:24:12.000Z</time>
      </trkpt>
      <trkpt lat="47.07885" lon="-1.5712">
        <ele>62</ele>
        <time>2021-02-28T11:24:14.000Z</time>
      </trkpt>
      <trkpt lat="47.07887" lon="-1.57105">
        <ele>62</ele>
        <time>2021-02-28T11:24:16.000Z</time>
      </trkpt>
      <trkpt lat="47.0789" lon="-1.5709">
        <ele>62</ele>
        <time>2021-02-28T11:24:18.000Z</time>
      </trkpt>
      <trkpt lat="47.07892" lon="-1.57076">
        <ele>62</ele>
        <time>2021-02-28T11:24:20.000Z</time>
      </trkpt>
      <trkpt lat="47.07894" lon="-1.57061">
        <ele>61</ele>
        <time>2021-02-28T11:24:22.000Z</time>
      </trkpt>
      <trkpt lat="47.07897" lon="-1.57047">
        <ele>62</ele>
        <time>2021-02-28T11:24:24.000Z</time>
      </trkpt>
      <trkpt lat="47.07899" lon="-1.57033">
        <ele>61</ele>
        <time>2021-02-28T11:24:26.000Z</time>
      </trkpt>
      <trkpt lat="47.07902" lon="-1.57018">
        <ele>62</ele>
        <time>2021-02-28T11:24:28.000Z</time>
      </trkpt>
      <trkpt lat="47.07904" lon="-1.57004">
        <ele>62</ele>
        <time>2021-02-28T11:24:30.000Z</time>
      </trkpt>
      <trkpt lat="47.07906" lon="-1.5699">
        <ele>62</ele>
        <time>2021-02-28T11:24:32.000Z</time>
      </trkpt>
      <trkpt lat="47.07909" lon="-1.56977">
        <ele>63</ele>
        <time>2021-02-28T11:24:34.000Z</time>
      </trkpt>
      <trkpt lat="47.07911" lon="-1.56963">
        <ele>63</ele>
        <time>2021-02-28T11:24:36.000Z</time>
      </trkpt>
      <trkpt lat="47.07914" lon="-1.56949">
        <ele>63</ele>
        <time>2021-02-28T11:24:38.000Z</time>
      </trkpt>
      <trkpt lat="47.07916" lon="-1.56936">
        <ele>63</ele>
        <time>2021-02-28T11:24:40.000Z</time>
      </trkpt>
      <trkpt lat="47.0792" lon="-1.56917">
        <ele>64</ele>
        <time>2021-02-28T11:24:43.000Z</time>
      </trkpt>
      <trkpt lat="47.07923" lon="-1.56904">
        <ele>63</ele>
        <time>2021-02-28T11:24:45.000Z</time>
      </trkpt>
      <trkpt lat="47.07925" lon="-1.5689">
        <ele>64</ele>
        <time>2021-02-28T11:24:47.000Z</time>
      </trkpt>
      <trkpt lat="47.07927" lon="-1.56876">
        <ele>64</ele>
        <time>2021-02-28T11:24:49.000Z</time>
      </trkpt>
      <trkpt lat="47.07929" lon="-1.56863">
        <ele>64</ele>
        <time>2021-02-28T11:24:51.000Z</time>
      </trkpt>
      <trkpt lat="47.07931" lon="-1.56848">
        <ele>64</ele>
        <time>2021-02-28T11:24:53.000Z</time>
      </trkpt>
      <trkpt lat="47.07932" lon="-1.56834">
        <ele>64</ele>
        <time>2021-02-28T11:24:55.000Z</time>
      </trkpt>
      <trkpt lat="47.07932" lon="-1.5682">
        <ele>64</ele>
        <time>2021-02-28T11:24:57.000Z</time>
      </trkpt>
      <trkpt lat="47.07932" lon="-1.56806">
        <ele>65</ele>
        <time>2021-02-28T11:24:59.000Z</time>
      </trkpt>
      <trkpt lat="47.07932" lon="-1.56792">
        <ele>65</ele>
        <time>2021-02-28T11:25:01.000Z</time>
      </trkpt>
      <trkpt lat="47.07931" lon="-1.56779">
        <ele>66</ele>
        <time>2021-02-28T11:25:03.000Z</time>
      </trkpt>
      <trkpt lat="47.07929" lon="-1.56766">
        <ele>66</ele>
        <time>2021-02-28T11:25:05.000Z</time>
      </trkpt>
      <trkpt lat="47.07922" lon="-1.56749">
        <ele>67</ele>
        <time>2021-02-28T11:25:08.000Z</time>
      </trkpt>
      <trkpt lat="47.07916" lon="-1.56739">
        <ele>67</ele>
        <time>2021-02-28T11:25:10.000Z</time>
      </trkpt>
      <trkpt lat="47.07913" lon="-1.56725">
        <ele>67</ele>
        <time>2021-02-28T11:25:12.000Z</time>
      </trkpt>
      <trkpt lat="47.07911" lon="-1.5671">
        <ele>68</ele>
        <time>2021-02-28T11:25:14.000Z</time>
      </trkpt>
      <trkpt lat="47.07916" lon="-1.56697">
        <ele>69</ele>
        <time>2021-02-28T11:25:16.000Z</time>
      </trkpt>
      <trkpt lat="47.07922" lon="-1.56686">
        <ele>69</ele>
        <time>2021-02-28T11:25:18.000Z</time>
      </trkpt>
      <trkpt lat="47.07926" lon="-1.56668">
        <ele>69</ele>
        <time>2021-02-28T11:25:21.000Z</time>
      </trkpt>
      <trkpt lat="47.07927" lon="-1.56655">
        <ele>69</ele>
        <time>2021-02-28T11:25:23.000Z</time>
      </trkpt>
      <trkpt lat="47.07927" lon="-1.56641">
        <ele>70</ele>
        <time>2021-02-28T11:25:25.000Z</time>
      </trkpt>
      <trkpt lat="47.07929" lon="-1.56621">
        <ele>70</ele>
        <time>2021-02-28T11:25:28.000Z</time>
      </trkpt>
      <trkpt lat="47.07929" lon="-1.56603">
        <ele>70</ele>
        <time>2021-02-28T11:25:31.000Z</time>
      </trkpt>
      <trkpt lat="47.0793" lon="-1.56589">
        <ele>71</ele>
        <time>2021-02-28T11:25:33.000Z</time>
      </trkpt>
      <trkpt lat="47.0793" lon="-1.56575">
        <ele>71</ele>
        <time>2021-02-28T11:25:35.000Z</time>
      </trkpt>
      <trkpt lat="47.07931" lon="-1.56561">
        <ele>71</ele>
        <time>2021-02-28T11:25:37.000Z</time>
      </trkpt>
      <trkpt lat="47.07931" lon="-1.56547">
        <ele>71</ele>
        <time>2021-02-28T11:25:39.000Z</time>
      </trkpt>
      <trkpt lat="47.07932" lon="-1.56534">
        <ele>71</ele>
        <time>2021-02-28T11:25:41.000Z</time>
      </trkpt>
      <trkpt lat="47.07932" lon="-1.5652">
        <ele>71</ele>
        <time>2021-02-28T11:25:43.000Z</time>
      </trkpt>
      <trkpt lat="47.07933" lon="-1.56505">
        <ele>70</ele>
        <time>2021-02-28T11:25:45.000Z</time>
      </trkpt>
      <trkpt lat="47.07933" lon="-1.56491">
        <ele>70</ele>
        <time>2021-02-28T11:25:47.000Z</time>
      </trkpt>
      <trkpt lat="47.07932" lon="-1.56476">
        <ele>70</ele>
        <time>2021-02-28T11:25:49.000Z</time>
      </trkpt>
      <trkpt lat="47.07932" lon="-1.56462">
        <ele>69</ele>
        <time>2021-02-28T11:25:51.000Z</time>
      </trkpt>
      <trkpt lat="47.07928" lon="-1.56448">
        <ele>69</ele>
        <time>2021-02-28T11:25:53.000Z</time>
      </trkpt>
      <trkpt lat="47.07922" lon="-1.56436">
        <ele>69</ele>
        <time>2021-02-28T11:25:55.000Z</time>
      </trkpt>
      <trkpt lat="47.07918" lon="-1.56421">
        <ele>69</ele>
        <time>2021-02-28T11:25:57.000Z</time>
      </trkpt>
      <trkpt lat="47.07918" lon="-1.56405">
        <ele>69</ele>
        <time>2021-02-28T11:25:59.000Z</time>
      </trkpt>
      <trkpt lat="47.07921" lon="-1.56392">
        <ele>69</ele>
        <time>2021-02-28T11:26:01.000Z</time>
      </trkpt>
      <trkpt lat="47.07925" lon="-1.56379">
        <ele>68</ele>
        <time>2021-02-28T11:26:03.000Z</time>
      </trkpt>
      <trkpt lat="47.07927" lon="-1.56365">
        <ele>68</ele>
        <time>2021-02-28T11:26:05.000Z</time>
      </trkpt>
      <trkpt lat="47.07929" lon="-1.56351">
        <ele>68</ele>
        <time>2021-02-28T11:26:07.000Z</time>
      </trkpt>
      <trkpt lat="47.07934" lon="-1.56337">
        <ele>68</ele>
        <time>2021-02-28T11:26:09.000Z</time>
      </trkpt>
      <trkpt lat="47.07942" lon="-1.56327">
        <ele>68</ele>
        <time>2021-02-28T11:26:11.000Z</time>
      </trkpt>
      <trkpt lat="47.07952" lon="-1.56318">
        <ele>68</ele>
        <time>2021-02-28T11:26:13.000Z</time>
      </trkpt>
      <trkpt lat="47.07963" lon="-1.56311">
        <ele>67</ele>
        <time>2021-02-28T11:26:15.000Z</time>
      </trkpt>
      <trkpt lat="47.07975" lon="-1.56307">
        <ele>67</ele>
        <time>2021-02-28T11:26:17.000Z</time>
      </trkpt>
      <trkpt lat="47.07987" lon="-1.56305">
        <ele>67</ele>
        <time>2021-02-28T11:26:19.000Z</time>
      </trkpt>
      <trkpt lat="47.07999" lon="-1.56301">
        <ele>66</ele>
        <time>2021-02-28T11:26:21.000Z</time>
      </trkpt>
      <trkpt lat="47.08011" lon="-1.56298">
        <ele>66</ele>
        <time>2021-02-28T11:26:23.000Z</time>
      </trkpt>
      <trkpt lat="47.08024" lon="-1.56295">
        <ele>66</ele>
        <time>2021-02-28T11:26:25.000Z</time>
      </trkpt>
      <trkpt lat="47.08035" lon="-1.56291">
        <ele>66</ele>
        <time>2021-02-28T11:26:27.000Z</time>
      </trkpt>
      <trkpt lat="47.08047" lon="-1.56287">
        <ele>66</ele>
        <time>2021-02-28T11:26:29.000Z</time>
      </trkpt>
      <trkpt lat="47.08058" lon="-1.56282">
        <ele>66</ele>
        <time>2021-02-28T11:26:31.000Z</time>
      </trkpt>
      <trkpt lat="47.08068" lon="-1.56275">
        <ele>66</ele>
        <time>2021-02-28T11:26:33.000Z</time>
      </trkpt>
      <trkpt lat="47.08077" lon="-1.56267">
        <ele>66</ele>
        <time>2021-02-28T11:26:35.000Z</time>
      </trkpt>
      <trkpt lat="47.08085" lon="-1.56256">
        <ele>67</ele>
        <time>2021-02-28T11:26:37.000Z</time>
      </trkpt>
      <trkpt lat="47.08093" lon="-1.56245">
        <ele>67</ele>
        <time>2021-02-28T11:26:39.000Z</time>
      </trkpt>
      <trkpt lat="47.081" lon="-1.56232">
        <ele>67</ele>
        <time>2021-02-28T11:26:41.000Z</time>
      </trkpt>
      <trkpt lat="47.08107" lon="-1.56218">
        <ele>68</ele>
        <time>2021-02-28T11:26:43.000Z</time>
      </trkpt>
      <trkpt lat="47.08112" lon="-1.56204">
        <ele>68</ele>
        <time>2021-02-28T11:26:45.000Z</time>
      </trkpt>
      <trkpt lat="47.08118" lon="-1.56188">
        <ele>68</ele>
        <time>2021-02-28T11:26:47.000Z</time>
      </trkpt>
      <trkpt lat="47.08123" lon="-1.56173">
        <ele>69</ele>
        <time>2021-02-28T11:26:49.000Z</time>
      </trkpt>
      <trkpt lat="47.08128" lon="-1.56157">
        <ele>69</ele>
        <time>2021-02-28T11:26:51.000Z</time>
      </trkpt>
      <trkpt lat="47.08133" lon="-1.56143">
        <ele>70</ele>
        <time>2021-02-28T11:26:53.000Z</time>
      </trkpt>
      <trkpt lat="47.08138" lon="-1.56129">
        <ele>70</ele>
        <time>2021-02-28T11:26:55.000Z</time>
      </trkpt>
      <trkpt lat="47.08142" lon="-1.56114">
        <ele>70</ele>
        <time>2021-02-28T11:26:57.000Z</time>
      </trkpt>
      <trkpt lat="47.08147" lon="-1.56099">
        <ele>70</ele>
        <time>2021-02-28T11:26:59.000Z</time>
      </trkpt>
      <trkpt lat="47.08151" lon="-1.56083">
        <ele>70</ele>
        <time>2021-02-28T11:27:01.000Z</time>
      </trkpt>
      <trkpt lat="47.08157" lon="-1.56068">
        <ele>71</ele>
        <time>2021-02-28T11:27:03.000Z</time>
      </trkpt>
      <trkpt lat="47.08161" lon="-1.56054">
        <ele>71</ele>
        <time>2021-02-28T11:27:05.000Z</time>
      </trkpt>
      <trkpt lat="47.08166" lon="-1.56039">
        <ele>71</ele>
        <time>2021-02-28T11:27:07.000Z</time>
      </trkpt>
      <trkpt lat="47.0817" lon="-1.56026">
        <ele>71</ele>
        <time>2021-02-28T11:27:09.000Z</time>
      </trkpt>
      <trkpt lat="47.08175" lon="-1.56012">
        <ele>72</ele>
        <time>2021-02-28T11:27:11.000Z</time>
      </trkpt>
      <trkpt lat="47.08179" lon="-1.55998">
        <ele>72</ele>
        <time>2021-02-28T11:27:13.000Z</time>
      </trkpt>
      <trkpt lat="47.08184" lon="-1.55984">
        <ele>72</ele>
        <time>2021-02-28T11:27:15.000Z</time>
      </trkpt>
      <trkpt lat="47.08188" lon="-1.55969">
        <ele>72</ele>
        <time>2021-02-28T11:27:17.000Z</time>
      </trkpt>
      <trkpt lat="47.08193" lon="-1.55955">
        <ele>72</ele>
        <time>2021-02-28T11:27:19.000Z</time>
      </trkpt>
      <trkpt lat="47.08198" lon="-1.55941">
        <ele>72</ele>
        <time>2021-02-28T11:27:21.000Z</time>
      </trkpt>
      <trkpt lat="47.08202" lon="-1.55928">
        <ele>72</ele>
        <time>2021-02-28T11:27:23.000Z</time>
      </trkpt>
      <trkpt lat="47.08206" lon="-1.55914">
        <ele>71</ele>
        <time>2021-02-28T11:27:25.000Z</time>
      </trkpt>
      <trkpt lat="47.0821" lon="-1.559">
        <ele>71</ele>
        <time>2021-02-28T11:27:27.000Z</time>
      </trkpt>
      <trkpt lat="47.08214" lon="-1.55887">
        <ele>72</ele>
        <time>2021-02-28T11:27:29.000Z</time>
      </trkpt>
      <trkpt lat="47.08219" lon="-1.55874">
        <ele>72</ele>
        <time>2021-02-28T11:27:31.000Z</time>
      </trkpt>
      <trkpt lat="47.08223" lon="-1.55861">
        <ele>71</ele>
        <time>2021-02-28T11:27:33.000Z</time>
      </trkpt>
      <trkpt lat="47.08227" lon="-1.55849">
        <ele>71</ele>
        <time>2021-02-28T11:27:35.000Z</time>
      </trkpt>
      <trkpt lat="47.08231" lon="-1.55836">
        <ele>71</ele>
        <time>2021-02-28T11:27:37.000Z</time>
      </trkpt>
      <trkpt lat="47.08235" lon="-1.55824">
        <ele>71</ele>
        <time>2021-02-28T11:27:39.000Z</time>
      </trkpt>
      <trkpt lat="47.0824" lon="-1.55811">
        <ele>71</ele>
        <time>2021-02-28T11:27:41.000Z</time>
      </trkpt>
      <trkpt lat="47.08244" lon="-1.55798">
        <ele>71</ele>
        <time>2021-02-28T11:27:43.000Z</time>
      </trkpt>
      <trkpt lat="47.08248" lon="-1.55785">
        <ele>71</ele>
        <time>2021-02-28T11:27:45.000Z</time>
      </trkpt>
      <trkpt lat="47.08253" lon="-1.55771">
        <ele>71</ele>
        <time>2021-02-28T11:27:47.000Z</time>
      </trkpt>
      <trkpt lat="47.08257" lon="-1.55758">
        <ele>71</ele>
        <time>2021-02-28T11:27:49.000Z</time>
      </trkpt>
      <trkpt lat="47.08261" lon="-1.55744">
        <ele>71</ele>
        <time>2021-02-28T11:27:51.000Z</time>
      </trkpt>
      <trkpt lat="47.08266" lon="-1.55732">
        <ele>72</ele>
        <time>2021-02-28T11:27:53.000Z</time>
      </trkpt>
      <trkpt lat="47.08269" lon="-1.55719">
        <ele>71</ele>
        <time>2021-02-28T11:27:55.000Z</time>
      </trkpt>
      <trkpt lat="47.08273" lon="-1.55706">
        <ele>72</ele>
        <time>2021-02-28T11:27:57.000Z</time>
      </trkpt>
      <trkpt lat="47.08278" lon="-1.55694">
        <ele>72</ele>
        <time>2021-02-28T11:27:59.000Z</time>
      </trkpt>
      <trkpt lat="47.08282" lon="-1.5568">
        <ele>72</ele>
        <time>2021-02-28T11:28:01.000Z</time>
      </trkpt>
      <trkpt lat="47.08287" lon="-1.55667">
        <ele>72</ele>
        <time>2021-02-28T11:28:03.000Z</time>
      </trkpt>
      <trkpt lat="47.08292" lon="-1.55654">
        <ele>73</ele>
        <time>2021-02-28T11:28:05.000Z</time>
      </trkpt>
      <trkpt lat="47.08296" lon="-1.55642">
        <ele>72</ele>
        <time>2021-02-28T11:28:07.000Z</time>
      </trkpt>
      <trkpt lat="47.08299" lon="-1.55627">
        <ele>72</ele>
        <time>2021-02-28T11:28:09.000Z</time>
      </trkpt>
      <trkpt lat="47.08303" lon="-1.55614">
        <ele>73</ele>
        <time>2021-02-28T11:28:11.000Z</time>
      </trkpt>
      <trkpt lat="47.08307" lon="-1.55601">
        <ele>72</ele>
        <time>2021-02-28T11:28:13.000Z</time>
      </trkpt>
      <trkpt lat="47.08312" lon="-1.55588">
        <ele>72</ele>
        <time>2021-02-28T11:28:15.000Z</time>
      </trkpt>
      <trkpt lat="47.08316" lon="-1.55575">
        <ele>73</ele>
        <time>2021-02-28T11:28:17.000Z</time>
      </trkpt>
      <trkpt lat="47.08321" lon="-1.55562">
        <ele>72</ele>
        <time>2021-02-28T11:28:19.000Z</time>
      </trkpt>
      <trkpt lat="47.08325" lon="-1.55548">
        <ele>72</ele>
        <time>2021-02-28T11:28:21.000Z</time>
      </trkpt>
      <trkpt lat="47.08329" lon="-1.55534">
        <ele>72</ele>
        <time>2021-02-28T11:28:23.000Z</time>
      </trkpt>
      <trkpt lat="47.08334" lon="-1.5552">
        <ele>72</ele>
        <time>2021-02-28T11:28:25.000Z</time>
      </trkpt>
      <trkpt lat="47.08338" lon="-1.55507">
        <ele>72</ele>
        <time>2021-02-28T11:28:27.000Z</time>
      </trkpt>
      <trkpt lat="47.08342" lon="-1.55494">
        <ele>72</ele>
        <time>2021-02-28T11:28:29.000Z</time>
      </trkpt>
      <trkpt lat="47.08346" lon="-1.5548">
        <ele>72</ele>
        <time>2021-02-28T11:28:31.000Z</time>
      </trkpt>
      <trkpt lat="47.08351" lon="-1.55467">
        <ele>72</ele>
        <time>2021-02-28T11:28:33.000Z</time>
      </trkpt>
      <trkpt lat="47.08356" lon="-1.55453">
        <ele>72</ele>
        <time>2021-02-28T11:28:35.000Z</time>
      </trkpt>
      <trkpt lat="47.08361" lon="-1.55439">
        <ele>72</ele>
        <time>2021-02-28T11:28:37.000Z</time>
      </trkpt>
      <trkpt lat="47.08365" lon="-1.55426">
        <ele>72</ele>
        <time>2021-02-28T11:28:39.000Z</time>
      </trkpt>
      <trkpt lat="47.08369" lon="-1.55412">
        <ele>72</ele>
        <time>2021-02-28T11:28:41.000Z</time>
      </trkpt>
      <trkpt lat="47.08374" lon="-1.55398">
        <ele>71</ele>
        <time>2021-02-28T11:28:43.000Z</time>
      </trkpt>
      <trkpt lat="47.08377" lon="-1.55384">
        <ele>71</ele>
        <time>2021-02-28T11:28:45.000Z</time>
      </trkpt>
      <trkpt lat="47.08382" lon="-1.5537">
        <ele>71</ele>
        <time>2021-02-28T11:28:47.000Z</time>
      </trkpt>
      <trkpt lat="47.08385" lon="-1.55355">
        <ele>71</ele>
        <time>2021-02-28T11:28:49.000Z</time>
      </trkpt>
      <trkpt lat="47.08388" lon="-1.55341">
        <ele>70</ele>
        <time>2021-02-28T11:28:51.000Z</time>
      </trkpt>
      <trkpt lat="47.08391" lon="-1.55327">
        <ele>70</ele>
        <time>2021-02-28T11:28:53.000Z</time>
      </trkpt>
      <trkpt lat="47.08394" lon="-1.55312">
        <ele>70</ele>
        <time>2021-02-28T11:28:55.000Z</time>
      </trkpt>
      <trkpt lat="47.08397" lon="-1.55298">
        <ele>70</ele>
        <time>2021-02-28T11:28:57.000Z</time>
      </trkpt>
      <trkpt lat="47.084" lon="-1.55282">
        <ele>70</ele>
        <time>2021-02-28T11:28:59.000Z</time>
      </trkpt>
      <trkpt lat="47.08403" lon="-1.55267">
        <ele>69</ele>
        <time>2021-02-28T11:29:01.000Z</time>
      </trkpt>
      <trkpt lat="47.08405" lon="-1.55252">
        <ele>68</ele>
        <time>2021-02-28T11:29:03.000Z</time>
      </trkpt>
      <trkpt lat="47.08408" lon="-1.55237">
        <ele>68</ele>
        <time>2021-02-28T11:29:05.000Z</time>
      </trkpt>
      <trkpt lat="47.08411" lon="-1.55221">
        <ele>68</ele>
        <time>2021-02-28T11:29:07.000Z</time>
      </trkpt>
      <trkpt lat="47.08414" lon="-1.55205">
        <ele>68</ele>
        <time>2021-02-28T11:29:09.000Z</time>
      </trkpt>
      <trkpt lat="47.08416" lon="-1.55189">
        <ele>68</ele>
        <time>2021-02-28T11:29:11.000Z</time>
      </trkpt>
      <trkpt lat="47.08419" lon="-1.55174">
        <ele>67</ele>
        <time>2021-02-28T11:29:13.000Z</time>
      </trkpt>
      <trkpt lat="47.08422" lon="-1.55157">
        <ele>67</ele>
        <time>2021-02-28T11:29:15.000Z</time>
      </trkpt>
      <trkpt lat="47.08424" lon="-1.55142">
        <ele>67</ele>
        <time>2021-02-28T11:29:17.000Z</time>
      </trkpt>
      <trkpt lat="47.08427" lon="-1.55125">
        <ele>66</ele>
        <time>2021-02-28T11:29:19.000Z</time>
      </trkpt>
      <trkpt lat="47.0843" lon="-1.55109">
        <ele>66</ele>
        <time>2021-02-28T11:29:21.000Z</time>
      </trkpt>
      <trkpt lat="47.08432" lon="-1.55092">
        <ele>66</ele>
        <time>2021-02-28T11:29:23.000Z</time>
      </trkpt>
      <trkpt lat="47.08435" lon="-1.55075">
        <ele>66</ele>
        <time>2021-02-28T11:29:25.000Z</time>
      </trkpt>
      <trkpt lat="47.0844" lon="-1.5505">
        <ele>65</ele>
        <time>2021-02-28T11:29:28.000Z</time>
      </trkpt>
      <trkpt lat="47.08442" lon="-1.55033">
        <ele>65</ele>
        <time>2021-02-28T11:29:30.000Z</time>
      </trkpt>
      <trkpt lat="47.08446" lon="-1.55017">
        <ele>65</ele>
        <time>2021-02-28T11:29:32.000Z</time>
      </trkpt>
      <trkpt lat="47.08448" lon="-1.55001">
        <ele>65</ele>
        <time>2021-02-28T11:29:34.000Z</time>
      </trkpt>
      <trkpt lat="47.08451" lon="-1.54985">
        <ele>65</ele>
        <time>2021-02-28T11:29:36.000Z</time>
      </trkpt>
      <trkpt lat="47.08453" lon="-1.5497">
        <ele>65</ele>
        <time>2021-02-28T11:29:38.000Z</time>
      </trkpt>
      <trkpt lat="47.08455" lon="-1.54956">
        <ele>65</ele>
        <time>2021-02-28T11:29:40.000Z</time>
      </trkpt>
      <trkpt lat="47.08457" lon="-1.5494">
        <ele>66</ele>
        <time>2021-02-28T11:29:42.000Z</time>
      </trkpt>
      <trkpt lat="47.0846" lon="-1.54925">
        <ele>65</ele>
        <time>2021-02-28T11:29:44.000Z</time>
      </trkpt>
      <trkpt lat="47.08462" lon="-1.54911">
        <ele>65</ele>
        <time>2021-02-28T11:29:46.000Z</time>
      </trkpt>
      <trkpt lat="47.08465" lon="-1.54896">
        <ele>65</ele>
        <time>2021-02-28T11:29:48.000Z</time>
      </trkpt>
      <trkpt lat="47.08468" lon="-1.54881">
        <ele>65</ele>
        <time>2021-02-28T11:29:50.000Z</time>
      </trkpt>
      <trkpt lat="47.0847" lon="-1.54866">
        <ele>66</ele>
        <time>2021-02-28T11:29:52.000Z</time>
      </trkpt>
      <trkpt lat="47.08473" lon="-1.54852">
        <ele>66</ele>
        <time>2021-02-28T11:29:54.000Z</time>
      </trkpt>
      <trkpt lat="47.08476" lon="-1.54836">
        <ele>65</ele>
        <time>2021-02-28T11:29:56.000Z</time>
      </trkpt>
      <trkpt lat="47.08478" lon="-1.5482">
        <ele>65</ele>
        <time>2021-02-28T11:29:58.000Z</time>
      </trkpt>
      <trkpt lat="47.08481" lon="-1.54806">
        <ele>65</ele>
        <time>2021-02-28T11:30:00.000Z</time>
      </trkpt>
      <trkpt lat="47.08483" lon="-1.54789">
        <ele>66</ele>
        <time>2021-02-28T11:30:02.000Z</time>
      </trkpt>
      <trkpt lat="47.08486" lon="-1.54773">
        <ele>66</ele>
        <time>2021-02-28T11:30:04.000Z</time>
      </trkpt>
      <trkpt lat="47.08488" lon="-1.54759">
        <ele>67</ele>
        <time>2021-02-28T11:30:06.000Z</time>
      </trkpt>
      <trkpt lat="47.08491" lon="-1.54743">
        <ele>67</ele>
        <time>2021-02-28T11:30:08.000Z</time>
      </trkpt>
      <trkpt lat="47.08493" lon="-1.54728">
        <ele>67</ele>
        <time>2021-02-28T11:30:10.000Z</time>
      </trkpt>
      <trkpt lat="47.08495" lon="-1.54714">
        <ele>68</ele>
        <time>2021-02-28T11:30:12.000Z</time>
      </trkpt>
      <trkpt lat="47.08497" lon="-1.54699">
        <ele>68</ele>
        <time>2021-02-28T11:30:14.000Z</time>
      </trkpt>
      <trkpt lat="47.085" lon="-1.54683">
        <ele>68</ele>
        <time>2021-02-28T11:30:16.000Z</time>
      </trkpt>
      <trkpt lat="47.08502" lon="-1.54668">
        <ele>68</ele>
        <time>2021-02-28T11:30:18.000Z</time>
      </trkpt>
      <trkpt lat="47.08505" lon="-1.54653">
        <ele>68</ele>
        <time>2021-02-28T11:30:20.000Z</time>
      </trkpt>
      <trkpt lat="47.08507" lon="-1.54638">
        <ele>69</ele>
        <time>2021-02-28T11:30:22.000Z</time>
      </trkpt>
      <trkpt lat="47.08509" lon="-1.54623">
        <ele>69</ele>
        <time>2021-02-28T11:30:24.000Z</time>
      </trkpt>
      <trkpt lat="47.08511" lon="-1.54607">
        <ele>69</ele>
        <time>2021-02-28T11:30:26.000Z</time>
      </trkpt>
      <trkpt lat="47.08514" lon="-1.54592">
        <ele>70</ele>
        <time>2021-02-28T11:30:28.000Z</time>
      </trkpt>
      <trkpt lat="47.08516" lon="-1.54576">
        <ele>70</ele>
        <time>2021-02-28T11:30:30.000Z</time>
      </trkpt>
      <trkpt lat="47.08519" lon="-1.5456">
        <ele>70</ele>
        <time>2021-02-28T11:30:32.000Z</time>
      </trkpt>
      <trkpt lat="47.08521" lon="-1.54545">
        <ele>70</ele>
        <time>2021-02-28T11:30:34.000Z</time>
      </trkpt>
      <trkpt lat="47.08524" lon="-1.54531">
        <ele>70</ele>
        <time>2021-02-28T11:30:36.000Z</time>
      </trkpt>
      <trkpt lat="47.08527" lon="-1.54515">
        <ele>69</ele>
        <time>2021-02-28T11:30:38.000Z</time>
      </trkpt>
      <trkpt lat="47.08529" lon="-1.545">
        <ele>69</ele>
        <time>2021-02-28T11:30:40.000Z</time>
      </trkpt>
      <trkpt lat="47.08533" lon="-1.54485">
        <ele>69</ele>
        <time>2021-02-28T11:30:42.000Z</time>
      </trkpt>
      <trkpt lat="47.08537" lon="-1.5447">
        <ele>68</ele>
        <time>2021-02-28T11:30:44.000Z</time>
      </trkpt>
      <trkpt lat="47.08544" lon="-1.54447">
        <ele>68</ele>
        <time>2021-02-28T11:30:47.000Z</time>
      </trkpt>
      <trkpt lat="47.08548" lon="-1.54432">
        <ele>67</ele>
        <time>2021-02-28T11:30:49.000Z</time>
      </trkpt>
      <trkpt lat="47.08553" lon="-1.54417">
        <ele>68</ele>
        <time>2021-02-28T11:30:51.000Z</time>
      </trkpt>
      <trkpt lat="47.08558" lon="-1.544">
        <ele>68</ele>
        <time>2021-02-28T11:30:53.000Z</time>
      </trkpt>
      <trkpt lat="47.08563" lon="-1.54386">
        <ele>68</ele>
        <time>2021-02-28T11:30:55.000Z</time>
      </trkpt>
      <trkpt lat="47.08568" lon="-1.54372">
        <ele>68</ele>
        <time>2021-02-28T11:30:57.000Z</time>
      </trkpt>
      <trkpt lat="47.08572" lon="-1.54358">
        <ele>69</ele>
        <time>2021-02-28T11:30:59.000Z</time>
      </trkpt>
      <trkpt lat="47.08578" lon="-1.54344">
        <ele>69</ele>
        <time>2021-02-28T11:31:01.000Z</time>
      </trkpt>
      <trkpt lat="47.08582" lon="-1.5433">
        <ele>70</ele>
        <time>2021-02-28T11:31:03.000Z</time>
      </trkpt>
      <trkpt lat="47.08588" lon="-1.54315">
        <ele>69</ele>
        <time>2021-02-28T11:31:05.000Z</time>
      </trkpt>
      <trkpt lat="47.08592" lon="-1.543">
        <ele>69</ele>
        <time>2021-02-28T11:31:07.000Z</time>
      </trkpt>
      <trkpt lat="47.08597" lon="-1.54285">
        <ele>69</ele>
        <time>2021-02-28T11:31:09.000Z</time>
      </trkpt>
      <trkpt lat="47.08601" lon="-1.5427">
        <ele>69</ele>
        <time>2021-02-28T11:31:11.000Z</time>
      </trkpt>
      <trkpt lat="47.08608" lon="-1.54248">
        <ele>68</ele>
        <time>2021-02-28T11:31:14.000Z</time>
      </trkpt>
      <trkpt lat="47.08614" lon="-1.54234">
        <ele>68</ele>
        <time>2021-02-28T11:31:16.000Z</time>
      </trkpt>
      <trkpt lat="47.08621" lon="-1.5421">
        <ele>68</ele>
        <time>2021-02-28T11:31:19.000Z</time>
      </trkpt>
      <trkpt lat="47.08625" lon="-1.54195">
        <ele>69</ele>
        <time>2021-02-28T11:31:21.000Z</time>
      </trkpt>
      <trkpt lat="47.08628" lon="-1.5418">
        <ele>68</ele>
        <time>2021-02-28T11:31:23.000Z</time>
      </trkpt>
      <trkpt lat="47.0863" lon="-1.54164">
        <ele>68</ele>
        <time>2021-02-28T11:31:25.000Z</time>
      </trkpt>
      <trkpt lat="47.0863" lon="-1.54148">
        <ele>68</ele>
        <time>2021-02-28T11:31:27.000Z</time>
      </trkpt>
      <trkpt lat="47.08629" lon="-1.54132">
        <ele>68</ele>
        <time>2021-02-28T11:31:29.000Z</time>
      </trkpt>
      <trkpt lat="47.08627" lon="-1.54116">
        <ele>68</ele>
        <time>2021-02-28T11:31:31.000Z</time>
      </trkpt>
      <trkpt lat="47.08625" lon="-1.541">
        <ele>68</ele>
        <time>2021-02-28T11:31:33.000Z</time>
      </trkpt>
      <trkpt lat="47.08623" lon="-1.54084">
        <ele>67</ele>
        <time>2021-02-28T11:31:35.000Z</time>
      </trkpt>
      <trkpt lat="47.08622" lon="-1.54068">
        <ele>67</ele>
        <time>2021-02-28T11:31:37.000Z</time>
      </trkpt>
      <trkpt lat="47.0862" lon="-1.54053">
        <ele>66</ele>
        <time>2021-02-28T11:31:39.000Z</time>
      </trkpt>
      <trkpt lat="47.08618" lon="-1.54037">
        <ele>66</ele>
        <time>2021-02-28T11:31:41.000Z</time>
      </trkpt>
      <trkpt lat="47.08616" lon="-1.5402">
        <ele>67</ele>
        <time>2021-02-28T11:31:43.000Z</time>
      </trkpt>
      <trkpt lat="47.08614" lon="-1.54003">
        <ele>67</ele>
        <time>2021-02-28T11:31:45.000Z</time>
      </trkpt>
      <trkpt lat="47.08613" lon="-1.53987">
        <ele>67</ele>
        <time>2021-02-28T11:31:47.000Z</time>
      </trkpt>
      <trkpt lat="47.08612" lon="-1.5397">
        <ele>67</ele>
        <time>2021-02-28T11:31:49.000Z</time>
      </trkpt>
      <trkpt lat="47.08611" lon="-1.53946">
        <ele>67</ele>
        <time>2021-02-28T11:31:52.000Z</time>
      </trkpt>
      <trkpt lat="47.08612" lon="-1.53932">
        <ele>66</ele>
        <time>2021-02-28T11:31:54.000Z</time>
      </trkpt>
      <trkpt lat="47.08613" lon="-1.53918">
        <ele>67</ele>
        <time>2021-02-28T11:31:56.000Z</time>
      </trkpt>
      <trkpt lat="47.08615" lon="-1.53904">
        <ele>68</ele>
        <time>2021-02-28T11:31:58.000Z</time>
      </trkpt>
      <trkpt lat="47.08617" lon="-1.5389">
        <ele>68</ele>
        <time>2021-02-28T11:32:00.000Z</time>
      </trkpt>
      <trkpt lat="47.0862" lon="-1.53876">
        <ele>69</ele>
        <time>2021-02-28T11:32:02.000Z</time>
      </trkpt>
      <trkpt lat="47.08623" lon="-1.53862">
        <ele>68</ele>
        <time>2021-02-28T11:32:04.000Z</time>
      </trkpt>
      <trkpt lat="47.08627" lon="-1.53849">
        <ele>69</ele>
        <time>2021-02-28T11:32:06.000Z</time>
      </trkpt>
      <trkpt lat="47.08632" lon="-1.53837">
        <ele>69</ele>
        <time>2021-02-28T11:32:08.000Z</time>
      </trkpt>
      <trkpt lat="47.08636" lon="-1.53824">
        <ele>69</ele>
        <time>2021-02-28T11:32:10.000Z</time>
      </trkpt>
      <trkpt lat="47.08642" lon="-1.53805">
        <ele>69</ele>
        <time>2021-02-28T11:32:13.000Z</time>
      </trkpt>
      <trkpt lat="47.08646" lon="-1.53792">
        <ele>70</ele>
        <time>2021-02-28T11:32:15.000Z</time>
      </trkpt>
      <trkpt lat="47.0865" lon="-1.53779">
        <ele>70</ele>
        <time>2021-02-28T11:32:17.000Z</time>
      </trkpt>
      <trkpt lat="47.08654" lon="-1.53766">
        <ele>70</ele>
        <time>2021-02-28T11:32:19.000Z</time>
      </trkpt>
      <trkpt lat="47.08658" lon="-1.53754">
        <ele>70</ele>
        <time>2021-02-28T11:32:21.000Z</time>
      </trkpt>
      <trkpt lat="47.08663" lon="-1.5374">
        <ele>70</ele>
        <time>2021-02-28T11:32:23.000Z</time>
      </trkpt>
      <trkpt lat="47.08667" lon="-1.53727">
        <ele>71</ele>
        <time>2021-02-28T11:32:25.000Z</time>
      </trkpt>
      <trkpt lat="47.08671" lon="-1.53715">
        <ele>71</ele>
        <time>2021-02-28T11:32:27.000Z</time>
      </trkpt>
      <trkpt lat="47.08675" lon="-1.53702">
        <ele>70</ele>
        <time>2021-02-28T11:32:29.000Z</time>
      </trkpt>
      <trkpt lat="47.08679" lon="-1.53688">
        <ele>70</ele>
        <time>2021-02-28T11:32:31.000Z</time>
      </trkpt>
      <trkpt lat="47.08683" lon="-1.53675">
        <ele>70</ele>
        <time>2021-02-28T11:32:33.000Z</time>
      </trkpt>
      <trkpt lat="47.08689" lon="-1.53656">
        <ele>71</ele>
        <time>2021-02-28T11:32:36.000Z</time>
      </trkpt>
      <trkpt lat="47.08693" lon="-1.53644">
        <ele>71</ele>
        <time>2021-02-28T11:32:38.000Z</time>
      </trkpt>
      <trkpt lat="47.08697" lon="-1.53631">
        <ele>71</ele>
        <time>2021-02-28T11:32:40.000Z</time>
      </trkpt>
      <trkpt lat="47.08701" lon="-1.53617">
        <ele>71</ele>
        <time>2021-02-28T11:32:42.000Z</time>
      </trkpt>
      <trkpt lat="47.08706" lon="-1.53604">
        <ele>71</ele>
        <time>2021-02-28T11:32:44.000Z</time>
      </trkpt>
      <trkpt lat="47.0871" lon="-1.53591">
        <ele>71</ele>
        <time>2021-02-28T11:32:46.000Z</time>
      </trkpt>
      <trkpt lat="47.08714" lon="-1.53577">
        <ele>71</ele>
        <time>2021-02-28T11:32:48.000Z</time>
      </trkpt>
      <trkpt lat="47.08718" lon="-1.53564">
        <ele>71</ele>
        <time>2021-02-28T11:32:50.000Z</time>
      </trkpt>
      <trkpt lat="47.08723" lon="-1.53551">
        <ele>72</ele>
        <time>2021-02-28T11:32:52.000Z</time>
      </trkpt>
      <trkpt lat="47.08727" lon="-1.53537">
        <ele>72</ele>
        <time>2021-02-28T11:32:54.000Z</time>
      </trkpt>
      <trkpt lat="47.08731" lon="-1.53524">
        <ele>72</ele>
        <time>2021-02-28T11:32:56.000Z</time>
      </trkpt>
      <trkpt lat="47.08735" lon="-1.53511">
        <ele>71</ele>
        <time>2021-02-28T11:32:58.000Z</time>
      </trkpt>
      <trkpt lat="47.08739" lon="-1.53498">
        <ele>72</ele>
        <time>2021-02-28T11:33:00.000Z</time>
      </trkpt>
      <trkpt lat="47.08743" lon="-1.53486">
        <ele>73</ele>
        <time>2021-02-28T11:33:02.000Z</time>
      </trkpt>
      <trkpt lat="47.08747" lon="-1.53473">
        <ele>73</ele>
        <time>2021-02-28T11:33:04.000Z</time>
      </trkpt>
      <trkpt lat="47.08751" lon="-1.5346">
        <ele>73</ele>
        <time>2021-02-28T11:33:06.000Z</time>
      </trkpt>
      <trkpt lat="47.08755" lon="-1.53448">
        <ele>73</ele>
        <time>2021-02-28T11:33:08.000Z</time>
      </trkpt>
      <trkpt lat="47.08762" lon="-1.53428">
        <ele>73</ele>
        <time>2021-02-28T11:33:11.000Z</time>
      </trkpt>
      <trkpt lat="47.08766" lon="-1.53414">
        <ele>73</ele>
        <time>2021-02-28T11:33:13.000Z</time>
      </trkpt>
      <trkpt lat="47.0877" lon="-1.53402">
        <ele>74</ele>
        <time>2021-02-28T11:33:15.000Z</time>
      </trkpt>
      <trkpt lat="47.08774" lon="-1.53387">
        <ele>73</ele>
        <time>2021-02-28T11:33:17.000Z</time>
      </trkpt>
      <trkpt lat="47.08778" lon="-1.53374">
        <ele>73</ele>
        <time>2021-02-28T11:33:19.000Z</time>
      </trkpt>
      <trkpt lat="47.08782" lon="-1.53362">
        <ele>73</ele>
        <time>2021-02-28T11:33:21.000Z</time>
      </trkpt>
      <trkpt lat="47.08786" lon="-1.53349">
        <ele>73</ele>
        <time>2021-02-28T11:33:23.000Z</time>
      </trkpt>
      <trkpt lat="47.08791" lon="-1.53336">
        <ele>73</ele>
        <time>2021-02-28T11:33:25.000Z</time>
      </trkpt>
      <trkpt lat="47.08796" lon="-1.53323">
        <ele>73</ele>
        <time>2021-02-28T11:33:27.000Z</time>
      </trkpt>
      <trkpt lat="47.08802" lon="-1.5331">
        <ele>73</ele>
        <time>2021-02-28T11:33:29.000Z</time>
      </trkpt>
      <trkpt lat="47.08807" lon="-1.53298">
        <ele>72</ele>
        <time>2021-02-28T11:33:31.000Z</time>
      </trkpt>
      <trkpt lat="47.08812" lon="-1.53286">
        <ele>72</ele>
        <time>2021-02-28T11:33:33.000Z</time>
      </trkpt>
      <trkpt lat="47.08817" lon="-1.53274">
        <ele>72</ele>
        <time>2021-02-28T11:33:35.000Z</time>
      </trkpt>
      <trkpt lat="47.08822" lon="-1.53262">
        <ele>73</ele>
        <time>2021-02-28T11:33:37.000Z</time>
      </trkpt>
      <trkpt lat="47.0883" lon="-1.53245">
        <ele>73</ele>
        <time>2021-02-28T11:33:40.000Z</time>
      </trkpt>
      <trkpt lat="47.08834" lon="-1.53233">
        <ele>74</ele>
        <time>2021-02-28T11:33:42.000Z</time>
      </trkpt>
      <trkpt lat="47.0884" lon="-1.53221">
        <ele>73</ele>
        <time>2021-02-28T11:33:44.000Z</time>
      </trkpt>
      <trkpt lat="47.08845" lon="-1.5321">
        <ele>73</ele>
        <time>2021-02-28T11:33:46.000Z</time>
      </trkpt>
      <trkpt lat="47.0885" lon="-1.53198">
        <ele>73</ele>
        <time>2021-02-28T11:33:48.000Z</time>
      </trkpt>
      <trkpt lat="47.08856" lon="-1.53187">
        <ele>73</ele>
        <time>2021-02-28T11:33:50.000Z</time>
      </trkpt>
      <trkpt lat="47.08862" lon="-1.53176">
        <ele>72</ele>
        <time>2021-02-28T11:33:52.000Z</time>
      </trkpt>
      <trkpt lat="47.08869" lon="-1.53167">
        <ele>72</ele>
        <time>2021-02-28T11:33:54.000Z</time>
      </trkpt>
      <trkpt lat="47.08876" lon="-1.53157">
        <ele>72</ele>
        <time>2021-02-28T11:33:56.000Z</time>
      </trkpt>
      <trkpt lat="47.08884" lon="-1.53147">
        <ele>72</ele>
        <time>2021-02-28T11:33:58.000Z</time>
      </trkpt>
      <trkpt lat="47.08891" lon="-1.53139">
        <ele>72</ele>
        <time>2021-02-28T11:34:00.000Z</time>
      </trkpt>
      <trkpt lat="47.08899" lon="-1.53131">
        <ele>72</ele>
        <time>2021-02-28T11:34:02.000Z</time>
      </trkpt>
      <trkpt lat="47.08908" lon="-1.53124">
        <ele>72</ele>
        <time>2021-02-28T11:34:04.000Z</time>
      </trkpt>
      <trkpt lat="47.08917" lon="-1.53116">
        <ele>71</ele>
        <time>2021-02-28T11:34:06.000Z</time>
      </trkpt>
      <trkpt lat="47.08926" lon="-1.5311">
        <ele>71</ele>
        <time>2021-02-28T11:34:08.000Z</time>
      </trkpt>
      <trkpt lat="47.08935" lon="-1.53104">
        <ele>71</ele>
        <time>2021-02-28T11:34:10.000Z</time>
      </trkpt>
      <trkpt lat="47.08945" lon="-1.53099">
        <ele>71</ele>
        <time>2021-02-28T11:34:12.000Z</time>
      </trkpt>
      <trkpt lat="47.08956" lon="-1.53096">
        <ele>71</ele>
        <time>2021-02-28T11:34:14.000Z</time>
      </trkpt>
      <trkpt lat="47.08967" lon="-1.53094">
        <ele>71</ele>
        <time>2021-02-28T11:34:16.000Z</time>
      </trkpt>
      <trkpt lat="47.08978" lon="-1.53091">
        <ele>71</ele>
        <time>2021-02-28T11:34:18.000Z</time>
      </trkpt>
      <trkpt lat="47.08989" lon="-1.53089">
        <ele>71</ele>
        <time>2021-02-28T11:34:20.000Z</time>
      </trkpt>
      <trkpt lat="47.09" lon="-1.53086">
        <ele>70</ele>
        <time>2021-02-28T11:34:22.000Z</time>
      </trkpt>
      <trkpt lat="47.0901" lon="-1.53083">
        <ele>70</ele>
        <time>2021-02-28T11:34:24.000Z</time>
      </trkpt>
      <trkpt lat="47.0902" lon="-1.5308">
        <ele>70</ele>
        <time>2021-02-28T11:34:26.000Z</time>
      </trkpt>
      <trkpt lat="47.0903" lon="-1.53077">
        <ele>70</ele>
        <time>2021-02-28T11:34:28.000Z</time>
      </trkpt>
      <trkpt lat="47.0904" lon="-1.53075">
        <ele>70</ele>
        <time>2021-02-28T11:34:30.000Z</time>
      </trkpt>
      <trkpt lat="47.0905" lon="-1.53072">
        <ele>70</ele>
        <time>2021-02-28T11:34:32.000Z</time>
      </trkpt>
      <trkpt lat="47.09059" lon="-1.53068">
        <ele>70</ele>
        <time>2021-02-28T11:34:34.000Z</time>
      </trkpt>
      <trkpt lat="47.09069" lon="-1.53063">
        <ele>70</ele>
        <time>2021-02-28T11:34:36.000Z</time>
      </trkpt>
      <trkpt lat="47.09078" lon="-1.53056">
        <ele>70</ele>
        <time>2021-02-28T11:34:38.000Z</time>
      </trkpt>
      <trkpt lat="47.09087" lon="-1.53048">
        <ele>70</ele>
        <time>2021-02-28T11:34:40.000Z</time>
      </trkpt>
      <trkpt lat="47.09095" lon="-1.53039">
        <ele>70</ele>
        <time>2021-02-28T11:34:42.000Z</time>
      </trkpt>
      <trkpt lat="47.09102" lon="-1.5303">
        <ele>70</ele>
        <time>2021-02-28T11:34:44.000Z</time>
      </trkpt>
      <trkpt lat="47.09108" lon="-1.53019">
        <ele>69</ele>
        <time>2021-02-28T11:34:46.000Z</time>
      </trkpt>
      <trkpt lat="47.09112" lon="-1.53007">
        <ele>69</ele>
        <time>2021-02-28T11:34:48.000Z</time>
      </trkpt>
      <trkpt lat="47.09114" lon="-1.52993">
        <ele>70</ele>
        <time>2021-02-28T11:34:50.000Z</time>
      </trkpt>
      <trkpt lat="47.09115" lon="-1.52978">
        <ele>70</ele>
        <time>2021-02-28T11:34:52.000Z</time>
      </trkpt>
      <trkpt lat="47.0912" lon="-1.52966">
        <ele>69</ele>
        <time>2021-02-28T11:34:54.000Z</time>
      </trkpt>
      <trkpt lat="47.09127" lon="-1.52954">
        <ele>69</ele>
        <time>2021-02-28T11:34:56.000Z</time>
      </trkpt>
      <trkpt lat="47.09132" lon="-1.52939">
        <ele>69</ele>
        <time>2021-02-28T11:34:58.000Z</time>
      </trkpt>
      <trkpt lat="47.09135" lon="-1.52925">
        <ele>69</ele>
        <time>2021-02-28T11:35:00.000Z</time>
      </trkpt>
      <trkpt lat="47.09135" lon="-1.52909">
        <ele>69</ele>
        <time>2021-02-28T11:35:02.000Z</time>
      </trkpt>
      <trkpt lat="47.09135" lon="-1.52893">
        <ele>69</ele>
        <time>2021-02-28T11:35:04.000Z</time>
      </trkpt>
      <trkpt lat="47.09134" lon="-1.52877">
        <ele>69</ele>
        <time>2021-02-28T11:35:06.000Z</time>
      </trkpt>
      <trkpt lat="47.09134" lon="-1.52861">
        <ele>70</ele>
        <time>2021-02-28T11:35:08.000Z</time>
      </trkpt>
      <trkpt lat="47.09134" lon="-1.52845">
        <ele>70</ele>
        <time>2021-02-28T11:35:10.000Z</time>
      </trkpt>
      <trkpt lat="47.09134" lon="-1.52829">
        <ele>70</ele>
        <time>2021-02-28T11:35:12.000Z</time>
      </trkpt>
      <trkpt lat="47.09133" lon="-1.52814">
        <ele>69</ele>
        <time>2021-02-28T11:35:14.000Z</time>
      </trkpt>
      <trkpt lat="47.09132" lon="-1.52799">
        <ele>69</ele>
        <time>2021-02-28T11:35:16.000Z</time>
      </trkpt>
      <trkpt lat="47.09132" lon="-1.52784">
        <ele>69</ele>
        <time>2021-02-28T11:35:18.000Z</time>
      </trkpt>
      <trkpt lat="47.09131" lon="-1.52769">
        <ele>69</ele>
        <time>2021-02-28T11:35:20.000Z</time>
      </trkpt>
      <trkpt lat="47.09131" lon="-1.52754">
        <ele>69</ele>
        <time>2021-02-28T11:35:22.000Z</time>
      </trkpt>
      <trkpt lat="47.0913" lon="-1.52739">
        <ele>69</ele>
        <time>2021-02-28T11:35:24.000Z</time>
      </trkpt>
      <trkpt lat="47.09127" lon="-1.52725">
        <ele>69</ele>
        <time>2021-02-28T11:35:26.000Z</time>
      </trkpt>
      <trkpt lat="47.09123" lon="-1.52711">
        <ele>69</ele>
        <time>2021-02-28T11:35:28.000Z</time>
      </trkpt>
      <trkpt lat="47.09117" lon="-1.52698">
        <ele>69</ele>
        <time>2021-02-28T11:35:30.000Z</time>
      </trkpt>
      <trkpt lat="47.09112" lon="-1.52687">
        <ele>69</ele>
        <time>2021-02-28T11:35:32.000Z</time>
      </trkpt>
      <trkpt lat="47.09105" lon="-1.52676">
        <ele>69</ele>
        <time>2021-02-28T11:35:34.000Z</time>
      </trkpt>
      <trkpt lat="47.09099" lon="-1.52666">
        <ele>69</ele>
        <time>2021-02-28T11:35:36.000Z</time>
      </trkpt>
      <trkpt lat="47.09094" lon="-1.52653">
        <ele>68</ele>
        <time>2021-02-28T11:35:38.000Z</time>
      </trkpt>
      <trkpt lat="47.09094" lon="-1.52638">
        <ele>68</ele>
        <time>2021-02-28T11:35:40.000Z</time>
      </trkpt>
      <trkpt lat="47.09098" lon="-1.52625">
        <ele>68</ele>
        <time>2021-02-28T11:35:42.000Z</time>
      </trkpt>
      <trkpt lat="47.09102" lon="-1.52612">
        <ele>67</ele>
        <time>2021-02-28T11:35:44.000Z</time>
      </trkpt>
      <trkpt lat="47.09106" lon="-1.52597">
        <ele>67</ele>
        <time>2021-02-28T11:35:46.000Z</time>
      </trkpt>
      <trkpt lat="47.09108" lon="-1.52582">
        <ele>67</ele>
        <time>2021-02-28T11:35:48.000Z</time>
      </trkpt>
      <trkpt lat="47.0911" lon="-1.52565">
        <ele>67</ele>
        <time>2021-02-28T11:35:50.000Z</time>
      </trkpt>
      <trkpt lat="47.09112" lon="-1.52549">
        <ele>66</ele>
        <time>2021-02-28T11:35:52.000Z</time>
      </trkpt>
      <trkpt lat="47.09113" lon="-1.52532">
        <ele>66</ele>
        <time>2021-02-28T11:35:54.000Z</time>
      </trkpt>
      <trkpt lat="47.09115" lon="-1.52515">
        <ele>66</ele>
        <time>2021-02-28T11:35:56.000Z</time>
      </trkpt>
      <trkpt lat="47.09116" lon="-1.52498">
        <ele>66</ele>
        <time>2021-02-28T11:35:58.000Z</time>
      </trkpt>
      <trkpt lat="47.09117" lon="-1.52481">
        <ele>66</ele>
        <time>2021-02-28T11:36:00.000Z</time>
      </trkpt>
      <trkpt lat="47.09118" lon="-1.52464">
        <ele>66</ele>
        <time>2021-02-28T11:36:02.000Z</time>
      </trkpt>
      <trkpt lat="47.09119" lon="-1.52448">
        <ele>66</ele>
        <time>2021-02-28T11:36:04.000Z</time>
      </trkpt>
      <trkpt lat="47.0912" lon="-1.52432">
        <ele>65</ele>
        <time>2021-02-28T11:36:06.000Z</time>
      </trkpt>
      <trkpt lat="47.09122" lon="-1.52415">
        <ele>66</ele>
        <time>2021-02-28T11:36:08.000Z</time>
      </trkpt>
      <trkpt lat="47.09123" lon="-1.52399">
        <ele>66</ele>
        <time>2021-02-28T11:36:10.000Z</time>
      </trkpt>
      <trkpt lat="47.09124" lon="-1.52384">
        <ele>66</ele>
        <time>2021-02-28T11:36:12.000Z</time>
      </trkpt>
      <trkpt lat="47.09125" lon="-1.52368">
        <ele>66</ele>
        <time>2021-02-28T11:36:14.000Z</time>
      </trkpt>
      <trkpt lat="47.09127" lon="-1.52352">
        <ele>66</ele>
        <time>2021-02-28T11:36:16.000Z</time>
      </trkpt>
      <trkpt lat="47.09127" lon="-1.52338">
        <ele>66</ele>
        <time>2021-02-28T11:36:18.000Z</time>
      </trkpt>
      <trkpt lat="47.09128" lon="-1.52323">
        <ele>66</ele>
        <time>2021-02-28T11:36:20.000Z</time>
      </trkpt>
      <trkpt lat="47.09129" lon="-1.52308">
        <ele>66</ele>
        <time>2021-02-28T11:36:22.000Z</time>
      </trkpt>
      <trkpt lat="47.0913" lon="-1.52294">
        <ele>66</ele>
        <time>2021-02-28T11:36:24.000Z</time>
      </trkpt>
      <trkpt lat="47.09132" lon="-1.52279">
        <ele>66</ele>
        <time>2021-02-28T11:36:26.000Z</time>
      </trkpt>
      <trkpt lat="47.09134" lon="-1.52264">
        <ele>66</ele>
        <time>2021-02-28T11:36:28.000Z</time>
      </trkpt>
      <trkpt lat="47.09137" lon="-1.5225">
        <ele>66</ele>
        <time>2021-02-28T11:36:30.000Z</time>
      </trkpt>
      <trkpt lat="47.0914" lon="-1.52236">
        <ele>67</ele>
        <time>2021-02-28T11:36:32.000Z</time>
      </trkpt>
      <trkpt lat="47.09144" lon="-1.52222">
        <ele>67</ele>
        <time>2021-02-28T11:36:34.000Z</time>
      </trkpt>
      <trkpt lat="47.09148" lon="-1.52209">
        <ele>67</ele>
        <time>2021-02-28T11:36:36.000Z</time>
      </trkpt>
      <trkpt lat="47.09152" lon="-1.52197">
        <ele>67</ele>
        <time>2021-02-28T11:36:38.000Z</time>
      </trkpt>
      <trkpt lat="47.09157" lon="-1.52184">
        <ele>67</ele>
        <time>2021-02-28T11:36:40.000Z</time>
      </trkpt>
      <trkpt lat="47.09163" lon="-1.52171">
        <ele>67</ele>
        <time>2021-02-28T11:36:42.000Z</time>
      </trkpt>
      <trkpt lat="47.09168" lon="-1.52158">
        <ele>67</ele>
        <time>2021-02-28T11:36:44.000Z</time>
      </trkpt>
      <trkpt lat="47.09174" lon="-1.52145">
        <ele>67</ele>
        <time>2021-02-28T11:36:46.000Z</time>
      </trkpt>
      <trkpt lat="47.0918" lon="-1.52132">
        <ele>67</ele>
        <time>2021-02-28T11:36:48.000Z</time>
      </trkpt>
      <trkpt lat="47.09186" lon="-1.52119">
        <ele>67</ele>
        <time>2021-02-28T11:36:50.000Z</time>
      </trkpt>
      <trkpt lat="47.09191" lon="-1.52105">
        <ele>67</ele>
        <time>2021-02-28T11:36:52.000Z</time>
      </trkpt>
      <trkpt lat="47.09197" lon="-1.52092">
        <ele>67</ele>
        <time>2021-02-28T11:36:54.000Z</time>
      </trkpt>
      <trkpt lat="47.09203" lon="-1.52078">
        <ele>66</ele>
        <time>2021-02-28T11:36:56.000Z</time>
      </trkpt>
      <trkpt lat="47.0921" lon="-1.52064">
        <ele>66</ele>
        <time>2021-02-28T11:36:58.000Z</time>
      </trkpt>
      <trkpt lat="47.09216" lon="-1.52049">
        <ele>66</ele>
        <time>2021-02-28T11:37:00.000Z</time>
      </trkpt>
      <trkpt lat="47.09222" lon="-1.52035">
        <ele>66</ele>
        <time>2021-02-28T11:37:02.000Z</time>
      </trkpt>
      <trkpt lat="47.09228" lon="-1.52021">
        <ele>66</ele>
        <time>2021-02-28T11:37:04.000Z</time>
      </trkpt>
      <trkpt lat="47.09234" lon="-1.52008">
        <ele>66</ele>
        <time>2021-02-28T11:37:06.000Z</time>
      </trkpt>
      <trkpt lat="47.09239" lon="-1.51995">
        <ele>65</ele>
        <time>2021-02-28T11:37:08.000Z</time>
      </trkpt>
      <trkpt lat="47.09245" lon="-1.51982">
        <ele>65</ele>
        <time>2021-02-28T11:37:10.000Z</time>
      </trkpt>
      <trkpt lat="47.0925" lon="-1.51969">
        <ele>65</ele>
        <time>2021-02-28T11:37:12.000Z</time>
      </trkpt>
      <trkpt lat="47.09256" lon="-1.51956">
        <ele>66</ele>
        <time>2021-02-28T11:37:14.000Z</time>
      </trkpt>
      <trkpt lat="47.09261" lon="-1.51944">
        <ele>66</ele>
        <time>2021-02-28T11:37:16.000Z</time>
      </trkpt>
      <trkpt lat="47.09266" lon="-1.51932">
        <ele>66</ele>
        <time>2021-02-28T11:37:18.000Z</time>
      </trkpt>
      <trkpt lat="47.09271" lon="-1.5192">
        <ele>66</ele>
        <time>2021-02-28T11:37:20.000Z</time>
      </trkpt>
      <trkpt lat="47.09277" lon="-1.51908">
        <ele>66</ele>
        <time>2021-02-28T11:37:22.000Z</time>
      </trkpt>
      <trkpt lat="47.09281" lon="-1.51896">
        <ele>66</ele>
        <time>2021-02-28T11:37:24.000Z</time>
      </trkpt>
      <trkpt lat="47.09287" lon="-1.51884">
        <ele>66</ele>
        <time>2021-02-28T11:37:26.000Z</time>
      </trkpt>
      <trkpt lat="47.09292" lon="-1.5187">
        <ele>65</ele>
        <time>2021-02-28T11:37:28.000Z</time>
      </trkpt>
      <trkpt lat="47.09299" lon="-1.51857">
        <ele>65</ele>
        <time>2021-02-28T11:37:30.000Z</time>
      </trkpt>
      <trkpt lat="47.09305" lon="-1.51843">
        <ele>65</ele>
        <time>2021-02-28T11:37:32.000Z</time>
      </trkpt>
      <trkpt lat="47.09311" lon="-1.51828">
        <ele>65</ele>
        <time>2021-02-28T11:37:34.000Z</time>
      </trkpt>
      <trkpt lat="47.09317" lon="-1.51814">
        <ele>64</ele>
        <time>2021-02-28T11:37:36.000Z</time>
      </trkpt>
      <trkpt lat="47.09324" lon="-1.51799">
        <ele>64</ele>
        <time>2021-02-28T11:37:38.000Z</time>
      </trkpt>
      <trkpt lat="47.0933" lon="-1.51785">
        <ele>64</ele>
        <time>2021-02-28T11:37:40.000Z</time>
      </trkpt>
      <trkpt lat="47.09336" lon="-1.51771">
        <ele>63</ele>
        <time>2021-02-28T11:37:42.000Z</time>
      </trkpt>
      <trkpt lat="47.09342" lon="-1.51757">
        <ele>62</ele>
        <time>2021-02-28T11:37:44.000Z</time>
      </trkpt>
      <trkpt lat="47.09348" lon="-1.51743">
        <ele>62</ele>
        <time>2021-02-28T11:37:46.000Z</time>
      </trkpt>
      <trkpt lat="47.09354" lon="-1.51729">
        <ele>62</ele>
        <time>2021-02-28T11:37:48.000Z</time>
      </trkpt>
      <trkpt lat="47.0936" lon="-1.51715">
        <ele>61</ele>
        <time>2021-02-28T11:37:50.000Z</time>
      </trkpt>
      <trkpt lat="47.09366" lon="-1.51701">
        <ele>61</ele>
        <time>2021-02-28T11:37:52.000Z</time>
      </trkpt>
      <trkpt lat="47.09372" lon="-1.51686">
        <ele>60</ele>
        <time>2021-02-28T11:37:54.000Z</time>
      </trkpt>
      <trkpt lat="47.09379" lon="-1.51672">
        <ele>60</ele>
        <time>2021-02-28T11:37:56.000Z</time>
      </trkpt>
      <trkpt lat="47.09385" lon="-1.51658">
        <ele>60</ele>
        <time>2021-02-28T11:37:58.000Z</time>
      </trkpt>
      <trkpt lat="47.09392" lon="-1.51644">
        <ele>61</ele>
        <time>2021-02-28T11:38:00.000Z</time>
      </trkpt>
      <trkpt lat="47.09398" lon="-1.51629">
        <ele>61</ele>
        <time>2021-02-28T11:38:02.000Z</time>
      </trkpt>
      <trkpt lat="47.09404" lon="-1.51614">
        <ele>61</ele>
        <time>2021-02-28T11:38:04.000Z</time>
      </trkpt>
      <trkpt lat="47.0941" lon="-1.51599">
        <ele>61</ele>
        <time>2021-02-28T11:38:06.000Z</time>
      </trkpt>
      <trkpt lat="47.09416" lon="-1.51584">
        <ele>61</ele>
        <time>2021-02-28T11:38:08.000Z</time>
      </trkpt>
      <trkpt lat="47.09422" lon="-1.5157">
        <ele>61</ele>
        <time>2021-02-28T11:38:10.000Z</time>
      </trkpt>
      <trkpt lat="47.09427" lon="-1.51556">
        <ele>61</ele>
        <time>2021-02-28T11:38:12.000Z</time>
      </trkpt>
      <trkpt lat="47.09433" lon="-1.51542">
        <ele>60</ele>
        <time>2021-02-28T11:38:14.000Z</time>
      </trkpt>
      <trkpt lat="47.0944" lon="-1.51529">
        <ele>60</ele>
        <time>2021-02-28T11:38:16.000Z</time>
      </trkpt>
      <trkpt lat="47.09445" lon="-1.51516">
        <ele>60</ele>
        <time>2021-02-28T11:38:18.000Z</time>
      </trkpt>
      <trkpt lat="47.09451" lon="-1.51502">
        <ele>61</ele>
        <time>2021-02-28T11:38:20.000Z</time>
      </trkpt>
      <trkpt lat="47.09456" lon="-1.51488">
        <ele>61</ele>
        <time>2021-02-28T11:38:22.000Z</time>
      </trkpt>
      <trkpt lat="47.09463" lon="-1.51474">
        <ele>61</ele>
        <time>2021-02-28T11:38:24.000Z</time>
      </trkpt>
      <trkpt lat="47.09468" lon="-1.5146">
        <ele>61</ele>
        <time>2021-02-28T11:38:26.000Z</time>
      </trkpt>
      <trkpt lat="47.09474" lon="-1.51447">
        <ele>61</ele>
        <time>2021-02-28T11:38:28.000Z</time>
      </trkpt>
      <trkpt lat="47.0948" lon="-1.51434">
        <ele>61</ele>
        <time>2021-02-28T11:38:30.000Z</time>
      </trkpt>
      <trkpt lat="47.09485" lon="-1.51421">
        <ele>61</ele>
        <time>2021-02-28T11:38:32.000Z</time>
      </trkpt>
      <trkpt lat="47.0949" lon="-1.51408">
        <ele>61</ele>
        <time>2021-02-28T11:38:34.000Z</time>
      </trkpt>
      <trkpt lat="47.09495" lon="-1.51394">
        <ele>61</ele>
        <time>2021-02-28T11:38:36.000Z</time>
      </trkpt>
      <trkpt lat="47.095" lon="-1.5138">
        <ele>60</ele>
        <time>2021-02-28T11:38:38.000Z</time>
      </trkpt>
      <trkpt lat="47.09503" lon="-1.51365">
        <ele>60</ele>
        <time>2021-02-28T11:38:40.000Z</time>
      </trkpt>
      <trkpt lat="47.09504" lon="-1.5135">
        <ele>59</ele>
        <time>2021-02-28T11:38:42.000Z</time>
      </trkpt>
      <trkpt lat="47.09503" lon="-1.51333">
        <ele>59</ele>
        <time>2021-02-28T11:38:44.000Z</time>
      </trkpt>
      <trkpt lat="47.09501" lon="-1.51316">
        <ele>60</ele>
        <time>2021-02-28T11:38:46.000Z</time>
      </trkpt>
      <trkpt lat="47.09498" lon="-1.513">
        <ele>60</ele>
        <time>2021-02-28T11:38:48.000Z</time>
      </trkpt>
      <trkpt lat="47.09493" lon="-1.51285">
        <ele>60</ele>
        <time>2021-02-28T11:38:50.000Z</time>
      </trkpt>
      <trkpt lat="47.09489" lon="-1.5127">
        <ele>60</ele>
        <time>2021-02-28T11:38:52.000Z</time>
      </trkpt>
      <trkpt lat="47.09484" lon="-1.51255">
        <ele>60</ele>
        <time>2021-02-28T11:38:54.000Z</time>
      </trkpt>
      <trkpt lat="47.09479" lon="-1.51239">
        <ele>60</ele>
        <time>2021-02-28T11:38:56.000Z</time>
      </trkpt>
      <trkpt lat="47.09475" lon="-1.51223">
        <ele>60</ele>
        <time>2021-02-28T11:38:58.000Z</time>
      </trkpt>
      <trkpt lat="47.09471" lon="-1.51208">
        <ele>60</ele>
        <time>2021-02-28T11:39:00.000Z</time>
      </trkpt>
      <trkpt lat="47.09467" lon="-1.51192">
        <ele>60</ele>
        <time>2021-02-28T11:39:02.000Z</time>
      </trkpt>
      <trkpt lat="47.09463" lon="-1.51175">
        <ele>59</ele>
        <time>2021-02-28T11:39:04.000Z</time>
      </trkpt>
      <trkpt lat="47.09458" lon="-1.51159">
        <ele>60</ele>
        <time>2021-02-28T11:39:06.000Z</time>
      </trkpt>
      <trkpt lat="47.09454" lon="-1.51143">
        <ele>59</ele>
        <time>2021-02-28T11:39:08.000Z</time>
      </trkpt>
      <trkpt lat="47.0945" lon="-1.51128">
        <ele>59</ele>
        <time>2021-02-28T11:39:10.000Z</time>
      </trkpt>
      <trkpt lat="47.09446" lon="-1.51114">
        <ele>59</ele>
        <time>2021-02-28T11:39:12.000Z</time>
      </trkpt>
      <trkpt lat="47.09442" lon="-1.51098">
        <ele>58</ele>
        <time>2021-02-28T11:39:14.000Z</time>
      </trkpt>
      <trkpt lat="47.09437" lon="-1.51083">
        <ele>58</ele>
        <time>2021-02-28T11:39:16.000Z</time>
      </trkpt>
      <trkpt lat="47.09433" lon="-1.51067">
        <ele>57</ele>
        <time>2021-02-28T11:39:18.000Z</time>
      </trkpt>
      <trkpt lat="47.09429" lon="-1.51052">
        <ele>57</ele>
        <time>2021-02-28T11:39:20.000Z</time>
      </trkpt>
      <trkpt lat="47.09426" lon="-1.51038">
        <ele>57</ele>
        <time>2021-02-28T11:39:22.000Z</time>
      </trkpt>
      <trkpt lat="47.09422" lon="-1.51024">
        <ele>57</ele>
        <time>2021-02-28T11:39:24.000Z</time>
      </trkpt>
      <trkpt lat="47.09419" lon="-1.51011">
        <ele>57</ele>
        <time>2021-02-28T11:39:26.000Z</time>
      </trkpt>
      <trkpt lat="47.09415" lon="-1.50997">
        <ele>57</ele>
        <time>2021-02-28T11:39:28.000Z</time>
      </trkpt>
      <trkpt lat="47.09411" lon="-1.50983">
        <ele>57</ele>
        <time>2021-02-28T11:39:30.000Z</time>
      </trkpt>
      <trkpt lat="47.09407" lon="-1.50968">
        <ele>57</ele>
        <time>2021-02-28T11:39:32.000Z</time>
      </trkpt>
      <trkpt lat="47.09403" lon="-1.50953">
        <ele>57</ele>
        <time>2021-02-28T11:39:34.000Z</time>
      </trkpt>
      <trkpt lat="47.09399" lon="-1.50939">
        <ele>58</ele>
        <time>2021-02-28T11:39:36.000Z</time>
      </trkpt>
      <trkpt lat="47.09395" lon="-1.50924">
        <ele>58</ele>
        <time>2021-02-28T11:39:38.000Z</time>
      </trkpt>
      <trkpt lat="47.09392" lon="-1.5091">
        <ele>58</ele>
        <time>2021-02-28T11:39:40.000Z</time>
      </trkpt>
      <trkpt lat="47.0939" lon="-1.50896">
        <ele>58</ele>
        <time>2021-02-28T11:39:42.000Z</time>
      </trkpt>
      <trkpt lat="47.09389" lon="-1.50881">
        <ele>58</ele>
        <time>2021-02-28T11:39:44.000Z</time>
      </trkpt>
      <trkpt lat="47.09388" lon="-1.50867">
        <ele>58</ele>
        <time>2021-02-28T11:39:46.000Z</time>
      </trkpt>
      <trkpt lat="47.09388" lon="-1.50853">
        <ele>58</ele>
        <time>2021-02-28T11:39:48.000Z</time>
      </trkpt>
      <trkpt lat="47.09389" lon="-1.50834">
        <ele>59</ele>
        <time>2021-02-28T11:39:51.000Z</time>
      </trkpt>
      <trkpt lat="47.09391" lon="-1.50815">
        <ele>59</ele>
        <time>2021-02-28T11:39:54.000Z</time>
      </trkpt>
      <trkpt lat="47.09394" lon="-1.50797">
        <ele>59</ele>
        <time>2021-02-28T11:39:57.000Z</time>
      </trkpt>
      <trkpt lat="47.09397" lon="-1.5078">
        <ele>60</ele>
        <time>2021-02-28T11:40:00.000Z</time>
      </trkpt>
      <trkpt lat="47.09399" lon="-1.50762">
        <ele>60</ele>
        <time>2021-02-28T11:40:03.000Z</time>
      </trkpt>
      <trkpt lat="47.09402" lon="-1.50745">
        <ele>61</ele>
        <time>2021-02-28T11:40:06.000Z</time>
      </trkpt>
      <trkpt lat="47.09405" lon="-1.50728">
        <ele>62</ele>
        <time>2021-02-28T11:40:09.000Z</time>
      </trkpt>
      <trkpt lat="47.09408" lon="-1.50712">
        <ele>63</ele>
        <time>2021-02-28T11:40:12.000Z</time>
      </trkpt>
      <trkpt lat="47.09411" lon="-1.50694">
        <ele>63</ele>
        <time>2021-02-28T11:40:15.000Z</time>
      </trkpt>
      <trkpt lat="47.09414" lon="-1.50678">
        <ele>64</ele>
        <time>2021-02-28T11:40:18.000Z</time>
      </trkpt>
      <trkpt lat="47.09416" lon="-1.50662">
        <ele>64</ele>
        <time>2021-02-28T11:40:21.000Z</time>
      </trkpt>
      <trkpt lat="47.09419" lon="-1.50646">
        <ele>65</ele>
        <time>2021-02-28T11:40:24.000Z</time>
      </trkpt>
      <trkpt lat="47.09421" lon="-1.50629">
        <ele>65</ele>
        <time>2021-02-28T11:40:27.000Z</time>
      </trkpt>
      <trkpt lat="47.09425" lon="-1.50611">
        <ele>66</ele>
        <time>2021-02-28T11:40:30.000Z</time>
      </trkpt>
      <trkpt lat="47.09428" lon="-1.50594">
        <ele>66</ele>
        <time>2021-02-28T11:40:33.000Z</time>
      </trkpt>
      <trkpt lat="47.09431" lon="-1.50578">
        <ele>67</ele>
        <time>2021-02-28T11:40:36.000Z</time>
      </trkpt>
      <trkpt lat="47.09433" lon="-1.5056">
        <ele>68</ele>
        <time>2021-02-28T11:40:39.000Z</time>
      </trkpt>
      <trkpt lat="47.09436" lon="-1.50542">
        <ele>68</ele>
        <time>2021-02-28T11:40:42.000Z</time>
      </trkpt>
      <trkpt lat="47.09439" lon="-1.50525">
        <ele>68</ele>
        <time>2021-02-28T11:40:45.000Z</time>
      </trkpt>
      <trkpt lat="47.09442" lon="-1.50507">
        <ele>69</ele>
        <time>2021-02-28T11:40:48.000Z</time>
      </trkpt>
      <trkpt lat="47.09445" lon="-1.50493">
        <ele>68</ele>
        <time>2021-02-28T11:40:50.000Z</time>
      </trkpt>
      <trkpt lat="47.09447" lon="-1.50479">
        <ele>68</ele>
        <time>2021-02-28T11:40:52.000Z</time>
      </trkpt>
      <trkpt lat="47.09449" lon="-1.50466">
        <ele>68</ele>
        <time>2021-02-28T11:40:54.000Z</time>
      </trkpt>
      <trkpt lat="47.09452" lon="-1.50451">
        <ele>67</ele>
        <time>2021-02-28T11:40:56.000Z</time>
      </trkpt>
      <trkpt lat="47.09454" lon="-1.50435">
        <ele>67</ele>
        <time>2021-02-28T11:40:58.000Z</time>
      </trkpt>
      <trkpt lat="47.09456" lon="-1.50419">
        <ele>67</ele>
        <time>2021-02-28T11:41:00.000Z</time>
      </trkpt>
      <trkpt lat="47.09459" lon="-1.504">
        <ele>67</ele>
        <time>2021-02-28T11:41:02.000Z</time>
      </trkpt>
      <trkpt lat="47.09462" lon="-1.50383">
        <ele>66</ele>
        <time>2021-02-28T11:41:04.000Z</time>
      </trkpt>
      <trkpt lat="47.09465" lon="-1.50364">
        <ele>66</ele>
        <time>2021-02-28T11:41:06.000Z</time>
      </trkpt>
      <trkpt lat="47.09469" lon="-1.50344">
        <ele>65</ele>
        <time>2021-02-28T11:41:08.000Z</time>
      </trkpt>
      <trkpt lat="47.09473" lon="-1.50325">
        <ele>65</ele>
        <time>2021-02-28T11:41:10.000Z</time>
      </trkpt>
      <trkpt lat="47.09475" lon="-1.50307">
        <ele>65</ele>
        <time>2021-02-28T11:41:12.000Z</time>
      </trkpt>
      <trkpt lat="47.09478" lon="-1.5029">
        <ele>65</ele>
        <time>2021-02-28T11:41:14.000Z</time>
      </trkpt>
      <trkpt lat="47.09481" lon="-1.50274">
        <ele>65</ele>
        <time>2021-02-28T11:41:16.000Z</time>
      </trkpt>
      <trkpt lat="47.09483" lon="-1.50258">
        <ele>65</ele>
        <time>2021-02-28T11:41:18.000Z</time>
      </trkpt>
      <trkpt lat="47.09486" lon="-1.50242">
        <ele>64</ele>
        <time>2021-02-28T11:41:20.000Z</time>
      </trkpt>
      <trkpt lat="47.09489" lon="-1.50227">
        <ele>64</ele>
        <time>2021-02-28T11:41:22.000Z</time>
      </trkpt>
      <trkpt lat="47.09492" lon="-1.50213">
        <ele>64</ele>
        <time>2021-02-28T11:41:24.000Z</time>
      </trkpt>
      <trkpt lat="47.09494" lon="-1.50199">
        <ele>64</ele>
        <time>2021-02-28T11:41:26.000Z</time>
      </trkpt>
      <trkpt lat="47.09496" lon="-1.50186">
        <ele>64</ele>
        <time>2021-02-28T11:41:28.000Z</time>
      </trkpt>
      <trkpt lat="47.09499" lon="-1.50172">
        <ele>64</ele>
        <time>2021-02-28T11:41:30.000Z</time>
      </trkpt>
      <trkpt lat="47.09501" lon="-1.50158">
        <ele>65</ele>
        <time>2021-02-28T11:41:32.000Z</time>
      </trkpt>
      <trkpt lat="47.09504" lon="-1.50144">
        <ele>65</ele>
        <time>2021-02-28T11:41:34.000Z</time>
      </trkpt>
      <trkpt lat="47.09506" lon="-1.50131">
        <ele>65</ele>
        <time>2021-02-28T11:41:36.000Z</time>
      </trkpt>
      <trkpt lat="47.09508" lon="-1.50117">
        <ele>65</ele>
        <time>2021-02-28T11:41:38.000Z</time>
      </trkpt>
      <trkpt lat="47.0951" lon="-1.50104">
        <ele>65</ele>
        <time>2021-02-28T11:41:40.000Z</time>
      </trkpt>
      <trkpt lat="47.09514" lon="-1.50086">
        <ele>65</ele>
        <time>2021-02-28T11:41:43.000Z</time>
      </trkpt>
      <trkpt lat="47.09517" lon="-1.50067">
        <ele>65</ele>
        <time>2021-02-28T11:41:46.000Z</time>
      </trkpt>
      <trkpt lat="47.09519" lon="-1.50054">
        <ele>66</ele>
        <time>2021-02-28T11:41:48.000Z</time>
      </trkpt>
      <trkpt lat="47.09522" lon="-1.50035">
        <ele>67</ele>
        <time>2021-02-28T11:41:51.000Z</time>
      </trkpt>
      <trkpt lat="47.09524" lon="-1.50022">
        <ele>67</ele>
        <time>2021-02-28T11:41:53.000Z</time>
      </trkpt>
      <trkpt lat="47.09527" lon="-1.50003">
        <ele>68</ele>
        <time>2021-02-28T11:41:56.000Z</time>
      </trkpt>
      <trkpt lat="47.09529" lon="-1.4999">
        <ele>68</ele>
        <time>2021-02-28T11:41:58.000Z</time>
      </trkpt>
      <trkpt lat="47.09533" lon="-1.49972">
        <ele>68</ele>
        <time>2021-02-28T11:42:01.000Z</time>
      </trkpt>
      <trkpt lat="47.09536" lon="-1.49953">
        <ele>69</ele>
        <time>2021-02-28T11:42:04.000Z</time>
      </trkpt>
      <trkpt lat="47.0954" lon="-1.49936">
        <ele>69</ele>
        <time>2021-02-28T11:42:07.000Z</time>
      </trkpt>
      <trkpt lat="47.09543" lon="-1.49918">
        <ele>69</ele>
        <time>2021-02-28T11:42:10.000Z</time>
      </trkpt>
      <trkpt lat="47.09547" lon="-1.49901">
        <ele>70</ele>
        <time>2021-02-28T11:42:13.000Z</time>
      </trkpt>
      <trkpt lat="47.09551" lon="-1.49884">
        <ele>71</ele>
        <time>2021-02-28T11:42:16.000Z</time>
      </trkpt>
      <trkpt lat="47.09555" lon="-1.49867">
        <ele>71</ele>
        <time>2021-02-28T11:42:19.000Z</time>
      </trkpt>
      <trkpt lat="47.0956" lon="-1.4985">
        <ele>72</ele>
        <time>2021-02-28T11:42:22.000Z</time>
      </trkpt>
      <trkpt lat="47.09566" lon="-1.49833">
        <ele>72</ele>
        <time>2021-02-28T11:42:25.000Z</time>
      </trkpt>
      <trkpt lat="47.09572" lon="-1.49816">
        <ele>72</ele>
        <time>2021-02-28T11:42:28.000Z</time>
      </trkpt>
      <trkpt lat="47.09578" lon="-1.49799">
        <ele>72</ele>
        <time>2021-02-28T11:42:31.000Z</time>
      </trkpt>
      <trkpt lat="47.09582" lon="-1.49786">
        <ele>72</ele>
        <time>2021-02-28T11:42:33.000Z</time>
      </trkpt>
      <trkpt lat="47.09586" lon="-1.49774">
        <ele>72</ele>
        <time>2021-02-28T11:42:35.000Z</time>
      </trkpt>
      <trkpt lat="47.09591" lon="-1.49762">
        <ele>72</ele>
        <time>2021-02-28T11:42:37.000Z</time>
      </trkpt>
      <trkpt lat="47.09597" lon="-1.49745">
        <ele>73</ele>
        <time>2021-02-28T11:42:40.000Z</time>
      </trkpt>
      <trkpt lat="47.09601" lon="-1.49733">
        <ele>73</ele>
        <time>2021-02-28T11:42:42.000Z</time>
      </trkpt>
      <trkpt lat="47.09606" lon="-1.4972">
        <ele>73</ele>
        <time>2021-02-28T11:42:44.000Z</time>
      </trkpt>
      <trkpt lat="47.0961" lon="-1.49708">
        <ele>73</ele>
        <time>2021-02-28T11:42:46.000Z</time>
      </trkpt>
      <trkpt lat="47.09614" lon="-1.49695">
        <ele>73</ele>
        <time>2021-02-28T11:42:48.000Z</time>
      </trkpt>
      <trkpt lat="47.09618" lon="-1.49682">
        <ele>72</ele>
        <time>2021-02-28T11:42:50.000Z</time>
      </trkpt>
      <trkpt lat="47.09623" lon="-1.49669">
        <ele>72</ele>
        <time>2021-02-28T11:42:52.000Z</time>
      </trkpt>
      <trkpt lat="47.09628" lon="-1.49656">
        <ele>72</ele>
        <time>2021-02-28T11:42:54.000Z</time>
      </trkpt>
      <trkpt lat="47.09631" lon="-1.49643">
        <ele>73</ele>
        <time>2021-02-28T11:42:56.000Z</time>
      </trkpt>
      <trkpt lat="47.09636" lon="-1.4963">
        <ele>72</ele>
        <time>2021-02-28T11:42:58.000Z</time>
      </trkpt>
      <trkpt lat="47.09641" lon="-1.49616">
        <ele>72</ele>
        <time>2021-02-28T11:43:00.000Z</time>
      </trkpt>
      <trkpt lat="47.09646" lon="-1.49604">
        <ele>72</ele>
        <time>2021-02-28T11:43:02.000Z</time>
      </trkpt>
      <trkpt lat="47.09651" lon="-1.49591">
        <ele>72</ele>
        <time>2021-02-28T11:43:04.000Z</time>
      </trkpt>
      <trkpt lat="47.09655" lon="-1.49578">
        <ele>72</ele>
        <time>2021-02-28T11:43:06.000Z</time>
      </trkpt>
      <trkpt lat="47.09658" lon="-1.49565">
        <ele>72</ele>
        <time>2021-02-28T11:43:08.000Z</time>
      </trkpt>
      <trkpt lat="47.09662" lon="-1.49551">
        <ele>72</ele>
        <time>2021-02-28T11:43:10.000Z</time>
      </trkpt>
      <trkpt lat="47.09667" lon="-1.49539">
        <ele>72</ele>
        <time>2021-02-28T11:43:12.000Z</time>
      </trkpt>
      <trkpt lat="47.09672" lon="-1.49525">
        <ele>73</ele>
        <time>2021-02-28T11:43:14.000Z</time>
      </trkpt>
      <trkpt lat="47.09674" lon="-1.49512">
        <ele>72</ele>
        <time>2021-02-28T11:43:16.000Z</time>
      </trkpt>
      <trkpt lat="47.09676" lon="-1.49498">
        <ele>72</ele>
        <time>2021-02-28T11:43:18.000Z</time>
      </trkpt>
      <trkpt lat="47.09676" lon="-1.49484">
        <ele>72</ele>
        <time>2021-02-28T11:43:20.000Z</time>
      </trkpt>
      <trkpt lat="47.09678" lon="-1.4947">
        <ele>72</ele>
        <time>2021-02-28T11:43:22.000Z</time>
      </trkpt>
      <trkpt lat="47.09682" lon="-1.49456">
        <ele>71</ele>
        <time>2021-02-28T11:43:24.000Z</time>
      </trkpt>
      <trkpt lat="47.09686" lon="-1.49442">
        <ele>71</ele>
        <time>2021-02-28T11:43:26.000Z</time>
      </trkpt>
      <trkpt lat="47.09688" lon="-1.49428">
        <ele>72</ele>
        <time>2021-02-28T11:43:28.000Z</time>
      </trkpt>
      <trkpt lat="47.0969" lon="-1.49415">
        <ele>71</ele>
        <time>2021-02-28T11:43:30.000Z</time>
      </trkpt>
      <trkpt lat="47.09692" lon="-1.49401">
        <ele>71</ele>
        <time>2021-02-28T11:43:32.000Z</time>
      </trkpt>
      <trkpt lat="47.09694" lon="-1.49387">
        <ele>71</ele>
        <time>2021-02-28T11:43:34.000Z</time>
      </trkpt>
      <trkpt lat="47.09695" lon="-1.49373">
        <ele>72</ele>
        <time>2021-02-28T11:43:36.000Z</time>
      </trkpt>
      <trkpt lat="47.09698" lon="-1.49354">
        <ele>72</ele>
        <time>2021-02-28T11:43:39.000Z</time>
      </trkpt>
      <trkpt lat="47.097" lon="-1.49341">
        <ele>72</ele>
        <time>2021-02-28T11:43:41.000Z</time>
      </trkpt>
      <trkpt lat="47.09702" lon="-1.49328">
        <ele>72</ele>
        <time>2021-02-28T11:43:43.000Z</time>
      </trkpt>
      <trkpt lat="47.09704" lon="-1.49308">
        <ele>72</ele>
        <time>2021-02-28T11:43:46.000Z</time>
      </trkpt>
      <trkpt lat="47.09706" lon="-1.49295">
        <ele>72</ele>
        <time>2021-02-28T11:43:48.000Z</time>
      </trkpt>
      <trkpt lat="47.09707" lon="-1.49282">
        <ele>72</ele>
        <time>2021-02-28T11:43:50.000Z</time>
      </trkpt>
      <trkpt lat="47.09711" lon="-1.49269">
        <ele>72</ele>
        <time>2021-02-28T11:43:52.000Z</time>
      </trkpt>
      <trkpt lat="47.09717" lon="-1.49251">
        <ele>72</ele>
        <time>2021-02-28T11:43:55.000Z</time>
      </trkpt>
      <trkpt lat="47.09721" lon="-1.49239">
        <ele>72</ele>
        <time>2021-02-28T11:43:57.000Z</time>
      </trkpt>
      <trkpt lat="47.09725" lon="-1.49226">
        <ele>72</ele>
        <time>2021-02-28T11:43:59.000Z</time>
      </trkpt>
      <trkpt lat="47.09729" lon="-1.49213">
        <ele>72</ele>
        <time>2021-02-28T11:44:01.000Z</time>
      </trkpt>
      <trkpt lat="47.09733" lon="-1.492">
        <ele>72</ele>
        <time>2021-02-28T11:44:03.000Z</time>
      </trkpt>
      <trkpt lat="47.09737" lon="-1.49186">
        <ele>73</ele>
        <time>2021-02-28T11:44:05.000Z</time>
      </trkpt>
      <trkpt lat="47.09741" lon="-1.49172">
        <ele>72</ele>
        <time>2021-02-28T11:44:07.000Z</time>
      </trkpt>
      <trkpt lat="47.09745" lon="-1.49157">
        <ele>72</ele>
        <time>2021-02-28T11:44:09.000Z</time>
      </trkpt>
      <trkpt lat="47.09749" lon="-1.49142">
        <ele>72</ele>
        <time>2021-02-28T11:44:11.000Z</time>
      </trkpt>
      <trkpt lat="47.09754" lon="-1.49126">
        <ele>72</ele>
        <time>2021-02-28T11:44:13.000Z</time>
      </trkpt>
      <trkpt lat="47.09759" lon="-1.4911">
        <ele>71</ele>
        <time>2021-02-28T11:44:15.000Z</time>
      </trkpt>
      <trkpt lat="47.09764" lon="-1.49095">
        <ele>71</ele>
        <time>2021-02-28T11:44:17.000Z</time>
      </trkpt>
      <trkpt lat="47.09769" lon="-1.4908">
        <ele>71</ele>
        <time>2021-02-28T11:44:19.000Z</time>
      </trkpt>
      <trkpt lat="47.09775" lon="-1.49068">
        <ele>70</ele>
        <time>2021-02-28T11:44:21.000Z</time>
      </trkpt>
      <trkpt lat="47.09789" lon="-1.49068">
        <ele>71</ele>
        <time>2021-02-28T11:44:24.000Z</time>
      </trkpt>
      <trkpt lat="47.09799" lon="-1.49073">
        <ele>70</ele>
        <time>2021-02-28T11:44:26.000Z</time>
      </trkpt>
      <trkpt lat="47.09808" lon="-1.49077">
        <ele>71</ele>
        <time>2021-02-28T11:44:28.000Z</time>
      </trkpt>
      <trkpt lat="47.09818" lon="-1.49083">
        <ele>70</ele>
        <time>2021-02-28T11:44:30.000Z</time>
      </trkpt>
      <trkpt lat="47.09827" lon="-1.49088">
        <ele>70</ele>
        <time>2021-02-28T11:44:32.000Z</time>
      </trkpt>
      <trkpt lat="47.09837" lon="-1.49093">
        <ele>70</ele>
        <time>2021-02-28T11:44:34.000Z</time>
      </trkpt>
      <trkpt lat="47.09847" lon="-1.49097">
        <ele>70</ele>
        <time>2021-02-28T11:44:36.000Z</time>
      </trkpt>
      <trkpt lat="47.09857" lon="-1.49098">
        <ele>71</ele>
        <time>2021-02-28T11:44:38.000Z</time>
      </trkpt>
      <trkpt lat="47.09867" lon="-1.491">
        <ele>71</ele>
        <time>2021-02-28T11:44:40.000Z</time>
      </trkpt>
      <trkpt lat="47.09878" lon="-1.49099">
        <ele>71</ele>
        <time>2021-02-28T11:44:42.000Z</time>
      </trkpt>
      <trkpt lat="47.09889" lon="-1.49099">
        <ele>70</ele>
        <time>2021-02-28T11:44:44.000Z</time>
      </trkpt>
      <trkpt lat="47.09898" lon="-1.49096">
        <ele>70</ele>
        <time>2021-02-28T11:44:46.000Z</time>
      </trkpt>
      <trkpt lat="47.09908" lon="-1.49093">
        <ele>71</ele>
        <time>2021-02-28T11:44:48.000Z</time>
      </trkpt>
      <trkpt lat="47.09917" lon="-1.4909">
        <ele>71</ele>
        <time>2021-02-28T11:44:50.000Z</time>
      </trkpt>
      <trkpt lat="47.09926" lon="-1.49086">
        <ele>72</ele>
        <time>2021-02-28T11:44:52.000Z</time>
      </trkpt>
      <trkpt lat="47.09935" lon="-1.49082">
        <ele>72</ele>
        <time>2021-02-28T11:44:54.000Z</time>
      </trkpt>
      <trkpt lat="47.09943" lon="-1.49076">
        <ele>72</ele>
        <time>2021-02-28T11:44:56.000Z</time>
      </trkpt>
      <trkpt lat="47.09952" lon="-1.49069">
        <ele>72</ele>
        <time>2021-02-28T11:44:58.000Z</time>
      </trkpt>
      <trkpt lat="47.0996" lon="-1.49062">
        <ele>72</ele>
        <time>2021-02-28T11:45:00.000Z</time>
      </trkpt>
      <trkpt lat="47.09968" lon="-1.49054">
        <ele>72</ele>
        <time>2021-02-28T11:45:02.000Z</time>
      </trkpt>
      <trkpt lat="47.09977" lon="-1.49046">
        <ele>72</ele>
        <time>2021-02-28T11:45:04.000Z</time>
      </trkpt>
      <trkpt lat="47.09986" lon="-1.4904">
        <ele>72</ele>
        <time>2021-02-28T11:45:06.000Z</time>
      </trkpt>
      <trkpt lat="47.09995" lon="-1.49034">
        <ele>72</ele>
        <time>2021-02-28T11:45:08.000Z</time>
      </trkpt>
      <trkpt lat="47.10005" lon="-1.49031">
        <ele>72</ele>
        <time>2021-02-28T11:45:10.000Z</time>
      </trkpt>
      <trkpt lat="47.10014" lon="-1.4903">
        <ele>72</ele>
        <time>2021-02-28T11:45:12.000Z</time>
      </trkpt>
      <trkpt lat="47.10024" lon="-1.4903">
        <ele>72</ele>
        <time>2021-02-28T11:45:14.000Z</time>
      </trkpt>
      <trkpt lat="47.10035" lon="-1.4903">
        <ele>72</ele>
        <time>2021-02-28T11:45:16.000Z</time>
      </trkpt>
      <trkpt lat="47.10045" lon="-1.49031">
        <ele>73</ele>
        <time>2021-02-28T11:45:18.000Z</time>
      </trkpt>
      <trkpt lat="47.10055" lon="-1.49031">
        <ele>73</ele>
        <time>2021-02-28T11:45:20.000Z</time>
      </trkpt>
      <trkpt lat="47.10065" lon="-1.49031">
        <ele>73</ele>
        <time>2021-02-28T11:45:22.000Z</time>
      </trkpt>
      <trkpt lat="47.10075" lon="-1.49031">
        <ele>73</ele>
        <time>2021-02-28T11:45:24.000Z</time>
      </trkpt>
      <trkpt lat="47.10085" lon="-1.4903">
        <ele>73</ele>
        <time>2021-02-28T11:45:26.000Z</time>
      </trkpt>
      <trkpt lat="47.10094" lon="-1.49028">
        <ele>73</ele>
        <time>2021-02-28T11:45:28.000Z</time>
      </trkpt>
      <trkpt lat="47.10103" lon="-1.49026">
        <ele>73</ele>
        <time>2021-02-28T11:45:30.000Z</time>
      </trkpt>
      <trkpt lat="47.10113" lon="-1.49025">
        <ele>72</ele>
        <time>2021-02-28T11:45:32.000Z</time>
      </trkpt>
      <trkpt lat="47.10123" lon="-1.49021">
        <ele>72</ele>
        <time>2021-02-28T11:45:34.000Z</time>
      </trkpt>
      <trkpt lat="47.10132" lon="-1.49016">
        <ele>72</ele>
        <time>2021-02-28T11:45:36.000Z</time>
      </trkpt>
      <trkpt lat="47.10141" lon="-1.49012">
        <ele>72</ele>
        <time>2021-02-28T11:45:38.000Z</time>
      </trkpt>
      <trkpt lat="47.10154" lon="-1.49005">
        <ele>72</ele>
        <time>2021-02-28T11:45:41.000Z</time>
      </trkpt>
      <trkpt lat="47.10167" lon="-1.49">
        <ele>73</ele>
        <time>2021-02-28T11:45:44.000Z</time>
      </trkpt>
      <trkpt lat="47.10176" lon="-1.48998">
        <ele>73</ele>
        <time>2021-02-28T11:45:46.000Z</time>
      </trkpt>
      <trkpt lat="47.10185" lon="-1.48995">
        <ele>73</ele>
        <time>2021-02-28T11:45:48.000Z</time>
      </trkpt>
      <trkpt lat="47.10194" lon="-1.4899">
        <ele>74</ele>
        <time>2021-02-28T11:45:50.000Z</time>
      </trkpt>
      <trkpt lat="47.10203" lon="-1.48988">
        <ele>74</ele>
        <time>2021-02-28T11:45:52.000Z</time>
      </trkpt>
      <trkpt lat="47.10212" lon="-1.48987">
        <ele>74</ele>
        <time>2021-02-28T11:45:54.000Z</time>
      </trkpt>
      <trkpt lat="47.10221" lon="-1.48988">
        <ele>75</ele>
        <time>2021-02-28T11:45:56.000Z</time>
      </trkpt>
      <trkpt lat="47.10231" lon="-1.48988">
        <ele>75</ele>
        <time>2021-02-28T11:45:58.000Z</time>
      </trkpt>
      <trkpt lat="47.1024" lon="-1.48988">
        <ele>75</ele>
        <time>2021-02-28T11:46:00.000Z</time>
      </trkpt>
      <trkpt lat="47.10249" lon="-1.48988">
        <ele>76</ele>
        <time>2021-02-28T11:46:02.000Z</time>
      </trkpt>
      <trkpt lat="47.10263" lon="-1.48989">
        <ele>76</ele>
        <time>2021-02-28T11:46:05.000Z</time>
      </trkpt>
      <trkpt lat="47.10272" lon="-1.4899">
        <ele>77</ele>
        <time>2021-02-28T11:46:07.000Z</time>
      </trkpt>
      <trkpt lat="47.10281" lon="-1.4899">
        <ele>77</ele>
        <time>2021-02-28T11:46:09.000Z</time>
      </trkpt>
      <trkpt lat="47.10291" lon="-1.4899">
        <ele>77</ele>
        <time>2021-02-28T11:46:11.000Z</time>
      </trkpt>
      <trkpt lat="47.103" lon="-1.4899">
        <ele>77</ele>
        <time>2021-02-28T11:46:13.000Z</time>
      </trkpt>
      <trkpt lat="47.10309" lon="-1.48992">
        <ele>77</ele>
        <time>2021-02-28T11:46:15.000Z</time>
      </trkpt>
      <trkpt lat="47.10318" lon="-1.48994">
        <ele>77</ele>
        <time>2021-02-28T11:46:17.000Z</time>
      </trkpt>
      <trkpt lat="47.10328" lon="-1.48995">
        <ele>77</ele>
        <time>2021-02-28T11:46:19.000Z</time>
      </trkpt>
      <trkpt lat="47.10338" lon="-1.48996">
        <ele>76</ele>
        <time>2021-02-28T11:46:21.000Z</time>
      </trkpt>
      <trkpt lat="47.10349" lon="-1.48998">
        <ele>76</ele>
        <time>2021-02-28T11:46:23.000Z</time>
      </trkpt>
      <trkpt lat="47.10359" lon="-1.48999">
        <ele>76</ele>
        <time>2021-02-28T11:46:25.000Z</time>
      </trkpt>
      <trkpt lat="47.1037" lon="-1.48999">
        <ele>76</ele>
        <time>2021-02-28T11:46:27.000Z</time>
      </trkpt>
      <trkpt lat="47.10381" lon="-1.48999">
        <ele>76</ele>
        <time>2021-02-28T11:46:29.000Z</time>
      </trkpt>
      <trkpt lat="47.10391" lon="-1.48999">
        <ele>75</ele>
        <time>2021-02-28T11:46:31.000Z</time>
      </trkpt>
      <trkpt lat="47.10402" lon="-1.49">
        <ele>75</ele>
        <time>2021-02-28T11:46:33.000Z</time>
      </trkpt>
      <trkpt lat="47.10412" lon="-1.49003">
        <ele>75</ele>
        <time>2021-02-28T11:46:35.000Z</time>
      </trkpt>
      <trkpt lat="47.10423" lon="-1.49003">
        <ele>75</ele>
        <time>2021-02-28T11:46:37.000Z</time>
      </trkpt>
      <trkpt lat="47.10434" lon="-1.49004">
        <ele>74</ele>
        <time>2021-02-28T11:46:39.000Z</time>
      </trkpt>
      <trkpt lat="47.10445" lon="-1.49004">
        <ele>74</ele>
        <time>2021-02-28T11:46:41.000Z</time>
      </trkpt>
      <trkpt lat="47.10455" lon="-1.49003">
        <ele>74</ele>
        <time>2021-02-28T11:46:43.000Z</time>
      </trkpt>
      <trkpt lat="47.10466" lon="-1.49001">
        <ele>74</ele>
        <time>2021-02-28T11:46:45.000Z</time>
      </trkpt>
      <trkpt lat="47.10477" lon="-1.48997">
        <ele>74</ele>
        <time>2021-02-28T11:46:47.000Z</time>
      </trkpt>
      <trkpt lat="47.10488" lon="-1.48993">
        <ele>74</ele>
        <time>2021-02-28T11:46:49.000Z</time>
      </trkpt>
      <trkpt lat="47.10498" lon="-1.4899">
        <ele>74</ele>
        <time>2021-02-28T11:46:51.000Z</time>
      </trkpt>
      <trkpt lat="47.10509" lon="-1.48988">
        <ele>73</ele>
        <time>2021-02-28T11:46:53.000Z</time>
      </trkpt>
      <trkpt lat="47.10521" lon="-1.48987">
        <ele>73</ele>
        <time>2021-02-28T11:46:55.000Z</time>
      </trkpt>
      <trkpt lat="47.10533" lon="-1.48987">
        <ele>73</ele>
        <time>2021-02-28T11:46:57.000Z</time>
      </trkpt>
      <trkpt lat="47.10545" lon="-1.48988">
        <ele>72</ele>
        <time>2021-02-28T11:46:59.000Z</time>
      </trkpt>
      <trkpt lat="47.10556" lon="-1.4899">
        <ele>72</ele>
        <time>2021-02-28T11:47:01.000Z</time>
      </trkpt>
      <trkpt lat="47.10568" lon="-1.48991">
        <ele>72</ele>
        <time>2021-02-28T11:47:03.000Z</time>
      </trkpt>
      <trkpt lat="47.10579" lon="-1.48992">
        <ele>72</ele>
        <time>2021-02-28T11:47:05.000Z</time>
      </trkpt>
      <trkpt lat="47.10591" lon="-1.48993">
        <ele>71</ele>
        <time>2021-02-28T11:47:07.000Z</time>
      </trkpt>
      <trkpt lat="47.10602" lon="-1.48994">
        <ele>71</ele>
        <time>2021-02-28T11:47:09.000Z</time>
      </trkpt>
      <trkpt lat="47.10614" lon="-1.48993">
        <ele>71</ele>
        <time>2021-02-28T11:47:11.000Z</time>
      </trkpt>
      <trkpt lat="47.10625" lon="-1.48992">
        <ele>71</ele>
        <time>2021-02-28T11:47:13.000Z</time>
      </trkpt>
      <trkpt lat="47.10637" lon="-1.48988">
        <ele>71</ele>
        <time>2021-02-28T11:47:15.000Z</time>
      </trkpt>
      <trkpt lat="47.10648" lon="-1.48984">
        <ele>71</ele>
        <time>2021-02-28T11:47:17.000Z</time>
      </trkpt>
      <trkpt lat="47.10658" lon="-1.48978">
        <ele>70</ele>
        <time>2021-02-28T11:47:19.000Z</time>
      </trkpt>
      <trkpt lat="47.10669" lon="-1.48973">
        <ele>70</ele>
        <time>2021-02-28T11:47:21.000Z</time>
      </trkpt>
      <trkpt lat="47.1068" lon="-1.48966">
        <ele>70</ele>
        <time>2021-02-28T11:47:23.000Z</time>
      </trkpt>
      <trkpt lat="47.10691" lon="-1.4896">
        <ele>70</ele>
        <time>2021-02-28T11:47:25.000Z</time>
      </trkpt>
      <trkpt lat="47.10701" lon="-1.48953">
        <ele>71</ele>
        <time>2021-02-28T11:47:27.000Z</time>
      </trkpt>
      <trkpt lat="47.10712" lon="-1.48947">
        <ele>70</ele>
        <time>2021-02-28T11:47:29.000Z</time>
      </trkpt>
      <trkpt lat="47.10722" lon="-1.48941">
        <ele>71</ele>
        <time>2021-02-28T11:47:31.000Z</time>
      </trkpt>
      <trkpt lat="47.10733" lon="-1.48935">
        <ele>71</ele>
        <time>2021-02-28T11:47:33.000Z</time>
      </trkpt>
      <trkpt lat="47.10744" lon="-1.48931">
        <ele>71</ele>
        <time>2021-02-28T11:47:35.000Z</time>
      </trkpt>
      <trkpt lat="47.10754" lon="-1.48927">
        <ele>71</ele>
        <time>2021-02-28T11:47:37.000Z</time>
      </trkpt>
      <trkpt lat="47.10764" lon="-1.48923">
        <ele>71</ele>
        <time>2021-02-28T11:47:39.000Z</time>
      </trkpt>
      <trkpt lat="47.10774" lon="-1.4892">
        <ele>71</ele>
        <time>2021-02-28T11:47:41.000Z</time>
      </trkpt>
      <trkpt lat="47.10785" lon="-1.48916">
        <ele>72</ele>
        <time>2021-02-28T11:47:43.000Z</time>
      </trkpt>
      <trkpt lat="47.10796" lon="-1.48912">
        <ele>72</ele>
        <time>2021-02-28T11:47:45.000Z</time>
      </trkpt>
      <trkpt lat="47.10806" lon="-1.48907">
        <ele>72</ele>
        <time>2021-02-28T11:47:47.000Z</time>
      </trkpt>
      <trkpt lat="47.10817" lon="-1.48903">
        <ele>72</ele>
        <time>2021-02-28T11:47:49.000Z</time>
      </trkpt>
      <trkpt lat="47.10827" lon="-1.48899">
        <ele>72</ele>
        <time>2021-02-28T11:47:51.000Z</time>
      </trkpt>
      <trkpt lat="47.10836" lon="-1.48896">
        <ele>72</ele>
        <time>2021-02-28T11:47:53.000Z</time>
      </trkpt>
      <trkpt lat="47.10845" lon="-1.48893">
        <ele>73</ele>
        <time>2021-02-28T11:47:55.000Z</time>
      </trkpt>
      <trkpt lat="47.10857" lon="-1.48888">
        <ele>73</ele>
        <time>2021-02-28T11:47:58.000Z</time>
      </trkpt>
      <trkpt lat="47.10868" lon="-1.48885">
        <ele>74</ele>
        <time>2021-02-28T11:48:01.000Z</time>
      </trkpt>
      <trkpt lat="47.10879" lon="-1.4888">
        <ele>75</ele>
        <time>2021-02-28T11:48:04.000Z</time>
      </trkpt>
      <trkpt lat="47.1089" lon="-1.48877">
        <ele>75</ele>
        <time>2021-02-28T11:48:07.000Z</time>
      </trkpt>
      <trkpt lat="47.109" lon="-1.48873">
        <ele>76</ele>
        <time>2021-02-28T11:48:10.000Z</time>
      </trkpt>
      <trkpt lat="47.10911" lon="-1.48869">
        <ele>77</ele>
        <time>2021-02-28T11:48:13.000Z</time>
      </trkpt>
      <trkpt lat="47.10921" lon="-1.48865">
        <ele>77</ele>
        <time>2021-02-28T11:48:16.000Z</time>
      </trkpt>
      <trkpt lat="47.10932" lon="-1.4886">
        <ele>78</ele>
        <time>2021-02-28T11:48:19.000Z</time>
      </trkpt>
      <trkpt lat="47.10942" lon="-1.48855">
        <ele>79</ele>
        <time>2021-02-28T11:48:22.000Z</time>
      </trkpt>
      <trkpt lat="47.10953" lon="-1.48851">
        <ele>79</ele>
        <time>2021-02-28T11:48:25.000Z</time>
      </trkpt>
      <trkpt lat="47.10964" lon="-1.48846">
        <ele>79</ele>
        <time>2021-02-28T11:48:28.000Z</time>
      </trkpt>
      <trkpt lat="47.10975" lon="-1.48842">
        <ele>79</ele>
        <time>2021-02-28T11:48:31.000Z</time>
      </trkpt>
      <trkpt lat="47.10986" lon="-1.48838">
        <ele>80</ele>
        <time>2021-02-28T11:48:34.000Z</time>
      </trkpt>
      <trkpt lat="47.10997" lon="-1.48834">
        <ele>80</ele>
        <time>2021-02-28T11:48:37.000Z</time>
      </trkpt>
      <trkpt lat="47.11008" lon="-1.48829">
        <ele>80</ele>
        <time>2021-02-28T11:48:40.000Z</time>
      </trkpt>
      <trkpt lat="47.11018" lon="-1.48824">
        <ele>81</ele>
        <time>2021-02-28T11:48:43.000Z</time>
      </trkpt>
      <trkpt lat="47.11029" lon="-1.4882">
        <ele>81</ele>
        <time>2021-02-28T11:48:46.000Z</time>
      </trkpt>
      <trkpt lat="47.11041" lon="-1.48815">
        <ele>82</ele>
        <time>2021-02-28T11:48:49.000Z</time>
      </trkpt>
      <trkpt lat="47.11052" lon="-1.48811">
        <ele>83</ele>
        <time>2021-02-28T11:48:52.000Z</time>
      </trkpt>
      <trkpt lat="47.11063" lon="-1.48806">
        <ele>83</ele>
        <time>2021-02-28T11:48:55.000Z</time>
      </trkpt>
      <trkpt lat="47.11075" lon="-1.48802">
        <ele>82</ele>
        <time>2021-02-28T11:48:58.000Z</time>
      </trkpt>
      <trkpt lat="47.11087" lon="-1.48797">
        <ele>82</ele>
        <time>2021-02-28T11:49:01.000Z</time>
      </trkpt>
      <trkpt lat="47.11098" lon="-1.48791">
        <ele>82</ele>
        <time>2021-02-28T11:49:04.000Z</time>
      </trkpt>
      <trkpt lat="47.11111" lon="-1.48785">
        <ele>82</ele>
        <time>2021-02-28T11:49:07.000Z</time>
      </trkpt>
      <trkpt lat="47.1112" lon="-1.48781">
        <ele>82</ele>
        <time>2021-02-28T11:49:09.000Z</time>
      </trkpt>
      <trkpt lat="47.11129" lon="-1.48777">
        <ele>81</ele>
        <time>2021-02-28T11:49:11.000Z</time>
      </trkpt>
      <trkpt lat="47.11139" lon="-1.48773">
        <ele>81</ele>
        <time>2021-02-28T11:49:13.000Z</time>
      </trkpt>
      <trkpt lat="47.11148" lon="-1.48769">
        <ele>81</ele>
        <time>2021-02-28T11:49:15.000Z</time>
      </trkpt>
      <trkpt lat="47.11158" lon="-1.48765">
        <ele>80</ele>
        <time>2021-02-28T11:49:17.000Z</time>
      </trkpt>
      <trkpt lat="47.11169" lon="-1.48761">
        <ele>80</ele>
        <time>2021-02-28T11:49:19.000Z</time>
      </trkpt>
      <trkpt lat="47.11179" lon="-1.48757">
        <ele>80</ele>
        <time>2021-02-28T11:49:21.000Z</time>
      </trkpt>
      <trkpt lat="47.1119" lon="-1.48752">
        <ele>80</ele>
        <time>2021-02-28T11:49:23.000Z</time>
      </trkpt>
      <trkpt lat="47.11201" lon="-1.48748">
        <ele>79</ele>
        <time>2021-02-28T11:49:25.000Z</time>
      </trkpt>
      <trkpt lat="47.11212" lon="-1.48743">
        <ele>79</ele>
        <time>2021-02-28T11:49:27.000Z</time>
      </trkpt>
      <trkpt lat="47.11223" lon="-1.4874">
        <ele>79</ele>
        <time>2021-02-28T11:49:29.000Z</time>
      </trkpt>
      <trkpt lat="47.11234" lon="-1.48736">
        <ele>79</ele>
        <time>2021-02-28T11:49:31.000Z</time>
      </trkpt>
      <trkpt lat="47.11244" lon="-1.48732">
        <ele>79</ele>
        <time>2021-02-28T11:49:33.000Z</time>
      </trkpt>
      <trkpt lat="47.11254" lon="-1.48728">
        <ele>79</ele>
        <time>2021-02-28T11:49:35.000Z</time>
      </trkpt>
      <trkpt lat="47.11265" lon="-1.48724">
        <ele>79</ele>
        <time>2021-02-28T11:49:37.000Z</time>
      </trkpt>
      <trkpt lat="47.11275" lon="-1.4872">
        <ele>78</ele>
        <time>2021-02-28T11:49:39.000Z</time>
      </trkpt>
      <trkpt lat="47.11285" lon="-1.48716">
        <ele>78</ele>
        <time>2021-02-28T11:49:41.000Z</time>
      </trkpt>
      <trkpt lat="47.11295" lon="-1.48711">
        <ele>78</ele>
        <time>2021-02-28T11:49:43.000Z</time>
      </trkpt>
      <trkpt lat="47.11304" lon="-1.48707">
        <ele>78</ele>
        <time>2021-02-28T11:49:45.000Z</time>
      </trkpt>
      <trkpt lat="47.11317" lon="-1.48701">
        <ele>79</ele>
        <time>2021-02-28T11:49:48.000Z</time>
      </trkpt>
      <trkpt lat="47.11329" lon="-1.48696">
        <ele>79</ele>
        <time>2021-02-28T11:49:51.000Z</time>
      </trkpt>
      <trkpt lat="47.11341" lon="-1.48692">
        <ele>80</ele>
        <time>2021-02-28T11:49:54.000Z</time>
      </trkpt>
      <trkpt lat="47.11353" lon="-1.48686">
        <ele>81</ele>
        <time>2021-02-28T11:49:57.000Z</time>
      </trkpt>
      <trkpt lat="47.11365" lon="-1.48683">
        <ele>81</ele>
        <time>2021-02-28T11:50:00.000Z</time>
      </trkpt>
      <trkpt lat="47.11376" lon="-1.4868">
        <ele>82</ele>
        <time>2021-02-28T11:50:03.000Z</time>
      </trkpt>
      <trkpt lat="47.11387" lon="-1.48677">
        <ele>83</ele>
        <time>2021-02-28T11:50:06.000Z</time>
      </trkpt>
      <trkpt lat="47.11397" lon="-1.48674">
        <ele>83</ele>
        <time>2021-02-28T11:50:09.000Z</time>
      </trkpt>
      <trkpt lat="47.11408" lon="-1.4867">
        <ele>84</ele>
        <time>2021-02-28T11:50:12.000Z</time>
      </trkpt>
      <trkpt lat="47.11419" lon="-1.48668">
        <ele>85</ele>
        <time>2021-02-28T11:50:15.000Z</time>
      </trkpt>
      <trkpt lat="47.1143" lon="-1.48665">
        <ele>85</ele>
        <time>2021-02-28T11:50:18.000Z</time>
      </trkpt>
      <trkpt lat="47.11441" lon="-1.48662">
        <ele>86</ele>
        <time>2021-02-28T11:50:21.000Z</time>
      </trkpt>
      <trkpt lat="47.11452" lon="-1.48659">
        <ele>87</ele>
        <time>2021-02-28T11:50:24.000Z</time>
      </trkpt>
      <trkpt lat="47.11464" lon="-1.48657">
        <ele>87</ele>
        <time>2021-02-28T11:50:27.000Z</time>
      </trkpt>
      <trkpt lat="47.11475" lon="-1.48655">
        <ele>88</ele>
        <time>2021-02-28T11:50:30.000Z</time>
      </trkpt>
      <trkpt lat="47.11486" lon="-1.48652">
        <ele>88</ele>
        <time>2021-02-28T11:50:33.000Z</time>
      </trkpt>
      <trkpt lat="47.11496" lon="-1.4865">
        <ele>89</ele>
        <time>2021-02-28T11:50:36.000Z</time>
      </trkpt>
      <trkpt lat="47.11507" lon="-1.48647">
        <ele>90</ele>
        <time>2021-02-28T11:50:39.000Z</time>
      </trkpt>
      <trkpt lat="47.11518" lon="-1.48644">
        <ele>91</ele>
        <time>2021-02-28T11:50:42.000Z</time>
      </trkpt>
      <trkpt lat="47.11528" lon="-1.48642">
        <ele>91</ele>
        <time>2021-02-28T11:50:45.000Z</time>
      </trkpt>
      <trkpt lat="47.11539" lon="-1.48639">
        <ele>91</ele>
        <time>2021-02-28T11:50:48.000Z</time>
      </trkpt>
      <trkpt lat="47.11549" lon="-1.48636">
        <ele>92</ele>
        <time>2021-02-28T11:50:51.000Z</time>
      </trkpt>
      <trkpt lat="47.1156" lon="-1.48633">
        <ele>92</ele>
        <time>2021-02-28T11:50:54.000Z</time>
      </trkpt>
      <trkpt lat="47.1157" lon="-1.48632">
        <ele>92</ele>
        <time>2021-02-28T11:50:57.000Z</time>
      </trkpt>
      <trkpt lat="47.1158" lon="-1.48629">
        <ele>93</ele>
        <time>2021-02-28T11:51:00.000Z</time>
      </trkpt>
      <trkpt lat="47.11591" lon="-1.48626">
        <ele>93</ele>
        <time>2021-02-28T11:51:03.000Z</time>
      </trkpt>
      <trkpt lat="47.11602" lon="-1.48624">
        <ele>93</ele>
        <time>2021-02-28T11:51:06.000Z</time>
      </trkpt>
      <trkpt lat="47.11613" lon="-1.48621">
        <ele>93</ele>
        <time>2021-02-28T11:51:09.000Z</time>
      </trkpt>
      <trkpt lat="47.11624" lon="-1.48619">
        <ele>93</ele>
        <time>2021-02-28T11:51:12.000Z</time>
      </trkpt>
      <trkpt lat="47.11635" lon="-1.48616">
        <ele>94</ele>
        <time>2021-02-28T11:51:15.000Z</time>
      </trkpt>
      <trkpt lat="47.11646" lon="-1.48613">
        <ele>94</ele>
        <time>2021-02-28T11:51:18.000Z</time>
      </trkpt>
      <trkpt lat="47.11657" lon="-1.48611">
        <ele>95</ele>
        <time>2021-02-28T11:51:21.000Z</time>
      </trkpt>
      <trkpt lat="47.11668" lon="-1.48608">
        <ele>95</ele>
        <time>2021-02-28T11:51:24.000Z</time>
      </trkpt>
      <trkpt lat="47.11678" lon="-1.48604">
        <ele>95</ele>
        <time>2021-02-28T11:51:27.000Z</time>
      </trkpt>
      <trkpt lat="47.11688" lon="-1.48599">
        <ele>96</ele>
        <time>2021-02-28T11:51:30.000Z</time>
      </trkpt>
      <trkpt lat="47.11698" lon="-1.48593">
        <ele>96</ele>
        <time>2021-02-28T11:51:33.000Z</time>
      </trkpt>
      <trkpt lat="47.11707" lon="-1.48586">
        <ele>97</ele>
        <time>2021-02-28T11:51:36.000Z</time>
      </trkpt>
      <trkpt lat="47.11715" lon="-1.48577">
        <ele>97</ele>
        <time>2021-02-28T11:51:39.000Z</time>
      </trkpt>
      <trkpt lat="47.11722" lon="-1.48567">
        <ele>97</ele>
        <time>2021-02-28T11:51:42.000Z</time>
      </trkpt>
      <trkpt lat="47.11727" lon="-1.48554">
        <ele>97</ele>
        <time>2021-02-28T11:51:45.000Z</time>
      </trkpt>
      <trkpt lat="47.11733" lon="-1.48538">
        <ele>98</ele>
        <time>2021-02-28T11:51:48.000Z</time>
      </trkpt>
      <trkpt lat="47.11741" lon="-1.48528">
        <ele>98</ele>
        <time>2021-02-28T11:51:51.000Z</time>
      </trkpt>
      <trkpt lat="47.11751" lon="-1.48518">
        <ele>99</ele>
        <time>2021-02-28T11:51:54.000Z</time>
      </trkpt>
      <trkpt lat="47.11753" lon="-1.48503">
        <ele>99</ele>
        <time>2021-02-28T11:51:57.000Z</time>
      </trkpt>
      <trkpt lat="47.11751" lon="-1.48486">
        <ele>99</ele>
        <time>2021-02-28T11:52:00.000Z</time>
      </trkpt>
      <trkpt lat="47.11748" lon="-1.4847">
        <ele>99</ele>
        <time>2021-02-28T11:52:03.000Z</time>
      </trkpt>
      <trkpt lat="47.11746" lon="-1.48454">
        <ele>99</ele>
        <time>2021-02-28T11:52:06.000Z</time>
      </trkpt>
      <trkpt lat="47.11745" lon="-1.48439">
        <ele>100</ele>
        <time>2021-02-28T11:52:09.000Z</time>
      </trkpt>
      <trkpt lat="47.11744" lon="-1.48425">
        <ele>101</ele>
        <time>2021-02-28T11:52:12.000Z</time>
      </trkpt>
      <trkpt lat="47.11743" lon="-1.48411">
        <ele>101</ele>
        <time>2021-02-28T11:52:15.000Z</time>
      </trkpt>
      <trkpt lat="47.11742" lon="-1.48396">
        <ele>102</ele>
        <time>2021-02-28T11:52:18.000Z</time>
      </trkpt>
      <trkpt lat="47.1174" lon="-1.48381">
        <ele>103</ele>
        <time>2021-02-28T11:52:21.000Z</time>
      </trkpt>
      <trkpt lat="47.11737" lon="-1.48364">
        <ele>103</ele>
        <time>2021-02-28T11:52:24.000Z</time>
      </trkpt>
      <trkpt lat="47.11733" lon="-1.4835">
        <ele>104</ele>
        <time>2021-02-28T11:52:27.000Z</time>
      </trkpt>
      <trkpt lat="47.11727" lon="-1.48336">
        <ele>103</ele>
        <time>2021-02-28T11:52:30.000Z</time>
      </trkpt>
      <trkpt lat="47.11719" lon="-1.48322">
        <ele>103</ele>
        <time>2021-02-28T11:52:33.000Z</time>
      </trkpt>
      <trkpt lat="47.11711" lon="-1.48307">
        <ele>102</ele>
        <time>2021-02-28T11:52:36.000Z</time>
      </trkpt>
      <trkpt lat="47.11705" lon="-1.48296">
        <ele>102</ele>
        <time>2021-02-28T11:52:38.000Z</time>
      </trkpt>
      <trkpt lat="47.11699" lon="-1.48286">
        <ele>102</ele>
        <time>2021-02-28T11:52:40.000Z</time>
      </trkpt>
      <trkpt lat="47.11692" lon="-1.48275">
        <ele>103</ele>
        <time>2021-02-28T11:52:42.000Z</time>
      </trkpt>
      <trkpt lat="47.11686" lon="-1.48265">
        <ele>103</ele>
        <time>2021-02-28T11:52:44.000Z</time>
      </trkpt>
      <trkpt lat="47.1168" lon="-1.48253">
        <ele>104</ele>
        <time>2021-02-28T11:52:46.000Z</time>
      </trkpt>
      <trkpt lat="47.11674" lon="-1.48242">
        <ele>104</ele>
        <time>2021-02-28T11:52:48.000Z</time>
      </trkpt>
      <trkpt lat="47.11668" lon="-1.48232">
        <ele>104</ele>
        <time>2021-02-28T11:52:50.000Z</time>
      </trkpt>
      <trkpt lat="47.11662" lon="-1.48221">
        <ele>104</ele>
        <time>2021-02-28T11:52:52.000Z</time>
      </trkpt>
      <trkpt lat="47.11656" lon="-1.4821">
        <ele>105</ele>
        <time>2021-02-28T11:52:54.000Z</time>
      </trkpt>
      <trkpt lat="47.11649" lon="-1.48199">
        <ele>105</ele>
        <time>2021-02-28T11:52:56.000Z</time>
      </trkpt>
      <trkpt lat="47.11644" lon="-1.48188">
        <ele>105</ele>
        <time>2021-02-28T11:52:58.000Z</time>
      </trkpt>
      <trkpt lat="47.11635" lon="-1.48173">
        <ele>106</ele>
        <time>2021-02-28T11:53:01.000Z</time>
      </trkpt>
      <trkpt lat="47.11628" lon="-1.48163">
        <ele>106</ele>
        <time>2021-02-28T11:53:03.000Z</time>
      </trkpt>
      <trkpt lat="47.1162" lon="-1.48148">
        <ele>106</ele>
        <time>2021-02-28T11:53:06.000Z</time>
      </trkpt>
      <trkpt lat="47.11614" lon="-1.48137">
        <ele>106</ele>
        <time>2021-02-28T11:53:08.000Z</time>
      </trkpt>
      <trkpt lat="47.11608" lon="-1.48126">
        <ele>106</ele>
        <time>2021-02-28T11:53:10.000Z</time>
      </trkpt>
      <trkpt lat="47.11603" lon="-1.48115">
        <ele>105</ele>
        <time>2021-02-28T11:53:12.000Z</time>
      </trkpt>
      <trkpt lat="47.11596" lon="-1.48105">
        <ele>106</ele>
        <time>2021-02-28T11:53:14.000Z</time>
      </trkpt>
      <trkpt lat="47.11589" lon="-1.4809">
        <ele>106</ele>
        <time>2021-02-28T11:53:17.000Z</time>
      </trkpt>
      <trkpt lat="47.11583" lon="-1.4808">
        <ele>106</ele>
        <time>2021-02-28T11:53:19.000Z</time>
      </trkpt>
      <trkpt lat="47.11577" lon="-1.48068">
        <ele>106</ele>
        <time>2021-02-28T11:53:21.000Z</time>
      </trkpt>
      <trkpt lat="47.11572" lon="-1.48055">
        <ele>106</ele>
        <time>2021-02-28T11:53:23.000Z</time>
      </trkpt>
      <trkpt lat="47.11573" lon="-1.4804">
        <ele>106</ele>
        <time>2021-02-28T11:53:25.000Z</time>
      </trkpt>
      <trkpt lat="47.11577" lon="-1.48025">
        <ele>105</ele>
        <time>2021-02-28T11:53:27.000Z</time>
      </trkpt>
      <trkpt lat="47.11582" lon="-1.48011">
        <ele>104</ele>
        <time>2021-02-28T11:53:29.000Z</time>
      </trkpt>
      <trkpt lat="47.11587" lon="-1.47998">
        <ele>104</ele>
        <time>2021-02-28T11:53:31.000Z</time>
      </trkpt>
      <trkpt lat="47.11592" lon="-1.47985">
        <ele>103</ele>
        <time>2021-02-28T11:53:33.000Z</time>
      </trkpt>
      <trkpt lat="47.11597" lon="-1.47973">
        <ele>103</ele>
        <time>2021-02-28T11:53:35.000Z</time>
      </trkpt>
      <trkpt lat="47.11603" lon="-1.47962">
        <ele>103</ele>
        <time>2021-02-28T11:53:37.000Z</time>
      </trkpt>
      <trkpt lat="47.11609" lon="-1.4795">
        <ele>103</ele>
        <time>2021-02-28T11:53:39.000Z</time>
      </trkpt>
      <trkpt lat="47.11615" lon="-1.47939">
        <ele>103</ele>
        <time>2021-02-28T11:53:41.000Z</time>
      </trkpt>
      <trkpt lat="47.1162" lon="-1.47927">
        <ele>103</ele>
        <time>2021-02-28T11:53:43.000Z</time>
      </trkpt>
      <trkpt lat="47.11626" lon="-1.47914">
        <ele>102</ele>
        <time>2021-02-28T11:53:45.000Z</time>
      </trkpt>
      <trkpt lat="47.1163" lon="-1.47899">
        <ele>102</ele>
        <time>2021-02-28T11:53:47.000Z</time>
      </trkpt>
      <trkpt lat="47.11633" lon="-1.47883">
        <ele>103</ele>
        <time>2021-02-28T11:53:49.000Z</time>
      </trkpt>
      <trkpt lat="47.11634" lon="-1.47867">
        <ele>103</ele>
        <time>2021-02-28T11:53:51.000Z</time>
      </trkpt>
      <trkpt lat="47.11634" lon="-1.47851">
        <ele>102</ele>
        <time>2021-02-28T11:53:53.000Z</time>
      </trkpt>
      <trkpt lat="47.11634" lon="-1.47834">
        <ele>103</ele>
        <time>2021-02-28T11:53:55.000Z</time>
      </trkpt>
      <trkpt lat="47.11633" lon="-1.47816">
        <ele>103</ele>
        <time>2021-02-28T11:53:57.000Z</time>
      </trkpt>
      <trkpt lat="47.11632" lon="-1.478">
        <ele>103</ele>
        <time>2021-02-28T11:53:59.000Z</time>
      </trkpt>
      <trkpt lat="47.11632" lon="-1.47784">
        <ele>103</ele>
        <time>2021-02-28T11:54:01.000Z</time>
      </trkpt>
      <trkpt lat="47.11632" lon="-1.47768">
        <ele>102</ele>
        <time>2021-02-28T11:54:03.000Z</time>
      </trkpt>
      <trkpt lat="47.11632" lon="-1.47752">
        <ele>102</ele>
        <time>2021-02-28T11:54:05.000Z</time>
      </trkpt>
      <trkpt lat="47.11632" lon="-1.47735">
        <ele>102</ele>
        <time>2021-02-28T11:54:07.000Z</time>
      </trkpt>
      <trkpt lat="47.11631" lon="-1.47717">
        <ele>102</ele>
        <time>2021-02-28T11:54:09.000Z</time>
      </trkpt>
      <trkpt lat="47.11632" lon="-1.47699">
        <ele>102</ele>
        <time>2021-02-28T11:54:11.000Z</time>
      </trkpt>
      <trkpt lat="47.11632" lon="-1.47682">
        <ele>101</ele>
        <time>2021-02-28T11:54:13.000Z</time>
      </trkpt>
      <trkpt lat="47.11633" lon="-1.47664">
        <ele>100</ele>
        <time>2021-02-28T11:54:15.000Z</time>
      </trkpt>
      <trkpt lat="47.11633" lon="-1.47648">
        <ele>100</ele>
        <time>2021-02-28T11:54:17.000Z</time>
      </trkpt>
      <trkpt lat="47.11633" lon="-1.47631">
        <ele>100</ele>
        <time>2021-02-28T11:54:19.000Z</time>
      </trkpt>
      <trkpt lat="47.11633" lon="-1.47615">
        <ele>101</ele>
        <time>2021-02-28T11:54:21.000Z</time>
      </trkpt>
      <trkpt lat="47.11632" lon="-1.47597">
        <ele>100</ele>
        <time>2021-02-28T11:54:23.000Z</time>
      </trkpt>
      <trkpt lat="47.11632" lon="-1.4758">
        <ele>100</ele>
        <time>2021-02-28T11:54:25.000Z</time>
      </trkpt>
      <trkpt lat="47.11632" lon="-1.47564">
        <ele>99</ele>
        <time>2021-02-28T11:54:27.000Z</time>
      </trkpt>
      <trkpt lat="47.11632" lon="-1.47547">
        <ele>99</ele>
        <time>2021-02-28T11:54:29.000Z</time>
      </trkpt>
      <trkpt lat="47.11632" lon="-1.47529">
        <ele>98</ele>
        <time>2021-02-28T11:54:31.000Z</time>
      </trkpt>
      <trkpt lat="47.11633" lon="-1.47512">
        <ele>98</ele>
        <time>2021-02-28T11:54:33.000Z</time>
      </trkpt>
      <trkpt lat="47.11633" lon="-1.47495">
        <ele>97</ele>
        <time>2021-02-28T11:54:35.000Z</time>
      </trkpt>
      <trkpt lat="47.11632" lon="-1.47478">
        <ele>97</ele>
        <time>2021-02-28T11:54:37.000Z</time>
      </trkpt>
      <trkpt lat="47.11632" lon="-1.47461">
        <ele>97</ele>
        <time>2021-02-28T11:54:39.000Z</time>
      </trkpt>
      <trkpt lat="47.11633" lon="-1.47444">
        <ele>97</ele>
        <time>2021-02-28T11:54:41.000Z</time>
      </trkpt>
      <trkpt lat="47.11633" lon="-1.47429">
        <ele>96</ele>
        <time>2021-02-28T11:54:43.000Z</time>
      </trkpt>
      <trkpt lat="47.11631" lon="-1.47415">
        <ele>96</ele>
        <time>2021-02-28T11:54:45.000Z</time>
      </trkpt>
      <trkpt lat="47.11629" lon="-1.47402">
        <ele>96</ele>
        <time>2021-02-28T11:54:47.000Z</time>
      </trkpt>
      <trkpt lat="47.11628" lon="-1.47388">
        <ele>97</ele>
        <time>2021-02-28T11:54:49.000Z</time>
      </trkpt>
      <trkpt lat="47.11629" lon="-1.47371">
        <ele>97</ele>
        <time>2021-02-28T11:54:51.000Z</time>
      </trkpt>
      <trkpt lat="47.11631" lon="-1.47354">
        <ele>97</ele>
        <time>2021-02-28T11:54:53.000Z</time>
      </trkpt>
      <trkpt lat="47.11633" lon="-1.47337">
        <ele>97</ele>
        <time>2021-02-28T11:54:55.000Z</time>
      </trkpt>
      <trkpt lat="47.11633" lon="-1.4732">
        <ele>97</ele>
        <time>2021-02-28T11:54:57.000Z</time>
      </trkpt>
      <trkpt lat="47.11633" lon="-1.47302">
        <ele>97</ele>
        <time>2021-02-28T11:54:59.000Z</time>
      </trkpt>
      <trkpt lat="47.11632" lon="-1.47283">
        <ele>97</ele>
        <time>2021-02-28T11:55:01.000Z</time>
      </trkpt>
      <trkpt lat="47.11632" lon="-1.47264">
        <ele>96</ele>
        <time>2021-02-28T11:55:03.000Z</time>
      </trkpt>
      <trkpt lat="47.11632" lon="-1.47245">
        <ele>96</ele>
        <time>2021-02-28T11:55:05.000Z</time>
      </trkpt>
      <trkpt lat="47.11632" lon="-1.47226">
        <ele>96</ele>
        <time>2021-02-28T11:55:07.000Z</time>
      </trkpt>
      <trkpt lat="47.11632" lon="-1.47206">
        <ele>96</ele>
        <time>2021-02-28T11:55:09.000Z</time>
      </trkpt>
      <trkpt lat="47.11632" lon="-1.47186">
        <ele>95</ele>
        <time>2021-02-28T11:55:11.000Z</time>
      </trkpt>
      <trkpt lat="47.11632" lon="-1.47166">
        <ele>95</ele>
        <time>2021-02-28T11:55:13.000Z</time>
      </trkpt>
      <trkpt lat="47.11632" lon="-1.47146">
        <ele>95</ele>
        <time>2021-02-28T11:55:15.000Z</time>
      </trkpt>
      <trkpt lat="47.11632" lon="-1.47125">
        <ele>95</ele>
        <time>2021-02-28T11:55:17.000Z</time>
      </trkpt>
      <trkpt lat="47.11632" lon="-1.47105">
        <ele>95</ele>
        <time>2021-02-28T11:55:19.000Z</time>
      </trkpt>
      <trkpt lat="47.11632" lon="-1.47086">
        <ele>95</ele>
        <time>2021-02-28T11:55:21.000Z</time>
      </trkpt>
      <trkpt lat="47.11632" lon="-1.47066">
        <ele>95</ele>
        <time>2021-02-28T11:55:23.000Z</time>
      </trkpt>
      <trkpt lat="47.11632" lon="-1.47045">
        <ele>94</ele>
        <time>2021-02-28T11:55:25.000Z</time>
      </trkpt>
      <trkpt lat="47.11633" lon="-1.47027">
        <ele>94</ele>
        <time>2021-02-28T11:55:27.000Z</time>
      </trkpt>
      <trkpt lat="47.11632" lon="-1.47007">
        <ele>94</ele>
        <time>2021-02-28T11:55:29.000Z</time>
      </trkpt>
      <trkpt lat="47.11631" lon="-1.46988">
        <ele>94</ele>
        <time>2021-02-28T11:55:31.000Z</time>
      </trkpt>
      <trkpt lat="47.11632" lon="-1.46969">
        <ele>94</ele>
        <time>2021-02-28T11:55:33.000Z</time>
      </trkpt>
      <trkpt lat="47.11632" lon="-1.46949">
        <ele>95</ele>
        <time>2021-02-28T11:55:35.000Z</time>
      </trkpt>
      <trkpt lat="47.11632" lon="-1.4693">
        <ele>95</ele>
        <time>2021-02-28T11:55:37.000Z</time>
      </trkpt>
      <trkpt lat="47.11632" lon="-1.4691">
        <ele>95</ele>
        <time>2021-02-28T11:55:39.000Z</time>
      </trkpt>
      <trkpt lat="47.11632" lon="-1.4689">
        <ele>95</ele>
        <time>2021-02-28T11:55:41.000Z</time>
      </trkpt>
      <trkpt lat="47.11631" lon="-1.46871">
        <ele>95</ele>
        <time>2021-02-28T11:55:43.000Z</time>
      </trkpt>
      <trkpt lat="47.11631" lon="-1.46852">
        <ele>95</ele>
        <time>2021-02-28T11:55:45.000Z</time>
      </trkpt>
      <trkpt lat="47.11631" lon="-1.46833">
        <ele>94</ele>
        <time>2021-02-28T11:55:47.000Z</time>
      </trkpt>
      <trkpt lat="47.11631" lon="-1.46814">
        <ele>94</ele>
        <time>2021-02-28T11:55:49.000Z</time>
      </trkpt>
      <trkpt lat="47.11631" lon="-1.46796">
        <ele>94</ele>
        <time>2021-02-28T11:55:51.000Z</time>
      </trkpt>
      <trkpt lat="47.11631" lon="-1.46778">
        <ele>94</ele>
        <time>2021-02-28T11:55:53.000Z</time>
      </trkpt>
      <trkpt lat="47.11631" lon="-1.46759">
        <ele>93</ele>
        <time>2021-02-28T11:55:55.000Z</time>
      </trkpt>
      <trkpt lat="47.11631" lon="-1.4674">
        <ele>93</ele>
        <time>2021-02-28T11:55:57.000Z</time>
      </trkpt>
      <trkpt lat="47.11631" lon="-1.46723">
        <ele>93</ele>
        <time>2021-02-28T11:55:59.000Z</time>
      </trkpt>
      <trkpt lat="47.11631" lon="-1.46704">
        <ele>93</ele>
        <time>2021-02-28T11:56:01.000Z</time>
      </trkpt>
      <trkpt lat="47.11631" lon="-1.46687">
        <ele>94</ele>
        <time>2021-02-28T11:56:03.000Z</time>
      </trkpt>
      <trkpt lat="47.11633" lon="-1.4667">
        <ele>94</ele>
        <time>2021-02-28T11:56:05.000Z</time>
      </trkpt>
      <trkpt lat="47.11634" lon="-1.46653">
        <ele>93</ele>
        <time>2021-02-28T11:56:07.000Z</time>
      </trkpt>
      <trkpt lat="47.11636" lon="-1.46635">
        <ele>93</ele>
        <time>2021-02-28T11:56:09.000Z</time>
      </trkpt>
      <trkpt lat="47.11639" lon="-1.46619">
        <ele>92</ele>
        <time>2021-02-28T11:56:11.000Z</time>
      </trkpt>
      <trkpt lat="47.11641" lon="-1.46602">
        <ele>92</ele>
        <time>2021-02-28T11:56:13.000Z</time>
      </trkpt>
      <trkpt lat="47.11643" lon="-1.46585">
        <ele>92</ele>
        <time>2021-02-28T11:56:15.000Z</time>
      </trkpt>
      <trkpt lat="47.11645" lon="-1.46569">
        <ele>92</ele>
        <time>2021-02-28T11:56:17.000Z</time>
      </trkpt>
      <trkpt lat="47.11647" lon="-1.46553">
        <ele>92</ele>
        <time>2021-02-28T11:56:19.000Z</time>
      </trkpt>
      <trkpt lat="47.11649" lon="-1.46537">
        <ele>92</ele>
        <time>2021-02-28T11:56:21.000Z</time>
      </trkpt>
      <trkpt lat="47.11651" lon="-1.46521">
        <ele>93</ele>
        <time>2021-02-28T11:56:23.000Z</time>
      </trkpt>
      <trkpt lat="47.11653" lon="-1.46504">
        <ele>93</ele>
        <time>2021-02-28T11:56:25.000Z</time>
      </trkpt>
      <trkpt lat="47.11654" lon="-1.46487">
        <ele>93</ele>
        <time>2021-02-28T11:56:27.000Z</time>
      </trkpt>
      <trkpt lat="47.11656" lon="-1.4647">
        <ele>93</ele>
        <time>2021-02-28T11:56:29.000Z</time>
      </trkpt>
      <trkpt lat="47.11657" lon="-1.46453">
        <ele>93</ele>
        <time>2021-02-28T11:56:31.000Z</time>
      </trkpt>
      <trkpt lat="47.11658" lon="-1.46435">
        <ele>93</ele>
        <time>2021-02-28T11:56:33.000Z</time>
      </trkpt>
      <trkpt lat="47.11659" lon="-1.46419">
        <ele>93</ele>
        <time>2021-02-28T11:56:35.000Z</time>
      </trkpt>
      <trkpt lat="47.11659" lon="-1.46401">
        <ele>93</ele>
        <time>2021-02-28T11:56:37.000Z</time>
      </trkpt>
      <trkpt lat="47.11658" lon="-1.46383">
        <ele>93</ele>
        <time>2021-02-28T11:56:39.000Z</time>
      </trkpt>
      <trkpt lat="47.11657" lon="-1.46366">
        <ele>92</ele>
        <time>2021-02-28T11:56:41.000Z</time>
      </trkpt>
      <trkpt lat="47.11656" lon="-1.46348">
        <ele>92</ele>
        <time>2021-02-28T11:56:43.000Z</time>
      </trkpt>
      <trkpt lat="47.11655" lon="-1.46331">
        <ele>92</ele>
        <time>2021-02-28T11:56:45.000Z</time>
      </trkpt>
      <trkpt lat="47.11653" lon="-1.46315">
        <ele>92</ele>
        <time>2021-02-28T11:56:47.000Z</time>
      </trkpt>
      <trkpt lat="47.1165" lon="-1.46299">
        <ele>92</ele>
        <time>2021-02-28T11:56:49.000Z</time>
      </trkpt>
      <trkpt lat="47.11648" lon="-1.46283">
        <ele>92</ele>
        <time>2021-02-28T11:56:51.000Z</time>
      </trkpt>
      <trkpt lat="47.11647" lon="-1.46268">
        <ele>92</ele>
        <time>2021-02-28T11:56:53.000Z</time>
      </trkpt>
      <trkpt lat="47.11646" lon="-1.46252">
        <ele>93</ele>
        <time>2021-02-28T11:56:55.000Z</time>
      </trkpt>
      <trkpt lat="47.11645" lon="-1.46234">
        <ele>92</ele>
        <time>2021-02-28T11:56:57.000Z</time>
      </trkpt>
      <trkpt lat="47.11645" lon="-1.46216">
        <ele>92</ele>
        <time>2021-02-28T11:56:59.000Z</time>
      </trkpt>
      <trkpt lat="47.11644" lon="-1.46199">
        <ele>92</ele>
        <time>2021-02-28T11:57:01.000Z</time>
      </trkpt>
      <trkpt lat="47.11643" lon="-1.46181">
        <ele>92</ele>
        <time>2021-02-28T11:57:03.000Z</time>
      </trkpt>
      <trkpt lat="47.11643" lon="-1.46164">
        <ele>92</ele>
        <time>2021-02-28T11:57:05.000Z</time>
      </trkpt>
      <trkpt lat="47.11642" lon="-1.46148">
        <ele>92</ele>
        <time>2021-02-28T11:57:07.000Z</time>
      </trkpt>
      <trkpt lat="47.11642" lon="-1.46131">
        <ele>92</ele>
        <time>2021-02-28T11:57:09.000Z</time>
      </trkpt>
      <trkpt lat="47.11641" lon="-1.46115">
        <ele>92</ele>
        <time>2021-02-28T11:57:11.000Z</time>
      </trkpt>
      <trkpt lat="47.1164" lon="-1.461">
        <ele>91</ele>
        <time>2021-02-28T11:57:13.000Z</time>
      </trkpt>
      <trkpt lat="47.11639" lon="-1.46084">
        <ele>91</ele>
        <time>2021-02-28T11:57:15.000Z</time>
      </trkpt>
      <trkpt lat="47.11638" lon="-1.46068">
        <ele>92</ele>
        <time>2021-02-28T11:57:17.000Z</time>
      </trkpt>
      <trkpt lat="47.11637" lon="-1.46052">
        <ele>92</ele>
        <time>2021-02-28T11:57:19.000Z</time>
      </trkpt>
      <trkpt lat="47.11636" lon="-1.46036">
        <ele>92</ele>
        <time>2021-02-28T11:57:21.000Z</time>
      </trkpt>
      <trkpt lat="47.11635" lon="-1.4602">
        <ele>92</ele>
        <time>2021-02-28T11:57:23.000Z</time>
      </trkpt>
      <trkpt lat="47.11633" lon="-1.46004">
        <ele>91</ele>
        <time>2021-02-28T11:57:25.000Z</time>
      </trkpt>
      <trkpt lat="47.11631" lon="-1.45988">
        <ele>92</ele>
        <time>2021-02-28T11:57:27.000Z</time>
      </trkpt>
      <trkpt lat="47.11629" lon="-1.45972">
        <ele>92</ele>
        <time>2021-02-28T11:57:29.000Z</time>
      </trkpt>
      <trkpt lat="47.11627" lon="-1.45956">
        <ele>92</ele>
        <time>2021-02-28T11:57:31.000Z</time>
      </trkpt>
      <trkpt lat="47.11625" lon="-1.4594">
        <ele>93</ele>
        <time>2021-02-28T11:57:33.000Z</time>
      </trkpt>
      <trkpt lat="47.11623" lon="-1.45924">
        <ele>92</ele>
        <time>2021-02-28T11:57:35.000Z</time>
      </trkpt>
      <trkpt lat="47.1162" lon="-1.45908">
        <ele>93</ele>
        <time>2021-02-28T11:57:37.000Z</time>
      </trkpt>
      <trkpt lat="47.11618" lon="-1.45893">
        <ele>93</ele>
        <time>2021-02-28T11:57:39.000Z</time>
      </trkpt>
      <trkpt lat="47.11614" lon="-1.45877">
        <ele>93</ele>
        <time>2021-02-28T11:57:41.000Z</time>
      </trkpt>
      <trkpt lat="47.1161" lon="-1.45863">
        <ele>92</ele>
        <time>2021-02-28T11:57:43.000Z</time>
      </trkpt>
      <trkpt lat="47.11605" lon="-1.45849">
        <ele>92</ele>
        <time>2021-02-28T11:57:45.000Z</time>
      </trkpt>
      <trkpt lat="47.11599" lon="-1.45836">
        <ele>92</ele>
        <time>2021-02-28T11:57:47.000Z</time>
      </trkpt>
      <trkpt lat="47.11592" lon="-1.45823">
        <ele>92</ele>
        <time>2021-02-28T11:57:49.000Z</time>
      </trkpt>
      <trkpt lat="47.11583" lon="-1.45812">
        <ele>92</ele>
        <time>2021-02-28T11:57:51.000Z</time>
      </trkpt>
      <trkpt lat="47.11575" lon="-1.45803">
        <ele>92</ele>
        <time>2021-02-28T11:57:53.000Z</time>
      </trkpt>
      <trkpt lat="47.11566" lon="-1.45793">
        <ele>92</ele>
        <time>2021-02-28T11:57:55.000Z</time>
      </trkpt>
      <trkpt lat="47.11557" lon="-1.45783">
        <ele>93</ele>
        <time>2021-02-28T11:57:57.000Z</time>
      </trkpt>
      <trkpt lat="47.11549" lon="-1.45773">
        <ele>92</ele>
        <time>2021-02-28T11:57:59.000Z</time>
      </trkpt>
      <trkpt lat="47.1154" lon="-1.45761">
        <ele>92</ele>
        <time>2021-02-28T11:58:01.000Z</time>
      </trkpt>
      <trkpt lat="47.11531" lon="-1.45747">
        <ele>92</ele>
        <time>2021-02-28T11:58:03.000Z</time>
      </trkpt>
      <trkpt lat="47.11524" lon="-1.45733">
        <ele>93</ele>
        <time>2021-02-28T11:58:05.000Z</time>
      </trkpt>
      <trkpt lat="47.11518" lon="-1.45719">
        <ele>93</ele>
        <time>2021-02-28T11:58:07.000Z</time>
      </trkpt>
      <trkpt lat="47.11514" lon="-1.45705">
        <ele>93</ele>
        <time>2021-02-28T11:58:09.000Z</time>
      </trkpt>
      <trkpt lat="47.11509" lon="-1.45691">
        <ele>93</ele>
        <time>2021-02-28T11:58:11.000Z</time>
      </trkpt>
      <trkpt lat="47.11505" lon="-1.45676">
        <ele>93</ele>
        <time>2021-02-28T11:58:13.000Z</time>
      </trkpt>
      <trkpt lat="47.11502" lon="-1.45661">
        <ele>94</ele>
        <time>2021-02-28T11:58:15.000Z</time>
      </trkpt>
      <trkpt lat="47.11498" lon="-1.45647">
        <ele>94</ele>
        <time>2021-02-28T11:58:17.000Z</time>
      </trkpt>
      <trkpt lat="47.11494" lon="-1.45633">
        <ele>94</ele>
        <time>2021-02-28T11:58:19.000Z</time>
      </trkpt>
      <trkpt lat="47.11489" lon="-1.45619">
        <ele>94</ele>
        <time>2021-02-28T11:58:21.000Z</time>
      </trkpt>
      <trkpt lat="47.11484" lon="-1.45606">
        <ele>93</ele>
        <time>2021-02-28T11:58:23.000Z</time>
      </trkpt>
      <trkpt lat="47.11479" lon="-1.45593">
        <ele>93</ele>
        <time>2021-02-28T11:58:25.000Z</time>
      </trkpt>
      <trkpt lat="47.11473" lon="-1.4558">
        <ele>92</ele>
        <time>2021-02-28T11:58:27.000Z</time>
      </trkpt>
      <trkpt lat="47.11465" lon="-1.45568">
        <ele>92</ele>
        <time>2021-02-28T11:58:29.000Z</time>
      </trkpt>
      <trkpt lat="47.11457" lon="-1.45558">
        <ele>92</ele>
        <time>2021-02-28T11:58:31.000Z</time>
      </trkpt>
      <trkpt lat="47.11449" lon="-1.45547">
        <ele>93</ele>
        <time>2021-02-28T11:58:33.000Z</time>
      </trkpt>
      <trkpt lat="47.11441" lon="-1.45536">
        <ele>92</ele>
        <time>2021-02-28T11:58:35.000Z</time>
      </trkpt>
      <trkpt lat="47.11432" lon="-1.45525">
        <ele>92</ele>
        <time>2021-02-28T11:58:37.000Z</time>
      </trkpt>
      <trkpt lat="47.11424" lon="-1.45514">
        <ele>92</ele>
        <time>2021-02-28T11:58:39.000Z</time>
      </trkpt>
      <trkpt lat="47.11417" lon="-1.45502">
        <ele>92</ele>
        <time>2021-02-28T11:58:41.000Z</time>
      </trkpt>
      <trkpt lat="47.11412" lon="-1.45488">
        <ele>92</ele>
        <time>2021-02-28T11:58:43.000Z</time>
      </trkpt>
      <trkpt lat="47.11408" lon="-1.45473">
        <ele>92</ele>
        <time>2021-02-28T11:58:45.000Z</time>
      </trkpt>
      <trkpt lat="47.11406" lon="-1.45457">
        <ele>93</ele>
        <time>2021-02-28T11:58:47.000Z</time>
      </trkpt>
      <trkpt lat="47.11407" lon="-1.45441">
        <ele>92</ele>
        <time>2021-02-28T11:58:49.000Z</time>
      </trkpt>
      <trkpt lat="47.11409" lon="-1.45427">
        <ele>93</ele>
        <time>2021-02-28T11:58:51.000Z</time>
      </trkpt>
      <trkpt lat="47.11411" lon="-1.45412">
        <ele>92</ele>
        <time>2021-02-28T11:58:53.000Z</time>
      </trkpt>
      <trkpt lat="47.11412" lon="-1.45399">
        <ele>92</ele>
        <time>2021-02-28T11:58:55.000Z</time>
      </trkpt>
      <trkpt lat="47.11415" lon="-1.45384">
        <ele>92</ele>
        <time>2021-02-28T11:58:57.000Z</time>
      </trkpt>
      <trkpt lat="47.11417" lon="-1.45369">
        <ele>93</ele>
        <time>2021-02-28T11:58:59.000Z</time>
      </trkpt>
      <trkpt lat="47.11419" lon="-1.45354">
        <ele>93</ele>
        <time>2021-02-28T11:59:01.000Z</time>
      </trkpt>
      <trkpt lat="47.11421" lon="-1.4534">
        <ele>93</ele>
        <time>2021-02-28T11:59:03.000Z</time>
      </trkpt>
      <trkpt lat="47.11424" lon="-1.45325">
        <ele>93</ele>
        <time>2021-02-28T11:59:05.000Z</time>
      </trkpt>
      <trkpt lat="47.11426" lon="-1.45311">
        <ele>93</ele>
        <time>2021-02-28T11:59:07.000Z</time>
      </trkpt>
      <trkpt lat="47.11428" lon="-1.45296">
        <ele>94</ele>
        <time>2021-02-28T11:59:09.000Z</time>
      </trkpt>
      <trkpt lat="47.1143" lon="-1.45282">
        <ele>94</ele>
        <time>2021-02-28T11:59:11.000Z</time>
      </trkpt>
      <trkpt lat="47.11433" lon="-1.45266">
        <ele>94</ele>
        <time>2021-02-28T11:59:13.000Z</time>
      </trkpt>
      <trkpt lat="47.11436" lon="-1.45252">
        <ele>94</ele>
        <time>2021-02-28T11:59:15.000Z</time>
      </trkpt>
      <trkpt lat="47.1144" lon="-1.45238">
        <ele>94</ele>
        <time>2021-02-28T11:59:17.000Z</time>
      </trkpt>
      <trkpt lat="47.11444" lon="-1.45224">
        <ele>93</ele>
        <time>2021-02-28T11:59:19.000Z</time>
      </trkpt>
      <trkpt lat="47.1145" lon="-1.45211">
        <ele>93</ele>
        <time>2021-02-28T11:59:21.000Z</time>
      </trkpt>
      <trkpt lat="47.11456" lon="-1.452">
        <ele>94</ele>
        <time>2021-02-28T11:59:23.000Z</time>
      </trkpt>
      <trkpt lat="47.11462" lon="-1.45188">
        <ele>94</ele>
        <time>2021-02-28T11:59:25.000Z</time>
      </trkpt>
      <trkpt lat="47.11468" lon="-1.45177">
        <ele>95</ele>
        <time>2021-02-28T11:59:27.000Z</time>
      </trkpt>
      <trkpt lat="47.11475" lon="-1.45166">
        <ele>95</ele>
        <time>2021-02-28T11:59:29.000Z</time>
      </trkpt>
      <trkpt lat="47.11481" lon="-1.45154">
        <ele>95</ele>
        <time>2021-02-28T11:59:31.000Z</time>
      </trkpt>
      <trkpt lat="47.11487" lon="-1.45143">
        <ele>96</ele>
        <time>2021-02-28T11:59:33.000Z</time>
      </trkpt>
      <trkpt lat="47.11493" lon="-1.45132">
        <ele>95</ele>
        <time>2021-02-28T11:59:35.000Z</time>
      </trkpt>
      <trkpt lat="47.11499" lon="-1.4512">
        <ele>95</ele>
        <time>2021-02-28T11:59:37.000Z</time>
      </trkpt>
      <trkpt lat="47.11505" lon="-1.45109">
        <ele>96</ele>
        <time>2021-02-28T11:59:39.000Z</time>
      </trkpt>
      <trkpt lat="47.11511" lon="-1.45097">
        <ele>96</ele>
        <time>2021-02-28T11:59:41.000Z</time>
      </trkpt>
      <trkpt lat="47.11516" lon="-1.45085">
        <ele>96</ele>
        <time>2021-02-28T11:59:43.000Z</time>
      </trkpt>
      <trkpt lat="47.11521" lon="-1.45073">
        <ele>96</ele>
        <time>2021-02-28T11:59:45.000Z</time>
      </trkpt>
      <trkpt lat="47.11527" lon="-1.45062">
        <ele>96</ele>
        <time>2021-02-28T11:59:47.000Z</time>
      </trkpt>
      <trkpt lat="47.11533" lon="-1.4505">
        <ele>96</ele>
        <time>2021-02-28T11:59:49.000Z</time>
      </trkpt>
      <trkpt lat="47.11537" lon="-1.45037">
        <ele>96</ele>
        <time>2021-02-28T11:59:51.000Z</time>
      </trkpt>
      <trkpt lat="47.11541" lon="-1.45025">
        <ele>96</ele>
        <time>2021-02-28T11:59:53.000Z</time>
      </trkpt>
      <trkpt lat="47.11545" lon="-1.45012">
        <ele>96</ele>
        <time>2021-02-28T11:59:55.000Z</time>
      </trkpt>
      <trkpt lat="47.11549" lon="-1.44999">
        <ele>96</ele>
        <time>2021-02-28T11:59:57.000Z</time>
      </trkpt>
      <trkpt lat="47.11552" lon="-1.44986">
        <ele>96</ele>
        <time>2021-02-28T11:59:59.000Z</time>
      </trkpt>
      <trkpt lat="47.11556" lon="-1.44973">
        <ele>96</ele>
        <time>2021-02-28T12:00:01.000Z</time>
      </trkpt>
      <trkpt lat="47.11559" lon="-1.4496">
        <ele>96</ele>
        <time>2021-02-28T12:00:03.000Z</time>
      </trkpt>
      <trkpt lat="47.11563" lon="-1.44947">
        <ele>96</ele>
        <time>2021-02-28T12:00:05.000Z</time>
      </trkpt>
      <trkpt lat="47.11566" lon="-1.44935">
        <ele>96</ele>
        <time>2021-02-28T12:00:07.000Z</time>
      </trkpt>
      <trkpt lat="47.1157" lon="-1.44922">
        <ele>96</ele>
        <time>2021-02-28T12:00:09.000Z</time>
      </trkpt>
      <trkpt lat="47.11574" lon="-1.4491">
        <ele>96</ele>
        <time>2021-02-28T12:00:11.000Z</time>
      </trkpt>
      <trkpt lat="47.11578" lon="-1.44897">
        <ele>96</ele>
        <time>2021-02-28T12:00:13.000Z</time>
      </trkpt>
      <trkpt lat="47.11582" lon="-1.44884">
        <ele>96</ele>
        <time>2021-02-28T12:00:15.000Z</time>
      </trkpt>
      <trkpt lat="47.11587" lon="-1.44872">
        <ele>95</ele>
        <time>2021-02-28T12:00:17.000Z</time>
      </trkpt>
      <trkpt lat="47.11591" lon="-1.4486">
        <ele>95</ele>
        <time>2021-02-28T12:00:19.000Z</time>
      </trkpt>
      <trkpt lat="47.11596" lon="-1.44849">
        <ele>95</ele>
        <time>2021-02-28T12:00:21.000Z</time>
      </trkpt>
      <trkpt lat="47.11601" lon="-1.44836">
        <ele>95</ele>
        <time>2021-02-28T12:00:23.000Z</time>
      </trkpt>
      <trkpt lat="47.11606" lon="-1.44824">
        <ele>94</ele>
        <time>2021-02-28T12:00:25.000Z</time>
      </trkpt>
      <trkpt lat="47.11611" lon="-1.44812">
        <ele>94</ele>
        <time>2021-02-28T12:00:27.000Z</time>
      </trkpt>
      <trkpt lat="47.11617" lon="-1.44799">
        <ele>93</ele>
        <time>2021-02-28T12:00:29.000Z</time>
      </trkpt>
      <trkpt lat="47.11622" lon="-1.44786">
        <ele>93</ele>
        <time>2021-02-28T12:00:31.000Z</time>
      </trkpt>
      <trkpt lat="47.11628" lon="-1.44773">
        <ele>93</ele>
        <time>2021-02-28T12:00:33.000Z</time>
      </trkpt>
      <trkpt lat="47.11633" lon="-1.4476">
        <ele>92</ele>
        <time>2021-02-28T12:00:35.000Z</time>
      </trkpt>
      <trkpt lat="47.11639" lon="-1.44747">
        <ele>92</ele>
        <time>2021-02-28T12:00:37.000Z</time>
      </trkpt>
      <trkpt lat="47.11644" lon="-1.44734">
        <ele>92</ele>
        <time>2021-02-28T12:00:39.000Z</time>
      </trkpt>
      <trkpt lat="47.11649" lon="-1.4472">
        <ele>92</ele>
        <time>2021-02-28T12:00:41.000Z</time>
      </trkpt>
      <trkpt lat="47.11655" lon="-1.44707">
        <ele>92</ele>
        <time>2021-02-28T12:00:43.000Z</time>
      </trkpt>
      <trkpt lat="47.1166" lon="-1.44693">
        <ele>91</ele>
        <time>2021-02-28T12:00:45.000Z</time>
      </trkpt>
      <trkpt lat="47.11665" lon="-1.44679">
        <ele>91</ele>
        <time>2021-02-28T12:00:47.000Z</time>
      </trkpt>
      <trkpt lat="47.11668" lon="-1.44665">
        <ele>91</ele>
        <time>2021-02-28T12:00:49.000Z</time>
      </trkpt>
      <trkpt lat="47.1167" lon="-1.4465">
        <ele>90</ele>
        <time>2021-02-28T12:00:51.000Z</time>
      </trkpt>
      <trkpt lat="47.11671" lon="-1.44635">
        <ele>91</ele>
        <time>2021-02-28T12:00:53.000Z</time>
      </trkpt>
      <trkpt lat="47.1167" lon="-1.44618">
        <ele>90</ele>
        <time>2021-02-28T12:00:55.000Z</time>
      </trkpt>
      <trkpt lat="47.1167" lon="-1.44602">
        <ele>90</ele>
        <time>2021-02-28T12:00:57.000Z</time>
      </trkpt>
      <trkpt lat="47.11669" lon="-1.44586">
        <ele>89</ele>
        <time>2021-02-28T12:00:59.000Z</time>
      </trkpt>
      <trkpt lat="47.11669" lon="-1.4457">
        <ele>89</ele>
        <time>2021-02-28T12:01:01.000Z</time>
      </trkpt>
      <trkpt lat="47.11668" lon="-1.44553">
        <ele>89</ele>
        <time>2021-02-28T12:01:03.000Z</time>
      </trkpt>
      <trkpt lat="47.11667" lon="-1.44537">
        <ele>89</ele>
        <time>2021-02-28T12:01:05.000Z</time>
      </trkpt>
      <trkpt lat="47.11668" lon="-1.44519">
        <ele>88</ele>
        <time>2021-02-28T12:01:07.000Z</time>
      </trkpt>
      <trkpt lat="47.1167" lon="-1.44502">
        <ele>88</ele>
        <time>2021-02-28T12:01:09.000Z</time>
      </trkpt>
      <trkpt lat="47.11674" lon="-1.44485">
        <ele>88</ele>
        <time>2021-02-28T12:01:11.000Z</time>
      </trkpt>
      <trkpt lat="47.11679" lon="-1.44469">
        <ele>88</ele>
        <time>2021-02-28T12:01:13.000Z</time>
      </trkpt>
      <trkpt lat="47.11686" lon="-1.44453">
        <ele>89</ele>
        <time>2021-02-28T12:01:15.000Z</time>
      </trkpt>
      <trkpt lat="47.11692" lon="-1.44438">
        <ele>89</ele>
        <time>2021-02-28T12:01:17.000Z</time>
      </trkpt>
      <trkpt lat="47.11697" lon="-1.44421">
        <ele>89</ele>
        <time>2021-02-28T12:01:19.000Z</time>
      </trkpt>
      <trkpt lat="47.11701" lon="-1.44405">
        <ele>90</ele>
        <time>2021-02-28T12:01:21.000Z</time>
      </trkpt>
      <trkpt lat="47.11704" lon="-1.44388">
        <ele>89</ele>
        <time>2021-02-28T12:01:23.000Z</time>
      </trkpt>
      <trkpt lat="47.11705" lon="-1.44371">
        <ele>89</ele>
        <time>2021-02-28T12:01:25.000Z</time>
      </trkpt>
      <trkpt lat="47.11704" lon="-1.44355">
        <ele>89</ele>
        <time>2021-02-28T12:01:27.000Z</time>
      </trkpt>
      <trkpt lat="47.11703" lon="-1.44339">
        <ele>88</ele>
        <time>2021-02-28T12:01:29.000Z</time>
      </trkpt>
      <trkpt lat="47.11702" lon="-1.44324">
        <ele>88</ele>
        <time>2021-02-28T12:01:31.000Z</time>
      </trkpt>
      <trkpt lat="47.11701" lon="-1.44309">
        <ele>88</ele>
        <time>2021-02-28T12:01:33.000Z</time>
      </trkpt>
      <trkpt lat="47.11702" lon="-1.44296">
        <ele>88</ele>
        <time>2021-02-28T12:01:35.000Z</time>
      </trkpt>
      <trkpt lat="47.11702" lon="-1.44282">
        <ele>88</ele>
        <time>2021-02-28T12:01:37.000Z</time>
      </trkpt>
      <trkpt lat="47.11704" lon="-1.44263">
        <ele>88</ele>
        <time>2021-02-28T12:01:40.000Z</time>
      </trkpt>
      <trkpt lat="47.11709" lon="-1.44247">
        <ele>88</ele>
        <time>2021-02-28T12:01:43.000Z</time>
      </trkpt>
      <trkpt lat="47.11717" lon="-1.44232">
        <ele>89</ele>
        <time>2021-02-28T12:01:46.000Z</time>
      </trkpt>
      <trkpt lat="47.11726" lon="-1.44219">
        <ele>89</ele>
        <time>2021-02-28T12:01:49.000Z</time>
      </trkpt>
      <trkpt lat="47.11737" lon="-1.44211">
        <ele>89</ele>
        <time>2021-02-28T12:01:52.000Z</time>
      </trkpt>
      <trkpt lat="47.11748" lon="-1.44204">
        <ele>90</ele>
        <time>2021-02-28T12:01:55.000Z</time>
      </trkpt>
      <trkpt lat="47.11757" lon="-1.44198">
        <ele>90</ele>
        <time>2021-02-28T12:01:58.000Z</time>
      </trkpt>
      <trkpt lat="47.11767" lon="-1.44193">
        <ele>90</ele>
        <time>2021-02-28T12:02:01.000Z</time>
      </trkpt>
      <trkpt lat="47.11777" lon="-1.44188">
        <ele>91</ele>
        <time>2021-02-28T12:02:04.000Z</time>
      </trkpt>
      <trkpt lat="47.11787" lon="-1.44183">
        <ele>91</ele>
        <time>2021-02-28T12:02:07.000Z</time>
      </trkpt>
      <trkpt lat="47.11797" lon="-1.44178">
        <ele>91</ele>
        <time>2021-02-28T12:02:10.000Z</time>
      </trkpt>
      <trkpt lat="47.11808" lon="-1.44173">
        <ele>92</ele>
        <time>2021-02-28T12:02:13.000Z</time>
      </trkpt>
      <trkpt lat="47.11819" lon="-1.44168">
        <ele>92</ele>
        <time>2021-02-28T12:02:16.000Z</time>
      </trkpt>
      <trkpt lat="47.11829" lon="-1.44163">
        <ele>92</ele>
        <time>2021-02-28T12:02:19.000Z</time>
      </trkpt>
      <trkpt lat="47.1184" lon="-1.44158">
        <ele>92</ele>
        <time>2021-02-28T12:02:22.000Z</time>
      </trkpt>
      <trkpt lat="47.11851" lon="-1.44153">
        <ele>93</ele>
        <time>2021-02-28T12:02:25.000Z</time>
      </trkpt>
      <trkpt lat="47.11861" lon="-1.44147">
        <ele>93</ele>
        <time>2021-02-28T12:02:28.000Z</time>
      </trkpt>
      <trkpt lat="47.11872" lon="-1.44141">
        <ele>94</ele>
        <time>2021-02-28T12:02:31.000Z</time>
      </trkpt>
      <trkpt lat="47.11881" lon="-1.44133">
        <ele>94</ele>
        <time>2021-02-28T12:02:34.000Z</time>
      </trkpt>
      <trkpt lat="47.11891" lon="-1.44124">
        <ele>95</ele>
        <time>2021-02-28T12:02:37.000Z</time>
      </trkpt>
      <trkpt lat="47.11899" lon="-1.44113">
        <ele>95</ele>
        <time>2021-02-28T12:02:40.000Z</time>
      </trkpt>
      <trkpt lat="47.11906" lon="-1.44101">
        <ele>95</ele>
        <time>2021-02-28T12:02:43.000Z</time>
      </trkpt>
      <trkpt lat="47.11913" lon="-1.44088">
        <ele>96</ele>
        <time>2021-02-28T12:02:46.000Z</time>
      </trkpt>
      <trkpt lat="47.11919" lon="-1.44074">
        <ele>95</ele>
        <time>2021-02-28T12:02:49.000Z</time>
      </trkpt>
      <trkpt lat="47.11924" lon="-1.44059">
        <ele>96</ele>
        <time>2021-02-28T12:02:52.000Z</time>
      </trkpt>
      <trkpt lat="47.11929" lon="-1.44044">
        <ele>96</ele>
        <time>2021-02-28T12:02:55.000Z</time>
      </trkpt>
      <trkpt lat="47.11934" lon="-1.44028">
        <ele>95</ele>
        <time>2021-02-28T12:02:58.000Z</time>
      </trkpt>
      <trkpt lat="47.11938" lon="-1.44012">
        <ele>95</ele>
        <time>2021-02-28T12:03:01.000Z</time>
      </trkpt>
      <trkpt lat="47.11942" lon="-1.43996">
        <ele>95</ele>
        <time>2021-02-28T12:03:04.000Z</time>
      </trkpt>
      <trkpt lat="47.11946" lon="-1.4398">
        <ele>94</ele>
        <time>2021-02-28T12:03:07.000Z</time>
      </trkpt>
      <trkpt lat="47.1195" lon="-1.43963">
        <ele>94</ele>
        <time>2021-02-28T12:03:10.000Z</time>
      </trkpt>
      <trkpt lat="47.11955" lon="-1.43946">
        <ele>94</ele>
        <time>2021-02-28T12:03:13.000Z</time>
      </trkpt>
      <trkpt lat="47.1196" lon="-1.43928">
        <ele>94</ele>
        <time>2021-02-28T12:03:16.000Z</time>
      </trkpt>
      <trkpt lat="47.11965" lon="-1.4391">
        <ele>94</ele>
        <time>2021-02-28T12:03:19.000Z</time>
      </trkpt>
      <trkpt lat="47.1197" lon="-1.43892">
        <ele>94</ele>
        <time>2021-02-28T12:03:22.000Z</time>
      </trkpt>
      <trkpt lat="47.11974" lon="-1.4388">
        <ele>93</ele>
        <time>2021-02-28T12:03:24.000Z</time>
      </trkpt>
      <trkpt lat="47.11978" lon="-1.43867">
        <ele>93</ele>
        <time>2021-02-28T12:03:26.000Z</time>
      </trkpt>
      <trkpt lat="47.11981" lon="-1.43854">
        <ele>92</ele>
        <time>2021-02-28T12:03:28.000Z</time>
      </trkpt>
      <trkpt lat="47.11985" lon="-1.4384">
        <ele>92</ele>
        <time>2021-02-28T12:03:30.000Z</time>
      </trkpt>
      <trkpt lat="47.11989" lon="-1.43828">
        <ele>91</ele>
        <time>2021-02-28T12:03:32.000Z</time>
      </trkpt>
      <trkpt lat="47.11993" lon="-1.43814">
        <ele>91</ele>
        <time>2021-02-28T12:03:34.000Z</time>
      </trkpt>
      <trkpt lat="47.11997" lon="-1.438">
        <ele>90</ele>
        <time>2021-02-28T12:03:36.000Z</time>
      </trkpt>
      <trkpt lat="47.12" lon="-1.43787">
        <ele>90</ele>
        <time>2021-02-28T12:03:38.000Z</time>
      </trkpt>
      <trkpt lat="47.12004" lon="-1.43773">
        <ele>90</ele>
        <time>2021-02-28T12:03:40.000Z</time>
      </trkpt>
      <trkpt lat="47.12008" lon="-1.4376">
        <ele>89</ele>
        <time>2021-02-28T12:03:42.000Z</time>
      </trkpt>
      <trkpt lat="47.12012" lon="-1.43747">
        <ele>89</ele>
        <time>2021-02-28T12:03:44.000Z</time>
      </trkpt>
      <trkpt lat="47.12017" lon="-1.43734">
        <ele>89</ele>
        <time>2021-02-28T12:03:46.000Z</time>
      </trkpt>
      <trkpt lat="47.12022" lon="-1.43722">
        <ele>89</ele>
        <time>2021-02-28T12:03:48.000Z</time>
      </trkpt>
      <trkpt lat="47.12028" lon="-1.4371">
        <ele>89</ele>
        <time>2021-02-28T12:03:50.000Z</time>
      </trkpt>
      <trkpt lat="47.12034" lon="-1.43699">
        <ele>89</ele>
        <time>2021-02-28T12:03:52.000Z</time>
      </trkpt>
      <trkpt lat="47.1204" lon="-1.43687">
        <ele>89</ele>
        <time>2021-02-28T12:03:54.000Z</time>
      </trkpt>
      <trkpt lat="47.12046" lon="-1.43677">
        <ele>89</ele>
        <time>2021-02-28T12:03:56.000Z</time>
      </trkpt>
      <trkpt lat="47.12052" lon="-1.43667">
        <ele>89</ele>
        <time>2021-02-28T12:03:58.000Z</time>
      </trkpt>
      <trkpt lat="47.12058" lon="-1.43657">
        <ele>89</ele>
        <time>2021-02-28T12:04:00.000Z</time>
      </trkpt>
      <trkpt lat="47.12064" lon="-1.43646">
        <ele>89</ele>
        <time>2021-02-28T12:04:02.000Z</time>
      </trkpt>
      <trkpt lat="47.12069" lon="-1.43635">
        <ele>89</ele>
        <time>2021-02-28T12:04:04.000Z</time>
      </trkpt>
      <trkpt lat="47.12075" lon="-1.43621">
        <ele>89</ele>
        <time>2021-02-28T12:04:07.000Z</time>
      </trkpt>
      <trkpt lat="47.12079" lon="-1.43606">
        <ele>90</ele>
        <time>2021-02-28T12:04:10.000Z</time>
      </trkpt>
      <trkpt lat="47.12082" lon="-1.43591">
        <ele>90</ele>
        <time>2021-02-28T12:04:13.000Z</time>
      </trkpt>
      <trkpt lat="47.12084" lon="-1.43577">
        <ele>90</ele>
        <time>2021-02-28T12:04:16.000Z</time>
      </trkpt>
      <trkpt lat="47.12086" lon="-1.43563">
        <ele>91</ele>
        <time>2021-02-28T12:04:19.000Z</time>
      </trkpt>
      <trkpt lat="47.12087" lon="-1.43548">
        <ele>91</ele>
        <time>2021-02-28T12:04:22.000Z</time>
      </trkpt>
      <trkpt lat="47.12088" lon="-1.43534">
        <ele>92</ele>
        <time>2021-02-28T12:04:25.000Z</time>
      </trkpt>
      <trkpt lat="47.12089" lon="-1.4352">
        <ele>92</ele>
        <time>2021-02-28T12:04:28.000Z</time>
      </trkpt>
      <trkpt lat="47.12091" lon="-1.43505">
        <ele>92</ele>
        <time>2021-02-28T12:04:31.000Z</time>
      </trkpt>
      <trkpt lat="47.12092" lon="-1.43492">
        <ele>93</ele>
        <time>2021-02-28T12:04:34.000Z</time>
      </trkpt>
      <trkpt lat="47.12094" lon="-1.43477">
        <ele>93</ele>
        <time>2021-02-28T12:04:37.000Z</time>
      </trkpt>
      <trkpt lat="47.12096" lon="-1.43462">
        <ele>93</ele>
        <time>2021-02-28T12:04:40.000Z</time>
      </trkpt>
      <trkpt lat="47.12098" lon="-1.43447">
        <ele>93</ele>
        <time>2021-02-28T12:04:43.000Z</time>
      </trkpt>
      <trkpt lat="47.12101" lon="-1.43432">
        <ele>94</ele>
        <time>2021-02-28T12:04:46.000Z</time>
      </trkpt>
      <trkpt lat="47.12104" lon="-1.43418">
        <ele>94</ele>
        <time>2021-02-28T12:04:49.000Z</time>
      </trkpt>
      <trkpt lat="47.12108" lon="-1.43405">
        <ele>94</ele>
        <time>2021-02-28T12:04:52.000Z</time>
      </trkpt>
      <trkpt lat="47.12112" lon="-1.43391">
        <ele>94</ele>
        <time>2021-02-28T12:04:55.000Z</time>
      </trkpt>
      <trkpt lat="47.12117" lon="-1.43378">
        <ele>94</ele>
        <time>2021-02-28T12:04:58.000Z</time>
      </trkpt>
      <trkpt lat="47.12121" lon="-1.43365">
        <ele>95</ele>
        <time>2021-02-28T12:05:01.000Z</time>
      </trkpt>
      <trkpt lat="47.12126" lon="-1.43353">
        <ele>95</ele>
        <time>2021-02-28T12:05:04.000Z</time>
      </trkpt>
      <trkpt lat="47.1213" lon="-1.43339">
        <ele>96</ele>
        <time>2021-02-28T12:05:07.000Z</time>
      </trkpt>
      <trkpt lat="47.12134" lon="-1.43326">
        <ele>96</ele>
        <time>2021-02-28T12:05:10.000Z</time>
      </trkpt>
      <trkpt lat="47.12139" lon="-1.43313">
        <ele>96</ele>
        <time>2021-02-28T12:05:13.000Z</time>
      </trkpt>
      <trkpt lat="47.12142" lon="-1.433">
        <ele>97</ele>
        <time>2021-02-28T12:05:16.000Z</time>
      </trkpt>
      <trkpt lat="47.12146" lon="-1.43286">
        <ele>97</ele>
        <time>2021-02-28T12:05:19.000Z</time>
      </trkpt>
      <trkpt lat="47.1215" lon="-1.43272">
        <ele>97</ele>
        <time>2021-02-28T12:05:22.000Z</time>
      </trkpt>
      <trkpt lat="47.12153" lon="-1.43258">
        <ele>97</ele>
        <time>2021-02-28T12:05:25.000Z</time>
      </trkpt>
      <trkpt lat="47.12156" lon="-1.43244">
        <ele>97</ele>
        <time>2021-02-28T12:05:28.000Z</time>
      </trkpt>
      <trkpt lat="47.12158" lon="-1.43229">
        <ele>97</ele>
        <time>2021-02-28T12:05:31.000Z</time>
      </trkpt>
      <trkpt lat="47.1216" lon="-1.43215">
        <ele>97</ele>
        <time>2021-02-28T12:05:34.000Z</time>
      </trkpt>
      <trkpt lat="47.12163" lon="-1.43199">
        <ele>97</ele>
        <time>2021-02-28T12:05:38.000Z</time>
      </trkpt>
      <trkpt lat="47.12172" lon="-1.43206">
        <ele>99</ele>
        <time>2021-02-28T12:05:41.000Z</time>
      </trkpt>
      <trkpt lat="47.12176" lon="-1.43217">
        <ele>99</ele>
        <time>2021-02-28T12:05:43.000Z</time>
      </trkpt>
      <trkpt lat="47.12182" lon="-1.43232">
        <ele>99</ele>
        <time>2021-02-28T12:05:46.000Z</time>
      </trkpt>
      <trkpt lat="47.12188" lon="-1.43248">
        <ele>100</ele>
        <time>2021-02-28T12:05:49.000Z</time>
      </trkpt>
      <trkpt lat="47.12193" lon="-1.43262">
        <ele>100</ele>
        <time>2021-02-28T12:05:52.000Z</time>
      </trkpt>
      <trkpt lat="47.12199" lon="-1.43276">
        <ele>100</ele>
        <time>2021-02-28T12:05:55.000Z</time>
      </trkpt>
      <trkpt lat="47.12205" lon="-1.43292">
        <ele>100</ele>
        <time>2021-02-28T12:05:58.000Z</time>
      </trkpt>
      <trkpt lat="47.12211" lon="-1.43303">
        <ele>100</ele>
        <time>2021-02-28T12:06:00.000Z</time>
      </trkpt>
      <trkpt lat="47.12219" lon="-1.43318">
        <ele>100</ele>
        <time>2021-02-28T12:06:03.000Z</time>
      </trkpt>
      <trkpt lat="47.12224" lon="-1.4333">
        <ele>101</ele>
        <time>2021-02-28T12:06:05.000Z</time>
      </trkpt>
      <trkpt lat="47.1223" lon="-1.43341">
        <ele>101</ele>
        <time>2021-02-28T12:06:07.000Z</time>
      </trkpt>
      <trkpt lat="47.12237" lon="-1.43356">
        <ele>100</ele>
        <time>2021-02-28T12:06:10.000Z</time>
      </trkpt>
      <trkpt lat="47.12245" lon="-1.4337">
        <ele>100</ele>
        <time>2021-02-28T12:06:13.000Z</time>
      </trkpt>
      <trkpt lat="47.12252" lon="-1.43386">
        <ele>100</ele>
        <time>2021-02-28T12:06:16.000Z</time>
      </trkpt>
      <trkpt lat="47.1226" lon="-1.43402">
        <ele>101</ele>
        <time>2021-02-28T12:06:19.000Z</time>
      </trkpt>
      <trkpt lat="47.12266" lon="-1.43413">
        <ele>101</ele>
        <time>2021-02-28T12:06:21.000Z</time>
      </trkpt>
      <trkpt lat="47.12272" lon="-1.43424">
        <ele>101</ele>
        <time>2021-02-28T12:06:23.000Z</time>
      </trkpt>
      <trkpt lat="47.12278" lon="-1.43435">
        <ele>101</ele>
        <time>2021-02-28T12:06:25.000Z</time>
      </trkpt>
      <trkpt lat="47.12285" lon="-1.43447">
        <ele>101</ele>
        <time>2021-02-28T12:06:27.000Z</time>
      </trkpt>
      <trkpt lat="47.12291" lon="-1.43458">
        <ele>101</ele>
        <time>2021-02-28T12:06:29.000Z</time>
      </trkpt>
      <trkpt lat="47.12299" lon="-1.43468">
        <ele>101</ele>
        <time>2021-02-28T12:06:31.000Z</time>
      </trkpt>
      <trkpt lat="47.12305" lon="-1.43479">
        <ele>101</ele>
        <time>2021-02-28T12:06:33.000Z</time>
      </trkpt>
      <trkpt lat="47.12312" lon="-1.43489">
        <ele>102</ele>
        <time>2021-02-28T12:06:35.000Z</time>
      </trkpt>
      <trkpt lat="47.12319" lon="-1.43499">
        <ele>101</ele>
        <time>2021-02-28T12:06:37.000Z</time>
      </trkpt>
      <trkpt lat="47.12326" lon="-1.43509">
        <ele>101</ele>
        <time>2021-02-28T12:06:39.000Z</time>
      </trkpt>
      <trkpt lat="47.12333" lon="-1.4352">
        <ele>101</ele>
        <time>2021-02-28T12:06:41.000Z</time>
      </trkpt>
      <trkpt lat="47.1234" lon="-1.43529">
        <ele>101</ele>
        <time>2021-02-28T12:06:43.000Z</time>
      </trkpt>
      <trkpt lat="47.1235" lon="-1.43543">
        <ele>100</ele>
        <time>2021-02-28T12:06:46.000Z</time>
      </trkpt>
      <trkpt lat="47.12358" lon="-1.43556">
        <ele>100</ele>
        <time>2021-02-28T12:06:49.000Z</time>
      </trkpt>
      <trkpt lat="47.12368" lon="-1.43564">
        <ele>100</ele>
        <time>2021-02-28T12:06:52.000Z</time>
      </trkpt>
      <trkpt lat="47.12378" lon="-1.43552">
        <ele>99</ele>
        <time>2021-02-28T12:06:55.000Z</time>
      </trkpt>
      <trkpt lat="47.12385" lon="-1.43542">
        <ele>99</ele>
        <time>2021-02-28T12:06:57.000Z</time>
      </trkpt>
      <trkpt lat="47.12392" lon="-1.43533">
        <ele>99</ele>
        <time>2021-02-28T12:06:59.000Z</time>
      </trkpt>
      <trkpt lat="47.12401" lon="-1.43521">
        <ele>99</ele>
        <time>2021-02-28T12:07:02.000Z</time>
      </trkpt>
      <trkpt lat="47.12411" lon="-1.43509">
        <ele>100</ele>
        <time>2021-02-28T12:07:05.000Z</time>
      </trkpt>
      <trkpt lat="47.1242" lon="-1.43496">
        <ele>100</ele>
        <time>2021-02-28T12:07:08.000Z</time>
      </trkpt>
      <trkpt lat="47.1243" lon="-1.43483">
        <ele>100</ele>
        <time>2021-02-28T12:07:11.000Z</time>
      </trkpt>
      <trkpt lat="47.12439" lon="-1.43471">
        <ele>101</ele>
        <time>2021-02-28T12:07:14.000Z</time>
      </trkpt>
      <trkpt lat="47.12448" lon="-1.43458">
        <ele>101</ele>
        <time>2021-02-28T12:07:17.000Z</time>
      </trkpt>
      <trkpt lat="47.12458" lon="-1.43445">
        <ele>102</ele>
        <time>2021-02-28T12:07:20.000Z</time>
      </trkpt>
      <trkpt lat="47.12466" lon="-1.43432">
        <ele>102</ele>
        <time>2021-02-28T12:07:23.000Z</time>
      </trkpt>
      <trkpt lat="47.12475" lon="-1.43419">
        <ele>102</ele>
        <time>2021-02-28T12:07:26.000Z</time>
      </trkpt>
      <trkpt lat="47.12485" lon="-1.43407">
        <ele>102</ele>
        <time>2021-02-28T12:07:29.000Z</time>
      </trkpt>
      <trkpt lat="47.12494" lon="-1.43394">
        <ele>102</ele>
        <time>2021-02-28T12:07:32.000Z</time>
      </trkpt>
      <trkpt lat="47.12503" lon="-1.43382">
        <ele>102</ele>
        <time>2021-02-28T12:07:35.000Z</time>
      </trkpt>
      <trkpt lat="47.12512" lon="-1.43369">
        <ele>102</ele>
        <time>2021-02-28T12:07:38.000Z</time>
      </trkpt>
      <trkpt lat="47.1252" lon="-1.43358">
        <ele>102</ele>
        <time>2021-02-28T12:07:41.000Z</time>
      </trkpt>
      <trkpt lat="47.12529" lon="-1.43345">
        <ele>102</ele>
        <time>2021-02-28T12:07:44.000Z</time>
      </trkpt>
      <trkpt lat="47.12538" lon="-1.43333">
        <ele>103</ele>
        <time>2021-02-28T12:07:47.000Z</time>
      </trkpt>
      <trkpt lat="47.12547" lon="-1.4332">
        <ele>103</ele>
        <time>2021-02-28T12:07:50.000Z</time>
      </trkpt>
      <trkpt lat="47.12556" lon="-1.43308">
        <ele>103</ele>
        <time>2021-02-28T12:07:53.000Z</time>
      </trkpt>
      <trkpt lat="47.12566" lon="-1.43296">
        <ele>104</ele>
        <time>2021-02-28T12:07:56.000Z</time>
      </trkpt>
      <trkpt lat="47.12575" lon="-1.43284">
        <ele>104</ele>
        <time>2021-02-28T12:07:59.000Z</time>
      </trkpt>
      <trkpt lat="47.12585" lon="-1.43272">
        <ele>104</ele>
        <time>2021-02-28T12:08:02.000Z</time>
      </trkpt>
      <trkpt lat="47.12598" lon="-1.43256">
        <ele>104</ele>
        <time>2021-02-28T12:08:06.000Z</time>
      </trkpt>
      <trkpt lat="47.12608" lon="-1.43245">
        <ele>104</ele>
        <time>2021-02-28T12:08:09.000Z</time>
      </trkpt>
      <trkpt lat="47.12618" lon="-1.43233">
        <ele>105</ele>
        <time>2021-02-28T12:08:12.000Z</time>
      </trkpt>
      <trkpt lat="47.12628" lon="-1.43221">
        <ele>105</ele>
        <time>2021-02-28T12:08:15.000Z</time>
      </trkpt>
      <trkpt lat="47.1264" lon="-1.43205">
        <ele>105</ele>
        <time>2021-02-28T12:08:19.000Z</time>
      </trkpt>
      <trkpt lat="47.12648" lon="-1.43195">
        <ele>105</ele>
        <time>2021-02-28T12:08:22.000Z</time>
      </trkpt>
      <trkpt lat="47.12656" lon="-1.43207">
        <ele>105</ele>
        <time>2021-02-28T12:08:25.000Z</time>
      </trkpt>
      <trkpt lat="47.1266" lon="-1.43228">
        <ele>106</ele>
        <time>2021-02-28T12:08:28.000Z</time>
      </trkpt>
      <trkpt lat="47.12663" lon="-1.43242">
        <ele>106</ele>
        <time>2021-02-28T12:08:30.000Z</time>
      </trkpt>
      <trkpt lat="47.12669" lon="-1.43264">
        <ele>105</ele>
        <time>2021-02-28T12:08:33.000Z</time>
      </trkpt>
      <trkpt lat="47.12675" lon="-1.43285">
        <ele>105</ele>
        <time>2021-02-28T12:08:36.000Z</time>
      </trkpt>
      <trkpt lat="47.12681" lon="-1.43299">
        <ele>105</ele>
        <time>2021-02-28T12:08:38.000Z</time>
      </trkpt>
      <trkpt lat="47.12686" lon="-1.43314">
        <ele>105</ele>
        <time>2021-02-28T12:08:40.000Z</time>
      </trkpt>
      <trkpt lat="47.12692" lon="-1.43328">
        <ele>104</ele>
        <time>2021-02-28T12:08:42.000Z</time>
      </trkpt>
      <trkpt lat="47.12699" lon="-1.43343">
        <ele>104</ele>
        <time>2021-02-28T12:08:44.000Z</time>
      </trkpt>
      <trkpt lat="47.12705" lon="-1.43358">
        <ele>104</ele>
        <time>2021-02-28T12:08:46.000Z</time>
      </trkpt>
      <trkpt lat="47.12711" lon="-1.43372">
        <ele>104</ele>
        <time>2021-02-28T12:08:48.000Z</time>
      </trkpt>
      <trkpt lat="47.12718" lon="-1.43388">
        <ele>104</ele>
        <time>2021-02-28T12:08:50.000Z</time>
      </trkpt>
      <trkpt lat="47.12725" lon="-1.43404">
        <ele>105</ele>
        <time>2021-02-28T12:08:52.000Z</time>
      </trkpt>
      <trkpt lat="47.12732" lon="-1.4342">
        <ele>105</ele>
        <time>2021-02-28T12:08:54.000Z</time>
      </trkpt>
      <trkpt lat="47.12739" lon="-1.43436">
        <ele>105</ele>
        <time>2021-02-28T12:08:56.000Z</time>
      </trkpt>
      <trkpt lat="47.12746" lon="-1.43451">
        <ele>105</ele>
        <time>2021-02-28T12:08:58.000Z</time>
      </trkpt>
      <trkpt lat="47.12753" lon="-1.43467">
        <ele>105</ele>
        <time>2021-02-28T12:09:00.000Z</time>
      </trkpt>
      <trkpt lat="47.1276" lon="-1.43483">
        <ele>105</ele>
        <time>2021-02-28T12:09:02.000Z</time>
      </trkpt>
      <trkpt lat="47.12766" lon="-1.43499">
        <ele>105</ele>
        <time>2021-02-28T12:09:04.000Z</time>
      </trkpt>
      <trkpt lat="47.12771" lon="-1.43517">
        <ele>105</ele>
        <time>2021-02-28T12:09:06.000Z</time>
      </trkpt>
      <trkpt lat="47.12776" lon="-1.43536">
        <ele>104</ele>
        <time>2021-02-28T12:09:08.000Z</time>
      </trkpt>
      <trkpt lat="47.12781" lon="-1.43554">
        <ele>104</ele>
        <time>2021-02-28T12:09:10.000Z</time>
      </trkpt>
      <trkpt lat="47.12786" lon="-1.43573">
        <ele>103</ele>
        <time>2021-02-28T12:09:12.000Z</time>
      </trkpt>
      <trkpt lat="47.12791" lon="-1.43591">
        <ele>103</ele>
        <time>2021-02-28T12:09:14.000Z</time>
      </trkpt>
      <trkpt lat="47.12797" lon="-1.43608">
        <ele>103</ele>
        <time>2021-02-28T12:09:16.000Z</time>
      </trkpt>
      <trkpt lat="47.12803" lon="-1.43626">
        <ele>103</ele>
        <time>2021-02-28T12:09:18.000Z</time>
      </trkpt>
      <trkpt lat="47.12808" lon="-1.43643">
        <ele>103</ele>
        <time>2021-02-28T12:09:20.000Z</time>
      </trkpt>
      <trkpt lat="47.12815" lon="-1.43661">
        <ele>103</ele>
        <time>2021-02-28T12:09:22.000Z</time>
      </trkpt>
      <trkpt lat="47.12822" lon="-1.43677">
        <ele>102</ele>
        <time>2021-02-28T12:09:24.000Z</time>
      </trkpt>
      <trkpt lat="47.12828" lon="-1.43693">
        <ele>102</ele>
        <time>2021-02-28T12:09:26.000Z</time>
      </trkpt>
      <trkpt lat="47.12834" lon="-1.43709">
        <ele>102</ele>
        <time>2021-02-28T12:09:28.000Z</time>
      </trkpt>
      <trkpt lat="47.12841" lon="-1.43725">
        <ele>103</ele>
        <time>2021-02-28T12:09:30.000Z</time>
      </trkpt>
      <trkpt lat="47.12847" lon="-1.4374">
        <ele>103</ele>
        <time>2021-02-28T12:09:32.000Z</time>
      </trkpt>
      <trkpt lat="47.12853" lon="-1.43757">
        <ele>102</ele>
        <time>2021-02-28T12:09:34.000Z</time>
      </trkpt>
      <trkpt lat="47.12858" lon="-1.43775">
        <ele>101</ele>
        <time>2021-02-28T12:09:36.000Z</time>
      </trkpt>
      <trkpt lat="47.12862" lon="-1.43792">
        <ele>102</ele>
        <time>2021-02-28T12:09:38.000Z</time>
      </trkpt>
      <trkpt lat="47.12867" lon="-1.43808">
        <ele>102</ele>
        <time>2021-02-28T12:09:40.000Z</time>
      </trkpt>
      <trkpt lat="47.12873" lon="-1.43826">
        <ele>102</ele>
        <time>2021-02-28T12:09:42.000Z</time>
      </trkpt>
      <trkpt lat="47.12877" lon="-1.43844">
        <ele>102</ele>
        <time>2021-02-28T12:09:44.000Z</time>
      </trkpt>
      <trkpt lat="47.12882" lon="-1.43863">
        <ele>102</ele>
        <time>2021-02-28T12:09:46.000Z</time>
      </trkpt>
      <trkpt lat="47.12888" lon="-1.4388">
        <ele>102</ele>
        <time>2021-02-28T12:09:48.000Z</time>
      </trkpt>
      <trkpt lat="47.12894" lon="-1.43897">
        <ele>101</ele>
        <time>2021-02-28T12:09:50.000Z</time>
      </trkpt>
      <trkpt lat="47.129" lon="-1.43913">
        <ele>101</ele>
        <time>2021-02-28T12:09:52.000Z</time>
      </trkpt>
      <trkpt lat="47.12907" lon="-1.4393">
        <ele>101</ele>
        <time>2021-02-28T12:09:54.000Z</time>
      </trkpt>
      <trkpt lat="47.12914" lon="-1.43946">
        <ele>101</ele>
        <time>2021-02-28T12:09:56.000Z</time>
      </trkpt>
      <trkpt lat="47.12921" lon="-1.43962">
        <ele>101</ele>
        <time>2021-02-28T12:09:58.000Z</time>
      </trkpt>
      <trkpt lat="47.12928" lon="-1.43978">
        <ele>101</ele>
        <time>2021-02-28T12:10:00.000Z</time>
      </trkpt>
      <trkpt lat="47.12935" lon="-1.43995">
        <ele>100</ele>
        <time>2021-02-28T12:10:02.000Z</time>
      </trkpt>
      <trkpt lat="47.12942" lon="-1.4401">
        <ele>100</ele>
        <time>2021-02-28T12:10:04.000Z</time>
      </trkpt>
      <trkpt lat="47.12948" lon="-1.44026">
        <ele>100</ele>
        <time>2021-02-28T12:10:06.000Z</time>
      </trkpt>
      <trkpt lat="47.12955" lon="-1.44042">
        <ele>99</ele>
        <time>2021-02-28T12:10:08.000Z</time>
      </trkpt>
      <trkpt lat="47.12962" lon="-1.44059">
        <ele>99</ele>
        <time>2021-02-28T12:10:10.000Z</time>
      </trkpt>
      <trkpt lat="47.12971" lon="-1.44084">
        <ele>99</ele>
        <time>2021-02-28T12:10:13.000Z</time>
      </trkpt>
      <trkpt lat="47.12977" lon="-1.441">
        <ele>98</ele>
        <time>2021-02-28T12:10:15.000Z</time>
      </trkpt>
      <trkpt lat="47.12983" lon="-1.44116">
        <ele>98</ele>
        <time>2021-02-28T12:10:17.000Z</time>
      </trkpt>
      <trkpt lat="47.12989" lon="-1.44132">
        <ele>99</ele>
        <time>2021-02-28T12:10:19.000Z</time>
      </trkpt>
      <trkpt lat="47.12995" lon="-1.44148">
        <ele>99</ele>
        <time>2021-02-28T12:10:21.000Z</time>
      </trkpt>
      <trkpt lat="47.13001" lon="-1.44163">
        <ele>99</ele>
        <time>2021-02-28T12:10:23.000Z</time>
      </trkpt>
      <trkpt lat="47.13007" lon="-1.44179">
        <ele>98</ele>
        <time>2021-02-28T12:10:25.000Z</time>
      </trkpt>
      <trkpt lat="47.13012" lon="-1.44196">
        <ele>98</ele>
        <time>2021-02-28T12:10:27.000Z</time>
      </trkpt>
      <trkpt lat="47.13016" lon="-1.44213">
        <ele>98</ele>
        <time>2021-02-28T12:10:29.000Z</time>
      </trkpt>
      <trkpt lat="47.1302" lon="-1.4423">
        <ele>98</ele>
        <time>2021-02-28T12:10:31.000Z</time>
      </trkpt>
      <trkpt lat="47.13023" lon="-1.44247">
        <ele>99</ele>
        <time>2021-02-28T12:10:33.000Z</time>
      </trkpt>
      <trkpt lat="47.13027" lon="-1.44262">
        <ele>99</ele>
        <time>2021-02-28T12:10:35.000Z</time>
      </trkpt>
      <trkpt lat="47.1303" lon="-1.44277">
        <ele>100</ele>
        <time>2021-02-28T12:10:37.000Z</time>
      </trkpt>
      <trkpt lat="47.13035" lon="-1.44292">
        <ele>100</ele>
        <time>2021-02-28T12:10:39.000Z</time>
      </trkpt>
      <trkpt lat="47.13039" lon="-1.44308">
        <ele>99</ele>
        <time>2021-02-28T12:10:41.000Z</time>
      </trkpt>
      <trkpt lat="47.13043" lon="-1.44325">
        <ele>99</ele>
        <time>2021-02-28T12:10:43.000Z</time>
      </trkpt>
      <trkpt lat="47.13045" lon="-1.44343">
        <ele>99</ele>
        <time>2021-02-28T12:10:45.000Z</time>
      </trkpt>
      <trkpt lat="47.13047" lon="-1.4436">
        <ele>99</ele>
        <time>2021-02-28T12:10:47.000Z</time>
      </trkpt>
      <trkpt lat="47.13049" lon="-1.44379">
        <ele>99</ele>
        <time>2021-02-28T12:10:49.000Z</time>
      </trkpt>
      <trkpt lat="47.13052" lon="-1.44397">
        <ele>99</ele>
        <time>2021-02-28T12:10:51.000Z</time>
      </trkpt>
      <trkpt lat="47.13056" lon="-1.44413">
        <ele>98</ele>
        <time>2021-02-28T12:10:53.000Z</time>
      </trkpt>
      <trkpt lat="47.13061" lon="-1.4443">
        <ele>98</ele>
        <time>2021-02-28T12:10:55.000Z</time>
      </trkpt>
      <trkpt lat="47.13067" lon="-1.44447">
        <ele>98</ele>
        <time>2021-02-28T12:10:57.000Z</time>
      </trkpt>
      <trkpt lat="47.13072" lon="-1.44464">
        <ele>98</ele>
        <time>2021-02-28T12:10:59.000Z</time>
      </trkpt>
      <trkpt lat="47.13078" lon="-1.44481">
        <ele>98</ele>
        <time>2021-02-28T12:11:01.000Z</time>
      </trkpt>
      <trkpt lat="47.13083" lon="-1.44498">
        <ele>98</ele>
        <time>2021-02-28T12:11:03.000Z</time>
      </trkpt>
      <trkpt lat="47.13088" lon="-1.44515">
        <ele>98</ele>
        <time>2021-02-28T12:11:05.000Z</time>
      </trkpt>
      <trkpt lat="47.13094" lon="-1.44532">
        <ele>98</ele>
        <time>2021-02-28T12:11:07.000Z</time>
      </trkpt>
      <trkpt lat="47.13098" lon="-1.44549">
        <ele>98</ele>
        <time>2021-02-28T12:11:09.000Z</time>
      </trkpt>
      <trkpt lat="47.13101" lon="-1.44567">
        <ele>98</ele>
        <time>2021-02-28T12:11:11.000Z</time>
      </trkpt>
      <trkpt lat="47.13103" lon="-1.44586">
        <ele>98</ele>
        <time>2021-02-28T12:11:13.000Z</time>
      </trkpt>
      <trkpt lat="47.13104" lon="-1.44605">
        <ele>97</ele>
        <time>2021-02-28T12:11:15.000Z</time>
      </trkpt>
      <trkpt lat="47.13105" lon="-1.44625">
        <ele>97</ele>
        <time>2021-02-28T12:11:17.000Z</time>
      </trkpt>
      <trkpt lat="47.13106" lon="-1.44645">
        <ele>97</ele>
        <time>2021-02-28T12:11:19.000Z</time>
      </trkpt>
      <trkpt lat="47.13107" lon="-1.44664">
        <ele>96</ele>
        <time>2021-02-28T12:11:21.000Z</time>
      </trkpt>
      <trkpt lat="47.13109" lon="-1.44683">
        <ele>96</ele>
        <time>2021-02-28T12:11:23.000Z</time>
      </trkpt>
      <trkpt lat="47.13111" lon="-1.44703">
        <ele>95</ele>
        <time>2021-02-28T12:11:25.000Z</time>
      </trkpt>
      <trkpt lat="47.13114" lon="-1.44722">
        <ele>96</ele>
        <time>2021-02-28T12:11:27.000Z</time>
      </trkpt>
      <trkpt lat="47.13118" lon="-1.44739">
        <ele>96</ele>
        <time>2021-02-28T12:11:29.000Z</time>
      </trkpt>
      <trkpt lat="47.13122" lon="-1.44755">
        <ele>95</ele>
        <time>2021-02-28T12:11:31.000Z</time>
      </trkpt>
      <trkpt lat="47.13126" lon="-1.44774">
        <ele>95</ele>
        <time>2021-02-28T12:11:33.000Z</time>
      </trkpt>
      <trkpt lat="47.1313" lon="-1.44791">
        <ele>95</ele>
        <time>2021-02-28T12:11:35.000Z</time>
      </trkpt>
      <trkpt lat="47.13134" lon="-1.44809">
        <ele>95</ele>
        <time>2021-02-28T12:11:37.000Z</time>
      </trkpt>
      <trkpt lat="47.13134" lon="-1.44829">
        <ele>95</ele>
        <time>2021-02-28T12:11:39.000Z</time>
      </trkpt>
      <trkpt lat="47.13133" lon="-1.44849">
        <ele>95</ele>
        <time>2021-02-28T12:11:41.000Z</time>
      </trkpt>
      <trkpt lat="47.13132" lon="-1.44867">
        <ele>95</ele>
        <time>2021-02-28T12:11:43.000Z</time>
      </trkpt>
      <trkpt lat="47.13129" lon="-1.44886">
        <ele>95</ele>
        <time>2021-02-28T12:11:45.000Z</time>
      </trkpt>
      <trkpt lat="47.13127" lon="-1.44904">
        <ele>95</ele>
        <time>2021-02-28T12:11:47.000Z</time>
      </trkpt>
      <trkpt lat="47.13124" lon="-1.44922">
        <ele>96</ele>
        <time>2021-02-28T12:11:49.000Z</time>
      </trkpt>
      <trkpt lat="47.13122" lon="-1.4494">
        <ele>96</ele>
        <time>2021-02-28T12:11:51.000Z</time>
      </trkpt>
      <trkpt lat="47.1312" lon="-1.44959">
        <ele>96</ele>
        <time>2021-02-28T12:11:53.000Z</time>
      </trkpt>
      <trkpt lat="47.13118" lon="-1.44978">
        <ele>97</ele>
        <time>2021-02-28T12:11:55.000Z</time>
      </trkpt>
      <trkpt lat="47.13116" lon="-1.44996">
        <ele>97</ele>
        <time>2021-02-28T12:11:57.000Z</time>
      </trkpt>
      <trkpt lat="47.13114" lon="-1.45014">
        <ele>97</ele>
        <time>2021-02-28T12:11:59.000Z</time>
      </trkpt>
      <trkpt lat="47.13113" lon="-1.45032">
        <ele>97</ele>
        <time>2021-02-28T12:12:01.000Z</time>
      </trkpt>
      <trkpt lat="47.13111" lon="-1.45051">
        <ele>97</ele>
        <time>2021-02-28T12:12:03.000Z</time>
      </trkpt>
      <trkpt lat="47.13109" lon="-1.45069">
        <ele>97</ele>
        <time>2021-02-28T12:12:05.000Z</time>
      </trkpt>
      <trkpt lat="47.13107" lon="-1.45087">
        <ele>97</ele>
        <time>2021-02-28T12:12:07.000Z</time>
      </trkpt>
      <trkpt lat="47.13104" lon="-1.45104">
        <ele>97</ele>
        <time>2021-02-28T12:12:09.000Z</time>
      </trkpt>
      <trkpt lat="47.13101" lon="-1.45121">
        <ele>97</ele>
        <time>2021-02-28T12:12:11.000Z</time>
      </trkpt>
      <trkpt lat="47.13098" lon="-1.45137">
        <ele>97</ele>
        <time>2021-02-28T12:12:13.000Z</time>
      </trkpt>
      <trkpt lat="47.13094" lon="-1.45153">
        <ele>98</ele>
        <time>2021-02-28T12:12:15.000Z</time>
      </trkpt>
      <trkpt lat="47.1309" lon="-1.4517">
        <ele>98</ele>
        <time>2021-02-28T12:12:17.000Z</time>
      </trkpt>
      <trkpt lat="47.13086" lon="-1.45186">
        <ele>98</ele>
        <time>2021-02-28T12:12:19.000Z</time>
      </trkpt>
      <trkpt lat="47.13084" lon="-1.45203">
        <ele>98</ele>
        <time>2021-02-28T12:12:21.000Z</time>
      </trkpt>
      <trkpt lat="47.13082" lon="-1.45219">
        <ele>98</ele>
        <time>2021-02-28T12:12:23.000Z</time>
      </trkpt>
      <trkpt lat="47.13079" lon="-1.45235">
        <ele>98</ele>
        <time>2021-02-28T12:12:25.000Z</time>
      </trkpt>
      <trkpt lat="47.13078" lon="-1.45249">
        <ele>98</ele>
        <time>2021-02-28T12:12:27.000Z</time>
      </trkpt>
      <trkpt lat="47.13077" lon="-1.45263">
        <ele>98</ele>
        <time>2021-02-28T12:12:29.000Z</time>
      </trkpt>
      <trkpt lat="47.1308" lon="-1.45282">
        <ele>98</ele>
        <time>2021-02-28T12:12:32.000Z</time>
      </trkpt>
      <trkpt lat="47.13089" lon="-1.4529">
        <ele>99</ele>
        <time>2021-02-28T12:12:34.000Z</time>
      </trkpt>
      <trkpt lat="47.13099" lon="-1.45298">
        <ele>99</ele>
        <time>2021-02-28T12:12:36.000Z</time>
      </trkpt>
      <trkpt lat="47.1311" lon="-1.45307">
        <ele>99</ele>
        <time>2021-02-28T12:12:38.000Z</time>
      </trkpt>
      <trkpt lat="47.13121" lon="-1.45316">
        <ele>99</ele>
        <time>2021-02-28T12:12:40.000Z</time>
      </trkpt>
      <trkpt lat="47.13131" lon="-1.45323">
        <ele>99</ele>
        <time>2021-02-28T12:12:42.000Z</time>
      </trkpt>
      <trkpt lat="47.13141" lon="-1.45331">
        <ele>99</ele>
        <time>2021-02-28T12:12:44.000Z</time>
      </trkpt>
      <trkpt lat="47.13152" lon="-1.45341">
        <ele>99</ele>
        <time>2021-02-28T12:12:46.000Z</time>
      </trkpt>
      <trkpt lat="47.13163" lon="-1.45351">
        <ele>100</ele>
        <time>2021-02-28T12:12:48.000Z</time>
      </trkpt>
      <trkpt lat="47.13173" lon="-1.45362">
        <ele>100</ele>
        <time>2021-02-28T12:12:50.000Z</time>
      </trkpt>
      <trkpt lat="47.13183" lon="-1.45374">
        <ele>100</ele>
        <time>2021-02-28T12:12:52.000Z</time>
      </trkpt>
      <trkpt lat="47.13192" lon="-1.45387">
        <ele>100</ele>
        <time>2021-02-28T12:12:54.000Z</time>
      </trkpt>
      <trkpt lat="47.13201" lon="-1.45399">
        <ele>100</ele>
        <time>2021-02-28T12:12:56.000Z</time>
      </trkpt>
      <trkpt lat="47.1321" lon="-1.45411">
        <ele>100</ele>
        <time>2021-02-28T12:12:58.000Z</time>
      </trkpt>
      <trkpt lat="47.13218" lon="-1.45424">
        <ele>100</ele>
        <time>2021-02-28T12:13:00.000Z</time>
      </trkpt>
      <trkpt lat="47.13227" lon="-1.45437">
        <ele>100</ele>
        <time>2021-02-28T12:13:02.000Z</time>
      </trkpt>
      <trkpt lat="47.13236" lon="-1.4545">
        <ele>100</ele>
        <time>2021-02-28T12:13:04.000Z</time>
      </trkpt>
      <trkpt lat="47.13245" lon="-1.45463">
        <ele>100</ele>
        <time>2021-02-28T12:13:06.000Z</time>
      </trkpt>
      <trkpt lat="47.13254" lon="-1.45477">
        <ele>100</ele>
        <time>2021-02-28T12:13:08.000Z</time>
      </trkpt>
      <trkpt lat="47.13262" lon="-1.45491">
        <ele>100</ele>
        <time>2021-02-28T12:13:10.000Z</time>
      </trkpt>
      <trkpt lat="47.1327" lon="-1.45504">
        <ele>99</ele>
        <time>2021-02-28T12:13:12.000Z</time>
      </trkpt>
      <trkpt lat="47.13279" lon="-1.45518">
        <ele>100</ele>
        <time>2021-02-28T12:13:14.000Z</time>
      </trkpt>
      <trkpt lat="47.13288" lon="-1.45531">
        <ele>100</ele>
        <time>2021-02-28T12:13:16.000Z</time>
      </trkpt>
      <trkpt lat="47.13297" lon="-1.45546">
        <ele>99</ele>
        <time>2021-02-28T12:13:18.000Z</time>
      </trkpt>
      <trkpt lat="47.13306" lon="-1.45561">
        <ele>99</ele>
        <time>2021-02-28T12:13:20.000Z</time>
      </trkpt>
      <trkpt lat="47.13315" lon="-1.45575">
        <ele>99</ele>
        <time>2021-02-28T12:13:22.000Z</time>
      </trkpt>
      <trkpt lat="47.13324" lon="-1.45589">
        <ele>99</ele>
        <time>2021-02-28T12:13:24.000Z</time>
      </trkpt>
      <trkpt lat="47.13333" lon="-1.45604">
        <ele>99</ele>
        <time>2021-02-28T12:13:26.000Z</time>
      </trkpt>
      <trkpt lat="47.13342" lon="-1.45618">
        <ele>99</ele>
        <time>2021-02-28T12:13:28.000Z</time>
      </trkpt>
      <trkpt lat="47.13351" lon="-1.45633">
        <ele>99</ele>
        <time>2021-02-28T12:13:30.000Z</time>
      </trkpt>
      <trkpt lat="47.1336" lon="-1.45647">
        <ele>99</ele>
        <time>2021-02-28T12:13:32.000Z</time>
      </trkpt>
      <trkpt lat="47.13369" lon="-1.45661">
        <ele>99</ele>
        <time>2021-02-28T12:13:34.000Z</time>
      </trkpt>
      <trkpt lat="47.13378" lon="-1.45675">
        <ele>99</ele>
        <time>2021-02-28T12:13:36.000Z</time>
      </trkpt>
      <trkpt lat="47.13387" lon="-1.45688">
        <ele>99</ele>
        <time>2021-02-28T12:13:38.000Z</time>
      </trkpt>
      <trkpt lat="47.13395" lon="-1.45702">
        <ele>99</ele>
        <time>2021-02-28T12:13:40.000Z</time>
      </trkpt>
      <trkpt lat="47.13404" lon="-1.45714">
        <ele>99</ele>
        <time>2021-02-28T12:13:42.000Z</time>
      </trkpt>
      <trkpt lat="47.13412" lon="-1.45725">
        <ele>99</ele>
        <time>2021-02-28T12:13:44.000Z</time>
      </trkpt>
      <trkpt lat="47.1342" lon="-1.45737">
        <ele>99</ele>
        <time>2021-02-28T12:13:46.000Z</time>
      </trkpt>
      <trkpt lat="47.13428" lon="-1.45749">
        <ele>99</ele>
        <time>2021-02-28T12:13:48.000Z</time>
      </trkpt>
      <trkpt lat="47.13436" lon="-1.45761">
        <ele>99</ele>
        <time>2021-02-28T12:13:50.000Z</time>
      </trkpt>
      <trkpt lat="47.13444" lon="-1.45773">
        <ele>99</ele>
        <time>2021-02-28T12:13:52.000Z</time>
      </trkpt>
      <trkpt lat="47.13452" lon="-1.45785">
        <ele>99</ele>
        <time>2021-02-28T12:13:54.000Z</time>
      </trkpt>
      <trkpt lat="47.13459" lon="-1.45797">
        <ele>99</ele>
        <time>2021-02-28T12:13:56.000Z</time>
      </trkpt>
      <trkpt lat="47.13467" lon="-1.45808">
        <ele>99</ele>
        <time>2021-02-28T12:13:58.000Z</time>
      </trkpt>
      <trkpt lat="47.13475" lon="-1.4582">
        <ele>99</ele>
        <time>2021-02-28T12:14:00.000Z</time>
      </trkpt>
      <trkpt lat="47.13482" lon="-1.45831">
        <ele>99</ele>
        <time>2021-02-28T12:14:02.000Z</time>
      </trkpt>
      <trkpt lat="47.1349" lon="-1.45842">
        <ele>99</ele>
        <time>2021-02-28T12:14:04.000Z</time>
      </trkpt>
      <trkpt lat="47.13498" lon="-1.45854">
        <ele>99</ele>
        <time>2021-02-28T12:14:06.000Z</time>
      </trkpt>
      <trkpt lat="47.13506" lon="-1.45865">
        <ele>99</ele>
        <time>2021-02-28T12:14:08.000Z</time>
      </trkpt>
      <trkpt lat="47.13514" lon="-1.45877">
        <ele>99</ele>
        <time>2021-02-28T12:14:10.000Z</time>
      </trkpt>
      <trkpt lat="47.13522" lon="-1.45889">
        <ele>99</ele>
        <time>2021-02-28T12:14:12.000Z</time>
      </trkpt>
      <trkpt lat="47.1353" lon="-1.459">
        <ele>100</ele>
        <time>2021-02-28T12:14:14.000Z</time>
      </trkpt>
      <trkpt lat="47.13537" lon="-1.45912">
        <ele>99</ele>
        <time>2021-02-28T12:14:16.000Z</time>
      </trkpt>
      <trkpt lat="47.13544" lon="-1.45922">
        <ele>100</ele>
        <time>2021-02-28T12:14:18.000Z</time>
      </trkpt>
      <trkpt lat="47.1355" lon="-1.45934">
        <ele>100</ele>
        <time>2021-02-28T12:14:20.000Z</time>
      </trkpt>
      <trkpt lat="47.13557" lon="-1.45947">
        <ele>100</ele>
        <time>2021-02-28T12:14:22.000Z</time>
      </trkpt>
      <trkpt lat="47.13564" lon="-1.4596">
        <ele>100</ele>
        <time>2021-02-28T12:14:24.000Z</time>
      </trkpt>
      <trkpt lat="47.1357" lon="-1.45975">
        <ele>100</ele>
        <time>2021-02-28T12:14:26.000Z</time>
      </trkpt>
      <trkpt lat="47.13575" lon="-1.45991">
        <ele>100</ele>
        <time>2021-02-28T12:14:28.000Z</time>
      </trkpt>
      <trkpt lat="47.1358" lon="-1.46007">
        <ele>100</ele>
        <time>2021-02-28T12:14:30.000Z</time>
      </trkpt>
      <trkpt lat="47.13585" lon="-1.46023">
        <ele>100</ele>
        <time>2021-02-28T12:14:32.000Z</time>
      </trkpt>
      <trkpt lat="47.1359" lon="-1.4604">
        <ele>100</ele>
        <time>2021-02-28T12:14:34.000Z</time>
      </trkpt>
      <trkpt lat="47.13594" lon="-1.46056">
        <ele>100</ele>
        <time>2021-02-28T12:14:36.000Z</time>
      </trkpt>
      <trkpt lat="47.13599" lon="-1.46072">
        <ele>100</ele>
        <time>2021-02-28T12:14:38.000Z</time>
      </trkpt>
      <trkpt lat="47.13605" lon="-1.46088">
        <ele>100</ele>
        <time>2021-02-28T12:14:40.000Z</time>
      </trkpt>
      <trkpt lat="47.13611" lon="-1.46103">
        <ele>101</ele>
        <time>2021-02-28T12:14:42.000Z</time>
      </trkpt>
      <trkpt lat="47.13616" lon="-1.46119">
        <ele>100</ele>
        <time>2021-02-28T12:14:44.000Z</time>
      </trkpt>
      <trkpt lat="47.13621" lon="-1.46135">
        <ele>100</ele>
        <time>2021-02-28T12:14:46.000Z</time>
      </trkpt>
      <trkpt lat="47.13625" lon="-1.46151">
        <ele>100</ele>
        <time>2021-02-28T12:14:48.000Z</time>
      </trkpt>
      <trkpt lat="47.1363" lon="-1.46168">
        <ele>100</ele>
        <time>2021-02-28T12:14:50.000Z</time>
      </trkpt>
      <trkpt lat="47.13634" lon="-1.46184">
        <ele>99</ele>
        <time>2021-02-28T12:14:52.000Z</time>
      </trkpt>
      <trkpt lat="47.13639" lon="-1.46199">
        <ele>99</ele>
        <time>2021-02-28T12:14:54.000Z</time>
      </trkpt>
      <trkpt lat="47.13644" lon="-1.46215">
        <ele>100</ele>
        <time>2021-02-28T12:14:56.000Z</time>
      </trkpt>
      <trkpt lat="47.13649" lon="-1.46231">
        <ele>100</ele>
        <time>2021-02-28T12:14:58.000Z</time>
      </trkpt>
      <trkpt lat="47.13655" lon="-1.46247">
        <ele>100</ele>
        <time>2021-02-28T12:15:00.000Z</time>
      </trkpt>
      <trkpt lat="47.13661" lon="-1.46262">
        <ele>100</ele>
        <time>2021-02-28T12:15:02.000Z</time>
      </trkpt>
      <trkpt lat="47.13666" lon="-1.46278">
        <ele>100</ele>
        <time>2021-02-28T12:15:04.000Z</time>
      </trkpt>
      <trkpt lat="47.1367" lon="-1.46296">
        <ele>100</ele>
        <time>2021-02-28T12:15:06.000Z</time>
      </trkpt>
      <trkpt lat="47.13673" lon="-1.46314">
        <ele>100</ele>
        <time>2021-02-28T12:15:08.000Z</time>
      </trkpt>
      <trkpt lat="47.13676" lon="-1.46331">
        <ele>99</ele>
        <time>2021-02-28T12:15:10.000Z</time>
      </trkpt>
      <trkpt lat="47.13678" lon="-1.46348">
        <ele>99</ele>
        <time>2021-02-28T12:15:12.000Z</time>
      </trkpt>
      <trkpt lat="47.13678" lon="-1.46366">
        <ele>99</ele>
        <time>2021-02-28T12:15:14.000Z</time>
      </trkpt>
      <trkpt lat="47.13678" lon="-1.46383">
        <ele>99</ele>
        <time>2021-02-28T12:15:16.000Z</time>
      </trkpt>
      <trkpt lat="47.13677" lon="-1.46401">
        <ele>99</ele>
        <time>2021-02-28T12:15:18.000Z</time>
      </trkpt>
      <trkpt lat="47.13676" lon="-1.46419">
        <ele>100</ele>
        <time>2021-02-28T12:15:20.000Z</time>
      </trkpt>
      <trkpt lat="47.13675" lon="-1.46436">
        <ele>100</ele>
        <time>2021-02-28T12:15:22.000Z</time>
      </trkpt>
      <trkpt lat="47.13675" lon="-1.46454">
        <ele>100</ele>
        <time>2021-02-28T12:15:24.000Z</time>
      </trkpt>
      <trkpt lat="47.13677" lon="-1.46471">
        <ele>99</ele>
        <time>2021-02-28T12:15:26.000Z</time>
      </trkpt>
      <trkpt lat="47.13682" lon="-1.46489">
        <ele>100</ele>
        <time>2021-02-28T12:15:28.000Z</time>
      </trkpt>
      <trkpt lat="47.13688" lon="-1.46505">
        <ele>100</ele>
        <time>2021-02-28T12:15:30.000Z</time>
      </trkpt>
      <trkpt lat="47.13694" lon="-1.46521">
        <ele>100</ele>
        <time>2021-02-28T12:15:32.000Z</time>
      </trkpt>
      <trkpt lat="47.137" lon="-1.46538">
        <ele>99</ele>
        <time>2021-02-28T12:15:34.000Z</time>
      </trkpt>
      <trkpt lat="47.13706" lon="-1.46552">
        <ele>99</ele>
        <time>2021-02-28T12:15:36.000Z</time>
      </trkpt>
      <trkpt lat="47.13712" lon="-1.46569">
        <ele>100</ele>
        <time>2021-02-28T12:15:38.000Z</time>
      </trkpt>
      <trkpt lat="47.13716" lon="-1.46586">
        <ele>100</ele>
        <time>2021-02-28T12:15:40.000Z</time>
      </trkpt>
      <trkpt lat="47.1372" lon="-1.46603">
        <ele>99</ele>
        <time>2021-02-28T12:15:42.000Z</time>
      </trkpt>
      <trkpt lat="47.13724" lon="-1.46621">
        <ele>100</ele>
        <time>2021-02-28T12:15:44.000Z</time>
      </trkpt>
      <trkpt lat="47.13728" lon="-1.46639">
        <ele>99</ele>
        <time>2021-02-28T12:15:46.000Z</time>
      </trkpt>
      <trkpt lat="47.13731" lon="-1.46657">
        <ele>99</ele>
        <time>2021-02-28T12:15:48.000Z</time>
      </trkpt>
      <trkpt lat="47.13735" lon="-1.46675">
        <ele>99</ele>
        <time>2021-02-28T12:15:50.000Z</time>
      </trkpt>
      <trkpt lat="47.13738" lon="-1.46693">
        <ele>99</ele>
        <time>2021-02-28T12:15:52.000Z</time>
      </trkpt>
      <trkpt lat="47.13741" lon="-1.4671">
        <ele>98</ele>
        <time>2021-02-28T12:15:54.000Z</time>
      </trkpt>
      <trkpt lat="47.13745" lon="-1.46727">
        <ele>98</ele>
        <time>2021-02-28T12:15:56.000Z</time>
      </trkpt>
      <trkpt lat="47.13748" lon="-1.46743">
        <ele>97</ele>
        <time>2021-02-28T12:15:58.000Z</time>
      </trkpt>
      <trkpt lat="47.13753" lon="-1.4676">
        <ele>96</ele>
        <time>2021-02-28T12:16:01.000Z</time>
      </trkpt>
      <trkpt lat="47.13762" lon="-1.46762">
        <ele>96</ele>
        <time>2021-02-28T12:16:03.000Z</time>
      </trkpt>
      <trkpt lat="47.13773" lon="-1.46759">
        <ele>96</ele>
        <time>2021-02-28T12:16:05.000Z</time>
      </trkpt>
      <trkpt lat="47.13784" lon="-1.46756">
        <ele>96</ele>
        <time>2021-02-28T12:16:07.000Z</time>
      </trkpt>
      <trkpt lat="47.13796" lon="-1.46753">
        <ele>96</ele>
        <time>2021-02-28T12:16:09.000Z</time>
      </trkpt>
      <trkpt lat="47.13807" lon="-1.4675">
        <ele>96</ele>
        <time>2021-02-28T12:16:11.000Z</time>
      </trkpt>
      <trkpt lat="47.13818" lon="-1.46747">
        <ele>95</ele>
        <time>2021-02-28T12:16:13.000Z</time>
      </trkpt>
      <trkpt lat="47.13829" lon="-1.46744">
        <ele>95</ele>
        <time>2021-02-28T12:16:15.000Z</time>
      </trkpt>
      <trkpt lat="47.13841" lon="-1.46741">
        <ele>94</ele>
        <time>2021-02-28T12:16:17.000Z</time>
      </trkpt>
      <trkpt lat="47.13852" lon="-1.46739">
        <ele>94</ele>
        <time>2021-02-28T12:16:19.000Z</time>
      </trkpt>
      <trkpt lat="47.13864" lon="-1.46736">
        <ele>94</ele>
        <time>2021-02-28T12:16:21.000Z</time>
      </trkpt>
      <trkpt lat="47.13875" lon="-1.46733">
        <ele>94</ele>
        <time>2021-02-28T12:16:23.000Z</time>
      </trkpt>
      <trkpt lat="47.13887" lon="-1.4673">
        <ele>94</ele>
        <time>2021-02-28T12:16:25.000Z</time>
      </trkpt>
      <trkpt lat="47.13899" lon="-1.46727">
        <ele>94</ele>
        <time>2021-02-28T12:16:27.000Z</time>
      </trkpt>
      <trkpt lat="47.13911" lon="-1.46724">
        <ele>94</ele>
        <time>2021-02-28T12:16:29.000Z</time>
      </trkpt>
      <trkpt lat="47.13923" lon="-1.46721">
        <ele>94</ele>
        <time>2021-02-28T12:16:31.000Z</time>
      </trkpt>
      <trkpt lat="47.13936" lon="-1.4672">
        <ele>93</ele>
        <time>2021-02-28T12:16:33.000Z</time>
      </trkpt>
      <trkpt lat="47.13949" lon="-1.46718">
        <ele>93</ele>
        <time>2021-02-28T12:16:35.000Z</time>
      </trkpt>
      <trkpt lat="47.13963" lon="-1.46719">
        <ele>92</ele>
        <time>2021-02-28T12:16:37.000Z</time>
      </trkpt>
      <trkpt lat="47.13976" lon="-1.46719">
        <ele>92</ele>
        <time>2021-02-28T12:16:39.000Z</time>
      </trkpt>
      <trkpt lat="47.1399" lon="-1.46721">
        <ele>92</ele>
        <time>2021-02-28T12:16:41.000Z</time>
      </trkpt>
      <trkpt lat="47.14005" lon="-1.46724">
        <ele>91</ele>
        <time>2021-02-28T12:16:43.000Z</time>
      </trkpt>
      <trkpt lat="47.1402" lon="-1.46726">
        <ele>90</ele>
        <time>2021-02-28T12:16:45.000Z</time>
      </trkpt>
      <trkpt lat="47.14034" lon="-1.46729">
        <ele>90</ele>
        <time>2021-02-28T12:16:47.000Z</time>
      </trkpt>
      <trkpt lat="47.14049" lon="-1.46731">
        <ele>90</ele>
        <time>2021-02-28T12:16:49.000Z</time>
      </trkpt>
      <trkpt lat="47.14063" lon="-1.46734">
        <ele>89</ele>
        <time>2021-02-28T12:16:51.000Z</time>
      </trkpt>
      <trkpt lat="47.14078" lon="-1.46737">
        <ele>89</ele>
        <time>2021-02-28T12:16:53.000Z</time>
      </trkpt>
      <trkpt lat="47.14093" lon="-1.46741">
        <ele>88</ele>
        <time>2021-02-28T12:16:55.000Z</time>
      </trkpt>
      <trkpt lat="47.14108" lon="-1.46744">
        <ele>87</ele>
        <time>2021-02-28T12:16:57.000Z</time>
      </trkpt>
      <trkpt lat="47.14122" lon="-1.46746">
        <ele>87</ele>
        <time>2021-02-28T12:16:59.000Z</time>
      </trkpt>
      <trkpt lat="47.14137" lon="-1.46748">
        <ele>86</ele>
        <time>2021-02-28T12:17:01.000Z</time>
      </trkpt>
      <trkpt lat="47.14151" lon="-1.46751">
        <ele>86</ele>
        <time>2021-02-28T12:17:03.000Z</time>
      </trkpt>
      <trkpt lat="47.14166" lon="-1.46754">
        <ele>86</ele>
        <time>2021-02-28T12:17:05.000Z</time>
      </trkpt>
      <trkpt lat="47.14181" lon="-1.46757">
        <ele>85</ele>
        <time>2021-02-28T12:17:07.000Z</time>
      </trkpt>
      <trkpt lat="47.14195" lon="-1.4676">
        <ele>84</ele>
        <time>2021-02-28T12:17:09.000Z</time>
      </trkpt>
      <trkpt lat="47.14209" lon="-1.46762">
        <ele>84</ele>
        <time>2021-02-28T12:17:11.000Z</time>
      </trkpt>
      <trkpt lat="47.14224" lon="-1.46764">
        <ele>83</ele>
        <time>2021-02-28T12:17:13.000Z</time>
      </trkpt>
      <trkpt lat="47.14238" lon="-1.46766">
        <ele>83</ele>
        <time>2021-02-28T12:17:15.000Z</time>
      </trkpt>
      <trkpt lat="47.14253" lon="-1.46768">
        <ele>83</ele>
        <time>2021-02-28T12:17:17.000Z</time>
      </trkpt>
      <trkpt lat="47.14267" lon="-1.4677">
        <ele>82</ele>
        <time>2021-02-28T12:17:19.000Z</time>
      </trkpt>
      <trkpt lat="47.14282" lon="-1.46773">
        <ele>82</ele>
        <time>2021-02-28T12:17:21.000Z</time>
      </trkpt>
      <trkpt lat="47.14298" lon="-1.46775">
        <ele>81</ele>
        <time>2021-02-28T12:17:23.000Z</time>
      </trkpt>
      <trkpt lat="47.14313" lon="-1.46777">
        <ele>82</ele>
        <time>2021-02-28T12:17:25.000Z</time>
      </trkpt>
      <trkpt lat="47.14328" lon="-1.46779">
        <ele>82</ele>
        <time>2021-02-28T12:17:27.000Z</time>
      </trkpt>
      <trkpt lat="47.14344" lon="-1.46781">
        <ele>82</ele>
        <time>2021-02-28T12:17:29.000Z</time>
      </trkpt>
      <trkpt lat="47.14358" lon="-1.46783">
        <ele>82</ele>
        <time>2021-02-28T12:17:31.000Z</time>
      </trkpt>
      <trkpt lat="47.14371" lon="-1.46784">
        <ele>81</ele>
        <time>2021-02-28T12:17:33.000Z</time>
      </trkpt>
      <trkpt lat="47.14384" lon="-1.46786">
        <ele>81</ele>
        <time>2021-02-28T12:17:35.000Z</time>
      </trkpt>
      <trkpt lat="47.144" lon="-1.4679">
        <ele>80</ele>
        <time>2021-02-28T12:17:37.000Z</time>
      </trkpt>
      <trkpt lat="47.14416" lon="-1.46794">
        <ele>80</ele>
        <time>2021-02-28T12:17:39.000Z</time>
      </trkpt>
      <trkpt lat="47.14431" lon="-1.46799">
        <ele>80</ele>
        <time>2021-02-28T12:17:41.000Z</time>
      </trkpt>
      <trkpt lat="47.14449" lon="-1.46805">
        <ele>81</ele>
        <time>2021-02-28T12:17:43.000Z</time>
      </trkpt>
      <trkpt lat="47.14464" lon="-1.46812">
        <ele>81</ele>
        <time>2021-02-28T12:17:45.000Z</time>
      </trkpt>
      <trkpt lat="47.14477" lon="-1.46819">
        <ele>81</ele>
        <time>2021-02-28T12:17:47.000Z</time>
      </trkpt>
      <trkpt lat="47.1449" lon="-1.46825">
        <ele>80</ele>
        <time>2021-02-28T12:17:49.000Z</time>
      </trkpt>
      <trkpt lat="47.14505" lon="-1.46833">
        <ele>79</ele>
        <time>2021-02-28T12:17:51.000Z</time>
      </trkpt>
      <trkpt lat="47.14521" lon="-1.46843">
        <ele>78</ele>
        <time>2021-02-28T12:17:53.000Z</time>
      </trkpt>
      <trkpt lat="47.14538" lon="-1.46853">
        <ele>76</ele>
        <time>2021-02-28T12:17:55.000Z</time>
      </trkpt>
      <trkpt lat="47.14555" lon="-1.46861">
        <ele>74</ele>
        <time>2021-02-28T12:17:57.000Z</time>
      </trkpt>
      <trkpt lat="47.14564" lon="-1.46864">
        <ele>74</ele>
        <time>2021-02-28T12:17:58.000Z</time>
      </trkpt>
      <trkpt lat="47.14573" lon="-1.46867">
        <ele>73</ele>
        <time>2021-02-28T12:17:59.000Z</time>
      </trkpt>
      <trkpt lat="47.14583" lon="-1.46868">
        <ele>73</ele>
        <time>2021-02-28T12:18:00.000Z</time>
      </trkpt>
      <trkpt lat="47.14593" lon="-1.46866">
        <ele>72</ele>
        <time>2021-02-28T12:18:01.000Z</time>
      </trkpt>
      <trkpt lat="47.14603" lon="-1.46865">
        <ele>72</ele>
        <time>2021-02-28T12:18:02.000Z</time>
      </trkpt>
      <trkpt lat="47.14613" lon="-1.46863">
        <ele>73</ele>
        <time>2021-02-28T12:18:03.000Z</time>
      </trkpt>
      <trkpt lat="47.14623" lon="-1.46861">
        <ele>73</ele>
        <time>2021-02-28T12:18:04.000Z</time>
      </trkpt>
      <trkpt lat="47.14641" lon="-1.46859">
        <ele>72</ele>
        <time>2021-02-28T12:18:06.000Z</time>
      </trkpt>
      <trkpt lat="47.14658" lon="-1.46857">
        <ele>71</ele>
        <time>2021-02-28T12:18:08.000Z</time>
      </trkpt>
      <trkpt lat="47.14675" lon="-1.46856">
        <ele>70</ele>
        <time>2021-02-28T12:18:10.000Z</time>
      </trkpt>
      <trkpt lat="47.14691" lon="-1.46854">
        <ele>68</ele>
        <time>2021-02-28T12:18:12.000Z</time>
      </trkpt>
      <trkpt lat="47.14707" lon="-1.46853">
        <ele>67</ele>
        <time>2021-02-28T12:18:14.000Z</time>
      </trkpt>
      <trkpt lat="47.14723" lon="-1.46853">
        <ele>66</ele>
        <time>2021-02-28T12:18:16.000Z</time>
      </trkpt>
      <trkpt lat="47.1474" lon="-1.46853">
        <ele>66</ele>
        <time>2021-02-28T12:18:18.000Z</time>
      </trkpt>
      <trkpt lat="47.14757" lon="-1.46852">
        <ele>66</ele>
        <time>2021-02-28T12:18:20.000Z</time>
      </trkpt>
      <trkpt lat="47.14772" lon="-1.46852">
        <ele>65</ele>
        <time>2021-02-28T12:18:22.000Z</time>
      </trkpt>
      <trkpt lat="47.14787" lon="-1.46854">
        <ele>65</ele>
        <time>2021-02-28T12:18:24.000Z</time>
      </trkpt>
      <trkpt lat="47.14803" lon="-1.46856">
        <ele>64</ele>
        <time>2021-02-28T12:18:26.000Z</time>
      </trkpt>
      <trkpt lat="47.14819" lon="-1.46857">
        <ele>64</ele>
        <time>2021-02-28T12:18:28.000Z</time>
      </trkpt>
      <trkpt lat="47.14834" lon="-1.46859">
        <ele>63</ele>
        <time>2021-02-28T12:18:30.000Z</time>
      </trkpt>
      <trkpt lat="47.14849" lon="-1.46859">
        <ele>63</ele>
        <time>2021-02-28T12:18:32.000Z</time>
      </trkpt>
      <trkpt lat="47.14862" lon="-1.4686">
        <ele>63</ele>
        <time>2021-02-28T12:18:34.000Z</time>
      </trkpt>
      <trkpt lat="47.14876" lon="-1.4686">
        <ele>62</ele>
        <time>2021-02-28T12:18:36.000Z</time>
      </trkpt>
      <trkpt lat="47.1489" lon="-1.46861">
        <ele>61</ele>
        <time>2021-02-28T12:18:38.000Z</time>
      </trkpt>
      <trkpt lat="47.14904" lon="-1.46863">
        <ele>60</ele>
        <time>2021-02-28T12:18:40.000Z</time>
      </trkpt>
      <trkpt lat="47.14916" lon="-1.46861">
        <ele>59</ele>
        <time>2021-02-28T12:18:43.000Z</time>
      </trkpt>
      <trkpt lat="47.14925" lon="-1.46856">
        <ele>58</ele>
        <time>2021-02-28T12:18:45.000Z</time>
      </trkpt>
      <trkpt lat="47.14937" lon="-1.46859">
        <ele>57</ele>
        <time>2021-02-28T12:18:47.000Z</time>
      </trkpt>
      <trkpt lat="47.14952" lon="-1.46859">
        <ele>57</ele>
        <time>2021-02-28T12:18:49.000Z</time>
      </trkpt>
      <trkpt lat="47.14966" lon="-1.46858">
        <ele>55</ele>
        <time>2021-02-28T12:18:51.000Z</time>
      </trkpt>
      <trkpt lat="47.14979" lon="-1.46858">
        <ele>55</ele>
        <time>2021-02-28T12:18:53.000Z</time>
      </trkpt>
      <trkpt lat="47.14992" lon="-1.46857">
        <ele>55</ele>
        <time>2021-02-28T12:18:55.000Z</time>
      </trkpt>
      <trkpt lat="47.15005" lon="-1.46856">
        <ele>54</ele>
        <time>2021-02-28T12:18:57.000Z</time>
      </trkpt>
      <trkpt lat="47.15018" lon="-1.46855">
        <ele>54</ele>
        <time>2021-02-28T12:18:59.000Z</time>
      </trkpt>
      <trkpt lat="47.15029" lon="-1.46855">
        <ele>54</ele>
        <time>2021-02-28T12:19:01.000Z</time>
      </trkpt>
      <trkpt lat="47.1504" lon="-1.46855">
        <ele>53</ele>
        <time>2021-02-28T12:19:03.000Z</time>
      </trkpt>
      <trkpt lat="47.15052" lon="-1.46855">
        <ele>53</ele>
        <time>2021-02-28T12:19:05.000Z</time>
      </trkpt>
      <trkpt lat="47.15065" lon="-1.46855">
        <ele>53</ele>
        <time>2021-02-28T12:19:07.000Z</time>
      </trkpt>
      <trkpt lat="47.15077" lon="-1.46856">
        <ele>52</ele>
        <time>2021-02-28T12:19:09.000Z</time>
      </trkpt>
      <trkpt lat="47.15088" lon="-1.46855">
        <ele>52</ele>
        <time>2021-02-28T12:19:11.000Z</time>
      </trkpt>
      <trkpt lat="47.15101" lon="-1.46854">
        <ele>52</ele>
        <time>2021-02-28T12:19:13.000Z</time>
      </trkpt>
      <trkpt lat="47.15113" lon="-1.46853">
        <ele>53</ele>
        <time>2021-02-28T12:19:15.000Z</time>
      </trkpt>
      <trkpt lat="47.15126" lon="-1.46851">
        <ele>53</ele>
        <time>2021-02-28T12:19:17.000Z</time>
      </trkpt>
      <trkpt lat="47.15138" lon="-1.46849">
        <ele>53</ele>
        <time>2021-02-28T12:19:19.000Z</time>
      </trkpt>
      <trkpt lat="47.15151" lon="-1.46847">
        <ele>54</ele>
        <time>2021-02-28T12:19:21.000Z</time>
      </trkpt>
      <trkpt lat="47.15164" lon="-1.46847">
        <ele>53</ele>
        <time>2021-02-28T12:19:23.000Z</time>
      </trkpt>
      <trkpt lat="47.15177" lon="-1.46845">
        <ele>53</ele>
        <time>2021-02-28T12:19:25.000Z</time>
      </trkpt>
      <trkpt lat="47.1519" lon="-1.46844">
        <ele>53</ele>
        <time>2021-02-28T12:19:27.000Z</time>
      </trkpt>
      <trkpt lat="47.15203" lon="-1.46843">
        <ele>53</ele>
        <time>2021-02-28T12:19:29.000Z</time>
      </trkpt>
      <trkpt lat="47.15216" lon="-1.46842">
        <ele>53</ele>
        <time>2021-02-28T12:19:31.000Z</time>
      </trkpt>
      <trkpt lat="47.15229" lon="-1.4684">
        <ele>52</ele>
        <time>2021-02-28T12:19:33.000Z</time>
      </trkpt>
      <trkpt lat="47.15242" lon="-1.46838">
        <ele>52</ele>
        <time>2021-02-28T12:19:35.000Z</time>
      </trkpt>
      <trkpt lat="47.15254" lon="-1.46834">
        <ele>52</ele>
        <time>2021-02-28T12:19:37.000Z</time>
      </trkpt>
      <trkpt lat="47.15266" lon="-1.46831">
        <ele>53</ele>
        <time>2021-02-28T12:19:39.000Z</time>
      </trkpt>
      <trkpt lat="47.15278" lon="-1.46826">
        <ele>53</ele>
        <time>2021-02-28T12:19:41.000Z</time>
      </trkpt>
      <trkpt lat="47.15291" lon="-1.46822">
        <ele>53</ele>
        <time>2021-02-28T12:19:43.000Z</time>
      </trkpt>
      <trkpt lat="47.15303" lon="-1.46819">
        <ele>53</ele>
        <time>2021-02-28T12:19:45.000Z</time>
      </trkpt>
      <trkpt lat="47.15316" lon="-1.46814">
        <ele>52</ele>
        <time>2021-02-28T12:19:47.000Z</time>
      </trkpt>
      <trkpt lat="47.15327" lon="-1.46809">
        <ele>52</ele>
        <time>2021-02-28T12:19:49.000Z</time>
      </trkpt>
      <trkpt lat="47.15339" lon="-1.46803">
        <ele>51</ele>
        <time>2021-02-28T12:19:51.000Z</time>
      </trkpt>
      <trkpt lat="47.15351" lon="-1.46797">
        <ele>51</ele>
        <time>2021-02-28T12:19:53.000Z</time>
      </trkpt>
      <trkpt lat="47.15362" lon="-1.46791">
        <ele>52</ele>
        <time>2021-02-28T12:19:55.000Z</time>
      </trkpt>
      <trkpt lat="47.15373" lon="-1.46784">
        <ele>51</ele>
        <time>2021-02-28T12:19:57.000Z</time>
      </trkpt>
      <trkpt lat="47.15384" lon="-1.46777">
        <ele>52</ele>
        <time>2021-02-28T12:19:59.000Z</time>
      </trkpt>
      <trkpt lat="47.15394" lon="-1.46771">
        <ele>51</ele>
        <time>2021-02-28T12:20:01.000Z</time>
      </trkpt>
      <trkpt lat="47.15404" lon="-1.46765">
        <ele>52</ele>
        <time>2021-02-28T12:20:03.000Z</time>
      </trkpt>
      <trkpt lat="47.15413" lon="-1.46759">
        <ele>52</ele>
        <time>2021-02-28T12:20:05.000Z</time>
      </trkpt>
      <trkpt lat="47.15421" lon="-1.46753">
        <ele>52</ele>
        <time>2021-02-28T12:20:07.000Z</time>
      </trkpt>
      <trkpt lat="47.1543" lon="-1.46747">
        <ele>53</ele>
        <time>2021-02-28T12:20:09.000Z</time>
      </trkpt>
      <trkpt lat="47.15438" lon="-1.46741">
        <ele>53</ele>
        <time>2021-02-28T12:20:11.000Z</time>
      </trkpt>
      <trkpt lat="47.15446" lon="-1.46734">
        <ele>53</ele>
        <time>2021-02-28T12:20:13.000Z</time>
      </trkpt>
      <trkpt lat="47.15458" lon="-1.46725">
        <ele>55</ele>
        <time>2021-02-28T12:20:16.000Z</time>
      </trkpt>
      <trkpt lat="47.15469" lon="-1.46715">
        <ele>56</ele>
        <time>2021-02-28T12:20:19.000Z</time>
      </trkpt>
      <trkpt lat="47.15481" lon="-1.46706">
        <ele>56</ele>
        <time>2021-02-28T12:20:22.000Z</time>
      </trkpt>
      <trkpt lat="47.15492" lon="-1.46699">
        <ele>57</ele>
        <time>2021-02-28T12:20:25.000Z</time>
      </trkpt>
      <trkpt lat="47.15503" lon="-1.46691">
        <ele>58</ele>
        <time>2021-02-28T12:20:28.000Z</time>
      </trkpt>
      <trkpt lat="47.15515" lon="-1.46683">
        <ele>59</ele>
        <time>2021-02-28T12:20:31.000Z</time>
      </trkpt>
      <trkpt lat="47.15526" lon="-1.46676">
        <ele>60</ele>
        <time>2021-02-28T12:20:34.000Z</time>
      </trkpt>
      <trkpt lat="47.15536" lon="-1.46669">
        <ele>61</ele>
        <time>2021-02-28T12:20:37.000Z</time>
      </trkpt>
      <trkpt lat="47.15546" lon="-1.46663">
        <ele>62</ele>
        <time>2021-02-28T12:20:40.000Z</time>
      </trkpt>
      <trkpt lat="47.15557" lon="-1.46657">
        <ele>63</ele>
        <time>2021-02-28T12:20:43.000Z</time>
      </trkpt>
      <trkpt lat="47.15567" lon="-1.46652">
        <ele>63</ele>
        <time>2021-02-28T12:20:46.000Z</time>
      </trkpt>
      <trkpt lat="47.15578" lon="-1.46647">
        <ele>64</ele>
        <time>2021-02-28T12:20:49.000Z</time>
      </trkpt>
      <trkpt lat="47.15588" lon="-1.46642">
        <ele>65</ele>
        <time>2021-02-28T12:20:52.000Z</time>
      </trkpt>
      <trkpt lat="47.15599" lon="-1.46639">
        <ele>65</ele>
        <time>2021-02-28T12:20:55.000Z</time>
      </trkpt>
      <trkpt lat="47.1561" lon="-1.46636">
        <ele>66</ele>
        <time>2021-02-28T12:20:58.000Z</time>
      </trkpt>
      <trkpt lat="47.15621" lon="-1.46633">
        <ele>66</ele>
        <time>2021-02-28T12:21:01.000Z</time>
      </trkpt>
      <trkpt lat="47.15633" lon="-1.4663">
        <ele>66</ele>
        <time>2021-02-28T12:21:04.000Z</time>
      </trkpt>
      <trkpt lat="47.15644" lon="-1.46628">
        <ele>66</ele>
        <time>2021-02-28T12:21:07.000Z</time>
      </trkpt>
      <trkpt lat="47.15656" lon="-1.46626">
        <ele>66</ele>
        <time>2021-02-28T12:21:10.000Z</time>
      </trkpt>
      <trkpt lat="47.15668" lon="-1.46625">
        <ele>67</ele>
        <time>2021-02-28T12:21:13.000Z</time>
      </trkpt>
      <trkpt lat="47.15679" lon="-1.46624">
        <ele>67</ele>
        <time>2021-02-28T12:21:16.000Z</time>
      </trkpt>
      <trkpt lat="47.15692" lon="-1.46624">
        <ele>67</ele>
        <time>2021-02-28T12:21:19.000Z</time>
      </trkpt>
      <trkpt lat="47.15705" lon="-1.46624">
        <ele>68</ele>
        <time>2021-02-28T12:21:22.000Z</time>
      </trkpt>
      <trkpt lat="47.15718" lon="-1.46623">
        <ele>68</ele>
        <time>2021-02-28T12:21:25.000Z</time>
      </trkpt>
      <trkpt lat="47.15727" lon="-1.46622">
        <ele>68</ele>
        <time>2021-02-28T12:21:27.000Z</time>
      </trkpt>
      <trkpt lat="47.15737" lon="-1.46621">
        <ele>68</ele>
        <time>2021-02-28T12:21:29.000Z</time>
      </trkpt>
      <trkpt lat="47.1575" lon="-1.46621">
        <ele>69</ele>
        <time>2021-02-28T12:21:32.000Z</time>
      </trkpt>
      <trkpt lat="47.15763" lon="-1.4662">
        <ele>69</ele>
        <time>2021-02-28T12:21:35.000Z</time>
      </trkpt>
      <trkpt lat="47.15775" lon="-1.4662">
        <ele>69</ele>
        <time>2021-02-28T12:21:38.000Z</time>
      </trkpt>
      <trkpt lat="47.15787" lon="-1.46619">
        <ele>70</ele>
        <time>2021-02-28T12:21:41.000Z</time>
      </trkpt>
      <trkpt lat="47.15799" lon="-1.46619">
        <ele>70</ele>
        <time>2021-02-28T12:21:44.000Z</time>
      </trkpt>
      <trkpt lat="47.15808" lon="-1.46619">
        <ele>70</ele>
        <time>2021-02-28T12:21:46.000Z</time>
      </trkpt>
      <trkpt lat="47.15821" lon="-1.46618">
        <ele>69</ele>
        <time>2021-02-28T12:21:49.000Z</time>
      </trkpt>
      <trkpt lat="47.15835" lon="-1.46617">
        <ele>69</ele>
        <time>2021-02-28T12:21:52.000Z</time>
      </trkpt>
      <trkpt lat="47.15847" lon="-1.46616">
        <ele>69</ele>
        <time>2021-02-28T12:21:55.000Z</time>
      </trkpt>
      <trkpt lat="47.15859" lon="-1.46616">
        <ele>69</ele>
        <time>2021-02-28T12:21:58.000Z</time>
      </trkpt>
      <trkpt lat="47.15871" lon="-1.46616">
        <ele>71</ele>
        <time>2021-02-28T12:22:01.000Z</time>
      </trkpt>
      <trkpt lat="47.15884" lon="-1.46616">
        <ele>72</ele>
        <time>2021-02-28T12:22:04.000Z</time>
      </trkpt>
      <trkpt lat="47.15897" lon="-1.46615">
        <ele>72</ele>
        <time>2021-02-28T12:22:07.000Z</time>
      </trkpt>
      <trkpt lat="47.15909" lon="-1.46615">
        <ele>73</ele>
        <time>2021-02-28T12:22:10.000Z</time>
      </trkpt>
      <trkpt lat="47.15922" lon="-1.46616">
        <ele>74</ele>
        <time>2021-02-28T12:22:13.000Z</time>
      </trkpt>
      <trkpt lat="47.15935" lon="-1.46618">
        <ele>74</ele>
        <time>2021-02-28T12:22:16.000Z</time>
      </trkpt>
      <trkpt lat="47.15948" lon="-1.4662">
        <ele>75</ele>
        <time>2021-02-28T12:22:19.000Z</time>
      </trkpt>
      <trkpt lat="47.15961" lon="-1.46622">
        <ele>75</ele>
        <time>2021-02-28T12:22:22.000Z</time>
      </trkpt>
      <trkpt lat="47.15973" lon="-1.46625">
        <ele>75</ele>
        <time>2021-02-28T12:22:25.000Z</time>
      </trkpt>
      <trkpt lat="47.15985" lon="-1.46629">
        <ele>75</ele>
        <time>2021-02-28T12:22:28.000Z</time>
      </trkpt>
      <trkpt lat="47.15998" lon="-1.46633">
        <ele>76</ele>
        <time>2021-02-28T12:22:31.000Z</time>
      </trkpt>
      <trkpt lat="47.16007" lon="-1.46637">
        <ele>75</ele>
        <time>2021-02-28T12:22:33.000Z</time>
      </trkpt>
      <trkpt lat="47.16015" lon="-1.4664">
        <ele>76</ele>
        <time>2021-02-28T12:22:35.000Z</time>
      </trkpt>
      <trkpt lat="47.16027" lon="-1.46644">
        <ele>76</ele>
        <time>2021-02-28T12:22:38.000Z</time>
      </trkpt>
      <trkpt lat="47.16036" lon="-1.46649">
        <ele>77</ele>
        <time>2021-02-28T12:22:40.000Z</time>
      </trkpt>
      <trkpt lat="47.16044" lon="-1.46654">
        <ele>77</ele>
        <time>2021-02-28T12:22:42.000Z</time>
      </trkpt>
      <trkpt lat="47.16053" lon="-1.46659">
        <ele>77</ele>
        <time>2021-02-28T12:22:44.000Z</time>
      </trkpt>
      <trkpt lat="47.16062" lon="-1.46665">
        <ele>77</ele>
        <time>2021-02-28T12:22:46.000Z</time>
      </trkpt>
      <trkpt lat="47.16071" lon="-1.46671">
        <ele>76</ele>
        <time>2021-02-28T12:22:48.000Z</time>
      </trkpt>
      <trkpt lat="47.16079" lon="-1.46677">
        <ele>76</ele>
        <time>2021-02-28T12:22:50.000Z</time>
      </trkpt>
      <trkpt lat="47.16088" lon="-1.46683">
        <ele>75</ele>
        <time>2021-02-28T12:22:52.000Z</time>
      </trkpt>
      <trkpt lat="47.16098" lon="-1.4669">
        <ele>75</ele>
        <time>2021-02-28T12:22:54.000Z</time>
      </trkpt>
      <trkpt lat="47.16107" lon="-1.46697">
        <ele>75</ele>
        <time>2021-02-28T12:22:56.000Z</time>
      </trkpt>
      <trkpt lat="47.16117" lon="-1.46704">
        <ele>75</ele>
        <time>2021-02-28T12:22:58.000Z</time>
      </trkpt>
      <trkpt lat="47.16127" lon="-1.46712">
        <ele>75</ele>
        <time>2021-02-28T12:23:00.000Z</time>
      </trkpt>
      <trkpt lat="47.16138" lon="-1.4672">
        <ele>75</ele>
        <time>2021-02-28T12:23:02.000Z</time>
      </trkpt>
      <trkpt lat="47.16149" lon="-1.46729">
        <ele>74</ele>
        <time>2021-02-28T12:23:04.000Z</time>
      </trkpt>
      <trkpt lat="47.1616" lon="-1.46737">
        <ele>74</ele>
        <time>2021-02-28T12:23:06.000Z</time>
      </trkpt>
      <trkpt lat="47.16172" lon="-1.46745">
        <ele>74</ele>
        <time>2021-02-28T12:23:08.000Z</time>
      </trkpt>
      <trkpt lat="47.16185" lon="-1.46754">
        <ele>73</ele>
        <time>2021-02-28T12:23:10.000Z</time>
      </trkpt>
      <trkpt lat="47.16198" lon="-1.46762">
        <ele>73</ele>
        <time>2021-02-28T12:23:12.000Z</time>
      </trkpt>
      <trkpt lat="47.16211" lon="-1.46771">
        <ele>72</ele>
        <time>2021-02-28T12:23:14.000Z</time>
      </trkpt>
      <trkpt lat="47.16225" lon="-1.46782">
        <ele>72</ele>
        <time>2021-02-28T12:23:16.000Z</time>
      </trkpt>
      <trkpt lat="47.16239" lon="-1.4679">
        <ele>71</ele>
        <time>2021-02-28T12:23:18.000Z</time>
      </trkpt>
      <trkpt lat="47.16252" lon="-1.46796">
        <ele>72</ele>
        <time>2021-02-28T12:23:20.000Z</time>
      </trkpt>
      <trkpt lat="47.16264" lon="-1.46797">
        <ele>72</ele>
        <time>2021-02-28T12:23:22.000Z</time>
      </trkpt>
      <trkpt lat="47.16275" lon="-1.46799">
        <ele>73</ele>
        <time>2021-02-28T12:23:24.000Z</time>
      </trkpt>
      <trkpt lat="47.16285" lon="-1.46809">
        <ele>73</ele>
        <time>2021-02-28T12:23:26.000Z</time>
      </trkpt>
      <trkpt lat="47.16293" lon="-1.46821">
        <ele>72</ele>
        <time>2021-02-28T12:23:28.000Z</time>
      </trkpt>
      <trkpt lat="47.16303" lon="-1.46831">
        <ele>72</ele>
        <time>2021-02-28T12:23:30.000Z</time>
      </trkpt>
      <trkpt lat="47.16314" lon="-1.4684">
        <ele>71</ele>
        <time>2021-02-28T12:23:32.000Z</time>
      </trkpt>
      <trkpt lat="47.16324" lon="-1.46851">
        <ele>70</ele>
        <time>2021-02-28T12:23:34.000Z</time>
      </trkpt>
      <trkpt lat="47.16336" lon="-1.46863">
        <ele>69</ele>
        <time>2021-02-28T12:23:36.000Z</time>
      </trkpt>
      <trkpt lat="47.16349" lon="-1.46873">
        <ele>68</ele>
        <time>2021-02-28T12:23:38.000Z</time>
      </trkpt>
      <trkpt lat="47.16363" lon="-1.46884">
        <ele>68</ele>
        <time>2021-02-28T12:23:40.000Z</time>
      </trkpt>
      <trkpt lat="47.16377" lon="-1.46895">
        <ele>68</ele>
        <time>2021-02-28T12:23:42.000Z</time>
      </trkpt>
      <trkpt lat="47.16389" lon="-1.46907">
        <ele>67</ele>
        <time>2021-02-28T12:23:44.000Z</time>
      </trkpt>
      <trkpt lat="47.16399" lon="-1.46922">
        <ele>68</ele>
        <time>2021-02-28T12:23:46.000Z</time>
      </trkpt>
      <trkpt lat="47.16407" lon="-1.46938">
        <ele>68</ele>
        <time>2021-02-28T12:23:48.000Z</time>
      </trkpt>
      <trkpt lat="47.16415" lon="-1.46954">
        <ele>67</ele>
        <time>2021-02-28T12:23:50.000Z</time>
      </trkpt>
      <trkpt lat="47.16421" lon="-1.46971">
        <ele>67</ele>
        <time>2021-02-28T12:23:52.000Z</time>
      </trkpt>
      <trkpt lat="47.16427" lon="-1.46987">
        <ele>67</ele>
        <time>2021-02-28T12:23:54.000Z</time>
      </trkpt>
      <trkpt lat="47.16436" lon="-1.47001">
        <ele>67</ele>
        <time>2021-02-28T12:23:56.000Z</time>
      </trkpt>
      <trkpt lat="47.16446" lon="-1.47013">
        <ele>67</ele>
        <time>2021-02-28T12:23:58.000Z</time>
      </trkpt>
      <trkpt lat="47.16456" lon="-1.47022">
        <ele>68</ele>
        <time>2021-02-28T12:24:00.000Z</time>
      </trkpt>
      <trkpt lat="47.16466" lon="-1.47029">
        <ele>68</ele>
        <time>2021-02-28T12:24:02.000Z</time>
      </trkpt>
      <trkpt lat="47.16477" lon="-1.47035">
        <ele>68</ele>
        <time>2021-02-28T12:24:04.000Z</time>
      </trkpt>
      <trkpt lat="47.16487" lon="-1.4704">
        <ele>68</ele>
        <time>2021-02-28T12:24:06.000Z</time>
      </trkpt>
      <trkpt lat="47.16497" lon="-1.47048">
        <ele>68</ele>
        <time>2021-02-28T12:24:09.000Z</time>
      </trkpt>
      <trkpt lat="47.16503" lon="-1.47064">
        <ele>69</ele>
        <time>2021-02-28T12:24:12.000Z</time>
      </trkpt>
      <trkpt lat="47.16501" lon="-1.4708">
        <ele>69</ele>
        <time>2021-02-28T12:24:14.000Z</time>
      </trkpt>
      <trkpt lat="47.16498" lon="-1.47097">
        <ele>68</ele>
        <time>2021-02-28T12:24:16.000Z</time>
      </trkpt>
      <trkpt lat="47.16497" lon="-1.47114">
        <ele>67</ele>
        <time>2021-02-28T12:24:18.000Z</time>
      </trkpt>
      <trkpt lat="47.16497" lon="-1.47132">
        <ele>67</ele>
        <time>2021-02-28T12:24:20.000Z</time>
      </trkpt>
      <trkpt lat="47.16499" lon="-1.47147">
        <ele>67</ele>
        <time>2021-02-28T12:24:22.000Z</time>
      </trkpt>
      <trkpt lat="47.165" lon="-1.47164">
        <ele>67</ele>
        <time>2021-02-28T12:24:24.000Z</time>
      </trkpt>
      <trkpt lat="47.165" lon="-1.47181">
        <ele>67</ele>
        <time>2021-02-28T12:24:26.000Z</time>
      </trkpt>
      <trkpt lat="47.16501" lon="-1.47199">
        <ele>66</ele>
        <time>2021-02-28T12:24:28.000Z</time>
      </trkpt>
      <trkpt lat="47.16502" lon="-1.47217">
        <ele>66</ele>
        <time>2021-02-28T12:24:30.000Z</time>
      </trkpt>
      <trkpt lat="47.16503" lon="-1.47235">
        <ele>65</ele>
        <time>2021-02-28T12:24:32.000Z</time>
      </trkpt>
      <trkpt lat="47.16503" lon="-1.47252">
        <ele>65</ele>
        <time>2021-02-28T12:24:34.000Z</time>
      </trkpt>
      <trkpt lat="47.16504" lon="-1.47269">
        <ele>65</ele>
        <time>2021-02-28T12:24:36.000Z</time>
      </trkpt>
      <trkpt lat="47.16505" lon="-1.47286">
        <ele>65</ele>
        <time>2021-02-28T12:24:38.000Z</time>
      </trkpt>
      <trkpt lat="47.16508" lon="-1.47303">
        <ele>65</ele>
        <time>2021-02-28T12:24:40.000Z</time>
      </trkpt>
      <trkpt lat="47.16509" lon="-1.47319">
        <ele>65</ele>
        <time>2021-02-28T12:24:42.000Z</time>
      </trkpt>
      <trkpt lat="47.16513" lon="-1.47335">
        <ele>65</ele>
        <time>2021-02-28T12:24:44.000Z</time>
      </trkpt>
      <trkpt lat="47.16515" lon="-1.4735">
        <ele>65</ele>
        <time>2021-02-28T12:24:46.000Z</time>
      </trkpt>
      <trkpt lat="47.16519" lon="-1.47362">
        <ele>65</ele>
        <time>2021-02-28T12:24:48.000Z</time>
      </trkpt>
      <trkpt lat="47.16528" lon="-1.47367">
        <ele>65</ele>
        <time>2021-02-28T12:24:50.000Z</time>
      </trkpt>
      <trkpt lat="47.16537" lon="-1.47369">
        <ele>64</ele>
        <time>2021-02-28T12:24:52.000Z</time>
      </trkpt>
      <trkpt lat="47.16548" lon="-1.47369">
        <ele>64</ele>
        <time>2021-02-28T12:24:54.000Z</time>
      </trkpt>
      <trkpt lat="47.1656" lon="-1.47369">
        <ele>64</ele>
        <time>2021-02-28T12:24:56.000Z</time>
      </trkpt>
      <trkpt lat="47.16571" lon="-1.4737">
        <ele>64</ele>
        <time>2021-02-28T12:24:58.000Z</time>
      </trkpt>
      <trkpt lat="47.16582" lon="-1.47372">
        <ele>64</ele>
        <time>2021-02-28T12:25:00.000Z</time>
      </trkpt>
      <trkpt lat="47.16591" lon="-1.47374">
        <ele>65</ele>
        <time>2021-02-28T12:25:02.000Z</time>
      </trkpt>
      <trkpt lat="47.16601" lon="-1.47377">
        <ele>65</ele>
        <time>2021-02-28T12:25:04.000Z</time>
      </trkpt>
      <trkpt lat="47.1661" lon="-1.47379">
        <ele>65</ele>
        <time>2021-02-28T12:25:06.000Z</time>
      </trkpt>
      <trkpt lat="47.16623" lon="-1.47383">
        <ele>65</ele>
        <time>2021-02-28T12:25:09.000Z</time>
      </trkpt>
      <trkpt lat="47.16632" lon="-1.47387">
        <ele>65</ele>
        <time>2021-02-28T12:25:11.000Z</time>
      </trkpt>
      <trkpt lat="47.16641" lon="-1.4739">
        <ele>65</ele>
        <time>2021-02-28T12:25:13.000Z</time>
      </trkpt>
      <trkpt lat="47.16654" lon="-1.47392">
        <ele>66</ele>
        <time>2021-02-28T12:25:16.000Z</time>
      </trkpt>
      <trkpt lat="47.16666" lon="-1.47389">
        <ele>67</ele>
        <time>2021-02-28T12:25:19.000Z</time>
      </trkpt>
      <trkpt lat="47.16678" lon="-1.47386">
        <ele>69</ele>
        <time>2021-02-28T12:25:22.000Z</time>
      </trkpt>
      <trkpt lat="47.16691" lon="-1.47383">
        <ele>70</ele>
        <time>2021-02-28T12:25:25.000Z</time>
      </trkpt>
      <trkpt lat="47.16704" lon="-1.47381">
        <ele>70</ele>
        <time>2021-02-28T12:25:28.000Z</time>
      </trkpt>
      <trkpt lat="47.16715" lon="-1.47377">
        <ele>70</ele>
        <time>2021-02-28T12:25:31.000Z</time>
      </trkpt>
      <trkpt lat="47.16726" lon="-1.47375">
        <ele>72</ele>
        <time>2021-02-28T12:25:34.000Z</time>
      </trkpt>
      <trkpt lat="47.16737" lon="-1.47372">
        <ele>73</ele>
        <time>2021-02-28T12:25:37.000Z</time>
      </trkpt>
      <trkpt lat="47.16749" lon="-1.47369">
        <ele>73</ele>
        <time>2021-02-28T12:25:40.000Z</time>
      </trkpt>
      <trkpt lat="47.1676" lon="-1.47366">
        <ele>74</ele>
        <time>2021-02-28T12:25:43.000Z</time>
      </trkpt>
      <trkpt lat="47.16772" lon="-1.47363">
        <ele>74</ele>
        <time>2021-02-28T12:25:46.000Z</time>
      </trkpt>
      <trkpt lat="47.16784" lon="-1.47359">
        <ele>73</ele>
        <time>2021-02-28T12:25:49.000Z</time>
      </trkpt>
      <trkpt lat="47.16795" lon="-1.47357">
        <ele>73</ele>
        <time>2021-02-28T12:25:52.000Z</time>
      </trkpt>
      <trkpt lat="47.16803" lon="-1.47346">
        <ele>74</ele>
        <time>2021-02-28T12:25:56.000Z</time>
      </trkpt>
      <trkpt lat="47.16802" lon="-1.47327">
        <ele>77</ele>
        <time>2021-02-28T12:25:59.000Z</time>
      </trkpt>
      <trkpt lat="47.1681" lon="-1.47321">
        <ele>77</ele>
        <time>2021-02-28T12:26:03.000Z</time>
      </trkpt>
      <trkpt lat="47.16821" lon="-1.47323">
        <ele>77</ele>
        <time>2021-02-28T12:26:06.000Z</time>
      </trkpt>
      <trkpt lat="47.16831" lon="-1.47327">
        <ele>78</ele>
        <time>2021-02-28T12:26:08.000Z</time>
      </trkpt>
      <trkpt lat="47.16841" lon="-1.47328">
        <ele>79</ele>
        <time>2021-02-28T12:26:10.000Z</time>
      </trkpt>
      <trkpt lat="47.16851" lon="-1.47325">
        <ele>79</ele>
        <time>2021-02-28T12:26:13.000Z</time>
      </trkpt>
      <trkpt lat="47.16858" lon="-1.47311">
        <ele>80</ele>
        <time>2021-02-28T12:26:16.000Z</time>
      </trkpt>
      <trkpt lat="47.16862" lon="-1.47298">
        <ele>80</ele>
        <time>2021-02-28T12:26:19.000Z</time>
      </trkpt>
      <trkpt lat="47.16869" lon="-1.47287">
        <ele>80</ele>
        <time>2021-02-28T12:26:22.000Z</time>
      </trkpt>
      <trkpt lat="47.16879" lon="-1.47288">
        <ele>80</ele>
        <time>2021-02-28T12:26:24.000Z</time>
      </trkpt>
      <trkpt lat="47.16889" lon="-1.47288">
        <ele>80</ele>
        <time>2021-02-28T12:26:26.000Z</time>
      </trkpt>
      <trkpt lat="47.16902" lon="-1.47287">
        <ele>79</ele>
        <time>2021-02-28T12:26:29.000Z</time>
      </trkpt>
      <trkpt lat="47.16912" lon="-1.47288">
        <ele>79</ele>
        <time>2021-02-28T12:26:31.000Z</time>
      </trkpt>
      <trkpt lat="47.16922" lon="-1.47289">
        <ele>80</ele>
        <time>2021-02-28T12:26:33.000Z</time>
      </trkpt>
      <trkpt lat="47.16933" lon="-1.4729">
        <ele>82</ele>
        <time>2021-02-28T12:26:35.000Z</time>
      </trkpt>
      <trkpt lat="47.16946" lon="-1.47293">
        <ele>82</ele>
        <time>2021-02-28T12:26:37.000Z</time>
      </trkpt>
      <trkpt lat="47.16956" lon="-1.47297">
        <ele>81</ele>
        <time>2021-02-28T12:26:39.000Z</time>
      </trkpt>
      <trkpt lat="47.16964" lon="-1.47309">
        <ele>81</ele>
        <time>2021-02-28T12:26:41.000Z</time>
      </trkpt>
      <trkpt lat="47.16973" lon="-1.4732">
        <ele>80</ele>
        <time>2021-02-28T12:26:43.000Z</time>
      </trkpt>
      <trkpt lat="47.16986" lon="-1.4732">
        <ele>79</ele>
        <time>2021-02-28T12:26:45.000Z</time>
      </trkpt>
      <trkpt lat="47.16999" lon="-1.47319">
        <ele>78</ele>
        <time>2021-02-28T12:26:47.000Z</time>
      </trkpt>
      <trkpt lat="47.17013" lon="-1.47317">
        <ele>78</ele>
        <time>2021-02-28T12:26:49.000Z</time>
      </trkpt>
      <trkpt lat="47.17027" lon="-1.47315">
        <ele>76</ele>
        <time>2021-02-28T12:26:51.000Z</time>
      </trkpt>
      <trkpt lat="47.17042" lon="-1.47312">
        <ele>75</ele>
        <time>2021-02-28T12:26:53.000Z</time>
      </trkpt>
      <trkpt lat="47.17058" lon="-1.47311">
        <ele>74</ele>
        <time>2021-02-28T12:26:55.000Z</time>
      </trkpt>
      <trkpt lat="47.17074" lon="-1.47308">
        <ele>73</ele>
        <time>2021-02-28T12:26:57.000Z</time>
      </trkpt>
      <trkpt lat="47.17083" lon="-1.47306">
        <ele>71</ele>
        <time>2021-02-28T12:26:58.000Z</time>
      </trkpt>
      <trkpt lat="47.17101" lon="-1.47304">
        <ele>69</ele>
        <time>2021-02-28T12:27:00.000Z</time>
      </trkpt>
      <trkpt lat="47.1711" lon="-1.47304">
        <ele>69</ele>
        <time>2021-02-28T12:27:01.000Z</time>
      </trkpt>
      <trkpt lat="47.1712" lon="-1.47304">
        <ele>68</ele>
        <time>2021-02-28T12:27:02.000Z</time>
      </trkpt>
      <trkpt lat="47.17129" lon="-1.47303">
        <ele>68</ele>
        <time>2021-02-28T12:27:03.000Z</time>
      </trkpt>
      <trkpt lat="47.17138" lon="-1.47302">
        <ele>68</ele>
        <time>2021-02-28T12:27:04.000Z</time>
      </trkpt>
      <trkpt lat="47.17147" lon="-1.473">
        <ele>67</ele>
        <time>2021-02-28T12:27:05.000Z</time>
      </trkpt>
      <trkpt lat="47.17157" lon="-1.47299">
        <ele>67</ele>
        <time>2021-02-28T12:27:06.000Z</time>
      </trkpt>
      <trkpt lat="47.17166" lon="-1.47299">
        <ele>66</ele>
        <time>2021-02-28T12:27:07.000Z</time>
      </trkpt>
      <trkpt lat="47.17183" lon="-1.47298">
        <ele>64</ele>
        <time>2021-02-28T12:27:09.000Z</time>
      </trkpt>
      <trkpt lat="47.172" lon="-1.47296">
        <ele>63</ele>
        <time>2021-02-28T12:27:11.000Z</time>
      </trkpt>
      <trkpt lat="47.17217" lon="-1.47295">
        <ele>63</ele>
        <time>2021-02-28T12:27:13.000Z</time>
      </trkpt>
      <trkpt lat="47.17233" lon="-1.47292">
        <ele>63</ele>
        <time>2021-02-28T12:27:15.000Z</time>
      </trkpt>
      <trkpt lat="47.17249" lon="-1.47291">
        <ele>63</ele>
        <time>2021-02-28T12:27:17.000Z</time>
      </trkpt>
      <trkpt lat="47.17263" lon="-1.47287">
        <ele>63</ele>
        <time>2021-02-28T12:27:19.000Z</time>
      </trkpt>
      <trkpt lat="47.17275" lon="-1.47277">
        <ele>62</ele>
        <time>2021-02-28T12:27:21.000Z</time>
      </trkpt>
      <trkpt lat="47.17287" lon="-1.47272">
        <ele>61</ele>
        <time>2021-02-28T12:27:23.000Z</time>
      </trkpt>
      <trkpt lat="47.17293" lon="-1.47287">
        <ele>61</ele>
        <time>2021-02-28T12:27:25.000Z</time>
      </trkpt>
      <trkpt lat="47.17296" lon="-1.47304">
        <ele>60</ele>
        <time>2021-02-28T12:27:27.000Z</time>
      </trkpt>
      <trkpt lat="47.17299" lon="-1.47322">
        <ele>59</ele>
        <time>2021-02-28T12:27:29.000Z</time>
      </trkpt>
      <trkpt lat="47.17302" lon="-1.47338">
        <ele>58</ele>
        <time>2021-02-28T12:27:31.000Z</time>
      </trkpt>
      <trkpt lat="47.17307" lon="-1.47355">
        <ele>58</ele>
        <time>2021-02-28T12:27:33.000Z</time>
      </trkpt>
      <trkpt lat="47.17316" lon="-1.47366">
        <ele>58</ele>
        <time>2021-02-28T12:27:35.000Z</time>
      </trkpt>
      <trkpt lat="47.1733" lon="-1.47366">
        <ele>58</ele>
        <time>2021-02-28T12:27:37.000Z</time>
      </trkpt>
      <trkpt lat="47.17345" lon="-1.47361">
        <ele>58</ele>
        <time>2021-02-28T12:27:39.000Z</time>
      </trkpt>
      <trkpt lat="47.1736" lon="-1.47356">
        <ele>58</ele>
        <time>2021-02-28T12:27:41.000Z</time>
      </trkpt>
      <trkpt lat="47.17373" lon="-1.47354">
        <ele>57</ele>
        <time>2021-02-28T12:27:43.000Z</time>
      </trkpt>
      <trkpt lat="47.17386" lon="-1.47353">
        <ele>57</ele>
        <time>2021-02-28T12:27:45.000Z</time>
      </trkpt>
      <trkpt lat="47.17399" lon="-1.47352">
        <ele>56</ele>
        <time>2021-02-28T12:27:47.000Z</time>
      </trkpt>
      <trkpt lat="47.17412" lon="-1.47351">
        <ele>55</ele>
        <time>2021-02-28T12:27:49.000Z</time>
      </trkpt>
      <trkpt lat="47.17425" lon="-1.47349">
        <ele>55</ele>
        <time>2021-02-28T12:27:51.000Z</time>
      </trkpt>
      <trkpt lat="47.17437" lon="-1.47348">
        <ele>55</ele>
        <time>2021-02-28T12:27:53.000Z</time>
      </trkpt>
      <trkpt lat="47.17449" lon="-1.47349">
        <ele>55</ele>
        <time>2021-02-28T12:27:55.000Z</time>
      </trkpt>
      <trkpt lat="47.17462" lon="-1.47349">
        <ele>55</ele>
        <time>2021-02-28T12:27:57.000Z</time>
      </trkpt>
      <trkpt lat="47.17475" lon="-1.47348">
        <ele>55</ele>
        <time>2021-02-28T12:27:59.000Z</time>
      </trkpt>
      <trkpt lat="47.17488" lon="-1.47349">
        <ele>54</ele>
        <time>2021-02-28T12:28:01.000Z</time>
      </trkpt>
      <trkpt lat="47.17502" lon="-1.47351">
        <ele>54</ele>
        <time>2021-02-28T12:28:03.000Z</time>
      </trkpt>
      <trkpt lat="47.17515" lon="-1.47351">
        <ele>54</ele>
        <time>2021-02-28T12:28:05.000Z</time>
      </trkpt>
      <trkpt lat="47.17529" lon="-1.4735">
        <ele>53</ele>
        <time>2021-02-28T12:28:07.000Z</time>
      </trkpt>
      <trkpt lat="47.17542" lon="-1.47351">
        <ele>53</ele>
        <time>2021-02-28T12:28:09.000Z</time>
      </trkpt>
      <trkpt lat="47.17555" lon="-1.47352">
        <ele>52</ele>
        <time>2021-02-28T12:28:11.000Z</time>
      </trkpt>
      <trkpt lat="47.17568" lon="-1.47353">
        <ele>51</ele>
        <time>2021-02-28T12:28:13.000Z</time>
      </trkpt>
      <trkpt lat="47.17581" lon="-1.47356">
        <ele>51</ele>
        <time>2021-02-28T12:28:15.000Z</time>
      </trkpt>
      <trkpt lat="47.17594" lon="-1.47358">
        <ele>51</ele>
        <time>2021-02-28T12:28:17.000Z</time>
      </trkpt>
      <trkpt lat="47.17607" lon="-1.47362">
        <ele>51</ele>
        <time>2021-02-28T12:28:19.000Z</time>
      </trkpt>
      <trkpt lat="47.1762" lon="-1.47364">
        <ele>50</ele>
        <time>2021-02-28T12:28:21.000Z</time>
      </trkpt>
      <trkpt lat="47.17633" lon="-1.47367">
        <ele>50</ele>
        <time>2021-02-28T12:28:23.000Z</time>
      </trkpt>
      <trkpt lat="47.17645" lon="-1.47372">
        <ele>50</ele>
        <time>2021-02-28T12:28:25.000Z</time>
      </trkpt>
      <trkpt lat="47.17657" lon="-1.47378">
        <ele>50</ele>
        <time>2021-02-28T12:28:27.000Z</time>
      </trkpt>
      <trkpt lat="47.17668" lon="-1.47384">
        <ele>50</ele>
        <time>2021-02-28T12:28:29.000Z</time>
      </trkpt>
      <trkpt lat="47.17679" lon="-1.4739">
        <ele>50</ele>
        <time>2021-02-28T12:28:31.000Z</time>
      </trkpt>
      <trkpt lat="47.1769" lon="-1.47395">
        <ele>50</ele>
        <time>2021-02-28T12:28:33.000Z</time>
      </trkpt>
      <trkpt lat="47.17702" lon="-1.47401">
        <ele>50</ele>
        <time>2021-02-28T12:28:35.000Z</time>
      </trkpt>
      <trkpt lat="47.17714" lon="-1.47405">
        <ele>50</ele>
        <time>2021-02-28T12:28:37.000Z</time>
      </trkpt>
      <trkpt lat="47.17726" lon="-1.4741">
        <ele>50</ele>
        <time>2021-02-28T12:28:39.000Z</time>
      </trkpt>
      <trkpt lat="47.17737" lon="-1.47415">
        <ele>50</ele>
        <time>2021-02-28T12:28:41.000Z</time>
      </trkpt>
      <trkpt lat="47.17749" lon="-1.47421">
        <ele>50</ele>
        <time>2021-02-28T12:28:43.000Z</time>
      </trkpt>
      <trkpt lat="47.1776" lon="-1.47429">
        <ele>51</ele>
        <time>2021-02-28T12:28:45.000Z</time>
      </trkpt>
      <trkpt lat="47.17772" lon="-1.47434">
        <ele>51</ele>
        <time>2021-02-28T12:28:47.000Z</time>
      </trkpt>
      <trkpt lat="47.17784" lon="-1.4744">
        <ele>51</ele>
        <time>2021-02-28T12:28:49.000Z</time>
      </trkpt>
      <trkpt lat="47.17796" lon="-1.47446">
        <ele>51</ele>
        <time>2021-02-28T12:28:51.000Z</time>
      </trkpt>
      <trkpt lat="47.17809" lon="-1.47451">
        <ele>51</ele>
        <time>2021-02-28T12:28:53.000Z</time>
      </trkpt>
      <trkpt lat="47.17821" lon="-1.47455">
        <ele>50</ele>
        <time>2021-02-28T12:28:55.000Z</time>
      </trkpt>
      <trkpt lat="47.17833" lon="-1.47458">
        <ele>50</ele>
        <time>2021-02-28T12:28:57.000Z</time>
      </trkpt>
      <trkpt lat="47.17845" lon="-1.47462">
        <ele>50</ele>
        <time>2021-02-28T12:28:59.000Z</time>
      </trkpt>
      <trkpt lat="47.17856" lon="-1.47466">
        <ele>50</ele>
        <time>2021-02-28T12:29:01.000Z</time>
      </trkpt>
      <trkpt lat="47.17868" lon="-1.4747">
        <ele>50</ele>
        <time>2021-02-28T12:29:03.000Z</time>
      </trkpt>
      <trkpt lat="47.17878" lon="-1.47471">
        <ele>51</ele>
        <time>2021-02-28T12:29:05.000Z</time>
      </trkpt>
      <trkpt lat="47.17887" lon="-1.47471">
        <ele>51</ele>
        <time>2021-02-28T12:29:07.000Z</time>
      </trkpt>
      <trkpt lat="47.17897" lon="-1.47468">
        <ele>51</ele>
        <time>2021-02-28T12:29:09.000Z</time>
      </trkpt>
      <trkpt lat="47.17909" lon="-1.47466">
        <ele>51</ele>
        <time>2021-02-28T12:29:11.000Z</time>
      </trkpt>
      <trkpt lat="47.17921" lon="-1.4747">
        <ele>52</ele>
        <time>2021-02-28T12:29:13.000Z</time>
      </trkpt>
      <trkpt lat="47.17932" lon="-1.4748">
        <ele>52</ele>
        <time>2021-02-28T12:29:15.000Z</time>
      </trkpt>
      <trkpt lat="47.17942" lon="-1.47487">
        <ele>53</ele>
        <time>2021-02-28T12:29:17.000Z</time>
      </trkpt>
      <trkpt lat="47.17954" lon="-1.4749">
        <ele>53</ele>
        <time>2021-02-28T12:29:19.000Z</time>
      </trkpt>
      <trkpt lat="47.17964" lon="-1.47494">
        <ele>54</ele>
        <time>2021-02-28T12:29:21.000Z</time>
      </trkpt>
      <trkpt lat="47.17975" lon="-1.47497">
        <ele>54</ele>
        <time>2021-02-28T12:29:23.000Z</time>
      </trkpt>
      <trkpt lat="47.17986" lon="-1.47501">
        <ele>54</ele>
        <time>2021-02-28T12:29:25.000Z</time>
      </trkpt>
      <trkpt lat="47.17997" lon="-1.47504">
        <ele>54</ele>
        <time>2021-02-28T12:29:27.000Z</time>
      </trkpt>
      <trkpt lat="47.18009" lon="-1.47507">
        <ele>54</ele>
        <time>2021-02-28T12:29:29.000Z</time>
      </trkpt>
      <trkpt lat="47.1802" lon="-1.4751">
        <ele>54</ele>
        <time>2021-02-28T12:29:31.000Z</time>
      </trkpt>
      <trkpt lat="47.18031" lon="-1.47513">
        <ele>54</ele>
        <time>2021-02-28T12:29:33.000Z</time>
      </trkpt>
      <trkpt lat="47.18042" lon="-1.47516">
        <ele>53</ele>
        <time>2021-02-28T12:29:35.000Z</time>
      </trkpt>
      <trkpt lat="47.18052" lon="-1.47519">
        <ele>54</ele>
        <time>2021-02-28T12:29:37.000Z</time>
      </trkpt>
      <trkpt lat="47.18063" lon="-1.47521">
        <ele>53</ele>
        <time>2021-02-28T12:29:39.000Z</time>
      </trkpt>
      <trkpt lat="47.18074" lon="-1.47524">
        <ele>53</ele>
        <time>2021-02-28T12:29:41.000Z</time>
      </trkpt>
      <trkpt lat="47.18085" lon="-1.47526">
        <ele>53</ele>
        <time>2021-02-28T12:29:43.000Z</time>
      </trkpt>
      <trkpt lat="47.18095" lon="-1.47529">
        <ele>53</ele>
        <time>2021-02-28T12:29:45.000Z</time>
      </trkpt>
      <trkpt lat="47.18105" lon="-1.47532">
        <ele>53</ele>
        <time>2021-02-28T12:29:47.000Z</time>
      </trkpt>
      <trkpt lat="47.18116" lon="-1.47535">
        <ele>53</ele>
        <time>2021-02-28T12:29:49.000Z</time>
      </trkpt>
      <trkpt lat="47.18127" lon="-1.47537">
        <ele>54</ele>
        <time>2021-02-28T12:29:51.000Z</time>
      </trkpt>
      <trkpt lat="47.18138" lon="-1.47539">
        <ele>54</ele>
        <time>2021-02-28T12:29:53.000Z</time>
      </trkpt>
      <trkpt lat="47.18149" lon="-1.47542">
        <ele>54</ele>
        <time>2021-02-28T12:29:55.000Z</time>
      </trkpt>
      <trkpt lat="47.18159" lon="-1.47544">
        <ele>53</ele>
        <time>2021-02-28T12:29:57.000Z</time>
      </trkpt>
      <trkpt lat="47.1817" lon="-1.47546">
        <ele>53</ele>
        <time>2021-02-28T12:29:59.000Z</time>
      </trkpt>
      <trkpt lat="47.1818" lon="-1.47549">
        <ele>54</ele>
        <time>2021-02-28T12:30:01.000Z</time>
      </trkpt>
      <trkpt lat="47.18189" lon="-1.4755">
        <ele>54</ele>
        <time>2021-02-28T12:30:03.000Z</time>
      </trkpt>
      <trkpt lat="47.18198" lon="-1.47552">
        <ele>55</ele>
        <time>2021-02-28T12:30:05.000Z</time>
      </trkpt>
      <trkpt lat="47.18208" lon="-1.47555">
        <ele>55</ele>
        <time>2021-02-28T12:30:07.000Z</time>
      </trkpt>
      <trkpt lat="47.18218" lon="-1.47557">
        <ele>56</ele>
        <time>2021-02-28T12:30:09.000Z</time>
      </trkpt>
      <trkpt lat="47.18228" lon="-1.4756">
        <ele>56</ele>
        <time>2021-02-28T12:30:11.000Z</time>
      </trkpt>
      <trkpt lat="47.18238" lon="-1.47562">
        <ele>56</ele>
        <time>2021-02-28T12:30:13.000Z</time>
      </trkpt>
      <trkpt lat="47.18247" lon="-1.47565">
        <ele>57</ele>
        <time>2021-02-28T12:30:15.000Z</time>
      </trkpt>
      <trkpt lat="47.18256" lon="-1.47568">
        <ele>57</ele>
        <time>2021-02-28T12:30:17.000Z</time>
      </trkpt>
      <trkpt lat="47.18266" lon="-1.47571">
        <ele>58</ele>
        <time>2021-02-28T12:30:19.000Z</time>
      </trkpt>
      <trkpt lat="47.18275" lon="-1.47574">
        <ele>59</ele>
        <time>2021-02-28T12:30:21.000Z</time>
      </trkpt>
      <trkpt lat="47.18285" lon="-1.47577">
        <ele>59</ele>
        <time>2021-02-28T12:30:23.000Z</time>
      </trkpt>
      <trkpt lat="47.18294" lon="-1.47581">
        <ele>59</ele>
        <time>2021-02-28T12:30:25.000Z</time>
      </trkpt>
      <trkpt lat="47.18303" lon="-1.47585">
        <ele>59</ele>
        <time>2021-02-28T12:30:27.000Z</time>
      </trkpt>
      <trkpt lat="47.18313" lon="-1.47586">
        <ele>59</ele>
        <time>2021-02-28T12:30:29.000Z</time>
      </trkpt>
      <trkpt lat="47.18322" lon="-1.47589">
        <ele>59</ele>
        <time>2021-02-28T12:30:31.000Z</time>
      </trkpt>
      <trkpt lat="47.18331" lon="-1.47592">
        <ele>59</ele>
        <time>2021-02-28T12:30:33.000Z</time>
      </trkpt>
      <trkpt lat="47.18341" lon="-1.47595">
        <ele>60</ele>
        <time>2021-02-28T12:30:35.000Z</time>
      </trkpt>
      <trkpt lat="47.18354" lon="-1.476">
        <ele>61</ele>
        <time>2021-02-28T12:30:38.000Z</time>
      </trkpt>
      <trkpt lat="47.18367" lon="-1.47601">
        <ele>61</ele>
        <time>2021-02-28T12:30:41.000Z</time>
      </trkpt>
      <trkpt lat="47.18376" lon="-1.47603">
        <ele>61</ele>
        <time>2021-02-28T12:30:44.000Z</time>
      </trkpt>
      <trkpt lat="47.18387" lon="-1.47606">
        <ele>61</ele>
        <time>2021-02-28T12:30:48.000Z</time>
      </trkpt>
      <trkpt lat="47.18395" lon="-1.47609">
        <ele>62</ele>
        <time>2021-02-28T12:30:55.000Z</time>
      </trkpt>
      <trkpt lat="47.18408" lon="-1.47612">
        <ele>63</ele>
        <time>2021-02-28T12:31:09.000Z</time>
      </trkpt>
      <trkpt lat="47.18419" lon="-1.47615">
        <ele>64</ele>
        <time>2021-02-28T12:31:12.000Z</time>
      </trkpt>
      <trkpt lat="47.1843" lon="-1.47619">
        <ele>64</ele>
        <time>2021-02-28T12:31:15.000Z</time>
      </trkpt>
      <trkpt lat="47.18442" lon="-1.47623">
        <ele>64</ele>
        <time>2021-02-28T12:31:18.000Z</time>
      </trkpt>
      <trkpt lat="47.18453" lon="-1.47628">
        <ele>65</ele>
        <time>2021-02-28T12:31:21.000Z</time>
      </trkpt>
      <trkpt lat="47.18463" lon="-1.47631">
        <ele>66</ele>
        <time>2021-02-28T12:31:24.000Z</time>
      </trkpt>
      <trkpt lat="47.18474" lon="-1.47635">
        <ele>67</ele>
        <time>2021-02-28T12:31:27.000Z</time>
      </trkpt>
      <trkpt lat="47.18485" lon="-1.47638">
        <ele>69</ele>
        <time>2021-02-28T12:31:30.000Z</time>
      </trkpt>
      <trkpt lat="47.18497" lon="-1.47641">
        <ele>69</ele>
        <time>2021-02-28T12:31:33.000Z</time>
      </trkpt>
      <trkpt lat="47.18509" lon="-1.47644">
        <ele>69</ele>
        <time>2021-02-28T12:31:36.000Z</time>
      </trkpt>
      <trkpt lat="47.18521" lon="-1.47646">
        <ele>69</ele>
        <time>2021-02-28T12:31:39.000Z</time>
      </trkpt>
      <trkpt lat="47.18533" lon="-1.47646">
        <ele>69</ele>
        <time>2021-02-28T12:31:42.000Z</time>
      </trkpt>
      <trkpt lat="47.18544" lon="-1.47648">
        <ele>69</ele>
        <time>2021-02-28T12:31:45.000Z</time>
      </trkpt>
      <trkpt lat="47.18555" lon="-1.47651">
        <ele>70</ele>
        <time>2021-02-28T12:31:48.000Z</time>
      </trkpt>
      <trkpt lat="47.18567" lon="-1.47654">
        <ele>71</ele>
        <time>2021-02-28T12:31:51.000Z</time>
      </trkpt>
      <trkpt lat="47.18578" lon="-1.47658">
        <ele>71</ele>
        <time>2021-02-28T12:31:54.000Z</time>
      </trkpt>
      <trkpt lat="47.18589" lon="-1.47662">
        <ele>72</ele>
        <time>2021-02-28T12:31:57.000Z</time>
      </trkpt>
      <trkpt lat="47.18602" lon="-1.47665">
        <ele>72</ele>
        <time>2021-02-28T12:32:00.000Z</time>
      </trkpt>
      <trkpt lat="47.18611" lon="-1.47667">
        <ele>73</ele>
        <time>2021-02-28T12:32:02.000Z</time>
      </trkpt>
      <trkpt lat="47.18624" lon="-1.4767">
        <ele>72</ele>
        <time>2021-02-28T12:32:05.000Z</time>
      </trkpt>
      <trkpt lat="47.18637" lon="-1.47672">
        <ele>73</ele>
        <time>2021-02-28T12:32:08.000Z</time>
      </trkpt>
      <trkpt lat="47.18646" lon="-1.47674">
        <ele>72</ele>
        <time>2021-02-28T12:32:10.000Z</time>
      </trkpt>
      <trkpt lat="47.1866" lon="-1.47676">
        <ele>72</ele>
        <time>2021-02-28T12:32:13.000Z</time>
      </trkpt>
      <trkpt lat="47.1867" lon="-1.47679">
        <ele>73</ele>
        <time>2021-02-28T12:32:15.000Z</time>
      </trkpt>
      <trkpt lat="47.1868" lon="-1.47683">
        <ele>73</ele>
        <time>2021-02-28T12:32:17.000Z</time>
      </trkpt>
      <trkpt lat="47.18694" lon="-1.47683">
        <ele>74</ele>
        <time>2021-02-28T12:32:20.000Z</time>
      </trkpt>
      <trkpt lat="47.18707" lon="-1.4768">
        <ele>74</ele>
        <time>2021-02-28T12:32:23.000Z</time>
      </trkpt>
      <trkpt lat="47.18715" lon="-1.47667">
        <ele>74</ele>
        <time>2021-02-28T12:32:26.000Z</time>
      </trkpt>
      <trkpt lat="47.18722" lon="-1.4765">
        <ele>75</ele>
        <time>2021-02-28T12:32:29.000Z</time>
      </trkpt>
      <trkpt lat="47.18726" lon="-1.47638">
        <ele>75</ele>
        <time>2021-02-28T12:32:31.000Z</time>
      </trkpt>
      <trkpt lat="47.18734" lon="-1.47622">
        <ele>75</ele>
        <time>2021-02-28T12:32:34.000Z</time>
      </trkpt>
      <trkpt lat="47.18741" lon="-1.47606">
        <ele>75</ele>
        <time>2021-02-28T12:32:37.000Z</time>
      </trkpt>
      <trkpt lat="47.18749" lon="-1.4759">
        <ele>75</ele>
        <time>2021-02-28T12:32:40.000Z</time>
      </trkpt>
      <trkpt lat="47.18755" lon="-1.47579">
        <ele>75</ele>
        <time>2021-02-28T12:32:42.000Z</time>
      </trkpt>
      <trkpt lat="47.18762" lon="-1.47564">
        <ele>75</ele>
        <time>2021-02-28T12:32:45.000Z</time>
      </trkpt>
      <trkpt lat="47.18769" lon="-1.47549">
        <ele>75</ele>
        <time>2021-02-28T12:32:48.000Z</time>
      </trkpt>
      <trkpt lat="47.18775" lon="-1.47538">
        <ele>75</ele>
        <time>2021-02-28T12:32:50.000Z</time>
      </trkpt>
      <trkpt lat="47.1878" lon="-1.47527">
        <ele>75</ele>
        <time>2021-02-28T12:32:52.000Z</time>
      </trkpt>
      <trkpt lat="47.18786" lon="-1.47515">
        <ele>75</ele>
        <time>2021-02-28T12:32:54.000Z</time>
      </trkpt>
      <trkpt lat="47.18791" lon="-1.47503">
        <ele>75</ele>
        <time>2021-02-28T12:32:56.000Z</time>
      </trkpt>
      <trkpt lat="47.18796" lon="-1.47492">
        <ele>75</ele>
        <time>2021-02-28T12:32:58.000Z</time>
      </trkpt>
      <trkpt lat="47.18802" lon="-1.4748">
        <ele>75</ele>
        <time>2021-02-28T12:33:00.000Z</time>
      </trkpt>
      <trkpt lat="47.18807" lon="-1.47469">
        <ele>75</ele>
        <time>2021-02-28T12:33:02.000Z</time>
      </trkpt>
      <trkpt lat="47.18812" lon="-1.47457">
        <ele>75</ele>
        <time>2021-02-28T12:33:04.000Z</time>
      </trkpt>
      <trkpt lat="47.18819" lon="-1.47441">
        <ele>75</ele>
        <time>2021-02-28T12:33:07.000Z</time>
      </trkpt>
      <trkpt lat="47.18827" lon="-1.47425">
        <ele>76</ele>
        <time>2021-02-28T12:33:10.000Z</time>
      </trkpt>
      <trkpt lat="47.18831" lon="-1.47413">
        <ele>76</ele>
        <time>2021-02-28T12:33:12.000Z</time>
      </trkpt>
      <trkpt lat="47.18836" lon="-1.47401">
        <ele>76</ele>
        <time>2021-02-28T12:33:14.000Z</time>
      </trkpt>
      <trkpt lat="47.18842" lon="-1.4739">
        <ele>76</ele>
        <time>2021-02-28T12:33:16.000Z</time>
      </trkpt>
      <trkpt lat="47.18851" lon="-1.47375">
        <ele>77</ele>
        <time>2021-02-28T12:33:19.000Z</time>
      </trkpt>
      <trkpt lat="47.18857" lon="-1.47364">
        <ele>78</ele>
        <time>2021-02-28T12:33:21.000Z</time>
      </trkpt>
      <trkpt lat="47.18863" lon="-1.47352">
        <ele>77</ele>
        <time>2021-02-28T12:33:23.000Z</time>
      </trkpt>
      <trkpt lat="47.18868" lon="-1.4734">
        <ele>78</ele>
        <time>2021-02-28T12:33:25.000Z</time>
      </trkpt>
      <trkpt lat="47.18874" lon="-1.47329">
        <ele>78</ele>
        <time>2021-02-28T12:33:27.000Z</time>
      </trkpt>
      <trkpt lat="47.1888" lon="-1.47318">
        <ele>79</ele>
        <time>2021-02-28T12:33:29.000Z</time>
      </trkpt>
      <trkpt lat="47.18886" lon="-1.473">
        <ele>81</ele>
        <time>2021-02-28T12:33:32.000Z</time>
      </trkpt>
      <trkpt lat="47.18894" lon="-1.47284">
        <ele>82</ele>
        <time>2021-02-28T12:33:35.000Z</time>
      </trkpt>
      <trkpt lat="47.18899" lon="-1.47273">
        <ele>81</ele>
        <time>2021-02-28T12:33:37.000Z</time>
      </trkpt>
      <trkpt lat="47.18905" lon="-1.47261">
        <ele>82</ele>
        <time>2021-02-28T12:33:39.000Z</time>
      </trkpt>
      <trkpt lat="47.18912" lon="-1.47245">
        <ele>81</ele>
        <time>2021-02-28T12:33:42.000Z</time>
      </trkpt>
      <trkpt lat="47.18918" lon="-1.47235">
        <ele>81</ele>
        <time>2021-02-28T12:33:44.000Z</time>
      </trkpt>
      <trkpt lat="47.18926" lon="-1.47219">
        <ele>81</ele>
        <time>2021-02-28T12:33:47.000Z</time>
      </trkpt>
      <trkpt lat="47.18929" lon="-1.47206">
        <ele>81</ele>
        <time>2021-02-28T12:33:49.000Z</time>
      </trkpt>
      <trkpt lat="47.18931" lon="-1.47192">
        <ele>81</ele>
        <time>2021-02-28T12:33:51.000Z</time>
      </trkpt>
      <trkpt lat="47.18936" lon="-1.4718">
        <ele>80</ele>
        <time>2021-02-28T12:33:53.000Z</time>
      </trkpt>
      <trkpt lat="47.18944" lon="-1.4717">
        <ele>80</ele>
        <time>2021-02-28T12:33:55.000Z</time>
      </trkpt>
      <trkpt lat="47.18952" lon="-1.47161">
        <ele>80</ele>
        <time>2021-02-28T12:33:57.000Z</time>
      </trkpt>
      <trkpt lat="47.18958" lon="-1.4715">
        <ele>79</ele>
        <time>2021-02-28T12:33:59.000Z</time>
      </trkpt>
      <trkpt lat="47.18964" lon="-1.47138">
        <ele>78</ele>
        <time>2021-02-28T12:34:01.000Z</time>
      </trkpt>
      <trkpt lat="47.18969" lon="-1.47126">
        <ele>78</ele>
        <time>2021-02-28T12:34:03.000Z</time>
      </trkpt>
      <trkpt lat="47.18975" lon="-1.47114">
        <ele>78</ele>
        <time>2021-02-28T12:34:05.000Z</time>
      </trkpt>
      <trkpt lat="47.18982" lon="-1.471">
        <ele>78</ele>
        <time>2021-02-28T12:34:07.000Z</time>
      </trkpt>
      <trkpt lat="47.18988" lon="-1.47087">
        <ele>78</ele>
        <time>2021-02-28T12:34:09.000Z</time>
      </trkpt>
      <trkpt lat="47.18995" lon="-1.47074">
        <ele>77</ele>
        <time>2021-02-28T12:34:11.000Z</time>
      </trkpt>
      <trkpt lat="47.19001" lon="-1.47061">
        <ele>77</ele>
        <time>2021-02-28T12:34:13.000Z</time>
      </trkpt>
      <trkpt lat="47.19008" lon="-1.47048">
        <ele>77</ele>
        <time>2021-02-28T12:34:15.000Z</time>
      </trkpt>
      <trkpt lat="47.19014" lon="-1.47034">
        <ele>77</ele>
        <time>2021-02-28T12:34:17.000Z</time>
      </trkpt>
      <trkpt lat="47.19021" lon="-1.4702">
        <ele>77</ele>
        <time>2021-02-28T12:34:19.000Z</time>
      </trkpt>
      <trkpt lat="47.19028" lon="-1.47007">
        <ele>77</ele>
        <time>2021-02-28T12:34:21.000Z</time>
      </trkpt>
      <trkpt lat="47.19035" lon="-1.46994">
        <ele>77</ele>
        <time>2021-02-28T12:34:23.000Z</time>
      </trkpt>
      <trkpt lat="47.19041" lon="-1.46981">
        <ele>77</ele>
        <time>2021-02-28T12:34:25.000Z</time>
      </trkpt>
      <trkpt lat="47.19047" lon="-1.46968">
        <ele>77</ele>
        <time>2021-02-28T12:34:27.000Z</time>
      </trkpt>
      <trkpt lat="47.19053" lon="-1.46955">
        <ele>76</ele>
        <time>2021-02-28T12:34:29.000Z</time>
      </trkpt>
      <trkpt lat="47.19059" lon="-1.46943">
        <ele>76</ele>
        <time>2021-02-28T12:34:31.000Z</time>
      </trkpt>
      <trkpt lat="47.19065" lon="-1.4693">
        <ele>76</ele>
        <time>2021-02-28T12:34:33.000Z</time>
      </trkpt>
      <trkpt lat="47.19072" lon="-1.46918">
        <ele>75</ele>
        <time>2021-02-28T12:34:35.000Z</time>
      </trkpt>
      <trkpt lat="47.19078" lon="-1.46904">
        <ele>76</ele>
        <time>2021-02-28T12:34:37.000Z</time>
      </trkpt>
      <trkpt lat="47.19083" lon="-1.46892">
        <ele>76</ele>
        <time>2021-02-28T12:34:39.000Z</time>
      </trkpt>
      <trkpt lat="47.19089" lon="-1.46881">
        <ele>75</ele>
        <time>2021-02-28T12:34:41.000Z</time>
      </trkpt>
      <trkpt lat="47.19094" lon="-1.4687">
        <ele>75</ele>
        <time>2021-02-28T12:34:43.000Z</time>
      </trkpt>
      <trkpt lat="47.19099" lon="-1.46858">
        <ele>75</ele>
        <time>2021-02-28T12:34:45.000Z</time>
      </trkpt>
      <trkpt lat="47.19107" lon="-1.46842">
        <ele>75</ele>
        <time>2021-02-28T12:34:48.000Z</time>
      </trkpt>
      <trkpt lat="47.19112" lon="-1.46831">
        <ele>75</ele>
        <time>2021-02-28T12:34:50.000Z</time>
      </trkpt>
      <trkpt lat="47.19117" lon="-1.46819">
        <ele>75</ele>
        <time>2021-02-28T12:34:52.000Z</time>
      </trkpt>
      <trkpt lat="47.19122" lon="-1.46808">
        <ele>75</ele>
        <time>2021-02-28T12:34:54.000Z</time>
      </trkpt>
      <trkpt lat="47.19128" lon="-1.46796">
        <ele>75</ele>
        <time>2021-02-28T12:34:56.000Z</time>
      </trkpt>
      <trkpt lat="47.19133" lon="-1.46785">
        <ele>75</ele>
        <time>2021-02-28T12:34:58.000Z</time>
      </trkpt>
      <trkpt lat="47.19138" lon="-1.46774">
        <ele>76</ele>
        <time>2021-02-28T12:35:00.000Z</time>
      </trkpt>
      <trkpt lat="47.19144" lon="-1.46763">
        <ele>76</ele>
        <time>2021-02-28T12:35:02.000Z</time>
      </trkpt>
      <trkpt lat="47.19149" lon="-1.46751">
        <ele>76</ele>
        <time>2021-02-28T12:35:04.000Z</time>
      </trkpt>
      <trkpt lat="47.19155" lon="-1.4674">
        <ele>76</ele>
        <time>2021-02-28T12:35:06.000Z</time>
      </trkpt>
      <trkpt lat="47.1916" lon="-1.46729">
        <ele>77</ele>
        <time>2021-02-28T12:35:08.000Z</time>
      </trkpt>
      <trkpt lat="47.19165" lon="-1.46718">
        <ele>77</ele>
        <time>2021-02-28T12:35:10.000Z</time>
      </trkpt>
      <trkpt lat="47.19171" lon="-1.46707">
        <ele>77</ele>
        <time>2021-02-28T12:35:12.000Z</time>
      </trkpt>
      <trkpt lat="47.19176" lon="-1.46696">
        <ele>77</ele>
        <time>2021-02-28T12:35:14.000Z</time>
      </trkpt>
      <trkpt lat="47.19181" lon="-1.46685">
        <ele>77</ele>
        <time>2021-02-28T12:35:16.000Z</time>
      </trkpt>
      <trkpt lat="47.19187" lon="-1.46673">
        <ele>77</ele>
        <time>2021-02-28T12:35:18.000Z</time>
      </trkpt>
      <trkpt lat="47.19192" lon="-1.46661">
        <ele>77</ele>
        <time>2021-02-28T12:35:20.000Z</time>
      </trkpt>
      <trkpt lat="47.19197" lon="-1.4665">
        <ele>76</ele>
        <time>2021-02-28T12:35:22.000Z</time>
      </trkpt>
      <trkpt lat="47.19203" lon="-1.46638">
        <ele>76</ele>
        <time>2021-02-28T12:35:24.000Z</time>
      </trkpt>
      <trkpt lat="47.19208" lon="-1.46627">
        <ele>77</ele>
        <time>2021-02-28T12:35:26.000Z</time>
      </trkpt>
      <trkpt lat="47.19214" lon="-1.46616">
        <ele>77</ele>
        <time>2021-02-28T12:35:28.000Z</time>
      </trkpt>
      <trkpt lat="47.19219" lon="-1.46605">
        <ele>77</ele>
        <time>2021-02-28T12:35:30.000Z</time>
      </trkpt>
      <trkpt lat="47.19225" lon="-1.46593">
        <ele>77</ele>
        <time>2021-02-28T12:35:32.000Z</time>
      </trkpt>
      <trkpt lat="47.19231" lon="-1.46582">
        <ele>77</ele>
        <time>2021-02-28T12:35:34.000Z</time>
      </trkpt>
      <trkpt lat="47.19236" lon="-1.46571">
        <ele>77</ele>
        <time>2021-02-28T12:35:36.000Z</time>
      </trkpt>
      <trkpt lat="47.19241" lon="-1.4656">
        <ele>77</ele>
        <time>2021-02-28T12:35:38.000Z</time>
      </trkpt>
      <trkpt lat="47.19247" lon="-1.46547">
        <ele>77</ele>
        <time>2021-02-28T12:35:40.000Z</time>
      </trkpt>
      <trkpt lat="47.19252" lon="-1.46535">
        <ele>78</ele>
        <time>2021-02-28T12:35:42.000Z</time>
      </trkpt>
      <trkpt lat="47.19258" lon="-1.46523">
        <ele>78</ele>
        <time>2021-02-28T12:35:44.000Z</time>
      </trkpt>
      <trkpt lat="47.19263" lon="-1.46512">
        <ele>78</ele>
        <time>2021-02-28T12:35:46.000Z</time>
      </trkpt>
      <trkpt lat="47.19269" lon="-1.465">
        <ele>77</ele>
        <time>2021-02-28T12:35:48.000Z</time>
      </trkpt>
      <trkpt lat="47.19275" lon="-1.46489">
        <ele>77</ele>
        <time>2021-02-28T12:35:50.000Z</time>
      </trkpt>
      <trkpt lat="47.1928" lon="-1.46477">
        <ele>77</ele>
        <time>2021-02-28T12:35:52.000Z</time>
      </trkpt>
      <trkpt lat="47.19286" lon="-1.46466">
        <ele>77</ele>
        <time>2021-02-28T12:35:54.000Z</time>
      </trkpt>
      <trkpt lat="47.19291" lon="-1.46454">
        <ele>78</ele>
        <time>2021-02-28T12:35:56.000Z</time>
      </trkpt>
      <trkpt lat="47.19297" lon="-1.46443">
        <ele>78</ele>
        <time>2021-02-28T12:35:58.000Z</time>
      </trkpt>
      <trkpt lat="47.19302" lon="-1.46431">
        <ele>78</ele>
        <time>2021-02-28T12:36:00.000Z</time>
      </trkpt>
      <trkpt lat="47.19308" lon="-1.46419">
        <ele>78</ele>
        <time>2021-02-28T12:36:02.000Z</time>
      </trkpt>
      <trkpt lat="47.19313" lon="-1.46408">
        <ele>79</ele>
        <time>2021-02-28T12:36:04.000Z</time>
      </trkpt>
      <trkpt lat="47.19319" lon="-1.46396">
        <ele>79</ele>
        <time>2021-02-28T12:36:06.000Z</time>
      </trkpt>
      <trkpt lat="47.19325" lon="-1.46384">
        <ele>78</ele>
        <time>2021-02-28T12:36:08.000Z</time>
      </trkpt>
      <trkpt lat="47.19331" lon="-1.46371">
        <ele>78</ele>
        <time>2021-02-28T12:36:10.000Z</time>
      </trkpt>
      <trkpt lat="47.19336" lon="-1.46359">
        <ele>77</ele>
        <time>2021-02-28T12:36:12.000Z</time>
      </trkpt>
      <trkpt lat="47.19341" lon="-1.46346">
        <ele>77</ele>
        <time>2021-02-28T12:36:14.000Z</time>
      </trkpt>
      <trkpt lat="47.19349" lon="-1.46329">
        <ele>77</ele>
        <time>2021-02-28T12:36:17.000Z</time>
      </trkpt>
      <trkpt lat="47.19354" lon="-1.46317">
        <ele>77</ele>
        <time>2021-02-28T12:36:19.000Z</time>
      </trkpt>
      <trkpt lat="47.19357" lon="-1.46304">
        <ele>77</ele>
        <time>2021-02-28T12:36:21.000Z</time>
      </trkpt>
      <trkpt lat="47.19362" lon="-1.46293">
        <ele>77</ele>
        <time>2021-02-28T12:36:23.000Z</time>
      </trkpt>
      <trkpt lat="47.19371" lon="-1.46289">
        <ele>76</ele>
        <time>2021-02-28T12:36:25.000Z</time>
      </trkpt>
      <trkpt lat="47.19383" lon="-1.46298">
        <ele>77</ele>
        <time>2021-02-28T12:36:28.000Z</time>
      </trkpt>
      <trkpt lat="47.1939" lon="-1.46307">
        <ele>78</ele>
        <time>2021-02-28T12:36:30.000Z</time>
      </trkpt>
      <trkpt lat="47.19399" lon="-1.46315">
        <ele>78</ele>
        <time>2021-02-28T12:36:32.000Z</time>
      </trkpt>
      <trkpt lat="47.19408" lon="-1.46321">
        <ele>78</ele>
        <time>2021-02-28T12:36:34.000Z</time>
      </trkpt>
      <trkpt lat="47.19417" lon="-1.46326">
        <ele>78</ele>
        <time>2021-02-28T12:36:36.000Z</time>
      </trkpt>
      <trkpt lat="47.19426" lon="-1.46331">
        <ele>78</ele>
        <time>2021-02-28T12:36:38.000Z</time>
      </trkpt>
      <trkpt lat="47.19436" lon="-1.46335">
        <ele>78</ele>
        <time>2021-02-28T12:36:40.000Z</time>
      </trkpt>
      <trkpt lat="47.19446" lon="-1.4634">
        <ele>79</ele>
        <time>2021-02-28T12:36:42.000Z</time>
      </trkpt>
      <trkpt lat="47.19456" lon="-1.46345">
        <ele>78</ele>
        <time>2021-02-28T12:36:44.000Z</time>
      </trkpt>
      <trkpt lat="47.19466" lon="-1.46349">
        <ele>78</ele>
        <time>2021-02-28T12:36:46.000Z</time>
      </trkpt>
      <trkpt lat="47.19476" lon="-1.46354">
        <ele>78</ele>
        <time>2021-02-28T12:36:48.000Z</time>
      </trkpt>
      <trkpt lat="47.19486" lon="-1.46358">
        <ele>78</ele>
        <time>2021-02-28T12:36:50.000Z</time>
      </trkpt>
      <trkpt lat="47.19496" lon="-1.46362">
        <ele>78</ele>
        <time>2021-02-28T12:36:52.000Z</time>
      </trkpt>
      <trkpt lat="47.19506" lon="-1.46367">
        <ele>78</ele>
        <time>2021-02-28T12:36:54.000Z</time>
      </trkpt>
      <trkpt lat="47.19516" lon="-1.46372">
        <ele>78</ele>
        <time>2021-02-28T12:36:56.000Z</time>
      </trkpt>
      <trkpt lat="47.19526" lon="-1.46377">
        <ele>78</ele>
        <time>2021-02-28T12:36:58.000Z</time>
      </trkpt>
      <trkpt lat="47.19536" lon="-1.46381">
        <ele>79</ele>
        <time>2021-02-28T12:37:00.000Z</time>
      </trkpt>
      <trkpt lat="47.19546" lon="-1.46386">
        <ele>79</ele>
        <time>2021-02-28T12:37:02.000Z</time>
      </trkpt>
      <trkpt lat="47.19556" lon="-1.46391">
        <ele>79</ele>
        <time>2021-02-28T12:37:04.000Z</time>
      </trkpt>
      <trkpt lat="47.19567" lon="-1.46395">
        <ele>78</ele>
        <time>2021-02-28T12:37:06.000Z</time>
      </trkpt>
      <trkpt lat="47.19578" lon="-1.464">
        <ele>78</ele>
        <time>2021-02-28T12:37:08.000Z</time>
      </trkpt>
      <trkpt lat="47.19588" lon="-1.46405">
        <ele>77</ele>
        <time>2021-02-28T12:37:10.000Z</time>
      </trkpt>
      <trkpt lat="47.19599" lon="-1.4641">
        <ele>78</ele>
        <time>2021-02-28T12:37:12.000Z</time>
      </trkpt>
      <trkpt lat="47.1961" lon="-1.46415">
        <ele>78</ele>
        <time>2021-02-28T12:37:14.000Z</time>
      </trkpt>
      <trkpt lat="47.19621" lon="-1.46421">
        <ele>78</ele>
        <time>2021-02-28T12:37:16.000Z</time>
      </trkpt>
      <trkpt lat="47.19633" lon="-1.46427">
        <ele>78</ele>
        <time>2021-02-28T12:37:18.000Z</time>
      </trkpt>
      <trkpt lat="47.19645" lon="-1.46432">
        <ele>78</ele>
        <time>2021-02-28T12:37:20.000Z</time>
      </trkpt>
      <trkpt lat="47.19655" lon="-1.46437">
        <ele>78</ele>
        <time>2021-02-28T12:37:22.000Z</time>
      </trkpt>
      <trkpt lat="47.19666" lon="-1.46442">
        <ele>78</ele>
        <time>2021-02-28T12:37:24.000Z</time>
      </trkpt>
      <trkpt lat="47.19677" lon="-1.46448">
        <ele>77</ele>
        <time>2021-02-28T12:37:26.000Z</time>
      </trkpt>
      <trkpt lat="47.19689" lon="-1.46454">
        <ele>76</ele>
        <time>2021-02-28T12:37:28.000Z</time>
      </trkpt>
      <trkpt lat="47.19701" lon="-1.4646">
        <ele>76</ele>
        <time>2021-02-28T12:37:30.000Z</time>
      </trkpt>
      <trkpt lat="47.19713" lon="-1.46465">
        <ele>76</ele>
        <time>2021-02-28T12:37:32.000Z</time>
      </trkpt>
      <trkpt lat="47.19725" lon="-1.46471">
        <ele>76</ele>
        <time>2021-02-28T12:37:34.000Z</time>
      </trkpt>
      <trkpt lat="47.19736" lon="-1.46477">
        <ele>76</ele>
        <time>2021-02-28T12:37:36.000Z</time>
      </trkpt>
      <trkpt lat="47.19749" lon="-1.46483">
        <ele>75</ele>
        <time>2021-02-28T12:37:38.000Z</time>
      </trkpt>
      <trkpt lat="47.19761" lon="-1.4649">
        <ele>74</ele>
        <time>2021-02-28T12:37:40.000Z</time>
      </trkpt>
      <trkpt lat="47.19773" lon="-1.46496">
        <ele>74</ele>
        <time>2021-02-28T12:37:42.000Z</time>
      </trkpt>
      <trkpt lat="47.19784" lon="-1.46501">
        <ele>74</ele>
        <time>2021-02-28T12:37:44.000Z</time>
      </trkpt>
      <trkpt lat="47.19795" lon="-1.46507">
        <ele>73</ele>
        <time>2021-02-28T12:37:46.000Z</time>
      </trkpt>
      <trkpt lat="47.19806" lon="-1.46511">
        <ele>73</ele>
        <time>2021-02-28T12:37:48.000Z</time>
      </trkpt>
      <trkpt lat="47.19816" lon="-1.46517">
        <ele>73</ele>
        <time>2021-02-28T12:37:50.000Z</time>
      </trkpt>
      <trkpt lat="47.19828" lon="-1.46521">
        <ele>73</ele>
        <time>2021-02-28T12:37:52.000Z</time>
      </trkpt>
      <trkpt lat="47.19839" lon="-1.46527">
        <ele>73</ele>
        <time>2021-02-28T12:37:54.000Z</time>
      </trkpt>
      <trkpt lat="47.19851" lon="-1.46533">
        <ele>73</ele>
        <time>2021-02-28T12:37:56.000Z</time>
      </trkpt>
      <trkpt lat="47.19863" lon="-1.46539">
        <ele>72</ele>
        <time>2021-02-28T12:37:58.000Z</time>
      </trkpt>
      <trkpt lat="47.19874" lon="-1.46544">
        <ele>72</ele>
        <time>2021-02-28T12:38:00.000Z</time>
      </trkpt>
      <trkpt lat="47.19886" lon="-1.46549">
        <ele>71</ele>
        <time>2021-02-28T12:38:02.000Z</time>
      </trkpt>
      <trkpt lat="47.19898" lon="-1.46556">
        <ele>71</ele>
        <time>2021-02-28T12:38:04.000Z</time>
      </trkpt>
      <trkpt lat="47.1991" lon="-1.46561">
        <ele>71</ele>
        <time>2021-02-28T12:38:06.000Z</time>
      </trkpt>
      <trkpt lat="47.19922" lon="-1.46567">
        <ele>70</ele>
        <time>2021-02-28T12:38:08.000Z</time>
      </trkpt>
      <trkpt lat="47.19934" lon="-1.46572">
        <ele>70</ele>
        <time>2021-02-28T12:38:10.000Z</time>
      </trkpt>
      <trkpt lat="47.19946" lon="-1.46577">
        <ele>70</ele>
        <time>2021-02-28T12:38:12.000Z</time>
      </trkpt>
      <trkpt lat="47.19958" lon="-1.46581">
        <ele>70</ele>
        <time>2021-02-28T12:38:14.000Z</time>
      </trkpt>
      <trkpt lat="47.19968" lon="-1.46587">
        <ele>70</ele>
        <time>2021-02-28T12:38:16.000Z</time>
      </trkpt>
      <trkpt lat="47.19981" lon="-1.46592">
        <ele>70</ele>
        <time>2021-02-28T12:38:18.000Z</time>
      </trkpt>
      <trkpt lat="47.19993" lon="-1.46596">
        <ele>70</ele>
        <time>2021-02-28T12:38:20.000Z</time>
      </trkpt>
      <trkpt lat="47.20005" lon="-1.46601">
        <ele>69</ele>
        <time>2021-02-28T12:38:22.000Z</time>
      </trkpt>
      <trkpt lat="47.20017" lon="-1.46605">
        <ele>69</ele>
        <time>2021-02-28T12:38:24.000Z</time>
      </trkpt>
      <trkpt lat="47.20029" lon="-1.46609">
        <ele>70</ele>
        <time>2021-02-28T12:38:26.000Z</time>
      </trkpt>
      <trkpt lat="47.20041" lon="-1.46614">
        <ele>70</ele>
        <time>2021-02-28T12:38:28.000Z</time>
      </trkpt>
      <trkpt lat="47.20053" lon="-1.46619">
        <ele>70</ele>
        <time>2021-02-28T12:38:30.000Z</time>
      </trkpt>
      <trkpt lat="47.20064" lon="-1.46623">
        <ele>70</ele>
        <time>2021-02-28T12:38:32.000Z</time>
      </trkpt>
      <trkpt lat="47.20076" lon="-1.46628">
        <ele>71</ele>
        <time>2021-02-28T12:38:34.000Z</time>
      </trkpt>
      <trkpt lat="47.20088" lon="-1.46633">
        <ele>71</ele>
        <time>2021-02-28T12:38:36.000Z</time>
      </trkpt>
      <trkpt lat="47.20099" lon="-1.46639">
        <ele>71</ele>
        <time>2021-02-28T12:38:38.000Z</time>
      </trkpt>
      <trkpt lat="47.20109" lon="-1.46648">
        <ele>71</ele>
        <time>2021-02-28T12:38:40.000Z</time>
      </trkpt>
      <trkpt lat="47.2012" lon="-1.46654">
        <ele>70</ele>
        <time>2021-02-28T12:38:42.000Z</time>
      </trkpt>
      <trkpt lat="47.20132" lon="-1.46662">
        <ele>69</ele>
        <time>2021-02-28T12:38:44.000Z</time>
      </trkpt>
      <trkpt lat="47.20144" lon="-1.46666">
        <ele>68</ele>
        <time>2021-02-28T12:38:46.000Z</time>
      </trkpt>
      <trkpt lat="47.20155" lon="-1.46667">
        <ele>68</ele>
        <time>2021-02-28T12:38:48.000Z</time>
      </trkpt>
      <trkpt lat="47.20168" lon="-1.46669">
        <ele>68</ele>
        <time>2021-02-28T12:38:50.000Z</time>
      </trkpt>
      <trkpt lat="47.20181" lon="-1.46673">
        <ele>68</ele>
        <time>2021-02-28T12:38:52.000Z</time>
      </trkpt>
      <trkpt lat="47.20194" lon="-1.46677">
        <ele>68</ele>
        <time>2021-02-28T12:38:54.000Z</time>
      </trkpt>
      <trkpt lat="47.20206" lon="-1.46681">
        <ele>68</ele>
        <time>2021-02-28T12:38:56.000Z</time>
      </trkpt>
      <trkpt lat="47.20218" lon="-1.46683">
        <ele>67</ele>
        <time>2021-02-28T12:38:58.000Z</time>
      </trkpt>
      <trkpt lat="47.2023" lon="-1.46685">
        <ele>66</ele>
        <time>2021-02-28T12:39:00.000Z</time>
      </trkpt>
      <trkpt lat="47.20242" lon="-1.4669">
        <ele>66</ele>
        <time>2021-02-28T12:39:02.000Z</time>
      </trkpt>
      <trkpt lat="47.20255" lon="-1.46693">
        <ele>67</ele>
        <time>2021-02-28T12:39:04.000Z</time>
      </trkpt>
      <trkpt lat="47.20267" lon="-1.46695">
        <ele>67</ele>
        <time>2021-02-28T12:39:06.000Z</time>
      </trkpt>
      <trkpt lat="47.20279" lon="-1.46698">
        <ele>67</ele>
        <time>2021-02-28T12:39:08.000Z</time>
      </trkpt>
      <trkpt lat="47.20291" lon="-1.467">
        <ele>67</ele>
        <time>2021-02-28T12:39:10.000Z</time>
      </trkpt>
      <trkpt lat="47.20303" lon="-1.46701">
        <ele>66</ele>
        <time>2021-02-28T12:39:12.000Z</time>
      </trkpt>
      <trkpt lat="47.20315" lon="-1.46703">
        <ele>66</ele>
        <time>2021-02-28T12:39:14.000Z</time>
      </trkpt>
      <trkpt lat="47.20326" lon="-1.46705">
        <ele>66</ele>
        <time>2021-02-28T12:39:16.000Z</time>
      </trkpt>
      <trkpt lat="47.20337" lon="-1.46707">
        <ele>66</ele>
        <time>2021-02-28T12:39:18.000Z</time>
      </trkpt>
      <trkpt lat="47.20348" lon="-1.46709">
        <ele>66</ele>
        <time>2021-02-28T12:39:20.000Z</time>
      </trkpt>
      <trkpt lat="47.2036" lon="-1.4671">
        <ele>67</ele>
        <time>2021-02-28T12:39:22.000Z</time>
      </trkpt>
      <trkpt lat="47.20372" lon="-1.46712">
        <ele>66</ele>
        <time>2021-02-28T12:39:24.000Z</time>
      </trkpt>
      <trkpt lat="47.20384" lon="-1.46713">
        <ele>66</ele>
        <time>2021-02-28T12:39:26.000Z</time>
      </trkpt>
      <trkpt lat="47.20395" lon="-1.46715">
        <ele>67</ele>
        <time>2021-02-28T12:39:28.000Z</time>
      </trkpt>
      <trkpt lat="47.20407" lon="-1.46716">
        <ele>67</ele>
        <time>2021-02-28T12:39:30.000Z</time>
      </trkpt>
      <trkpt lat="47.20418" lon="-1.46718">
        <ele>67</ele>
        <time>2021-02-28T12:39:32.000Z</time>
      </trkpt>
      <trkpt lat="47.20429" lon="-1.46719">
        <ele>68</ele>
        <time>2021-02-28T12:39:34.000Z</time>
      </trkpt>
      <trkpt lat="47.2044" lon="-1.46721">
        <ele>68</ele>
        <time>2021-02-28T12:39:36.000Z</time>
      </trkpt>
      <trkpt lat="47.20451" lon="-1.46722">
        <ele>68</ele>
        <time>2021-02-28T12:39:38.000Z</time>
      </trkpt>
      <trkpt lat="47.20462" lon="-1.46723">
        <ele>68</ele>
        <time>2021-02-28T12:39:40.000Z</time>
      </trkpt>
      <trkpt lat="47.20473" lon="-1.46724">
        <ele>68</ele>
        <time>2021-02-28T12:39:42.000Z</time>
      </trkpt>
      <trkpt lat="47.20483" lon="-1.46726">
        <ele>68</ele>
        <time>2021-02-28T12:39:44.000Z</time>
      </trkpt>
      <trkpt lat="47.20493" lon="-1.46729">
        <ele>67</ele>
        <time>2021-02-28T12:39:46.000Z</time>
      </trkpt>
      <trkpt lat="47.20504" lon="-1.46731">
        <ele>68</ele>
        <time>2021-02-28T12:39:48.000Z</time>
      </trkpt>
      <trkpt lat="47.20514" lon="-1.46733">
        <ele>68</ele>
        <time>2021-02-28T12:39:50.000Z</time>
      </trkpt>
      <trkpt lat="47.20525" lon="-1.46735">
        <ele>68</ele>
        <time>2021-02-28T12:39:52.000Z</time>
      </trkpt>
      <trkpt lat="47.20536" lon="-1.46736">
        <ele>68</ele>
        <time>2021-02-28T12:39:54.000Z</time>
      </trkpt>
      <trkpt lat="47.20546" lon="-1.46738">
        <ele>68</ele>
        <time>2021-02-28T12:39:56.000Z</time>
      </trkpt>
      <trkpt lat="47.20557" lon="-1.46737">
        <ele>68</ele>
        <time>2021-02-28T12:39:58.000Z</time>
      </trkpt>
      <trkpt lat="47.20567" lon="-1.46736">
        <ele>68</ele>
        <time>2021-02-28T12:40:00.000Z</time>
      </trkpt>
      <trkpt lat="47.20578" lon="-1.46735">
        <ele>68</ele>
        <time>2021-02-28T12:40:02.000Z</time>
      </trkpt>
      <trkpt lat="47.20588" lon="-1.46734">
        <ele>68</ele>
        <time>2021-02-28T12:40:04.000Z</time>
      </trkpt>
      <trkpt lat="47.20598" lon="-1.46732">
        <ele>68</ele>
        <time>2021-02-28T12:40:06.000Z</time>
      </trkpt>
      <trkpt lat="47.20608" lon="-1.46729">
        <ele>68</ele>
        <time>2021-02-28T12:40:08.000Z</time>
      </trkpt>
      <trkpt lat="47.20619" lon="-1.46727">
        <ele>68</ele>
        <time>2021-02-28T12:40:10.000Z</time>
      </trkpt>
      <trkpt lat="47.2063" lon="-1.46725">
        <ele>68</ele>
        <time>2021-02-28T12:40:12.000Z</time>
      </trkpt>
      <trkpt lat="47.2064" lon="-1.46723">
        <ele>68</ele>
        <time>2021-02-28T12:40:14.000Z</time>
      </trkpt>
      <trkpt lat="47.2065" lon="-1.46722">
        <ele>68</ele>
        <time>2021-02-28T12:40:16.000Z</time>
      </trkpt>
      <trkpt lat="47.20659" lon="-1.46719">
        <ele>68</ele>
        <time>2021-02-28T12:40:18.000Z</time>
      </trkpt>
      <trkpt lat="47.2067" lon="-1.46717">
        <ele>68</ele>
        <time>2021-02-28T12:40:20.000Z</time>
      </trkpt>
      <trkpt lat="47.2068" lon="-1.46714">
        <ele>69</ele>
        <time>2021-02-28T12:40:22.000Z</time>
      </trkpt>
      <trkpt lat="47.20691" lon="-1.46712">
        <ele>69</ele>
        <time>2021-02-28T12:40:24.000Z</time>
      </trkpt>
      <trkpt lat="47.20701" lon="-1.46711">
        <ele>69</ele>
        <time>2021-02-28T12:40:26.000Z</time>
      </trkpt>
      <trkpt lat="47.20712" lon="-1.4671">
        <ele>69</ele>
        <time>2021-02-28T12:40:28.000Z</time>
      </trkpt>
      <trkpt lat="47.20722" lon="-1.46708">
        <ele>69</ele>
        <time>2021-02-28T12:40:30.000Z</time>
      </trkpt>
      <trkpt lat="47.20732" lon="-1.46706">
        <ele>69</ele>
        <time>2021-02-28T12:40:32.000Z</time>
      </trkpt>
      <trkpt lat="47.20743" lon="-1.46704">
        <ele>69</ele>
        <time>2021-02-28T12:40:34.000Z</time>
      </trkpt>
      <trkpt lat="47.20754" lon="-1.46702">
        <ele>69</ele>
        <time>2021-02-28T12:40:36.000Z</time>
      </trkpt>
      <trkpt lat="47.20764" lon="-1.467">
        <ele>69</ele>
        <time>2021-02-28T12:40:38.000Z</time>
      </trkpt>
      <trkpt lat="47.20774" lon="-1.46698">
        <ele>69</ele>
        <time>2021-02-28T12:40:40.000Z</time>
      </trkpt>
      <trkpt lat="47.20785" lon="-1.46697">
        <ele>69</ele>
        <time>2021-02-28T12:40:42.000Z</time>
      </trkpt>
      <trkpt lat="47.20795" lon="-1.46695">
        <ele>70</ele>
        <time>2021-02-28T12:40:44.000Z</time>
      </trkpt>
      <trkpt lat="47.20805" lon="-1.46695">
        <ele>69</ele>
        <time>2021-02-28T12:40:46.000Z</time>
      </trkpt>
      <trkpt lat="47.20816" lon="-1.46694">
        <ele>69</ele>
        <time>2021-02-28T12:40:48.000Z</time>
      </trkpt>
      <trkpt lat="47.20826" lon="-1.46693">
        <ele>69</ele>
        <time>2021-02-28T12:40:50.000Z</time>
      </trkpt>
      <trkpt lat="47.20837" lon="-1.46691">
        <ele>69</ele>
        <time>2021-02-28T12:40:52.000Z</time>
      </trkpt>
      <trkpt lat="47.20847" lon="-1.46687">
        <ele>69</ele>
        <time>2021-02-28T12:40:54.000Z</time>
      </trkpt>
      <trkpt lat="47.20857" lon="-1.46683">
        <ele>68</ele>
        <time>2021-02-28T12:40:56.000Z</time>
      </trkpt>
      <trkpt lat="47.20868" lon="-1.46682">
        <ele>68</ele>
        <time>2021-02-28T12:40:58.000Z</time>
      </trkpt>
      <trkpt lat="47.20878" lon="-1.46681">
        <ele>68</ele>
        <time>2021-02-28T12:41:00.000Z</time>
      </trkpt>
      <trkpt lat="47.20889" lon="-1.46676">
        <ele>68</ele>
        <time>2021-02-28T12:41:02.000Z</time>
      </trkpt>
      <trkpt lat="47.20898" lon="-1.4667">
        <ele>68</ele>
        <time>2021-02-28T12:41:04.000Z</time>
      </trkpt>
      <trkpt lat="47.20908" lon="-1.46665">
        <ele>68</ele>
        <time>2021-02-28T12:41:06.000Z</time>
      </trkpt>
      <trkpt lat="47.20919" lon="-1.46659">
        <ele>68</ele>
        <time>2021-02-28T12:41:08.000Z</time>
      </trkpt>
      <trkpt lat="47.20929" lon="-1.46652">
        <ele>68</ele>
        <time>2021-02-28T12:41:10.000Z</time>
      </trkpt>
      <trkpt lat="47.20938" lon="-1.46645">
        <ele>68</ele>
        <time>2021-02-28T12:41:12.000Z</time>
      </trkpt>
      <trkpt lat="47.20948" lon="-1.46639">
        <ele>68</ele>
        <time>2021-02-28T12:41:14.000Z</time>
      </trkpt>
      <trkpt lat="47.20958" lon="-1.46633">
        <ele>68</ele>
        <time>2021-02-28T12:41:16.000Z</time>
      </trkpt>
      <trkpt lat="47.20969" lon="-1.46628">
        <ele>68</ele>
        <time>2021-02-28T12:41:18.000Z</time>
      </trkpt>
      <trkpt lat="47.20979" lon="-1.46624">
        <ele>68</ele>
        <time>2021-02-28T12:41:20.000Z</time>
      </trkpt>
      <trkpt lat="47.20989" lon="-1.46621">
        <ele>68</ele>
        <time>2021-02-28T12:41:22.000Z</time>
      </trkpt>
      <trkpt lat="47.20999" lon="-1.46619">
        <ele>69</ele>
        <time>2021-02-28T12:41:24.000Z</time>
      </trkpt>
      <trkpt lat="47.21009" lon="-1.46615">
        <ele>69</ele>
        <time>2021-02-28T12:41:26.000Z</time>
      </trkpt>
      <trkpt lat="47.21019" lon="-1.46612">
        <ele>69</ele>
        <time>2021-02-28T12:41:28.000Z</time>
      </trkpt>
      <trkpt lat="47.21031" lon="-1.46608">
        <ele>69</ele>
        <time>2021-02-28T12:41:30.000Z</time>
      </trkpt>
      <trkpt lat="47.21041" lon="-1.46605">
        <ele>69</ele>
        <time>2021-02-28T12:41:32.000Z</time>
      </trkpt>
      <trkpt lat="47.21051" lon="-1.466">
        <ele>68</ele>
        <time>2021-02-28T12:41:34.000Z</time>
      </trkpt>
      <trkpt lat="47.21057" lon="-1.46589">
        <ele>68</ele>
        <time>2021-02-28T12:41:36.000Z</time>
      </trkpt>
      <trkpt lat="47.21061" lon="-1.46575">
        <ele>68</ele>
        <time>2021-02-28T12:41:38.000Z</time>
      </trkpt>
      <trkpt lat="47.21065" lon="-1.46563">
        <ele>68</ele>
        <time>2021-02-28T12:41:40.000Z</time>
      </trkpt>
      <trkpt lat="47.21071" lon="-1.46551">
        <ele>67</ele>
        <time>2021-02-28T12:41:42.000Z</time>
      </trkpt>
      <trkpt lat="47.21078" lon="-1.46541">
        <ele>68</ele>
        <time>2021-02-28T12:41:44.000Z</time>
      </trkpt>
      <trkpt lat="47.21087" lon="-1.46535">
        <ele>68</ele>
        <time>2021-02-28T12:41:46.000Z</time>
      </trkpt>
      <trkpt lat="47.21098" lon="-1.46537">
        <ele>68</ele>
        <time>2021-02-28T12:41:48.000Z</time>
      </trkpt>
      <trkpt lat="47.21107" lon="-1.46546">
        <ele>68</ele>
        <time>2021-02-28T12:41:50.000Z</time>
      </trkpt>
      <trkpt lat="47.21115" lon="-1.46555">
        <ele>67</ele>
        <time>2021-02-28T12:41:52.000Z</time>
      </trkpt>
      <trkpt lat="47.21124" lon="-1.46564">
        <ele>67</ele>
        <time>2021-02-28T12:41:54.000Z</time>
      </trkpt>
      <trkpt lat="47.21132" lon="-1.46575">
        <ele>67</ele>
        <time>2021-02-28T12:41:56.000Z</time>
      </trkpt>
      <trkpt lat="47.21142" lon="-1.46586">
        <ele>67</ele>
        <time>2021-02-28T12:41:58.000Z</time>
      </trkpt>
      <trkpt lat="47.21152" lon="-1.46591">
        <ele>67</ele>
        <time>2021-02-28T12:42:00.000Z</time>
      </trkpt>
      <trkpt lat="47.21163" lon="-1.46594">
        <ele>68</ele>
        <time>2021-02-28T12:42:02.000Z</time>
      </trkpt>
      <trkpt lat="47.21174" lon="-1.46599">
        <ele>68</ele>
        <time>2021-02-28T12:42:04.000Z</time>
      </trkpt>
      <trkpt lat="47.21185" lon="-1.46605">
        <ele>68</ele>
        <time>2021-02-28T12:42:06.000Z</time>
      </trkpt>
      <trkpt lat="47.21195" lon="-1.46611">
        <ele>68</ele>
        <time>2021-02-28T12:42:08.000Z</time>
      </trkpt>
      <trkpt lat="47.21205" lon="-1.46616">
        <ele>68</ele>
        <time>2021-02-28T12:42:10.000Z</time>
      </trkpt>
      <trkpt lat="47.21217" lon="-1.46621">
        <ele>67</ele>
        <time>2021-02-28T12:42:12.000Z</time>
      </trkpt>
      <trkpt lat="47.21228" lon="-1.46626">
        <ele>67</ele>
        <time>2021-02-28T12:42:14.000Z</time>
      </trkpt>
      <trkpt lat="47.21241" lon="-1.46628">
        <ele>66</ele>
        <time>2021-02-28T12:42:16.000Z</time>
      </trkpt>
      <trkpt lat="47.21253" lon="-1.46631">
        <ele>66</ele>
        <time>2021-02-28T12:42:18.000Z</time>
      </trkpt>
      <trkpt lat="47.21264" lon="-1.46633">
        <ele>67</ele>
        <time>2021-02-28T12:42:20.000Z</time>
      </trkpt>
      <trkpt lat="47.21275" lon="-1.46634">
        <ele>67</ele>
        <time>2021-02-28T12:42:22.000Z</time>
      </trkpt>
      <trkpt lat="47.21286" lon="-1.46635">
        <ele>67</ele>
        <time>2021-02-28T12:42:24.000Z</time>
      </trkpt>
      <trkpt lat="47.21298" lon="-1.46635">
        <ele>66</ele>
        <time>2021-02-28T12:42:26.000Z</time>
      </trkpt>
      <trkpt lat="47.21309" lon="-1.46636">
        <ele>66</ele>
        <time>2021-02-28T12:42:28.000Z</time>
      </trkpt>
      <trkpt lat="47.2132" lon="-1.46636">
        <ele>65</ele>
        <time>2021-02-28T12:42:30.000Z</time>
      </trkpt>
      <trkpt lat="47.21332" lon="-1.46637">
        <ele>65</ele>
        <time>2021-02-28T12:42:32.000Z</time>
      </trkpt>
      <trkpt lat="47.21343" lon="-1.46637">
        <ele>65</ele>
        <time>2021-02-28T12:42:34.000Z</time>
      </trkpt>
      <trkpt lat="47.21355" lon="-1.46637">
        <ele>65</ele>
        <time>2021-02-28T12:42:36.000Z</time>
      </trkpt>
      <trkpt lat="47.21367" lon="-1.46638">
        <ele>65</ele>
        <time>2021-02-28T12:42:38.000Z</time>
      </trkpt>
      <trkpt lat="47.21378" lon="-1.46639">
        <ele>65</ele>
        <time>2021-02-28T12:42:40.000Z</time>
      </trkpt>
      <trkpt lat="47.21389" lon="-1.46638">
        <ele>65</ele>
        <time>2021-02-28T12:42:42.000Z</time>
      </trkpt>
      <trkpt lat="47.21401" lon="-1.46638">
        <ele>65</ele>
        <time>2021-02-28T12:42:44.000Z</time>
      </trkpt>
      <trkpt lat="47.21413" lon="-1.46638">
        <ele>64</ele>
        <time>2021-02-28T12:42:46.000Z</time>
      </trkpt>
      <trkpt lat="47.21426" lon="-1.46639">
        <ele>63</ele>
        <time>2021-02-28T12:42:48.000Z</time>
      </trkpt>
      <trkpt lat="47.21438" lon="-1.46637">
        <ele>63</ele>
        <time>2021-02-28T12:42:50.000Z</time>
      </trkpt>
      <trkpt lat="47.21452" lon="-1.46632">
        <ele>63</ele>
        <time>2021-02-28T12:42:52.000Z</time>
      </trkpt>
      <trkpt lat="47.21465" lon="-1.46625">
        <ele>62</ele>
        <time>2021-02-28T12:42:54.000Z</time>
      </trkpt>
      <trkpt lat="47.21477" lon="-1.46616">
        <ele>61</ele>
        <time>2021-02-28T12:42:56.000Z</time>
      </trkpt>
      <trkpt lat="47.21489" lon="-1.46607">
        <ele>61</ele>
        <time>2021-02-28T12:42:58.000Z</time>
      </trkpt>
      <trkpt lat="47.21502" lon="-1.46597">
        <ele>61</ele>
        <time>2021-02-28T12:43:00.000Z</time>
      </trkpt>
      <trkpt lat="47.21512" lon="-1.46583">
        <ele>60</ele>
        <time>2021-02-28T12:43:02.000Z</time>
      </trkpt>
      <trkpt lat="47.21522" lon="-1.46568">
        <ele>60</ele>
        <time>2021-02-28T12:43:04.000Z</time>
      </trkpt>
      <trkpt lat="47.2153" lon="-1.46554">
        <ele>59</ele>
        <time>2021-02-28T12:43:06.000Z</time>
      </trkpt>
      <trkpt lat="47.21541" lon="-1.46544">
        <ele>59</ele>
        <time>2021-02-28T12:43:08.000Z</time>
      </trkpt>
      <trkpt lat="47.21554" lon="-1.46538">
        <ele>59</ele>
        <time>2021-02-28T12:43:10.000Z</time>
      </trkpt>
      <trkpt lat="47.21568" lon="-1.46537">
        <ele>59</ele>
        <time>2021-02-28T12:43:12.000Z</time>
      </trkpt>
      <trkpt lat="47.21581" lon="-1.46534">
        <ele>57</ele>
        <time>2021-02-28T12:43:14.000Z</time>
      </trkpt>
      <trkpt lat="47.21594" lon="-1.46532">
        <ele>57</ele>
        <time>2021-02-28T12:43:16.000Z</time>
      </trkpt>
      <trkpt lat="47.21607" lon="-1.46531">
        <ele>57</ele>
        <time>2021-02-28T12:43:18.000Z</time>
      </trkpt>
      <trkpt lat="47.21621" lon="-1.46531">
        <ele>55</ele>
        <time>2021-02-28T12:43:20.000Z</time>
      </trkpt>
      <trkpt lat="47.21633" lon="-1.4653">
        <ele>54</ele>
        <time>2021-02-28T12:43:22.000Z</time>
      </trkpt>
      <trkpt lat="47.21643" lon="-1.46527">
        <ele>52</ele>
        <time>2021-02-28T12:43:24.000Z</time>
      </trkpt>
      <trkpt lat="47.21655" lon="-1.46515">
        <ele>52</ele>
        <time>2021-02-28T12:43:27.000Z</time>
      </trkpt>
      <trkpt lat="47.21666" lon="-1.46514">
        <ele>52</ele>
        <time>2021-02-28T12:43:30.000Z</time>
      </trkpt>
      <trkpt lat="47.2167" lon="-1.46532">
        <ele>51</ele>
        <time>2021-02-28T12:43:33.000Z</time>
      </trkpt>
      <trkpt lat="47.21668" lon="-1.46548">
        <ele>51</ele>
        <time>2021-02-28T12:43:35.000Z</time>
      </trkpt>
      <trkpt lat="47.21663" lon="-1.46565">
        <ele>51</ele>
        <time>2021-02-28T12:43:37.000Z</time>
      </trkpt>
      <trkpt lat="47.21661" lon="-1.46581">
        <ele>51</ele>
        <time>2021-02-28T12:43:39.000Z</time>
      </trkpt>
      <trkpt lat="47.21658" lon="-1.466">
        <ele>50</ele>
        <time>2021-02-28T12:43:41.000Z</time>
      </trkpt>
      <trkpt lat="47.21654" lon="-1.46618">
        <ele>50</ele>
        <time>2021-02-28T12:43:43.000Z</time>
      </trkpt>
      <trkpt lat="47.21652" lon="-1.46637">
        <ele>50</ele>
        <time>2021-02-28T12:43:45.000Z</time>
      </trkpt>
      <trkpt lat="47.21649" lon="-1.46655">
        <ele>50</ele>
        <time>2021-02-28T12:43:47.000Z</time>
      </trkpt>
      <trkpt lat="47.21645" lon="-1.46673">
        <ele>50</ele>
        <time>2021-02-28T12:43:49.000Z</time>
      </trkpt>
      <trkpt lat="47.21641" lon="-1.4669">
        <ele>50</ele>
        <time>2021-02-28T12:43:51.000Z</time>
      </trkpt>
      <trkpt lat="47.21637" lon="-1.46708">
        <ele>50</ele>
        <time>2021-02-28T12:43:53.000Z</time>
      </trkpt>
      <trkpt lat="47.21634" lon="-1.46726">
        <ele>50</ele>
        <time>2021-02-28T12:43:55.000Z</time>
      </trkpt>
      <trkpt lat="47.21632" lon="-1.46745">
        <ele>50</ele>
        <time>2021-02-28T12:43:57.000Z</time>
      </trkpt>
      <trkpt lat="47.21632" lon="-1.46764">
        <ele>50</ele>
        <time>2021-02-28T12:43:59.000Z</time>
      </trkpt>
      <trkpt lat="47.21633" lon="-1.46782">
        <ele>50</ele>
        <time>2021-02-28T12:44:01.000Z</time>
      </trkpt>
      <trkpt lat="47.21634" lon="-1.468">
        <ele>50</ele>
        <time>2021-02-28T12:44:03.000Z</time>
      </trkpt>
      <trkpt lat="47.21636" lon="-1.46818">
        <ele>49</ele>
        <time>2021-02-28T12:44:05.000Z</time>
      </trkpt>
      <trkpt lat="47.21641" lon="-1.46835">
        <ele>49</ele>
        <time>2021-02-28T12:44:07.000Z</time>
      </trkpt>
      <trkpt lat="47.21644" lon="-1.46852">
        <ele>49</ele>
        <time>2021-02-28T12:44:09.000Z</time>
      </trkpt>
      <trkpt lat="47.21645" lon="-1.4687">
        <ele>49</ele>
        <time>2021-02-28T12:44:11.000Z</time>
      </trkpt>
      <trkpt lat="47.21648" lon="-1.46887">
        <ele>48</ele>
        <time>2021-02-28T12:44:13.000Z</time>
      </trkpt>
      <trkpt lat="47.21652" lon="-1.46905">
        <ele>49</ele>
        <time>2021-02-28T12:44:15.000Z</time>
      </trkpt>
      <trkpt lat="47.21655" lon="-1.46923">
        <ele>48</ele>
        <time>2021-02-28T12:44:17.000Z</time>
      </trkpt>
      <trkpt lat="47.21658" lon="-1.46942">
        <ele>48</ele>
        <time>2021-02-28T12:44:19.000Z</time>
      </trkpt>
      <trkpt lat="47.2166" lon="-1.46961">
        <ele>48</ele>
        <time>2021-02-28T12:44:21.000Z</time>
      </trkpt>
      <trkpt lat="47.2166" lon="-1.46979">
        <ele>48</ele>
        <time>2021-02-28T12:44:23.000Z</time>
      </trkpt>
      <trkpt lat="47.2166" lon="-1.46999">
        <ele>48</ele>
        <time>2021-02-28T12:44:25.000Z</time>
      </trkpt>
      <trkpt lat="47.2166" lon="-1.47018">
        <ele>48</ele>
        <time>2021-02-28T12:44:27.000Z</time>
      </trkpt>
      <trkpt lat="47.21659" lon="-1.47037">
        <ele>48</ele>
        <time>2021-02-28T12:44:29.000Z</time>
      </trkpt>
      <trkpt lat="47.21658" lon="-1.47055">
        <ele>48</ele>
        <time>2021-02-28T12:44:31.000Z</time>
      </trkpt>
      <trkpt lat="47.21657" lon="-1.47072">
        <ele>48</ele>
        <time>2021-02-28T12:44:33.000Z</time>
      </trkpt>
      <trkpt lat="47.21653" lon="-1.47089">
        <ele>48</ele>
        <time>2021-02-28T12:44:35.000Z</time>
      </trkpt>
      <trkpt lat="47.21649" lon="-1.47104">
        <ele>48</ele>
        <time>2021-02-28T12:44:37.000Z</time>
      </trkpt>
      <trkpt lat="47.21646" lon="-1.47122">
        <ele>48</ele>
        <time>2021-02-28T12:44:39.000Z</time>
      </trkpt>
      <trkpt lat="47.21644" lon="-1.4714">
        <ele>48</ele>
        <time>2021-02-28T12:44:41.000Z</time>
      </trkpt>
      <trkpt lat="47.21642" lon="-1.47158">
        <ele>48</ele>
        <time>2021-02-28T12:44:43.000Z</time>
      </trkpt>
      <trkpt lat="47.21638" lon="-1.47176">
        <ele>48</ele>
        <time>2021-02-28T12:44:45.000Z</time>
      </trkpt>
      <trkpt lat="47.21635" lon="-1.47193">
        <ele>48</ele>
        <time>2021-02-28T12:44:47.000Z</time>
      </trkpt>
      <trkpt lat="47.21631" lon="-1.4721">
        <ele>48</ele>
        <time>2021-02-28T12:44:49.000Z</time>
      </trkpt>
      <trkpt lat="47.21628" lon="-1.47227">
        <ele>48</ele>
        <time>2021-02-28T12:44:51.000Z</time>
      </trkpt>
      <trkpt lat="47.21623" lon="-1.47243">
        <ele>48</ele>
        <time>2021-02-28T12:44:53.000Z</time>
      </trkpt>
      <trkpt lat="47.21615" lon="-1.47257">
        <ele>49</ele>
        <time>2021-02-28T12:44:55.000Z</time>
      </trkpt>
      <trkpt lat="47.21609" lon="-1.47271">
        <ele>49</ele>
        <time>2021-02-28T12:44:57.000Z</time>
      </trkpt>
      <trkpt lat="47.21603" lon="-1.47288">
        <ele>50</ele>
        <time>2021-02-28T12:44:59.000Z</time>
      </trkpt>
      <trkpt lat="47.21599" lon="-1.47305">
        <ele>50</ele>
        <time>2021-02-28T12:45:01.000Z</time>
      </trkpt>
      <trkpt lat="47.21596" lon="-1.47323">
        <ele>50</ele>
        <time>2021-02-28T12:45:03.000Z</time>
      </trkpt>
      <trkpt lat="47.21592" lon="-1.47341">
        <ele>50</ele>
        <time>2021-02-28T12:45:05.000Z</time>
      </trkpt>
      <trkpt lat="47.21589" lon="-1.47358">
        <ele>50</ele>
        <time>2021-02-28T12:45:07.000Z</time>
      </trkpt>
      <trkpt lat="47.21586" lon="-1.47375">
        <ele>50</ele>
        <time>2021-02-28T12:45:09.000Z</time>
      </trkpt>
      <trkpt lat="47.21583" lon="-1.47391">
        <ele>50</ele>
        <time>2021-02-28T12:45:11.000Z</time>
      </trkpt>
      <trkpt lat="47.2158" lon="-1.47408">
        <ele>51</ele>
        <time>2021-02-28T12:45:13.000Z</time>
      </trkpt>
      <trkpt lat="47.21577" lon="-1.47426">
        <ele>50</ele>
        <time>2021-02-28T12:45:15.000Z</time>
      </trkpt>
      <trkpt lat="47.21574" lon="-1.47444">
        <ele>50</ele>
        <time>2021-02-28T12:45:17.000Z</time>
      </trkpt>
      <trkpt lat="47.21569" lon="-1.47461">
        <ele>49</ele>
        <time>2021-02-28T12:45:19.000Z</time>
      </trkpt>
      <trkpt lat="47.21564" lon="-1.47477">
        <ele>50</ele>
        <time>2021-02-28T12:45:21.000Z</time>
      </trkpt>
      <trkpt lat="47.21559" lon="-1.47493">
        <ele>49</ele>
        <time>2021-02-28T12:45:23.000Z</time>
      </trkpt>
      <trkpt lat="47.21555" lon="-1.4751">
        <ele>49</ele>
        <time>2021-02-28T12:45:25.000Z</time>
      </trkpt>
      <trkpt lat="47.21549" lon="-1.47527">
        <ele>49</ele>
        <time>2021-02-28T12:45:27.000Z</time>
      </trkpt>
      <trkpt lat="47.21544" lon="-1.47544">
        <ele>49</ele>
        <time>2021-02-28T12:45:29.000Z</time>
      </trkpt>
      <trkpt lat="47.21542" lon="-1.47562">
        <ele>50</ele>
        <time>2021-02-28T12:45:31.000Z</time>
      </trkpt>
      <trkpt lat="47.21544" lon="-1.47581">
        <ele>49</ele>
        <time>2021-02-28T12:45:33.000Z</time>
      </trkpt>
      <trkpt lat="47.21539" lon="-1.47598">
        <ele>49</ele>
        <time>2021-02-28T12:45:35.000Z</time>
      </trkpt>
      <trkpt lat="47.21532" lon="-1.47615">
        <ele>48</ele>
        <time>2021-02-28T12:45:37.000Z</time>
      </trkpt>
      <trkpt lat="47.21526" lon="-1.47632">
        <ele>48</ele>
        <time>2021-02-28T12:45:39.000Z</time>
      </trkpt>
      <trkpt lat="47.21519" lon="-1.47649">
        <ele>48</ele>
        <time>2021-02-28T12:45:41.000Z</time>
      </trkpt>
      <trkpt lat="47.21512" lon="-1.47667">
        <ele>48</ele>
        <time>2021-02-28T12:45:43.000Z</time>
      </trkpt>
      <trkpt lat="47.21506" lon="-1.47683">
        <ele>48</ele>
        <time>2021-02-28T12:45:45.000Z</time>
      </trkpt>
      <trkpt lat="47.21494" lon="-1.47706">
        <ele>47</ele>
        <time>2021-02-28T12:45:48.000Z</time>
      </trkpt>
      <trkpt lat="47.21483" lon="-1.47716">
        <ele>47</ele>
        <time>2021-02-28T12:45:50.000Z</time>
      </trkpt>
      <trkpt lat="47.21473" lon="-1.47729">
        <ele>47</ele>
        <time>2021-02-28T12:45:52.000Z</time>
      </trkpt>
      <trkpt lat="47.21463" lon="-1.47749">
        <ele>48</ele>
        <time>2021-02-28T12:45:55.000Z</time>
      </trkpt>
      <trkpt lat="47.21454" lon="-1.47772">
        <ele>48</ele>
        <time>2021-02-28T12:45:58.000Z</time>
      </trkpt>
      <trkpt lat="47.2145" lon="-1.4779">
        <ele>48</ele>
        <time>2021-02-28T12:46:00.000Z</time>
      </trkpt>
      <trkpt lat="47.21447" lon="-1.4781">
        <ele>49</ele>
        <time>2021-02-28T12:46:02.000Z</time>
      </trkpt>
      <trkpt lat="47.21445" lon="-1.47828">
        <ele>49</ele>
        <time>2021-02-28T12:46:04.000Z</time>
      </trkpt>
      <trkpt lat="47.21443" lon="-1.47847">
        <ele>49</ele>
        <time>2021-02-28T12:46:06.000Z</time>
      </trkpt>
      <trkpt lat="47.2144" lon="-1.47867">
        <ele>49</ele>
        <time>2021-02-28T12:46:08.000Z</time>
      </trkpt>
      <trkpt lat="47.21437" lon="-1.47886">
        <ele>49</ele>
        <time>2021-02-28T12:46:10.000Z</time>
      </trkpt>
      <trkpt lat="47.21434" lon="-1.47906">
        <ele>49</ele>
        <time>2021-02-28T12:46:12.000Z</time>
      </trkpt>
      <trkpt lat="47.2143" lon="-1.47935">
        <ele>49</ele>
        <time>2021-02-28T12:46:15.000Z</time>
      </trkpt>
      <trkpt lat="47.21427" lon="-1.47955">
        <ele>50</ele>
        <time>2021-02-28T12:46:17.000Z</time>
      </trkpt>
      <trkpt lat="47.21424" lon="-1.47985">
        <ele>50</ele>
        <time>2021-02-28T12:46:20.000Z</time>
      </trkpt>
      <trkpt lat="47.21422" lon="-1.48004">
        <ele>50</ele>
        <time>2021-02-28T12:46:22.000Z</time>
      </trkpt>
      <trkpt lat="47.21416" lon="-1.48022">
        <ele>51</ele>
        <time>2021-02-28T12:46:24.000Z</time>
      </trkpt>
      <trkpt lat="47.21411" lon="-1.4804">
        <ele>52</ele>
        <time>2021-02-28T12:46:26.000Z</time>
      </trkpt>
      <trkpt lat="47.21403" lon="-1.48066">
        <ele>52</ele>
        <time>2021-02-28T12:46:29.000Z</time>
      </trkpt>
      <trkpt lat="47.21393" lon="-1.4809">
        <ele>52</ele>
        <time>2021-02-28T12:46:32.000Z</time>
      </trkpt>
      <trkpt lat="47.21382" lon="-1.48113">
        <ele>52</ele>
        <time>2021-02-28T12:46:35.000Z</time>
      </trkpt>
      <trkpt lat="47.21373" lon="-1.48128">
        <ele>52</ele>
        <time>2021-02-28T12:46:37.000Z</time>
      </trkpt>
      <trkpt lat="47.21363" lon="-1.48142">
        <ele>52</ele>
        <time>2021-02-28T12:46:39.000Z</time>
      </trkpt>
      <trkpt lat="47.21352" lon="-1.48154">
        <ele>53</ele>
        <time>2021-02-28T12:46:41.000Z</time>
      </trkpt>
      <trkpt lat="47.2134" lon="-1.48165">
        <ele>53</ele>
        <time>2021-02-28T12:46:43.000Z</time>
      </trkpt>
      <trkpt lat="47.21324" lon="-1.48181">
        <ele>54</ele>
        <time>2021-02-28T12:46:46.000Z</time>
      </trkpt>
      <trkpt lat="47.21313" lon="-1.48192">
        <ele>55</ele>
        <time>2021-02-28T12:46:48.000Z</time>
      </trkpt>
      <trkpt lat="47.21301" lon="-1.48202">
        <ele>55</ele>
        <time>2021-02-28T12:46:50.000Z</time>
      </trkpt>
      <trkpt lat="47.21289" lon="-1.48213">
        <ele>56</ele>
        <time>2021-02-28T12:46:52.000Z</time>
      </trkpt>
      <trkpt lat="47.21277" lon="-1.48223">
        <ele>56</ele>
        <time>2021-02-28T12:46:54.000Z</time>
      </trkpt>
      <trkpt lat="47.21266" lon="-1.48233">
        <ele>56</ele>
        <time>2021-02-28T12:46:56.000Z</time>
      </trkpt>
      <trkpt lat="47.21255" lon="-1.48242">
        <ele>57</ele>
        <time>2021-02-28T12:46:58.000Z</time>
      </trkpt>
      <trkpt lat="47.21245" lon="-1.48252">
        <ele>57</ele>
        <time>2021-02-28T12:47:00.000Z</time>
      </trkpt>
      <trkpt lat="47.21235" lon="-1.48264">
        <ele>57</ele>
        <time>2021-02-28T12:47:02.000Z</time>
      </trkpt>
      <trkpt lat="47.21227" lon="-1.48277">
        <ele>57</ele>
        <time>2021-02-28T12:47:04.000Z</time>
      </trkpt>
      <trkpt lat="47.21223" lon="-1.48293">
        <ele>57</ele>
        <time>2021-02-28T12:47:06.000Z</time>
      </trkpt>
      <trkpt lat="47.21226" lon="-1.4831">
        <ele>56</ele>
        <time>2021-02-28T12:47:08.000Z</time>
      </trkpt>
      <trkpt lat="47.21235" lon="-1.48322">
        <ele>55</ele>
        <time>2021-02-28T12:47:10.000Z</time>
      </trkpt>
      <trkpt lat="47.21241" lon="-1.48333">
        <ele>55</ele>
        <time>2021-02-28T12:47:12.000Z</time>
      </trkpt>
      <trkpt lat="47.21235" lon="-1.48348">
        <ele>54</ele>
        <time>2021-02-28T12:47:14.000Z</time>
      </trkpt>
      <trkpt lat="47.21226" lon="-1.48361">
        <ele>53</ele>
        <time>2021-02-28T12:47:16.000Z</time>
      </trkpt>
      <trkpt lat="47.21223" lon="-1.4838">
        <ele>52</ele>
        <time>2021-02-28T12:47:18.000Z</time>
      </trkpt>
      <trkpt lat="47.21226" lon="-1.48399">
        <ele>52</ele>
        <time>2021-02-28T12:47:20.000Z</time>
      </trkpt>
      <trkpt lat="47.21231" lon="-1.48417">
        <ele>51</ele>
        <time>2021-02-28T12:47:22.000Z</time>
      </trkpt>
      <trkpt lat="47.21238" lon="-1.48433">
        <ele>52</ele>
        <time>2021-02-28T12:47:24.000Z</time>
      </trkpt>
      <trkpt lat="47.21248" lon="-1.48454">
        <ele>51</ele>
        <time>2021-02-28T12:47:27.000Z</time>
      </trkpt>
      <trkpt lat="47.21255" lon="-1.48461">
        <ele>52</ele>
        <time>2021-02-28T12:47:29.000Z</time>
      </trkpt>
      <trkpt lat="47.21268" lon="-1.48462">
        <ele>51</ele>
        <time>2021-02-28T12:47:32.000Z</time>
      </trkpt>
      <trkpt lat="47.21279" lon="-1.48466">
        <ele>52</ele>
        <time>2021-02-28T12:47:35.000Z</time>
      </trkpt>
      <trkpt lat="47.21282" lon="-1.48482">
        <ele>52</ele>
        <time>2021-02-28T12:47:37.000Z</time>
      </trkpt>
      <trkpt lat="47.2128" lon="-1.48498">
        <ele>52</ele>
        <time>2021-02-28T12:47:39.000Z</time>
      </trkpt>
      <trkpt lat="47.21275" lon="-1.48513">
        <ele>51</ele>
        <time>2021-02-28T12:47:41.000Z</time>
      </trkpt>
      <trkpt lat="47.21272" lon="-1.48531">
        <ele>51</ele>
        <time>2021-02-28T12:47:43.000Z</time>
      </trkpt>
      <trkpt lat="47.21267" lon="-1.48548">
        <ele>50</ele>
        <time>2021-02-28T12:47:45.000Z</time>
      </trkpt>
      <trkpt lat="47.21262" lon="-1.48566">
        <ele>51</ele>
        <time>2021-02-28T12:47:47.000Z</time>
      </trkpt>
      <trkpt lat="47.21257" lon="-1.48584">
        <ele>50</ele>
        <time>2021-02-28T12:47:49.000Z</time>
      </trkpt>
      <trkpt lat="47.21252" lon="-1.48602">
        <ele>50</ele>
        <time>2021-02-28T12:47:51.000Z</time>
      </trkpt>
      <trkpt lat="47.21247" lon="-1.4862">
        <ele>50</ele>
        <time>2021-02-28T12:47:53.000Z</time>
      </trkpt>
      <trkpt lat="47.21243" lon="-1.48638">
        <ele>51</ele>
        <time>2021-02-28T12:47:55.000Z</time>
      </trkpt>
      <trkpt lat="47.21238" lon="-1.48657">
        <ele>50</ele>
        <time>2021-02-28T12:47:57.000Z</time>
      </trkpt>
      <trkpt lat="47.21233" lon="-1.48676">
        <ele>50</ele>
        <time>2021-02-28T12:47:59.000Z</time>
      </trkpt>
      <trkpt lat="47.21228" lon="-1.48694">
        <ele>50</ele>
        <time>2021-02-28T12:48:01.000Z</time>
      </trkpt>
      <trkpt lat="47.21224" lon="-1.48712">
        <ele>50</ele>
        <time>2021-02-28T12:48:03.000Z</time>
      </trkpt>
      <trkpt lat="47.21219" lon="-1.4873">
        <ele>51</ele>
        <time>2021-02-28T12:48:05.000Z</time>
      </trkpt>
      <trkpt lat="47.21214" lon="-1.48749">
        <ele>51</ele>
        <time>2021-02-28T12:48:07.000Z</time>
      </trkpt>
      <trkpt lat="47.2121" lon="-1.48769">
        <ele>51</ele>
        <time>2021-02-28T12:48:09.000Z</time>
      </trkpt>
      <trkpt lat="47.21206" lon="-1.48788">
        <ele>51</ele>
        <time>2021-02-28T12:48:11.000Z</time>
      </trkpt>
      <trkpt lat="47.21201" lon="-1.48808">
        <ele>50</ele>
        <time>2021-02-28T12:48:13.000Z</time>
      </trkpt>
      <trkpt lat="47.21197" lon="-1.48828">
        <ele>50</ele>
        <time>2021-02-28T12:48:15.000Z</time>
      </trkpt>
      <trkpt lat="47.21193" lon="-1.48846">
        <ele>50</ele>
        <time>2021-02-28T12:48:17.000Z</time>
      </trkpt>
      <trkpt lat="47.21192" lon="-1.48867">
        <ele>50</ele>
        <time>2021-02-28T12:48:19.000Z</time>
      </trkpt>
      <trkpt lat="47.21191" lon="-1.48887">
        <ele>50</ele>
        <time>2021-02-28T12:48:21.000Z</time>
      </trkpt>
      <trkpt lat="47.21184" lon="-1.48905">
        <ele>50</ele>
        <time>2021-02-28T12:48:23.000Z</time>
      </trkpt>
      <trkpt lat="47.21177" lon="-1.48922">
        <ele>51</ele>
        <time>2021-02-28T12:48:25.000Z</time>
      </trkpt>
      <trkpt lat="47.21172" lon="-1.48951">
        <ele>51</ele>
        <time>2021-02-28T12:48:28.000Z</time>
      </trkpt>
      <trkpt lat="47.21168" lon="-1.48971">
        <ele>51</ele>
        <time>2021-02-28T12:48:30.000Z</time>
      </trkpt>
      <trkpt lat="47.21165" lon="-1.4899">
        <ele>51</ele>
        <time>2021-02-28T12:48:32.000Z</time>
      </trkpt>
      <trkpt lat="47.21161" lon="-1.4901">
        <ele>50</ele>
        <time>2021-02-28T12:48:34.000Z</time>
      </trkpt>
      <trkpt lat="47.21159" lon="-1.49029">
        <ele>49</ele>
        <time>2021-02-28T12:48:36.000Z</time>
      </trkpt>
      <trkpt lat="47.21159" lon="-1.49058">
        <ele>50</ele>
        <time>2021-02-28T12:48:39.000Z</time>
      </trkpt>
      <trkpt lat="47.21165" lon="-1.49077">
        <ele>50</ele>
        <time>2021-02-28T12:48:41.000Z</time>
      </trkpt>
      <trkpt lat="47.21163" lon="-1.49098">
        <ele>50</ele>
        <time>2021-02-28T12:48:43.000Z</time>
      </trkpt>
      <trkpt lat="47.21155" lon="-1.49114">
        <ele>51</ele>
        <time>2021-02-28T12:48:45.000Z</time>
      </trkpt>
      <trkpt lat="47.21153" lon="-1.49133">
        <ele>51</ele>
        <time>2021-02-28T12:48:47.000Z</time>
      </trkpt>
      <trkpt lat="47.2115" lon="-1.49153">
        <ele>51</ele>
        <time>2021-02-28T12:48:49.000Z</time>
      </trkpt>
      <trkpt lat="47.21148" lon="-1.49173">
        <ele>51</ele>
        <time>2021-02-28T12:48:51.000Z</time>
      </trkpt>
      <trkpt lat="47.21146" lon="-1.49192">
        <ele>51</ele>
        <time>2021-02-28T12:48:53.000Z</time>
      </trkpt>
      <trkpt lat="47.21144" lon="-1.49214">
        <ele>50</ele>
        <time>2021-02-28T12:48:55.000Z</time>
      </trkpt>
      <trkpt lat="47.21142" lon="-1.49234">
        <ele>50</ele>
        <time>2021-02-28T12:48:57.000Z</time>
      </trkpt>
      <trkpt lat="47.2114" lon="-1.49255">
        <ele>50</ele>
        <time>2021-02-28T12:48:59.000Z</time>
      </trkpt>
      <trkpt lat="47.21139" lon="-1.49276">
        <ele>50</ele>
        <time>2021-02-28T12:49:01.000Z</time>
      </trkpt>
      <trkpt lat="47.21138" lon="-1.49297">
        <ele>50</ele>
        <time>2021-02-28T12:49:03.000Z</time>
      </trkpt>
      <trkpt lat="47.21137" lon="-1.49318">
        <ele>50</ele>
        <time>2021-02-28T12:49:05.000Z</time>
      </trkpt>
      <trkpt lat="47.21136" lon="-1.49339">
        <ele>49</ele>
        <time>2021-02-28T12:49:07.000Z</time>
      </trkpt>
      <trkpt lat="47.21136" lon="-1.49359">
        <ele>49</ele>
        <time>2021-02-28T12:49:09.000Z</time>
      </trkpt>
      <trkpt lat="47.21135" lon="-1.4938">
        <ele>50</ele>
        <time>2021-02-28T12:49:11.000Z</time>
      </trkpt>
      <trkpt lat="47.21134" lon="-1.494">
        <ele>49</ele>
        <time>2021-02-28T12:49:13.000Z</time>
      </trkpt>
      <trkpt lat="47.21133" lon="-1.4942">
        <ele>49</ele>
        <time>2021-02-28T12:49:15.000Z</time>
      </trkpt>
      <trkpt lat="47.21132" lon="-1.49439">
        <ele>49</ele>
        <time>2021-02-28T12:49:17.000Z</time>
      </trkpt>
      <trkpt lat="47.21132" lon="-1.49459">
        <ele>49</ele>
        <time>2021-02-28T12:49:19.000Z</time>
      </trkpt>
      <trkpt lat="47.21131" lon="-1.49479">
        <ele>49</ele>
        <time>2021-02-28T12:49:21.000Z</time>
      </trkpt>
      <trkpt lat="47.2113" lon="-1.49498">
        <ele>49</ele>
        <time>2021-02-28T12:49:23.000Z</time>
      </trkpt>
      <trkpt lat="47.21131" lon="-1.49517">
        <ele>49</ele>
        <time>2021-02-28T12:49:25.000Z</time>
      </trkpt>
      <trkpt lat="47.21131" lon="-1.49536">
        <ele>48</ele>
        <time>2021-02-28T12:49:27.000Z</time>
      </trkpt>
      <trkpt lat="47.21134" lon="-1.49553">
        <ele>48</ele>
        <time>2021-02-28T12:49:29.000Z</time>
      </trkpt>
      <trkpt lat="47.21138" lon="-1.49568">
        <ele>49</ele>
        <time>2021-02-28T12:49:31.000Z</time>
      </trkpt>
      <trkpt lat="47.2114" lon="-1.49585">
        <ele>49</ele>
        <time>2021-02-28T12:49:33.000Z</time>
      </trkpt>
      <trkpt lat="47.21133" lon="-1.49602">
        <ele>49</ele>
        <time>2021-02-28T12:49:35.000Z</time>
      </trkpt>
      <trkpt lat="47.21126" lon="-1.49617">
        <ele>49</ele>
        <time>2021-02-28T12:49:37.000Z</time>
      </trkpt>
      <trkpt lat="47.21125" lon="-1.49637">
        <ele>49</ele>
        <time>2021-02-28T12:49:39.000Z</time>
      </trkpt>
      <trkpt lat="47.21123" lon="-1.49657">
        <ele>49</ele>
        <time>2021-02-28T12:49:41.000Z</time>
      </trkpt>
      <trkpt lat="47.21122" lon="-1.49677">
        <ele>50</ele>
        <time>2021-02-28T12:49:43.000Z</time>
      </trkpt>
      <trkpt lat="47.21121" lon="-1.49696">
        <ele>50</ele>
        <time>2021-02-28T12:49:45.000Z</time>
      </trkpt>
      <trkpt lat="47.21121" lon="-1.49716">
        <ele>50</ele>
        <time>2021-02-28T12:49:47.000Z</time>
      </trkpt>
      <trkpt lat="47.21119" lon="-1.49736">
        <ele>49</ele>
        <time>2021-02-28T12:49:49.000Z</time>
      </trkpt>
      <trkpt lat="47.21118" lon="-1.49755">
        <ele>49</ele>
        <time>2021-02-28T12:49:51.000Z</time>
      </trkpt>
      <trkpt lat="47.21116" lon="-1.49774">
        <ele>49</ele>
        <time>2021-02-28T12:49:53.000Z</time>
      </trkpt>
      <trkpt lat="47.21113" lon="-1.49793">
        <ele>49</ele>
        <time>2021-02-28T12:49:55.000Z</time>
      </trkpt>
      <trkpt lat="47.21111" lon="-1.49812">
        <ele>49</ele>
        <time>2021-02-28T12:49:57.000Z</time>
      </trkpt>
      <trkpt lat="47.21108" lon="-1.49831">
        <ele>49</ele>
        <time>2021-02-28T12:49:59.000Z</time>
      </trkpt>
      <trkpt lat="47.21104" lon="-1.49849">
        <ele>50</ele>
        <time>2021-02-28T12:50:01.000Z</time>
      </trkpt>
      <trkpt lat="47.21102" lon="-1.49868">
        <ele>50</ele>
        <time>2021-02-28T12:50:03.000Z</time>
      </trkpt>
      <trkpt lat="47.21098" lon="-1.49887">
        <ele>50</ele>
        <time>2021-02-28T12:50:05.000Z</time>
      </trkpt>
      <trkpt lat="47.21092" lon="-1.49903">
        <ele>50</ele>
        <time>2021-02-28T12:50:07.000Z</time>
      </trkpt>
      <trkpt lat="47.21086" lon="-1.49922">
        <ele>51</ele>
        <time>2021-02-28T12:50:09.000Z</time>
      </trkpt>
      <trkpt lat="47.2108" lon="-1.49941">
        <ele>51</ele>
        <time>2021-02-28T12:50:11.000Z</time>
      </trkpt>
      <trkpt lat="47.21076" lon="-1.4996">
        <ele>50</ele>
        <time>2021-02-28T12:50:13.000Z</time>
      </trkpt>
      <trkpt lat="47.21071" lon="-1.49979">
        <ele>50</ele>
        <time>2021-02-28T12:50:15.000Z</time>
      </trkpt>
      <trkpt lat="47.21066" lon="-1.49998">
        <ele>50</ele>
        <time>2021-02-28T12:50:17.000Z</time>
      </trkpt>
      <trkpt lat="47.21062" lon="-1.50016">
        <ele>50</ele>
        <time>2021-02-28T12:50:19.000Z</time>
      </trkpt>
      <trkpt lat="47.21057" lon="-1.50035">
        <ele>50</ele>
        <time>2021-02-28T12:50:21.000Z</time>
      </trkpt>
      <trkpt lat="47.21052" lon="-1.50053">
        <ele>50</ele>
        <time>2021-02-28T12:50:23.000Z</time>
      </trkpt>
      <trkpt lat="47.21047" lon="-1.50072">
        <ele>50</ele>
        <time>2021-02-28T12:50:25.000Z</time>
      </trkpt>
      <trkpt lat="47.21042" lon="-1.50091">
        <ele>50</ele>
        <time>2021-02-28T12:50:27.000Z</time>
      </trkpt>
      <trkpt lat="47.21037" lon="-1.50109">
        <ele>50</ele>
        <time>2021-02-28T12:50:29.000Z</time>
      </trkpt>
      <trkpt lat="47.21033" lon="-1.50128">
        <ele>51</ele>
        <time>2021-02-28T12:50:31.000Z</time>
      </trkpt>
      <trkpt lat="47.21029" lon="-1.50148">
        <ele>51</ele>
        <time>2021-02-28T12:50:33.000Z</time>
      </trkpt>
      <trkpt lat="47.21024" lon="-1.50168">
        <ele>50</ele>
        <time>2021-02-28T12:50:35.000Z</time>
      </trkpt>
      <trkpt lat="47.2102" lon="-1.50186">
        <ele>50</ele>
        <time>2021-02-28T12:50:37.000Z</time>
      </trkpt>
      <trkpt lat="47.21018" lon="-1.50206">
        <ele>50</ele>
        <time>2021-02-28T12:50:39.000Z</time>
      </trkpt>
      <trkpt lat="47.21021" lon="-1.50224">
        <ele>50</ele>
        <time>2021-02-28T12:50:41.000Z</time>
      </trkpt>
      <trkpt lat="47.21017" lon="-1.50244">
        <ele>51</ele>
        <time>2021-02-28T12:50:43.000Z</time>
      </trkpt>
      <trkpt lat="47.21009" lon="-1.5026">
        <ele>51</ele>
        <time>2021-02-28T12:50:45.000Z</time>
      </trkpt>
      <trkpt lat="47.21006" lon="-1.50279">
        <ele>51</ele>
        <time>2021-02-28T12:50:47.000Z</time>
      </trkpt>
      <trkpt lat="47.21005" lon="-1.50299">
        <ele>51</ele>
        <time>2021-02-28T12:50:49.000Z</time>
      </trkpt>
      <trkpt lat="47.21003" lon="-1.50319">
        <ele>51</ele>
        <time>2021-02-28T12:50:51.000Z</time>
      </trkpt>
      <trkpt lat="47.21003" lon="-1.50339">
        <ele>51</ele>
        <time>2021-02-28T12:50:53.000Z</time>
      </trkpt>
      <trkpt lat="47.21003" lon="-1.5036">
        <ele>51</ele>
        <time>2021-02-28T12:50:55.000Z</time>
      </trkpt>
      <trkpt lat="47.21003" lon="-1.50381">
        <ele>51</ele>
        <time>2021-02-28T12:50:57.000Z</time>
      </trkpt>
      <trkpt lat="47.21003" lon="-1.50401">
        <ele>51</ele>
        <time>2021-02-28T12:50:59.000Z</time>
      </trkpt>
      <trkpt lat="47.21003" lon="-1.50422">
        <ele>51</ele>
        <time>2021-02-28T12:51:01.000Z</time>
      </trkpt>
      <trkpt lat="47.21004" lon="-1.50442">
        <ele>51</ele>
        <time>2021-02-28T12:51:03.000Z</time>
      </trkpt>
      <trkpt lat="47.21004" lon="-1.50463">
        <ele>51</ele>
        <time>2021-02-28T12:51:05.000Z</time>
      </trkpt>
      <trkpt lat="47.21004" lon="-1.50483">
        <ele>52</ele>
        <time>2021-02-28T12:51:07.000Z</time>
      </trkpt>
      <trkpt lat="47.21004" lon="-1.50503">
        <ele>52</ele>
        <time>2021-02-28T12:51:09.000Z</time>
      </trkpt>
      <trkpt lat="47.21005" lon="-1.50523">
        <ele>52</ele>
        <time>2021-02-28T12:51:11.000Z</time>
      </trkpt>
      <trkpt lat="47.21005" lon="-1.50543">
        <ele>52</ele>
        <time>2021-02-28T12:51:13.000Z</time>
      </trkpt>
      <trkpt lat="47.21005" lon="-1.50564">
        <ele>52</ele>
        <time>2021-02-28T12:51:15.000Z</time>
      </trkpt>
      <trkpt lat="47.21005" lon="-1.50585">
        <ele>52</ele>
        <time>2021-02-28T12:51:17.000Z</time>
      </trkpt>
      <trkpt lat="47.21005" lon="-1.50605">
        <ele>52</ele>
        <time>2021-02-28T12:51:19.000Z</time>
      </trkpt>
      <trkpt lat="47.21005" lon="-1.50625">
        <ele>52</ele>
        <time>2021-02-28T12:51:21.000Z</time>
      </trkpt>
      <trkpt lat="47.21004" lon="-1.50645">
        <ele>52</ele>
        <time>2021-02-28T12:51:23.000Z</time>
      </trkpt>
      <trkpt lat="47.21003" lon="-1.50665">
        <ele>52</ele>
        <time>2021-02-28T12:51:25.000Z</time>
      </trkpt>
      <trkpt lat="47.21003" lon="-1.50685">
        <ele>52</ele>
        <time>2021-02-28T12:51:27.000Z</time>
      </trkpt>
      <trkpt lat="47.21001" lon="-1.50705">
        <ele>52</ele>
        <time>2021-02-28T12:51:29.000Z</time>
      </trkpt>
      <trkpt lat="47.21" lon="-1.50725">
        <ele>51</ele>
        <time>2021-02-28T12:51:31.000Z</time>
      </trkpt>
      <trkpt lat="47.20998" lon="-1.50744">
        <ele>51</ele>
        <time>2021-02-28T12:51:33.000Z</time>
      </trkpt>
      <trkpt lat="47.20996" lon="-1.50764">
        <ele>51</ele>
        <time>2021-02-28T12:51:35.000Z</time>
      </trkpt>
      <trkpt lat="47.20994" lon="-1.50784">
        <ele>51</ele>
        <time>2021-02-28T12:51:37.000Z</time>
      </trkpt>
      <trkpt lat="47.20991" lon="-1.50804">
        <ele>51</ele>
        <time>2021-02-28T12:51:39.000Z</time>
      </trkpt>
      <trkpt lat="47.20989" lon="-1.50824">
        <ele>50</ele>
        <time>2021-02-28T12:51:41.000Z</time>
      </trkpt>
      <trkpt lat="47.20987" lon="-1.50844">
        <ele>50</ele>
        <time>2021-02-28T12:51:43.000Z</time>
      </trkpt>
      <trkpt lat="47.20984" lon="-1.50863">
        <ele>50</ele>
        <time>2021-02-28T12:51:45.000Z</time>
      </trkpt>
      <trkpt lat="47.20982" lon="-1.50883">
        <ele>50</ele>
        <time>2021-02-28T12:51:47.000Z</time>
      </trkpt>
      <trkpt lat="47.20981" lon="-1.50901">
        <ele>49</ele>
        <time>2021-02-28T12:51:49.000Z</time>
      </trkpt>
      <trkpt lat="47.20978" lon="-1.50919">
        <ele>49</ele>
        <time>2021-02-28T12:51:51.000Z</time>
      </trkpt>
      <trkpt lat="47.20976" lon="-1.50939">
        <ele>49</ele>
        <time>2021-02-28T12:51:53.000Z</time>
      </trkpt>
      <trkpt lat="47.20973" lon="-1.50958">
        <ele>48</ele>
        <time>2021-02-28T12:51:55.000Z</time>
      </trkpt>
      <trkpt lat="47.20972" lon="-1.50978">
        <ele>48</ele>
        <time>2021-02-28T12:51:57.000Z</time>
      </trkpt>
      <trkpt lat="47.20969" lon="-1.50997">
        <ele>48</ele>
        <time>2021-02-28T12:51:59.000Z</time>
      </trkpt>
      <trkpt lat="47.20964" lon="-1.51015">
        <ele>48</ele>
        <time>2021-02-28T12:52:01.000Z</time>
      </trkpt>
      <trkpt lat="47.20958" lon="-1.51034">
        <ele>47</ele>
        <time>2021-02-28T12:52:03.000Z</time>
      </trkpt>
      <trkpt lat="47.20956" lon="-1.51054">
        <ele>47</ele>
        <time>2021-02-28T12:52:05.000Z</time>
      </trkpt>
      <trkpt lat="47.20954" lon="-1.51074">
        <ele>47</ele>
        <time>2021-02-28T12:52:07.000Z</time>
      </trkpt>
      <trkpt lat="47.2095" lon="-1.51096">
        <ele>48</ele>
        <time>2021-02-28T12:52:09.000Z</time>
      </trkpt>
      <trkpt lat="47.20945" lon="-1.51116">
        <ele>48</ele>
        <time>2021-02-28T12:52:11.000Z</time>
      </trkpt>
      <trkpt lat="47.20938" lon="-1.51136">
        <ele>48</ele>
        <time>2021-02-28T12:52:13.000Z</time>
      </trkpt>
      <trkpt lat="47.20931" lon="-1.51157">
        <ele>49</ele>
        <time>2021-02-28T12:52:15.000Z</time>
      </trkpt>
      <trkpt lat="47.20924" lon="-1.51177">
        <ele>49</ele>
        <time>2021-02-28T12:52:17.000Z</time>
      </trkpt>
      <trkpt lat="47.20916" lon="-1.51197">
        <ele>49</ele>
        <time>2021-02-28T12:52:19.000Z</time>
      </trkpt>
      <trkpt lat="47.20909" lon="-1.51217">
        <ele>49</ele>
        <time>2021-02-28T12:52:21.000Z</time>
      </trkpt>
      <trkpt lat="47.20901" lon="-1.51238">
        <ele>49</ele>
        <time>2021-02-28T12:52:23.000Z</time>
      </trkpt>
      <trkpt lat="47.20894" lon="-1.51257">
        <ele>49</ele>
        <time>2021-02-28T12:52:25.000Z</time>
      </trkpt>
      <trkpt lat="47.20886" lon="-1.51276">
        <ele>49</ele>
        <time>2021-02-28T12:52:27.000Z</time>
      </trkpt>
      <trkpt lat="47.20877" lon="-1.51293">
        <ele>49</ele>
        <time>2021-02-28T12:52:29.000Z</time>
      </trkpt>
      <trkpt lat="47.20869" lon="-1.51311">
        <ele>49</ele>
        <time>2021-02-28T12:52:31.000Z</time>
      </trkpt>
      <trkpt lat="47.20861" lon="-1.51329">
        <ele>48</ele>
        <time>2021-02-28T12:52:33.000Z</time>
      </trkpt>
      <trkpt lat="47.20855" lon="-1.51347">
        <ele>48</ele>
        <time>2021-02-28T12:52:35.000Z</time>
      </trkpt>
      <trkpt lat="47.2085" lon="-1.51367">
        <ele>48</ele>
        <time>2021-02-28T12:52:37.000Z</time>
      </trkpt>
      <trkpt lat="47.20845" lon="-1.51386">
        <ele>49</ele>
        <time>2021-02-28T12:52:39.000Z</time>
      </trkpt>
      <trkpt lat="47.2084" lon="-1.51406">
        <ele>49</ele>
        <time>2021-02-28T12:52:41.000Z</time>
      </trkpt>
      <trkpt lat="47.20837" lon="-1.51426">
        <ele>49</ele>
        <time>2021-02-28T12:52:43.000Z</time>
      </trkpt>
      <trkpt lat="47.20834" lon="-1.51446">
        <ele>48</ele>
        <time>2021-02-28T12:52:45.000Z</time>
      </trkpt>
      <trkpt lat="47.20831" lon="-1.51467">
        <ele>47</ele>
        <time>2021-02-28T12:52:47.000Z</time>
      </trkpt>
      <trkpt lat="47.20828" lon="-1.51489">
        <ele>47</ele>
        <time>2021-02-28T12:52:49.000Z</time>
      </trkpt>
      <trkpt lat="47.20824" lon="-1.51511">
        <ele>47</ele>
        <time>2021-02-28T12:52:51.000Z</time>
      </trkpt>
      <trkpt lat="47.20821" lon="-1.51534">
        <ele>47</ele>
        <time>2021-02-28T12:52:53.000Z</time>
      </trkpt>
      <trkpt lat="47.20817" lon="-1.51556">
        <ele>47</ele>
        <time>2021-02-28T12:52:55.000Z</time>
      </trkpt>
      <trkpt lat="47.20815" lon="-1.51579">
        <ele>47</ele>
        <time>2021-02-28T12:52:57.000Z</time>
      </trkpt>
      <trkpt lat="47.20812" lon="-1.51602">
        <ele>46</ele>
        <time>2021-02-28T12:52:59.000Z</time>
      </trkpt>
      <trkpt lat="47.20809" lon="-1.51623">
        <ele>47</ele>
        <time>2021-02-28T12:53:01.000Z</time>
      </trkpt>
      <trkpt lat="47.20806" lon="-1.51644">
        <ele>47</ele>
        <time>2021-02-28T12:53:03.000Z</time>
      </trkpt>
      <trkpt lat="47.20802" lon="-1.51665">
        <ele>46</ele>
        <time>2021-02-28T12:53:05.000Z</time>
      </trkpt>
      <trkpt lat="47.20799" lon="-1.51685">
        <ele>46</ele>
        <time>2021-02-28T12:53:07.000Z</time>
      </trkpt>
      <trkpt lat="47.20795" lon="-1.51705">
        <ele>46</ele>
        <time>2021-02-28T12:53:09.000Z</time>
      </trkpt>
      <trkpt lat="47.2079" lon="-1.51724">
        <ele>47</ele>
        <time>2021-02-28T12:53:11.000Z</time>
      </trkpt>
      <trkpt lat="47.20784" lon="-1.51744">
        <ele>47</ele>
        <time>2021-02-28T12:53:13.000Z</time>
      </trkpt>
      <trkpt lat="47.20779" lon="-1.51763">
        <ele>47</ele>
        <time>2021-02-28T12:53:15.000Z</time>
      </trkpt>
      <trkpt lat="47.20773" lon="-1.51783">
        <ele>48</ele>
        <time>2021-02-28T12:53:17.000Z</time>
      </trkpt>
      <trkpt lat="47.2077" lon="-1.51803">
        <ele>48</ele>
        <time>2021-02-28T12:53:19.000Z</time>
      </trkpt>
      <trkpt lat="47.20767" lon="-1.51822">
        <ele>48</ele>
        <time>2021-02-28T12:53:21.000Z</time>
      </trkpt>
      <trkpt lat="47.20762" lon="-1.51839">
        <ele>49</ele>
        <time>2021-02-28T12:53:23.000Z</time>
      </trkpt>
      <trkpt lat="47.20755" lon="-1.51855">
        <ele>48</ele>
        <time>2021-02-28T12:53:25.000Z</time>
      </trkpt>
      <trkpt lat="47.20748" lon="-1.51873">
        <ele>48</ele>
        <time>2021-02-28T12:53:27.000Z</time>
      </trkpt>
      <trkpt lat="47.20741" lon="-1.5189">
        <ele>48</ele>
        <time>2021-02-28T12:53:29.000Z</time>
      </trkpt>
      <trkpt lat="47.20733" lon="-1.51908">
        <ele>48</ele>
        <time>2021-02-28T12:53:31.000Z</time>
      </trkpt>
      <trkpt lat="47.20724" lon="-1.51925">
        <ele>50</ele>
        <time>2021-02-28T12:53:33.000Z</time>
      </trkpt>
      <trkpt lat="47.20716" lon="-1.51941">
        <ele>50</ele>
        <time>2021-02-28T12:53:35.000Z</time>
      </trkpt>
      <trkpt lat="47.20708" lon="-1.51957">
        <ele>50</ele>
        <time>2021-02-28T12:53:37.000Z</time>
      </trkpt>
      <trkpt lat="47.20699" lon="-1.51972">
        <ele>51</ele>
        <time>2021-02-28T12:53:39.000Z</time>
      </trkpt>
      <trkpt lat="47.20691" lon="-1.51987">
        <ele>51</ele>
        <time>2021-02-28T12:53:41.000Z</time>
      </trkpt>
      <trkpt lat="47.20682" lon="-1.52003">
        <ele>51</ele>
        <time>2021-02-28T12:53:43.000Z</time>
      </trkpt>
      <trkpt lat="47.20673" lon="-1.52018">
        <ele>50</ele>
        <time>2021-02-28T12:53:45.000Z</time>
      </trkpt>
      <trkpt lat="47.20664" lon="-1.52034">
        <ele>50</ele>
        <time>2021-02-28T12:53:47.000Z</time>
      </trkpt>
      <trkpt lat="47.20654" lon="-1.52049">
        <ele>49</ele>
        <time>2021-02-28T12:53:49.000Z</time>
      </trkpt>
      <trkpt lat="47.20644" lon="-1.52063">
        <ele>50</ele>
        <time>2021-02-28T12:53:51.000Z</time>
      </trkpt>
      <trkpt lat="47.20634" lon="-1.52078">
        <ele>50</ele>
        <time>2021-02-28T12:53:53.000Z</time>
      </trkpt>
      <trkpt lat="47.20625" lon="-1.52093">
        <ele>51</ele>
        <time>2021-02-28T12:53:55.000Z</time>
      </trkpt>
      <trkpt lat="47.20616" lon="-1.52109">
        <ele>51</ele>
        <time>2021-02-28T12:53:57.000Z</time>
      </trkpt>
      <trkpt lat="47.20607" lon="-1.52124">
        <ele>51</ele>
        <time>2021-02-28T12:53:59.000Z</time>
      </trkpt>
      <trkpt lat="47.206" lon="-1.52139">
        <ele>51</ele>
        <time>2021-02-28T12:54:01.000Z</time>
      </trkpt>
      <trkpt lat="47.20593" lon="-1.52154">
        <ele>51</ele>
        <time>2021-02-28T12:54:03.000Z</time>
      </trkpt>
      <trkpt lat="47.20585" lon="-1.52168">
        <ele>51</ele>
        <time>2021-02-28T12:54:05.000Z</time>
      </trkpt>
      <trkpt lat="47.20575" lon="-1.52182">
        <ele>51</ele>
        <time>2021-02-28T12:54:07.000Z</time>
      </trkpt>
      <trkpt lat="47.20566" lon="-1.52198">
        <ele>51</ele>
        <time>2021-02-28T12:54:09.000Z</time>
      </trkpt>
      <trkpt lat="47.20557" lon="-1.52216">
        <ele>51</ele>
        <time>2021-02-28T12:54:11.000Z</time>
      </trkpt>
      <trkpt lat="47.20548" lon="-1.52234">
        <ele>51</ele>
        <time>2021-02-28T12:54:13.000Z</time>
      </trkpt>
      <trkpt lat="47.20539" lon="-1.52252">
        <ele>51</ele>
        <time>2021-02-28T12:54:15.000Z</time>
      </trkpt>
      <trkpt lat="47.20531" lon="-1.52269">
        <ele>51</ele>
        <time>2021-02-28T12:54:17.000Z</time>
      </trkpt>
      <trkpt lat="47.20524" lon="-1.52287">
        <ele>50</ele>
        <time>2021-02-28T12:54:19.000Z</time>
      </trkpt>
      <trkpt lat="47.20523" lon="-1.52309">
        <ele>50</ele>
        <time>2021-02-28T12:54:21.000Z</time>
      </trkpt>
      <trkpt lat="47.20517" lon="-1.52332">
        <ele>50</ele>
        <time>2021-02-28T12:54:23.000Z</time>
      </trkpt>
      <trkpt lat="47.2051" lon="-1.52356">
        <ele>49</ele>
        <time>2021-02-28T12:54:25.000Z</time>
      </trkpt>
      <trkpt lat="47.20506" lon="-1.52369">
        <ele>49</ele>
        <time>2021-02-28T12:54:26.000Z</time>
      </trkpt>
      <trkpt lat="47.20498" lon="-1.52391">
        <ele>49</ele>
        <time>2021-02-28T12:54:28.000Z</time>
      </trkpt>
      <trkpt lat="47.2049" lon="-1.52412">
        <ele>48</ele>
        <time>2021-02-28T12:54:30.000Z</time>
      </trkpt>
      <trkpt lat="47.20484" lon="-1.52432">
        <ele>49</ele>
        <time>2021-02-28T12:54:32.000Z</time>
      </trkpt>
      <trkpt lat="47.20476" lon="-1.52451">
        <ele>49</ele>
        <time>2021-02-28T12:54:34.000Z</time>
      </trkpt>
      <trkpt lat="47.20467" lon="-1.52468">
        <ele>50</ele>
        <time>2021-02-28T12:54:36.000Z</time>
      </trkpt>
      <trkpt lat="47.20459" lon="-1.52489">
        <ele>50</ele>
        <time>2021-02-28T12:54:38.000Z</time>
      </trkpt>
      <trkpt lat="47.2045" lon="-1.52511">
        <ele>50</ele>
        <time>2021-02-28T12:54:40.000Z</time>
      </trkpt>
      <trkpt lat="47.20442" lon="-1.52532">
        <ele>49</ele>
        <time>2021-02-28T12:54:42.000Z</time>
      </trkpt>
      <trkpt lat="47.20435" lon="-1.52554">
        <ele>49</ele>
        <time>2021-02-28T12:54:44.000Z</time>
      </trkpt>
      <trkpt lat="47.20429" lon="-1.52575">
        <ele>49</ele>
        <time>2021-02-28T12:54:46.000Z</time>
      </trkpt>
      <trkpt lat="47.20423" lon="-1.52596">
        <ele>49</ele>
        <time>2021-02-28T12:54:48.000Z</time>
      </trkpt>
      <trkpt lat="47.20418" lon="-1.52617">
        <ele>50</ele>
        <time>2021-02-28T12:54:50.000Z</time>
      </trkpt>
      <trkpt lat="47.2041" lon="-1.52638">
        <ele>50</ele>
        <time>2021-02-28T12:54:52.000Z</time>
      </trkpt>
      <trkpt lat="47.20402" lon="-1.52657">
        <ele>50</ele>
        <time>2021-02-28T12:54:54.000Z</time>
      </trkpt>
      <trkpt lat="47.20394" lon="-1.52677">
        <ele>51</ele>
        <time>2021-02-28T12:54:56.000Z</time>
      </trkpt>
      <trkpt lat="47.20384" lon="-1.52696">
        <ele>51</ele>
        <time>2021-02-28T12:54:58.000Z</time>
      </trkpt>
      <trkpt lat="47.20375" lon="-1.52715">
        <ele>51</ele>
        <time>2021-02-28T12:55:00.000Z</time>
      </trkpt>
      <trkpt lat="47.20364" lon="-1.52733">
        <ele>51</ele>
        <time>2021-02-28T12:55:02.000Z</time>
      </trkpt>
      <trkpt lat="47.20354" lon="-1.52751">
        <ele>51</ele>
        <time>2021-02-28T12:55:04.000Z</time>
      </trkpt>
      <trkpt lat="47.20346" lon="-1.5277">
        <ele>51</ele>
        <time>2021-02-28T12:55:06.000Z</time>
      </trkpt>
      <trkpt lat="47.20337" lon="-1.52789">
        <ele>51</ele>
        <time>2021-02-28T12:55:08.000Z</time>
      </trkpt>
      <trkpt lat="47.20327" lon="-1.52809">
        <ele>50</ele>
        <time>2021-02-28T12:55:10.000Z</time>
      </trkpt>
      <trkpt lat="47.20318" lon="-1.52827">
        <ele>50</ele>
        <time>2021-02-28T12:55:12.000Z</time>
      </trkpt>
      <trkpt lat="47.2031" lon="-1.52846">
        <ele>50</ele>
        <time>2021-02-28T12:55:14.000Z</time>
      </trkpt>
      <trkpt lat="47.20301" lon="-1.52865">
        <ele>49</ele>
        <time>2021-02-28T12:55:16.000Z</time>
      </trkpt>
      <trkpt lat="47.20294" lon="-1.52886">
        <ele>49</ele>
        <time>2021-02-28T12:55:18.000Z</time>
      </trkpt>
      <trkpt lat="47.20286" lon="-1.52905">
        <ele>49</ele>
        <time>2021-02-28T12:55:20.000Z</time>
      </trkpt>
      <trkpt lat="47.20277" lon="-1.52924">
        <ele>50</ele>
        <time>2021-02-28T12:55:22.000Z</time>
      </trkpt>
      <trkpt lat="47.20268" lon="-1.52941">
        <ele>50</ele>
        <time>2021-02-28T12:55:24.000Z</time>
      </trkpt>
      <trkpt lat="47.20258" lon="-1.52958">
        <ele>50</ele>
        <time>2021-02-28T12:55:26.000Z</time>
      </trkpt>
      <trkpt lat="47.20248" lon="-1.52975">
        <ele>50</ele>
        <time>2021-02-28T12:55:28.000Z</time>
      </trkpt>
      <trkpt lat="47.20238" lon="-1.52993">
        <ele>50</ele>
        <time>2021-02-28T12:55:30.000Z</time>
      </trkpt>
      <trkpt lat="47.20228" lon="-1.5301">
        <ele>50</ele>
        <time>2021-02-28T12:55:32.000Z</time>
      </trkpt>
      <trkpt lat="47.20216" lon="-1.53025">
        <ele>50</ele>
        <time>2021-02-28T12:55:34.000Z</time>
      </trkpt>
      <trkpt lat="47.20204" lon="-1.53039">
        <ele>49</ele>
        <time>2021-02-28T12:55:36.000Z</time>
      </trkpt>
      <trkpt lat="47.20192" lon="-1.53053">
        <ele>49</ele>
        <time>2021-02-28T12:55:38.000Z</time>
      </trkpt>
      <trkpt lat="47.20181" lon="-1.53071">
        <ele>49</ele>
        <time>2021-02-28T12:55:40.000Z</time>
      </trkpt>
      <trkpt lat="47.20172" lon="-1.53089">
        <ele>49</ele>
        <time>2021-02-28T12:55:42.000Z</time>
      </trkpt>
      <trkpt lat="47.20162" lon="-1.53107">
        <ele>49</ele>
        <time>2021-02-28T12:55:44.000Z</time>
      </trkpt>
      <trkpt lat="47.20154" lon="-1.53125">
        <ele>49</ele>
        <time>2021-02-28T12:55:46.000Z</time>
      </trkpt>
      <trkpt lat="47.20146" lon="-1.53144">
        <ele>49</ele>
        <time>2021-02-28T12:55:48.000Z</time>
      </trkpt>
      <trkpt lat="47.20139" lon="-1.53162">
        <ele>50</ele>
        <time>2021-02-28T12:55:50.000Z</time>
      </trkpt>
      <trkpt lat="47.20132" lon="-1.53182">
        <ele>51</ele>
        <time>2021-02-28T12:55:52.000Z</time>
      </trkpt>
      <trkpt lat="47.20128" lon="-1.53203">
        <ele>51</ele>
        <time>2021-02-28T12:55:54.000Z</time>
      </trkpt>
      <trkpt lat="47.20122" lon="-1.53224">
        <ele>51</ele>
        <time>2021-02-28T12:55:56.000Z</time>
      </trkpt>
      <trkpt lat="47.20117" lon="-1.53245">
        <ele>51</ele>
        <time>2021-02-28T12:55:58.000Z</time>
      </trkpt>
      <trkpt lat="47.20112" lon="-1.53265">
        <ele>51</ele>
        <time>2021-02-28T12:56:00.000Z</time>
      </trkpt>
      <trkpt lat="47.20106" lon="-1.53283">
        <ele>52</ele>
        <time>2021-02-28T12:56:02.000Z</time>
      </trkpt>
      <trkpt lat="47.20099" lon="-1.53303">
        <ele>52</ele>
        <time>2021-02-28T12:56:04.000Z</time>
      </trkpt>
      <trkpt lat="47.20092" lon="-1.53322">
        <ele>52</ele>
        <time>2021-02-28T12:56:06.000Z</time>
      </trkpt>
      <trkpt lat="47.20085" lon="-1.53339">
        <ele>52</ele>
        <time>2021-02-28T12:56:08.000Z</time>
      </trkpt>
      <trkpt lat="47.20077" lon="-1.53357">
        <ele>53</ele>
        <time>2021-02-28T12:56:10.000Z</time>
      </trkpt>
      <trkpt lat="47.2007" lon="-1.53375">
        <ele>53</ele>
        <time>2021-02-28T12:56:12.000Z</time>
      </trkpt>
      <trkpt lat="47.20062" lon="-1.53393">
        <ele>53</ele>
        <time>2021-02-28T12:56:14.000Z</time>
      </trkpt>
      <trkpt lat="47.20055" lon="-1.5341">
        <ele>54</ele>
        <time>2021-02-28T12:56:16.000Z</time>
      </trkpt>
      <trkpt lat="47.20047" lon="-1.53426">
        <ele>54</ele>
        <time>2021-02-28T12:56:18.000Z</time>
      </trkpt>
      <trkpt lat="47.20041" lon="-1.53444">
        <ele>53</ele>
        <time>2021-02-28T12:56:20.000Z</time>
      </trkpt>
      <trkpt lat="47.20035" lon="-1.53464">
        <ele>53</ele>
        <time>2021-02-28T12:56:22.000Z</time>
      </trkpt>
      <trkpt lat="47.20028" lon="-1.53482">
        <ele>52</ele>
        <time>2021-02-28T12:56:24.000Z</time>
      </trkpt>
      <trkpt lat="47.20019" lon="-1.53499">
        <ele>51</ele>
        <time>2021-02-28T12:56:26.000Z</time>
      </trkpt>
      <trkpt lat="47.20008" lon="-1.53512">
        <ele>51</ele>
        <time>2021-02-28T12:56:28.000Z</time>
      </trkpt>
      <trkpt lat="47.19997" lon="-1.53526">
        <ele>50</ele>
        <time>2021-02-28T12:56:30.000Z</time>
      </trkpt>
      <trkpt lat="47.1999" lon="-1.53543">
        <ele>51</ele>
        <time>2021-02-28T12:56:32.000Z</time>
      </trkpt>
      <trkpt lat="47.19985" lon="-1.53563">
        <ele>52</ele>
        <time>2021-02-28T12:56:34.000Z</time>
      </trkpt>
      <trkpt lat="47.19982" lon="-1.53583">
        <ele>53</ele>
        <time>2021-02-28T12:56:36.000Z</time>
      </trkpt>
      <trkpt lat="47.19977" lon="-1.53604">
        <ele>53</ele>
        <time>2021-02-28T12:56:38.000Z</time>
      </trkpt>
      <trkpt lat="47.19972" lon="-1.53625">
        <ele>53</ele>
        <time>2021-02-28T12:56:40.000Z</time>
      </trkpt>
      <trkpt lat="47.19967" lon="-1.53645">
        <ele>52</ele>
        <time>2021-02-28T12:56:42.000Z</time>
      </trkpt>
      <trkpt lat="47.19962" lon="-1.53666">
        <ele>52</ele>
        <time>2021-02-28T12:56:44.000Z</time>
      </trkpt>
      <trkpt lat="47.19959" lon="-1.53685">
        <ele>53</ele>
        <time>2021-02-28T12:56:46.000Z</time>
      </trkpt>
      <trkpt lat="47.19955" lon="-1.53706">
        <ele>53</ele>
        <time>2021-02-28T12:56:48.000Z</time>
      </trkpt>
      <trkpt lat="47.1995" lon="-1.53727">
        <ele>53</ele>
        <time>2021-02-28T12:56:50.000Z</time>
      </trkpt>
      <trkpt lat="47.19944" lon="-1.53747">
        <ele>53</ele>
        <time>2021-02-28T12:56:52.000Z</time>
      </trkpt>
      <trkpt lat="47.19939" lon="-1.53767">
        <ele>53</ele>
        <time>2021-02-28T12:56:54.000Z</time>
      </trkpt>
      <trkpt lat="47.19935" lon="-1.53787">
        <ele>54</ele>
        <time>2021-02-28T12:56:56.000Z</time>
      </trkpt>
      <trkpt lat="47.1993" lon="-1.53807">
        <ele>54</ele>
        <time>2021-02-28T12:56:58.000Z</time>
      </trkpt>
      <trkpt lat="47.19927" lon="-1.53826">
        <ele>55</ele>
        <time>2021-02-28T12:57:00.000Z</time>
      </trkpt>
      <trkpt lat="47.19924" lon="-1.53844">
        <ele>54</ele>
        <time>2021-02-28T12:57:02.000Z</time>
      </trkpt>
      <trkpt lat="47.19921" lon="-1.53862">
        <ele>55</ele>
        <time>2021-02-28T12:57:04.000Z</time>
      </trkpt>
      <trkpt lat="47.19919" lon="-1.5388">
        <ele>54</ele>
        <time>2021-02-28T12:57:06.000Z</time>
      </trkpt>
      <trkpt lat="47.19914" lon="-1.539">
        <ele>54</ele>
        <time>2021-02-28T12:57:08.000Z</time>
      </trkpt>
      <trkpt lat="47.19909" lon="-1.5392">
        <ele>54</ele>
        <time>2021-02-28T12:57:10.000Z</time>
      </trkpt>
      <trkpt lat="47.19905" lon="-1.53938">
        <ele>54</ele>
        <time>2021-02-28T12:57:12.000Z</time>
      </trkpt>
      <trkpt lat="47.19899" lon="-1.53957">
        <ele>54</ele>
        <time>2021-02-28T12:57:14.000Z</time>
      </trkpt>
      <trkpt lat="47.19895" lon="-1.53975">
        <ele>54</ele>
        <time>2021-02-28T12:57:16.000Z</time>
      </trkpt>
      <trkpt lat="47.19889" lon="-1.53994">
        <ele>54</ele>
        <time>2021-02-28T12:57:18.000Z</time>
      </trkpt>
      <trkpt lat="47.19882" lon="-1.54012">
        <ele>54</ele>
        <time>2021-02-28T12:57:20.000Z</time>
      </trkpt>
      <trkpt lat="47.19877" lon="-1.54029">
        <ele>54</ele>
        <time>2021-02-28T12:57:22.000Z</time>
      </trkpt>
      <trkpt lat="47.19871" lon="-1.54045">
        <ele>54</ele>
        <time>2021-02-28T12:57:24.000Z</time>
      </trkpt>
      <trkpt lat="47.19865" lon="-1.54063">
        <ele>55</ele>
        <time>2021-02-28T12:57:26.000Z</time>
      </trkpt>
      <trkpt lat="47.19857" lon="-1.54081">
        <ele>55</ele>
        <time>2021-02-28T12:57:28.000Z</time>
      </trkpt>
      <trkpt lat="47.1985" lon="-1.54098">
        <ele>55</ele>
        <time>2021-02-28T12:57:30.000Z</time>
      </trkpt>
      <trkpt lat="47.19843" lon="-1.54113">
        <ele>55</ele>
        <time>2021-02-28T12:57:32.000Z</time>
      </trkpt>
      <trkpt lat="47.19837" lon="-1.54127">
        <ele>55</ele>
        <time>2021-02-28T12:57:34.000Z</time>
      </trkpt>
      <trkpt lat="47.19829" lon="-1.54142">
        <ele>55</ele>
        <time>2021-02-28T12:57:36.000Z</time>
      </trkpt>
      <trkpt lat="47.1982" lon="-1.54156">
        <ele>55</ele>
        <time>2021-02-28T12:57:38.000Z</time>
      </trkpt>
      <trkpt lat="47.19812" lon="-1.5417">
        <ele>56</ele>
        <time>2021-02-28T12:57:40.000Z</time>
      </trkpt>
      <trkpt lat="47.19806" lon="-1.54187">
        <ele>56</ele>
        <time>2021-02-28T12:57:42.000Z</time>
      </trkpt>
      <trkpt lat="47.19799" lon="-1.54206">
        <ele>55</ele>
        <time>2021-02-28T12:57:44.000Z</time>
      </trkpt>
      <trkpt lat="47.19791" lon="-1.54228">
        <ele>55</ele>
        <time>2021-02-28T12:57:46.000Z</time>
      </trkpt>
      <trkpt lat="47.19781" lon="-1.54248">
        <ele>55</ele>
        <time>2021-02-28T12:57:48.000Z</time>
      </trkpt>
      <trkpt lat="47.1977" lon="-1.54264">
        <ele>54</ele>
        <time>2021-02-28T12:57:50.000Z</time>
      </trkpt>
      <trkpt lat="47.19758" lon="-1.54281">
        <ele>54</ele>
        <time>2021-02-28T12:57:52.000Z</time>
      </trkpt>
      <trkpt lat="47.19745" lon="-1.54297">
        <ele>54</ele>
        <time>2021-02-28T12:57:54.000Z</time>
      </trkpt>
      <trkpt lat="47.19731" lon="-1.54308">
        <ele>54</ele>
        <time>2021-02-28T12:57:56.000Z</time>
      </trkpt>
      <trkpt lat="47.19716" lon="-1.5432">
        <ele>54</ele>
        <time>2021-02-28T12:57:58.000Z</time>
      </trkpt>
      <trkpt lat="47.19702" lon="-1.54331">
        <ele>54</ele>
        <time>2021-02-28T12:58:00.000Z</time>
      </trkpt>
      <trkpt lat="47.19688" lon="-1.54342">
        <ele>53</ele>
        <time>2021-02-28T12:58:02.000Z</time>
      </trkpt>
      <trkpt lat="47.19676" lon="-1.54351">
        <ele>52</ele>
        <time>2021-02-28T12:58:04.000Z</time>
      </trkpt>
      <trkpt lat="47.19665" lon="-1.54359">
        <ele>52</ele>
        <time>2021-02-28T12:58:06.000Z</time>
      </trkpt>
      <trkpt lat="47.19653" lon="-1.54369">
        <ele>52</ele>
        <time>2021-02-28T12:58:08.000Z</time>
      </trkpt>
      <trkpt lat="47.19641" lon="-1.54379">
        <ele>52</ele>
        <time>2021-02-28T12:58:10.000Z</time>
      </trkpt>
      <trkpt lat="47.1963" lon="-1.54389">
        <ele>53</ele>
        <time>2021-02-28T12:58:12.000Z</time>
      </trkpt>
      <trkpt lat="47.19619" lon="-1.54401">
        <ele>53</ele>
        <time>2021-02-28T12:58:14.000Z</time>
      </trkpt>
      <trkpt lat="47.19608" lon="-1.54411">
        <ele>53</ele>
        <time>2021-02-28T12:58:16.000Z</time>
      </trkpt>
      <trkpt lat="47.19598" lon="-1.54422">
        <ele>53</ele>
        <time>2021-02-28T12:58:18.000Z</time>
      </trkpt>
      <trkpt lat="47.19588" lon="-1.54433">
        <ele>54</ele>
        <time>2021-02-28T12:58:20.000Z</time>
      </trkpt>
      <trkpt lat="47.19577" lon="-1.54444">
        <ele>54</ele>
        <time>2021-02-28T12:58:22.000Z</time>
      </trkpt>
      <trkpt lat="47.19565" lon="-1.54455">
        <ele>54</ele>
        <time>2021-02-28T12:58:24.000Z</time>
      </trkpt>
      <trkpt lat="47.19554" lon="-1.54466">
        <ele>54</ele>
        <time>2021-02-28T12:58:26.000Z</time>
      </trkpt>
      <trkpt lat="47.19543" lon="-1.54476">
        <ele>54</ele>
        <time>2021-02-28T12:58:28.000Z</time>
      </trkpt>
      <trkpt lat="47.19532" lon="-1.54486">
        <ele>54</ele>
        <time>2021-02-28T12:58:30.000Z</time>
      </trkpt>
      <trkpt lat="47.19521" lon="-1.54496">
        <ele>54</ele>
        <time>2021-02-28T12:58:32.000Z</time>
      </trkpt>
      <trkpt lat="47.19509" lon="-1.54505">
        <ele>54</ele>
        <time>2021-02-28T12:58:34.000Z</time>
      </trkpt>
      <trkpt lat="47.19498" lon="-1.54514">
        <ele>54</ele>
        <time>2021-02-28T12:58:36.000Z</time>
      </trkpt>
      <trkpt lat="47.19487" lon="-1.54524">
        <ele>54</ele>
        <time>2021-02-28T12:58:38.000Z</time>
      </trkpt>
      <trkpt lat="47.19478" lon="-1.54537">
        <ele>53</ele>
        <time>2021-02-28T12:58:40.000Z</time>
      </trkpt>
      <trkpt lat="47.19472" lon="-1.54555">
        <ele>53</ele>
        <time>2021-02-28T12:58:42.000Z</time>
      </trkpt>
      <trkpt lat="47.1947" lon="-1.54573">
        <ele>53</ele>
        <time>2021-02-28T12:58:44.000Z</time>
      </trkpt>
      <trkpt lat="47.19474" lon="-1.54592">
        <ele>54</ele>
        <time>2021-02-28T12:58:46.000Z</time>
      </trkpt>
      <trkpt lat="47.19471" lon="-1.54611">
        <ele>54</ele>
        <time>2021-02-28T12:58:48.000Z</time>
      </trkpt>
      <trkpt lat="47.19466" lon="-1.54626">
        <ele>53</ele>
        <time>2021-02-28T12:58:50.000Z</time>
      </trkpt>
      <trkpt lat="47.19458" lon="-1.54636">
        <ele>53</ele>
        <time>2021-02-28T12:58:52.000Z</time>
      </trkpt>
      <trkpt lat="47.19448" lon="-1.5464">
        <ele>53</ele>
        <time>2021-02-28T12:58:54.000Z</time>
      </trkpt>
      <trkpt lat="47.19443" lon="-1.54657">
        <ele>54</ele>
        <time>2021-02-28T12:58:56.000Z</time>
      </trkpt>
      <trkpt lat="47.1944" lon="-1.54678">
        <ele>53</ele>
        <time>2021-02-28T12:58:58.000Z</time>
      </trkpt>
      <trkpt lat="47.19435" lon="-1.54699">
        <ele>53</ele>
        <time>2021-02-28T12:59:00.000Z</time>
      </trkpt>
      <trkpt lat="47.1943" lon="-1.54717">
        <ele>54</ele>
        <time>2021-02-28T12:59:02.000Z</time>
      </trkpt>
      <trkpt lat="47.19425" lon="-1.54737">
        <ele>55</ele>
        <time>2021-02-28T12:59:04.000Z</time>
      </trkpt>
      <trkpt lat="47.19419" lon="-1.54756">
        <ele>55</ele>
        <time>2021-02-28T12:59:06.000Z</time>
      </trkpt>
      <trkpt lat="47.19414" lon="-1.54775">
        <ele>56</ele>
        <time>2021-02-28T12:59:08.000Z</time>
      </trkpt>
      <trkpt lat="47.19408" lon="-1.54796">
        <ele>56</ele>
        <time>2021-02-28T12:59:10.000Z</time>
      </trkpt>
      <trkpt lat="47.19402" lon="-1.54817">
        <ele>56</ele>
        <time>2021-02-28T12:59:12.000Z</time>
      </trkpt>
      <trkpt lat="47.19398" lon="-1.54837">
        <ele>57</ele>
        <time>2021-02-28T12:59:14.000Z</time>
      </trkpt>
      <trkpt lat="47.19394" lon="-1.54858">
        <ele>57</ele>
        <time>2021-02-28T12:59:16.000Z</time>
      </trkpt>
      <trkpt lat="47.19389" lon="-1.54877">
        <ele>57</ele>
        <time>2021-02-28T12:59:18.000Z</time>
      </trkpt>
      <trkpt lat="47.19385" lon="-1.54895">
        <ele>58</ele>
        <time>2021-02-28T12:59:20.000Z</time>
      </trkpt>
      <trkpt lat="47.1938" lon="-1.54912">
        <ele>59</ele>
        <time>2021-02-28T12:59:22.000Z</time>
      </trkpt>
      <trkpt lat="47.19375" lon="-1.54929">
        <ele>59</ele>
        <time>2021-02-28T12:59:24.000Z</time>
      </trkpt>
      <trkpt lat="47.19371" lon="-1.54946">
        <ele>59</ele>
        <time>2021-02-28T12:59:26.000Z</time>
      </trkpt>
      <trkpt lat="47.19367" lon="-1.54962">
        <ele>60</ele>
        <time>2021-02-28T12:59:28.000Z</time>
      </trkpt>
      <trkpt lat="47.19362" lon="-1.54979">
        <ele>60</ele>
        <time>2021-02-28T12:59:30.000Z</time>
      </trkpt>
      <trkpt lat="47.19357" lon="-1.54997">
        <ele>60</ele>
        <time>2021-02-28T12:59:32.000Z</time>
      </trkpt>
      <trkpt lat="47.19353" lon="-1.55015">
        <ele>60</ele>
        <time>2021-02-28T12:59:34.000Z</time>
      </trkpt>
      <trkpt lat="47.19348" lon="-1.55034">
        <ele>59</ele>
        <time>2021-02-28T12:59:36.000Z</time>
      </trkpt>
      <trkpt lat="47.19343" lon="-1.55053">
        <ele>58</ele>
        <time>2021-02-28T12:59:38.000Z</time>
      </trkpt>
      <trkpt lat="47.19338" lon="-1.55073">
        <ele>58</ele>
        <time>2021-02-28T12:59:40.000Z</time>
      </trkpt>
      <trkpt lat="47.19333" lon="-1.55094">
        <ele>58</ele>
        <time>2021-02-28T12:59:42.000Z</time>
      </trkpt>
      <trkpt lat="47.19328" lon="-1.55114">
        <ele>57</ele>
        <time>2021-02-28T12:59:44.000Z</time>
      </trkpt>
      <trkpt lat="47.19322" lon="-1.55136">
        <ele>57</ele>
        <time>2021-02-28T12:59:46.000Z</time>
      </trkpt>
      <trkpt lat="47.19317" lon="-1.55157">
        <ele>56</ele>
        <time>2021-02-28T12:59:48.000Z</time>
      </trkpt>
      <trkpt lat="47.19312" lon="-1.55179">
        <ele>56</ele>
        <time>2021-02-28T12:59:50.000Z</time>
      </trkpt>
      <trkpt lat="47.19306" lon="-1.55201">
        <ele>56</ele>
        <time>2021-02-28T12:59:52.000Z</time>
      </trkpt>
      <trkpt lat="47.19301" lon="-1.55222">
        <ele>56</ele>
        <time>2021-02-28T12:59:54.000Z</time>
      </trkpt>
      <trkpt lat="47.19296" lon="-1.55243">
        <ele>56</ele>
        <time>2021-02-28T12:59:56.000Z</time>
      </trkpt>
      <trkpt lat="47.19291" lon="-1.55264">
        <ele>55</ele>
        <time>2021-02-28T12:59:58.000Z</time>
      </trkpt>
      <trkpt lat="47.19286" lon="-1.55285">
        <ele>55</ele>
        <time>2021-02-28T13:00:00.000Z</time>
      </trkpt>
      <trkpt lat="47.19282" lon="-1.55306">
        <ele>54</ele>
        <time>2021-02-28T13:00:02.000Z</time>
      </trkpt>
      <trkpt lat="47.19278" lon="-1.55327">
        <ele>54</ele>
        <time>2021-02-28T13:00:04.000Z</time>
      </trkpt>
      <trkpt lat="47.19274" lon="-1.55348">
        <ele>54</ele>
        <time>2021-02-28T13:00:06.000Z</time>
      </trkpt>
      <trkpt lat="47.19268" lon="-1.55367">
        <ele>55</ele>
        <time>2021-02-28T13:00:08.000Z</time>
      </trkpt>
      <trkpt lat="47.19262" lon="-1.55386">
        <ele>55</ele>
        <time>2021-02-28T13:00:10.000Z</time>
      </trkpt>
      <trkpt lat="47.19257" lon="-1.55404">
        <ele>55</ele>
        <time>2021-02-28T13:00:12.000Z</time>
      </trkpt>
      <trkpt lat="47.19259" lon="-1.55424">
        <ele>55</ele>
        <time>2021-02-28T13:00:14.000Z</time>
      </trkpt>
      <trkpt lat="47.19259" lon="-1.55445">
        <ele>54</ele>
        <time>2021-02-28T13:00:16.000Z</time>
      </trkpt>
      <trkpt lat="47.19253" lon="-1.55465">
        <ele>54</ele>
        <time>2021-02-28T13:00:18.000Z</time>
      </trkpt>
      <trkpt lat="47.19249" lon="-1.55486">
        <ele>54</ele>
        <time>2021-02-28T13:00:20.000Z</time>
      </trkpt>
      <trkpt lat="47.1925" lon="-1.55508">
        <ele>53</ele>
        <time>2021-02-28T13:00:22.000Z</time>
      </trkpt>
      <trkpt lat="47.19249" lon="-1.5553">
        <ele>52</ele>
        <time>2021-02-28T13:00:24.000Z</time>
      </trkpt>
      <trkpt lat="47.19248" lon="-1.55551">
        <ele>52</ele>
        <time>2021-02-28T13:00:26.000Z</time>
      </trkpt>
      <trkpt lat="47.19247" lon="-1.55572">
        <ele>53</ele>
        <time>2021-02-28T13:00:28.000Z</time>
      </trkpt>
      <trkpt lat="47.19246" lon="-1.55592">
        <ele>52</ele>
        <time>2021-02-28T13:00:30.000Z</time>
      </trkpt>
      <trkpt lat="47.19245" lon="-1.55613">
        <ele>53</ele>
        <time>2021-02-28T13:00:32.000Z</time>
      </trkpt>
      <trkpt lat="47.19246" lon="-1.55633">
        <ele>53</ele>
        <time>2021-02-28T13:00:34.000Z</time>
      </trkpt>
      <trkpt lat="47.19245" lon="-1.55654">
        <ele>53</ele>
        <time>2021-02-28T13:00:36.000Z</time>
      </trkpt>
      <trkpt lat="47.19243" lon="-1.55675">
        <ele>53</ele>
        <time>2021-02-28T13:00:38.000Z</time>
      </trkpt>
      <trkpt lat="47.19242" lon="-1.55697">
        <ele>52</ele>
        <time>2021-02-28T13:00:40.000Z</time>
      </trkpt>
      <trkpt lat="47.19243" lon="-1.55717">
        <ele>53</ele>
        <time>2021-02-28T13:00:42.000Z</time>
      </trkpt>
      <trkpt lat="47.19243" lon="-1.55738">
        <ele>53</ele>
        <time>2021-02-28T13:00:44.000Z</time>
      </trkpt>
      <trkpt lat="47.19243" lon="-1.55759">
        <ele>54</ele>
        <time>2021-02-28T13:00:46.000Z</time>
      </trkpt>
      <trkpt lat="47.19243" lon="-1.55781">
        <ele>54</ele>
        <time>2021-02-28T13:00:48.000Z</time>
      </trkpt>
      <trkpt lat="47.19243" lon="-1.55803">
        <ele>53</ele>
        <time>2021-02-28T13:00:50.000Z</time>
      </trkpt>
      <trkpt lat="47.19243" lon="-1.55824">
        <ele>53</ele>
        <time>2021-02-28T13:00:52.000Z</time>
      </trkpt>
      <trkpt lat="47.19243" lon="-1.55845">
        <ele>53</ele>
        <time>2021-02-28T13:00:54.000Z</time>
      </trkpt>
      <trkpt lat="47.19244" lon="-1.55867">
        <ele>53</ele>
        <time>2021-02-28T13:00:56.000Z</time>
      </trkpt>
      <trkpt lat="47.19244" lon="-1.55888">
        <ele>54</ele>
        <time>2021-02-28T13:00:58.000Z</time>
      </trkpt>
      <trkpt lat="47.19245" lon="-1.55909">
        <ele>53</ele>
        <time>2021-02-28T13:01:00.000Z</time>
      </trkpt>
      <trkpt lat="47.19246" lon="-1.5593">
        <ele>53</ele>
        <time>2021-02-28T13:01:02.000Z</time>
      </trkpt>
      <trkpt lat="47.19247" lon="-1.55951">
        <ele>53</ele>
        <time>2021-02-28T13:01:04.000Z</time>
      </trkpt>
      <trkpt lat="47.19249" lon="-1.55971">
        <ele>53</ele>
        <time>2021-02-28T13:01:06.000Z</time>
      </trkpt>
      <trkpt lat="47.19251" lon="-1.55991">
        <ele>53</ele>
        <time>2021-02-28T13:01:08.000Z</time>
      </trkpt>
      <trkpt lat="47.19253" lon="-1.56012">
        <ele>53</ele>
        <time>2021-02-28T13:01:10.000Z</time>
      </trkpt>
      <trkpt lat="47.19255" lon="-1.56032">
        <ele>54</ele>
        <time>2021-02-28T13:01:12.000Z</time>
      </trkpt>
      <trkpt lat="47.19258" lon="-1.56052">
        <ele>54</ele>
        <time>2021-02-28T13:01:14.000Z</time>
      </trkpt>
      <trkpt lat="47.1926" lon="-1.56072">
        <ele>54</ele>
        <time>2021-02-28T13:01:16.000Z</time>
      </trkpt>
      <trkpt lat="47.19261" lon="-1.56093">
        <ele>54</ele>
        <time>2021-02-28T13:01:18.000Z</time>
      </trkpt>
      <trkpt lat="47.19262" lon="-1.56113">
        <ele>54</ele>
        <time>2021-02-28T13:01:20.000Z</time>
      </trkpt>
      <trkpt lat="47.19263" lon="-1.56133">
        <ele>54</ele>
        <time>2021-02-28T13:01:22.000Z</time>
      </trkpt>
      <trkpt lat="47.19264" lon="-1.56153">
        <ele>54</ele>
        <time>2021-02-28T13:01:24.000Z</time>
      </trkpt>
      <trkpt lat="47.19265" lon="-1.56174">
        <ele>54</ele>
        <time>2021-02-28T13:01:26.000Z</time>
      </trkpt>
      <trkpt lat="47.19266" lon="-1.56194">
        <ele>54</ele>
        <time>2021-02-28T13:01:28.000Z</time>
      </trkpt>
      <trkpt lat="47.19268" lon="-1.56214">
        <ele>55</ele>
        <time>2021-02-28T13:01:30.000Z</time>
      </trkpt>
      <trkpt lat="47.19271" lon="-1.56233">
        <ele>54</ele>
        <time>2021-02-28T13:01:32.000Z</time>
      </trkpt>
      <trkpt lat="47.19278" lon="-1.56251">
        <ele>54</ele>
        <time>2021-02-28T13:01:34.000Z</time>
      </trkpt>
      <trkpt lat="47.19288" lon="-1.56266">
        <ele>53</ele>
        <time>2021-02-28T13:01:36.000Z</time>
      </trkpt>
      <trkpt lat="47.19291" lon="-1.56287">
        <ele>53</ele>
        <time>2021-02-28T13:01:38.000Z</time>
      </trkpt>
      <trkpt lat="47.19289" lon="-1.56308">
        <ele>54</ele>
        <time>2021-02-28T13:01:40.000Z</time>
      </trkpt>
      <trkpt lat="47.19282" lon="-1.56326">
        <ele>54</ele>
        <time>2021-02-28T13:01:42.000Z</time>
      </trkpt>
      <trkpt lat="47.19281" lon="-1.56347">
        <ele>53</ele>
        <time>2021-02-28T13:01:44.000Z</time>
      </trkpt>
      <trkpt lat="47.19285" lon="-1.56368">
        <ele>54</ele>
        <time>2021-02-28T13:01:46.000Z</time>
      </trkpt>
      <trkpt lat="47.19287" lon="-1.5639">
        <ele>53</ele>
        <time>2021-02-28T13:01:48.000Z</time>
      </trkpt>
      <trkpt lat="47.19289" lon="-1.56411">
        <ele>53</ele>
        <time>2021-02-28T13:01:50.000Z</time>
      </trkpt>
      <trkpt lat="47.1929" lon="-1.56433">
        <ele>53</ele>
        <time>2021-02-28T13:01:52.000Z</time>
      </trkpt>
      <trkpt lat="47.19292" lon="-1.56455">
        <ele>53</ele>
        <time>2021-02-28T13:01:54.000Z</time>
      </trkpt>
      <trkpt lat="47.19295" lon="-1.56475">
        <ele>54</ele>
        <time>2021-02-28T13:01:56.000Z</time>
      </trkpt>
      <trkpt lat="47.19296" lon="-1.56496">
        <ele>54</ele>
        <time>2021-02-28T13:01:58.000Z</time>
      </trkpt>
      <trkpt lat="47.19298" lon="-1.56518">
        <ele>54</ele>
        <time>2021-02-28T13:02:00.000Z</time>
      </trkpt>
      <trkpt lat="47.193" lon="-1.56539">
        <ele>54</ele>
        <time>2021-02-28T13:02:02.000Z</time>
      </trkpt>
      <trkpt lat="47.19302" lon="-1.5656">
        <ele>54</ele>
        <time>2021-02-28T13:02:04.000Z</time>
      </trkpt>
      <trkpt lat="47.19304" lon="-1.56581">
        <ele>54</ele>
        <time>2021-02-28T13:02:06.000Z</time>
      </trkpt>
      <trkpt lat="47.19306" lon="-1.56602">
        <ele>54</ele>
        <time>2021-02-28T13:02:08.000Z</time>
      </trkpt>
      <trkpt lat="47.19307" lon="-1.56623">
        <ele>54</ele>
        <time>2021-02-28T13:02:10.000Z</time>
      </trkpt>
      <trkpt lat="47.19309" lon="-1.56644">
        <ele>54</ele>
        <time>2021-02-28T13:02:12.000Z</time>
      </trkpt>
      <trkpt lat="47.19311" lon="-1.56664">
        <ele>54</ele>
        <time>2021-02-28T13:02:14.000Z</time>
      </trkpt>
      <trkpt lat="47.19313" lon="-1.56684">
        <ele>54</ele>
        <time>2021-02-28T13:02:16.000Z</time>
      </trkpt>
      <trkpt lat="47.19315" lon="-1.56704">
        <ele>54</ele>
        <time>2021-02-28T13:02:18.000Z</time>
      </trkpt>
      <trkpt lat="47.19317" lon="-1.56724">
        <ele>54</ele>
        <time>2021-02-28T13:02:20.000Z</time>
      </trkpt>
      <trkpt lat="47.19319" lon="-1.56744">
        <ele>54</ele>
        <time>2021-02-28T13:02:22.000Z</time>
      </trkpt>
      <trkpt lat="47.19321" lon="-1.56764">
        <ele>54</ele>
        <time>2021-02-28T13:02:24.000Z</time>
      </trkpt>
      <trkpt lat="47.19323" lon="-1.56784">
        <ele>55</ele>
        <time>2021-02-28T13:02:26.000Z</time>
      </trkpt>
      <trkpt lat="47.19324" lon="-1.56803">
        <ele>54</ele>
        <time>2021-02-28T13:02:28.000Z</time>
      </trkpt>
      <trkpt lat="47.19326" lon="-1.56822">
        <ele>55</ele>
        <time>2021-02-28T13:02:30.000Z</time>
      </trkpt>
      <trkpt lat="47.19327" lon="-1.56842">
        <ele>54</ele>
        <time>2021-02-28T13:02:32.000Z</time>
      </trkpt>
      <trkpt lat="47.19328" lon="-1.56862">
        <ele>54</ele>
        <time>2021-02-28T13:02:34.000Z</time>
      </trkpt>
      <trkpt lat="47.19329" lon="-1.56882">
        <ele>54</ele>
        <time>2021-02-28T13:02:36.000Z</time>
      </trkpt>
      <trkpt lat="47.1933" lon="-1.56902">
        <ele>54</ele>
        <time>2021-02-28T13:02:38.000Z</time>
      </trkpt>
      <trkpt lat="47.1933" lon="-1.56922">
        <ele>54</ele>
        <time>2021-02-28T13:02:40.000Z</time>
      </trkpt>
      <trkpt lat="47.1933" lon="-1.56943">
        <ele>54</ele>
        <time>2021-02-28T13:02:42.000Z</time>
      </trkpt>
      <trkpt lat="47.19329" lon="-1.56963">
        <ele>54</ele>
        <time>2021-02-28T13:02:44.000Z</time>
      </trkpt>
      <trkpt lat="47.19327" lon="-1.56983">
        <ele>54</ele>
        <time>2021-02-28T13:02:46.000Z</time>
      </trkpt>
      <trkpt lat="47.19325" lon="-1.57002">
        <ele>54</ele>
        <time>2021-02-28T13:02:48.000Z</time>
      </trkpt>
      <trkpt lat="47.19324" lon="-1.57021">
        <ele>54</ele>
        <time>2021-02-28T13:02:50.000Z</time>
      </trkpt>
      <trkpt lat="47.1933" lon="-1.57038">
        <ele>54</ele>
        <time>2021-02-28T13:02:52.000Z</time>
      </trkpt>
      <trkpt lat="47.1934" lon="-1.57052">
        <ele>54</ele>
        <time>2021-02-28T13:02:54.000Z</time>
      </trkpt>
      <trkpt lat="47.19342" lon="-1.57072">
        <ele>54</ele>
        <time>2021-02-28T13:02:56.000Z</time>
      </trkpt>
      <trkpt lat="47.19331" lon="-1.57084">
        <ele>54</ele>
        <time>2021-02-28T13:02:58.000Z</time>
      </trkpt>
      <trkpt lat="47.19319" lon="-1.57091">
        <ele>54</ele>
        <time>2021-02-28T13:03:00.000Z</time>
      </trkpt>
      <trkpt lat="47.19314" lon="-1.57108">
        <ele>53</ele>
        <time>2021-02-28T13:03:02.000Z</time>
      </trkpt>
      <trkpt lat="47.19312" lon="-1.57128">
        <ele>53</ele>
        <time>2021-02-28T13:03:04.000Z</time>
      </trkpt>
      <trkpt lat="47.1931" lon="-1.57148">
        <ele>53</ele>
        <time>2021-02-28T13:03:06.000Z</time>
      </trkpt>
      <trkpt lat="47.19307" lon="-1.57167">
        <ele>53</ele>
        <time>2021-02-28T13:03:08.000Z</time>
      </trkpt>
      <trkpt lat="47.19306" lon="-1.57187">
        <ele>53</ele>
        <time>2021-02-28T13:03:10.000Z</time>
      </trkpt>
      <trkpt lat="47.19303" lon="-1.57207">
        <ele>53</ele>
        <time>2021-02-28T13:03:12.000Z</time>
      </trkpt>
      <trkpt lat="47.19299" lon="-1.57226">
        <ele>53</ele>
        <time>2021-02-28T13:03:14.000Z</time>
      </trkpt>
      <trkpt lat="47.19295" lon="-1.57245">
        <ele>54</ele>
        <time>2021-02-28T13:03:16.000Z</time>
      </trkpt>
      <trkpt lat="47.19292" lon="-1.57264">
        <ele>54</ele>
        <time>2021-02-28T13:03:18.000Z</time>
      </trkpt>
      <trkpt lat="47.19287" lon="-1.57283">
        <ele>55</ele>
        <time>2021-02-28T13:03:20.000Z</time>
      </trkpt>
      <trkpt lat="47.19282" lon="-1.57302">
        <ele>56</ele>
        <time>2021-02-28T13:03:22.000Z</time>
      </trkpt>
      <trkpt lat="47.19276" lon="-1.57321">
        <ele>56</ele>
        <time>2021-02-28T13:03:24.000Z</time>
      </trkpt>
      <trkpt lat="47.19269" lon="-1.5734">
        <ele>56</ele>
        <time>2021-02-28T13:03:26.000Z</time>
      </trkpt>
      <trkpt lat="47.19263" lon="-1.57359">
        <ele>56</ele>
        <time>2021-02-28T13:03:28.000Z</time>
      </trkpt>
      <trkpt lat="47.19257" lon="-1.57378">
        <ele>56</ele>
        <time>2021-02-28T13:03:30.000Z</time>
      </trkpt>
      <trkpt lat="47.19251" lon="-1.57398">
        <ele>56</ele>
        <time>2021-02-28T13:03:32.000Z</time>
      </trkpt>
      <trkpt lat="47.19245" lon="-1.57417">
        <ele>56</ele>
        <time>2021-02-28T13:03:34.000Z</time>
      </trkpt>
      <trkpt lat="47.19238" lon="-1.57437">
        <ele>56</ele>
        <time>2021-02-28T13:03:36.000Z</time>
      </trkpt>
      <trkpt lat="47.19231" lon="-1.57456">
        <ele>56</ele>
        <time>2021-02-28T13:03:38.000Z</time>
      </trkpt>
      <trkpt lat="47.19223" lon="-1.57476">
        <ele>56</ele>
        <time>2021-02-28T13:03:40.000Z</time>
      </trkpt>
      <trkpt lat="47.19216" lon="-1.57495">
        <ele>56</ele>
        <time>2021-02-28T13:03:42.000Z</time>
      </trkpt>
      <trkpt lat="47.19208" lon="-1.57515">
        <ele>56</ele>
        <time>2021-02-28T13:03:44.000Z</time>
      </trkpt>
      <trkpt lat="47.19201" lon="-1.57535">
        <ele>56</ele>
        <time>2021-02-28T13:03:46.000Z</time>
      </trkpt>
      <trkpt lat="47.19194" lon="-1.57553">
        <ele>57</ele>
        <time>2021-02-28T13:03:48.000Z</time>
      </trkpt>
      <trkpt lat="47.19187" lon="-1.57573">
        <ele>57</ele>
        <time>2021-02-28T13:03:50.000Z</time>
      </trkpt>
      <trkpt lat="47.19179" lon="-1.57591">
        <ele>57</ele>
        <time>2021-02-28T13:03:52.000Z</time>
      </trkpt>
      <trkpt lat="47.19172" lon="-1.57612">
        <ele>57</ele>
        <time>2021-02-28T13:03:54.000Z</time>
      </trkpt>
      <trkpt lat="47.19165" lon="-1.57631">
        <ele>57</ele>
        <time>2021-02-28T13:03:56.000Z</time>
      </trkpt>
      <trkpt lat="47.19158" lon="-1.5765">
        <ele>57</ele>
        <time>2021-02-28T13:03:58.000Z</time>
      </trkpt>
      <trkpt lat="47.19151" lon="-1.5767">
        <ele>57</ele>
        <time>2021-02-28T13:04:00.000Z</time>
      </trkpt>
      <trkpt lat="47.19144" lon="-1.5769">
        <ele>57</ele>
        <time>2021-02-28T13:04:02.000Z</time>
      </trkpt>
      <trkpt lat="47.19136" lon="-1.5771">
        <ele>57</ele>
        <time>2021-02-28T13:04:04.000Z</time>
      </trkpt>
      <trkpt lat="47.19129" lon="-1.57729">
        <ele>57</ele>
        <time>2021-02-28T13:04:06.000Z</time>
      </trkpt>
      <trkpt lat="47.19122" lon="-1.57749">
        <ele>57</ele>
        <time>2021-02-28T13:04:08.000Z</time>
      </trkpt>
      <trkpt lat="47.19115" lon="-1.5777">
        <ele>57</ele>
        <time>2021-02-28T13:04:10.000Z</time>
      </trkpt>
      <trkpt lat="47.19108" lon="-1.5779">
        <ele>56</ele>
        <time>2021-02-28T13:04:12.000Z</time>
      </trkpt>
      <trkpt lat="47.19101" lon="-1.5781">
        <ele>56</ele>
        <time>2021-02-28T13:04:14.000Z</time>
      </trkpt>
      <trkpt lat="47.19094" lon="-1.57829">
        <ele>56</ele>
        <time>2021-02-28T13:04:16.000Z</time>
      </trkpt>
      <trkpt lat="47.19087" lon="-1.57848">
        <ele>56</ele>
        <time>2021-02-28T13:04:18.000Z</time>
      </trkpt>
      <trkpt lat="47.1908" lon="-1.57867">
        <ele>56</ele>
        <time>2021-02-28T13:04:20.000Z</time>
      </trkpt>
      <trkpt lat="47.19072" lon="-1.57887">
        <ele>56</ele>
        <time>2021-02-28T13:04:22.000Z</time>
      </trkpt>
      <trkpt lat="47.19064" lon="-1.57906">
        <ele>56</ele>
        <time>2021-02-28T13:04:24.000Z</time>
      </trkpt>
      <trkpt lat="47.19057" lon="-1.57926">
        <ele>57</ele>
        <time>2021-02-28T13:04:26.000Z</time>
      </trkpt>
      <trkpt lat="47.1905" lon="-1.57946">
        <ele>56</ele>
        <time>2021-02-28T13:04:28.000Z</time>
      </trkpt>
      <trkpt lat="47.19043" lon="-1.57965">
        <ele>56</ele>
        <time>2021-02-28T13:04:30.000Z</time>
      </trkpt>
      <trkpt lat="47.19036" lon="-1.57985">
        <ele>56</ele>
        <time>2021-02-28T13:04:32.000Z</time>
      </trkpt>
      <trkpt lat="47.19029" lon="-1.58005">
        <ele>56</ele>
        <time>2021-02-28T13:04:34.000Z</time>
      </trkpt>
      <trkpt lat="47.19022" lon="-1.58025">
        <ele>56</ele>
        <time>2021-02-28T13:04:36.000Z</time>
      </trkpt>
      <trkpt lat="47.19015" lon="-1.58044">
        <ele>56</ele>
        <time>2021-02-28T13:04:38.000Z</time>
      </trkpt>
      <trkpt lat="47.19008" lon="-1.58064">
        <ele>56</ele>
        <time>2021-02-28T13:04:40.000Z</time>
      </trkpt>
      <trkpt lat="47.19001" lon="-1.58084">
        <ele>56</ele>
        <time>2021-02-28T13:04:42.000Z</time>
      </trkpt>
      <trkpt lat="47.18994" lon="-1.58104">
        <ele>56</ele>
        <time>2021-02-28T13:04:44.000Z</time>
      </trkpt>
      <trkpt lat="47.18987" lon="-1.58123">
        <ele>56</ele>
        <time>2021-02-28T13:04:46.000Z</time>
      </trkpt>
      <trkpt lat="47.1898" lon="-1.58143">
        <ele>56</ele>
        <time>2021-02-28T13:04:48.000Z</time>
      </trkpt>
      <trkpt lat="47.18973" lon="-1.58162">
        <ele>56</ele>
        <time>2021-02-28T13:04:50.000Z</time>
      </trkpt>
      <trkpt lat="47.18966" lon="-1.58181">
        <ele>56</ele>
        <time>2021-02-28T13:04:52.000Z</time>
      </trkpt>
      <trkpt lat="47.18959" lon="-1.58201">
        <ele>56</ele>
        <time>2021-02-28T13:04:54.000Z</time>
      </trkpt>
      <trkpt lat="47.18952" lon="-1.5822">
        <ele>57</ele>
        <time>2021-02-28T13:04:56.000Z</time>
      </trkpt>
      <trkpt lat="47.18945" lon="-1.58239">
        <ele>56</ele>
        <time>2021-02-28T13:04:58.000Z</time>
      </trkpt>
      <trkpt lat="47.18938" lon="-1.58259">
        <ele>56</ele>
        <time>2021-02-28T13:05:00.000Z</time>
      </trkpt>
      <trkpt lat="47.18931" lon="-1.58277">
        <ele>56</ele>
        <time>2021-02-28T13:05:02.000Z</time>
      </trkpt>
      <trkpt lat="47.18924" lon="-1.58297">
        <ele>56</ele>
        <time>2021-02-28T13:05:04.000Z</time>
      </trkpt>
      <trkpt lat="47.18917" lon="-1.58316">
        <ele>55</ele>
        <time>2021-02-28T13:05:06.000Z</time>
      </trkpt>
      <trkpt lat="47.1891" lon="-1.58335">
        <ele>55</ele>
        <time>2021-02-28T13:05:08.000Z</time>
      </trkpt>
      <trkpt lat="47.18904" lon="-1.58354">
        <ele>55</ele>
        <time>2021-02-28T13:05:10.000Z</time>
      </trkpt>
      <trkpt lat="47.18897" lon="-1.58373">
        <ele>55</ele>
        <time>2021-02-28T13:05:12.000Z</time>
      </trkpt>
      <trkpt lat="47.18891" lon="-1.58392">
        <ele>55</ele>
        <time>2021-02-28T13:05:14.000Z</time>
      </trkpt>
      <trkpt lat="47.18885" lon="-1.5841">
        <ele>56</ele>
        <time>2021-02-28T13:05:16.000Z</time>
      </trkpt>
      <trkpt lat="47.18878" lon="-1.5843">
        <ele>56</ele>
        <time>2021-02-28T13:05:18.000Z</time>
      </trkpt>
      <trkpt lat="47.18872" lon="-1.58449">
        <ele>55</ele>
        <time>2021-02-28T13:05:20.000Z</time>
      </trkpt>
      <trkpt lat="47.18866" lon="-1.58468">
        <ele>55</ele>
        <time>2021-02-28T13:05:22.000Z</time>
      </trkpt>
      <trkpt lat="47.1886" lon="-1.58487">
        <ele>55</ele>
        <time>2021-02-28T13:05:24.000Z</time>
      </trkpt>
      <trkpt lat="47.18855" lon="-1.58507">
        <ele>55</ele>
        <time>2021-02-28T13:05:26.000Z</time>
      </trkpt>
      <trkpt lat="47.1885" lon="-1.58526">
        <ele>55</ele>
        <time>2021-02-28T13:05:28.000Z</time>
      </trkpt>
      <trkpt lat="47.18844" lon="-1.58546">
        <ele>55</ele>
        <time>2021-02-28T13:05:30.000Z</time>
      </trkpt>
      <trkpt lat="47.1884" lon="-1.58565">
        <ele>55</ele>
        <time>2021-02-28T13:05:32.000Z</time>
      </trkpt>
      <trkpt lat="47.18835" lon="-1.58585">
        <ele>54</ele>
        <time>2021-02-28T13:05:34.000Z</time>
      </trkpt>
      <trkpt lat="47.1883" lon="-1.58605">
        <ele>54</ele>
        <time>2021-02-28T13:05:36.000Z</time>
      </trkpt>
      <trkpt lat="47.18826" lon="-1.58624">
        <ele>54</ele>
        <time>2021-02-28T13:05:38.000Z</time>
      </trkpt>
      <trkpt lat="47.18822" lon="-1.58644">
        <ele>54</ele>
        <time>2021-02-28T13:05:40.000Z</time>
      </trkpt>
      <trkpt lat="47.18819" lon="-1.58663">
        <ele>54</ele>
        <time>2021-02-28T13:05:42.000Z</time>
      </trkpt>
      <trkpt lat="47.18817" lon="-1.58683">
        <ele>54</ele>
        <time>2021-02-28T13:05:44.000Z</time>
      </trkpt>
      <trkpt lat="47.18815" lon="-1.58701">
        <ele>54</ele>
        <time>2021-02-28T13:05:46.000Z</time>
      </trkpt>
      <trkpt lat="47.18821" lon="-1.58717">
        <ele>54</ele>
        <time>2021-02-28T13:05:48.000Z</time>
      </trkpt>
      <trkpt lat="47.18827" lon="-1.58735">
        <ele>53</ele>
        <time>2021-02-28T13:05:50.000Z</time>
      </trkpt>
      <trkpt lat="47.18828" lon="-1.58757">
        <ele>53</ele>
        <time>2021-02-28T13:05:52.000Z</time>
      </trkpt>
      <trkpt lat="47.18823" lon="-1.58778">
        <ele>54</ele>
        <time>2021-02-28T13:05:54.000Z</time>
      </trkpt>
      <trkpt lat="47.18813" lon="-1.58793">
        <ele>54</ele>
        <time>2021-02-28T13:05:56.000Z</time>
      </trkpt>
      <trkpt lat="47.18801" lon="-1.58804">
        <ele>54</ele>
        <time>2021-02-28T13:05:58.000Z</time>
      </trkpt>
      <trkpt lat="47.18792" lon="-1.58819">
        <ele>54</ele>
        <time>2021-02-28T13:06:00.000Z</time>
      </trkpt>
      <trkpt lat="47.18788" lon="-1.5884">
        <ele>53</ele>
        <time>2021-02-28T13:06:02.000Z</time>
      </trkpt>
      <trkpt lat="47.18784" lon="-1.58862">
        <ele>53</ele>
        <time>2021-02-28T13:06:04.000Z</time>
      </trkpt>
      <trkpt lat="47.1878" lon="-1.58884">
        <ele>53</ele>
        <time>2021-02-28T13:06:06.000Z</time>
      </trkpt>
      <trkpt lat="47.18777" lon="-1.58906">
        <ele>52</ele>
        <time>2021-02-28T13:06:08.000Z</time>
      </trkpt>
      <trkpt lat="47.18775" lon="-1.58929">
        <ele>52</ele>
        <time>2021-02-28T13:06:10.000Z</time>
      </trkpt>
      <trkpt lat="47.18772" lon="-1.58951">
        <ele>53</ele>
        <time>2021-02-28T13:06:12.000Z</time>
      </trkpt>
      <trkpt lat="47.18769" lon="-1.58972">
        <ele>52</ele>
        <time>2021-02-28T13:06:14.000Z</time>
      </trkpt>
      <trkpt lat="47.18767" lon="-1.58993">
        <ele>52</ele>
        <time>2021-02-28T13:06:16.000Z</time>
      </trkpt>
      <trkpt lat="47.18765" lon="-1.59015">
        <ele>53</ele>
        <time>2021-02-28T13:06:18.000Z</time>
      </trkpt>
      <trkpt lat="47.18762" lon="-1.59036">
        <ele>52</ele>
        <time>2021-02-28T13:06:20.000Z</time>
      </trkpt>
      <trkpt lat="47.1876" lon="-1.59056">
        <ele>53</ele>
        <time>2021-02-28T13:06:22.000Z</time>
      </trkpt>
      <trkpt lat="47.18758" lon="-1.59077">
        <ele>53</ele>
        <time>2021-02-28T13:06:24.000Z</time>
      </trkpt>
      <trkpt lat="47.18755" lon="-1.59097">
        <ele>53</ele>
        <time>2021-02-28T13:06:26.000Z</time>
      </trkpt>
      <trkpt lat="47.18753" lon="-1.59118">
        <ele>53</ele>
        <time>2021-02-28T13:06:28.000Z</time>
      </trkpt>
      <trkpt lat="47.18751" lon="-1.59139">
        <ele>53</ele>
        <time>2021-02-28T13:06:30.000Z</time>
      </trkpt>
      <trkpt lat="47.18748" lon="-1.5916">
        <ele>53</ele>
        <time>2021-02-28T13:06:32.000Z</time>
      </trkpt>
      <trkpt lat="47.18746" lon="-1.59181">
        <ele>53</ele>
        <time>2021-02-28T13:06:34.000Z</time>
      </trkpt>
      <trkpt lat="47.18744" lon="-1.59202">
        <ele>54</ele>
        <time>2021-02-28T13:06:36.000Z</time>
      </trkpt>
      <trkpt lat="47.18742" lon="-1.59223">
        <ele>54</ele>
        <time>2021-02-28T13:06:38.000Z</time>
      </trkpt>
      <trkpt lat="47.1874" lon="-1.59243">
        <ele>54</ele>
        <time>2021-02-28T13:06:40.000Z</time>
      </trkpt>
      <trkpt lat="47.18737" lon="-1.59265">
        <ele>53</ele>
        <time>2021-02-28T13:06:42.000Z</time>
      </trkpt>
      <trkpt lat="47.18735" lon="-1.59285">
        <ele>54</ele>
        <time>2021-02-28T13:06:44.000Z</time>
      </trkpt>
      <trkpt lat="47.18733" lon="-1.59306">
        <ele>54</ele>
        <time>2021-02-28T13:06:46.000Z</time>
      </trkpt>
      <trkpt lat="47.18731" lon="-1.59326">
        <ele>54</ele>
        <time>2021-02-28T13:06:48.000Z</time>
      </trkpt>
      <trkpt lat="47.18728" lon="-1.59347">
        <ele>54</ele>
        <time>2021-02-28T13:06:50.000Z</time>
      </trkpt>
      <trkpt lat="47.18726" lon="-1.59368">
        <ele>54</ele>
        <time>2021-02-28T13:06:52.000Z</time>
      </trkpt>
      <trkpt lat="47.18724" lon="-1.59389">
        <ele>54</ele>
        <time>2021-02-28T13:06:54.000Z</time>
      </trkpt>
      <trkpt lat="47.18722" lon="-1.5941">
        <ele>54</ele>
        <time>2021-02-28T13:06:56.000Z</time>
      </trkpt>
      <trkpt lat="47.18719" lon="-1.59431">
        <ele>54</ele>
        <time>2021-02-28T13:06:58.000Z</time>
      </trkpt>
      <trkpt lat="47.18717" lon="-1.59452">
        <ele>54</ele>
        <time>2021-02-28T13:07:00.000Z</time>
      </trkpt>
      <trkpt lat="47.18714" lon="-1.59474">
        <ele>54</ele>
        <time>2021-02-28T13:07:02.000Z</time>
      </trkpt>
      <trkpt lat="47.18712" lon="-1.59495">
        <ele>54</ele>
        <time>2021-02-28T13:07:04.000Z</time>
      </trkpt>
      <trkpt lat="47.18709" lon="-1.59516">
        <ele>54</ele>
        <time>2021-02-28T13:07:06.000Z</time>
      </trkpt>
      <trkpt lat="47.18707" lon="-1.59537">
        <ele>54</ele>
        <time>2021-02-28T13:07:08.000Z</time>
      </trkpt>
      <trkpt lat="47.18705" lon="-1.59558">
        <ele>54</ele>
        <time>2021-02-28T13:07:10.000Z</time>
      </trkpt>
      <trkpt lat="47.18703" lon="-1.59579">
        <ele>54</ele>
        <time>2021-02-28T13:07:12.000Z</time>
      </trkpt>
      <trkpt lat="47.18701" lon="-1.596">
        <ele>54</ele>
        <time>2021-02-28T13:07:14.000Z</time>
      </trkpt>
      <trkpt lat="47.18698" lon="-1.59621">
        <ele>54</ele>
        <time>2021-02-28T13:07:16.000Z</time>
      </trkpt>
      <trkpt lat="47.18695" lon="-1.59642">
        <ele>54</ele>
        <time>2021-02-28T13:07:18.000Z</time>
      </trkpt>
      <trkpt lat="47.18692" lon="-1.59663">
        <ele>54</ele>
        <time>2021-02-28T13:07:20.000Z</time>
      </trkpt>
      <trkpt lat="47.18689" lon="-1.59684">
        <ele>54</ele>
        <time>2021-02-28T13:07:22.000Z</time>
      </trkpt>
      <trkpt lat="47.18686" lon="-1.59705">
        <ele>53</ele>
        <time>2021-02-28T13:07:24.000Z</time>
      </trkpt>
      <trkpt lat="47.18685" lon="-1.59727">
        <ele>53</ele>
        <time>2021-02-28T13:07:26.000Z</time>
      </trkpt>
      <trkpt lat="47.18685" lon="-1.59752">
        <ele>53</ele>
        <time>2021-02-28T13:07:28.000Z</time>
      </trkpt>
      <trkpt lat="47.18684" lon="-1.59766">
        <ele>52</ele>
        <time>2021-02-28T13:07:29.000Z</time>
      </trkpt>
      <trkpt lat="47.18685" lon="-1.5978">
        <ele>52</ele>
        <time>2021-02-28T13:07:30.000Z</time>
      </trkpt>
      <trkpt lat="47.18686" lon="-1.59794">
        <ele>52</ele>
        <time>2021-02-28T13:07:31.000Z</time>
      </trkpt>
      <trkpt lat="47.18685" lon="-1.59809">
        <ele>53</ele>
        <time>2021-02-28T13:07:32.000Z</time>
      </trkpt>
      <trkpt lat="47.18681" lon="-1.59823">
        <ele>53</ele>
        <time>2021-02-28T13:07:33.000Z</time>
      </trkpt>
      <trkpt lat="47.18675" lon="-1.59835">
        <ele>52</ele>
        <time>2021-02-28T13:07:34.000Z</time>
      </trkpt>
      <trkpt lat="47.18667" lon="-1.59843">
        <ele>53</ele>
        <time>2021-02-28T13:07:35.000Z</time>
      </trkpt>
      <trkpt lat="47.18657" lon="-1.59846">
        <ele>53</ele>
        <time>2021-02-28T13:07:36.000Z</time>
      </trkpt>
      <trkpt lat="47.18648" lon="-1.59843">
        <ele>52</ele>
        <time>2021-02-28T13:07:37.000Z</time>
      </trkpt>
      <trkpt lat="47.18633" lon="-1.59831">
        <ele>52</ele>
        <time>2021-02-28T13:07:39.000Z</time>
      </trkpt>
      <trkpt lat="47.18621" lon="-1.59832">
        <ele>51</ele>
        <time>2021-02-28T13:07:41.000Z</time>
      </trkpt>
      <trkpt lat="47.18618" lon="-1.59848">
        <ele>50</ele>
        <time>2021-02-28T13:07:43.000Z</time>
      </trkpt>
      <trkpt lat="47.18623" lon="-1.59865">
        <ele>52</ele>
        <time>2021-02-28T13:07:45.000Z</time>
      </trkpt>
      <trkpt lat="47.18621" lon="-1.59884">
        <ele>53</ele>
        <time>2021-02-28T13:07:47.000Z</time>
      </trkpt>
      <trkpt lat="47.18616" lon="-1.59905">
        <ele>53</ele>
        <time>2021-02-28T13:07:49.000Z</time>
      </trkpt>
      <trkpt lat="47.1861" lon="-1.59925">
        <ele>53</ele>
        <time>2021-02-28T13:07:51.000Z</time>
      </trkpt>
      <trkpt lat="47.18605" lon="-1.59945">
        <ele>53</ele>
        <time>2021-02-28T13:07:53.000Z</time>
      </trkpt>
      <trkpt lat="47.18599" lon="-1.59965">
        <ele>53</ele>
        <time>2021-02-28T13:07:55.000Z</time>
      </trkpt>
      <trkpt lat="47.18593" lon="-1.59984">
        <ele>53</ele>
        <time>2021-02-28T13:07:57.000Z</time>
      </trkpt>
      <trkpt lat="47.18588" lon="-1.60003">
        <ele>53</ele>
        <time>2021-02-28T13:07:59.000Z</time>
      </trkpt>
      <trkpt lat="47.18582" lon="-1.60022">
        <ele>53</ele>
        <time>2021-02-28T13:08:01.000Z</time>
      </trkpt>
      <trkpt lat="47.18575" lon="-1.60041">
        <ele>53</ele>
        <time>2021-02-28T13:08:03.000Z</time>
      </trkpt>
      <trkpt lat="47.18568" lon="-1.60059">
        <ele>53</ele>
        <time>2021-02-28T13:08:05.000Z</time>
      </trkpt>
      <trkpt lat="47.18561" lon="-1.60077">
        <ele>53</ele>
        <time>2021-02-28T13:08:07.000Z</time>
      </trkpt>
      <trkpt lat="47.18554" lon="-1.60095">
        <ele>53</ele>
        <time>2021-02-28T13:08:09.000Z</time>
      </trkpt>
      <trkpt lat="47.18546" lon="-1.60113">
        <ele>53</ele>
        <time>2021-02-28T13:08:11.000Z</time>
      </trkpt>
      <trkpt lat="47.18539" lon="-1.6013">
        <ele>53</ele>
        <time>2021-02-28T13:08:13.000Z</time>
      </trkpt>
      <trkpt lat="47.18531" lon="-1.60148">
        <ele>53</ele>
        <time>2021-02-28T13:08:15.000Z</time>
      </trkpt>
      <trkpt lat="47.18523" lon="-1.60164">
        <ele>53</ele>
        <time>2021-02-28T13:08:17.000Z</time>
      </trkpt>
      <trkpt lat="47.18515" lon="-1.60181">
        <ele>53</ele>
        <time>2021-02-28T13:08:19.000Z</time>
      </trkpt>
      <trkpt lat="47.18508" lon="-1.60198">
        <ele>53</ele>
        <time>2021-02-28T13:08:21.000Z</time>
      </trkpt>
      <trkpt lat="47.18499" lon="-1.60215">
        <ele>54</ele>
        <time>2021-02-28T13:08:23.000Z</time>
      </trkpt>
      <trkpt lat="47.18491" lon="-1.60231">
        <ele>54</ele>
        <time>2021-02-28T13:08:25.000Z</time>
      </trkpt>
      <trkpt lat="47.18482" lon="-1.60248">
        <ele>54</ele>
        <time>2021-02-28T13:08:27.000Z</time>
      </trkpt>
      <trkpt lat="47.18473" lon="-1.60264">
        <ele>54</ele>
        <time>2021-02-28T13:08:29.000Z</time>
      </trkpt>
      <trkpt lat="47.18464" lon="-1.6028">
        <ele>53</ele>
        <time>2021-02-28T13:08:31.000Z</time>
      </trkpt>
      <trkpt lat="47.18455" lon="-1.60296">
        <ele>53</ele>
        <time>2021-02-28T13:08:33.000Z</time>
      </trkpt>
      <trkpt lat="47.18446" lon="-1.60311">
        <ele>53</ele>
        <time>2021-02-28T13:08:35.000Z</time>
      </trkpt>
      <trkpt lat="47.18436" lon="-1.60326">
        <ele>53</ele>
        <time>2021-02-28T13:08:37.000Z</time>
      </trkpt>
      <trkpt lat="47.18427" lon="-1.60341">
        <ele>53</ele>
        <time>2021-02-28T13:08:39.000Z</time>
      </trkpt>
      <trkpt lat="47.18417" lon="-1.60356">
        <ele>53</ele>
        <time>2021-02-28T13:08:41.000Z</time>
      </trkpt>
      <trkpt lat="47.18406" lon="-1.60369">
        <ele>53</ele>
        <time>2021-02-28T13:08:43.000Z</time>
      </trkpt>
      <trkpt lat="47.18396" lon="-1.60382">
        <ele>53</ele>
        <time>2021-02-28T13:08:45.000Z</time>
      </trkpt>
      <trkpt lat="47.18386" lon="-1.60396">
        <ele>52</ele>
        <time>2021-02-28T13:08:47.000Z</time>
      </trkpt>
      <trkpt lat="47.18375" lon="-1.60411">
        <ele>52</ele>
        <time>2021-02-28T13:08:49.000Z</time>
      </trkpt>
      <trkpt lat="47.18365" lon="-1.60424">
        <ele>52</ele>
        <time>2021-02-28T13:08:51.000Z</time>
      </trkpt>
      <trkpt lat="47.18355" lon="-1.60437">
        <ele>52</ele>
        <time>2021-02-28T13:08:53.000Z</time>
      </trkpt>
      <trkpt lat="47.18344" lon="-1.6045">
        <ele>53</ele>
        <time>2021-02-28T13:08:55.000Z</time>
      </trkpt>
      <trkpt lat="47.18334" lon="-1.60463">
        <ele>53</ele>
        <time>2021-02-28T13:08:57.000Z</time>
      </trkpt>
      <trkpt lat="47.18323" lon="-1.60475">
        <ele>53</ele>
        <time>2021-02-28T13:08:59.000Z</time>
      </trkpt>
      <trkpt lat="47.18312" lon="-1.60487">
        <ele>53</ele>
        <time>2021-02-28T13:09:01.000Z</time>
      </trkpt>
      <trkpt lat="47.18301" lon="-1.60499">
        <ele>53</ele>
        <time>2021-02-28T13:09:03.000Z</time>
      </trkpt>
      <trkpt lat="47.18291" lon="-1.6051">
        <ele>53</ele>
        <time>2021-02-28T13:09:05.000Z</time>
      </trkpt>
      <trkpt lat="47.18279" lon="-1.60522">
        <ele>53</ele>
        <time>2021-02-28T13:09:07.000Z</time>
      </trkpt>
      <trkpt lat="47.18268" lon="-1.60533">
        <ele>52</ele>
        <time>2021-02-28T13:09:09.000Z</time>
      </trkpt>
      <trkpt lat="47.18257" lon="-1.60542">
        <ele>53</ele>
        <time>2021-02-28T13:09:11.000Z</time>
      </trkpt>
      <trkpt lat="47.18246" lon="-1.60551">
        <ele>53</ele>
        <time>2021-02-28T13:09:13.000Z</time>
      </trkpt>
      <trkpt lat="47.18235" lon="-1.60559">
        <ele>53</ele>
        <time>2021-02-28T13:09:15.000Z</time>
      </trkpt>
      <trkpt lat="47.18225" lon="-1.60566">
        <ele>53</ele>
        <time>2021-02-28T13:09:17.000Z</time>
      </trkpt>
      <trkpt lat="47.18214" lon="-1.60572">
        <ele>52</ele>
        <time>2021-02-28T13:09:19.000Z</time>
      </trkpt>
      <trkpt lat="47.18204" lon="-1.60576">
        <ele>52</ele>
        <time>2021-02-28T13:09:21.000Z</time>
      </trkpt>
      <trkpt lat="47.18195" lon="-1.60579">
        <ele>52</ele>
        <time>2021-02-28T13:09:23.000Z</time>
      </trkpt>
      <trkpt lat="47.18189" lon="-1.60595">
        <ele>51</ele>
        <time>2021-02-28T13:09:26.000Z</time>
      </trkpt>
      <trkpt lat="47.1818" lon="-1.60603">
        <ele>51</ele>
        <time>2021-02-28T13:09:28.000Z</time>
      </trkpt>
      <trkpt lat="47.18167" lon="-1.60605">
        <ele>51</ele>
        <time>2021-02-28T13:09:30.000Z</time>
      </trkpt>
      <trkpt lat="47.18154" lon="-1.60606">
        <ele>50</ele>
        <time>2021-02-28T13:09:32.000Z</time>
      </trkpt>
      <trkpt lat="47.18142" lon="-1.60604">
        <ele>50</ele>
        <time>2021-02-28T13:09:34.000Z</time>
      </trkpt>
      <trkpt lat="47.18131" lon="-1.60602">
        <ele>50</ele>
        <time>2021-02-28T13:09:36.000Z</time>
      </trkpt>
      <trkpt lat="47.18119" lon="-1.60599">
        <ele>49</ele>
        <time>2021-02-28T13:09:38.000Z</time>
      </trkpt>
      <trkpt lat="47.18107" lon="-1.60594">
        <ele>50</ele>
        <time>2021-02-28T13:09:40.000Z</time>
      </trkpt>
      <trkpt lat="47.18094" lon="-1.60589">
        <ele>50</ele>
        <time>2021-02-28T13:09:42.000Z</time>
      </trkpt>
      <trkpt lat="47.18081" lon="-1.60582">
        <ele>50</ele>
        <time>2021-02-28T13:09:44.000Z</time>
      </trkpt>
      <trkpt lat="47.1807" lon="-1.60575">
        <ele>50</ele>
        <time>2021-02-28T13:09:46.000Z</time>
      </trkpt>
      <trkpt lat="47.18058" lon="-1.60568">
        <ele>51</ele>
        <time>2021-02-28T13:09:48.000Z</time>
      </trkpt>
      <trkpt lat="47.18046" lon="-1.60562">
        <ele>51</ele>
        <time>2021-02-28T13:09:50.000Z</time>
      </trkpt>
      <trkpt lat="47.18035" lon="-1.60556">
        <ele>50</ele>
        <time>2021-02-28T13:09:52.000Z</time>
      </trkpt>
      <trkpt lat="47.18023" lon="-1.60552">
        <ele>50</ele>
        <time>2021-02-28T13:09:54.000Z</time>
      </trkpt>
      <trkpt lat="47.1801" lon="-1.60552">
        <ele>51</ele>
        <time>2021-02-28T13:09:56.000Z</time>
      </trkpt>
      <trkpt lat="47.17999" lon="-1.60556">
        <ele>51</ele>
        <time>2021-02-28T13:09:58.000Z</time>
      </trkpt>
      <trkpt lat="47.17987" lon="-1.60559">
        <ele>51</ele>
        <time>2021-02-28T13:10:00.000Z</time>
      </trkpt>
      <trkpt lat="47.17976" lon="-1.60565">
        <ele>51</ele>
        <time>2021-02-28T13:10:02.000Z</time>
      </trkpt>
      <trkpt lat="47.17964" lon="-1.60569">
        <ele>51</ele>
        <time>2021-02-28T13:10:04.000Z</time>
      </trkpt>
      <trkpt lat="47.17952" lon="-1.60574">
        <ele>51</ele>
        <time>2021-02-28T13:10:06.000Z</time>
      </trkpt>
      <trkpt lat="47.17944" lon="-1.60583">
        <ele>51</ele>
        <time>2021-02-28T13:10:08.000Z</time>
      </trkpt>
      <trkpt lat="47.17933" lon="-1.60587">
        <ele>51</ele>
        <time>2021-02-28T13:10:10.000Z</time>
      </trkpt>
      <trkpt lat="47.17922" lon="-1.60589">
        <ele>52</ele>
        <time>2021-02-28T13:10:13.000Z</time>
      </trkpt>
      <trkpt lat="47.1791" lon="-1.60592">
        <ele>51</ele>
        <time>2021-02-28T13:10:16.000Z</time>
      </trkpt>
      <trkpt lat="47.17904" lon="-1.60606">
        <ele>51</ele>
        <time>2021-02-28T13:10:18.000Z</time>
      </trkpt>
      <trkpt lat="47.179" lon="-1.60624">
        <ele>51</ele>
        <time>2021-02-28T13:10:20.000Z</time>
      </trkpt>
      <trkpt lat="47.17894" lon="-1.60642">
        <ele>51</ele>
        <time>2021-02-28T13:10:22.000Z</time>
      </trkpt>
      <trkpt lat="47.17888" lon="-1.6066">
        <ele>50</ele>
        <time>2021-02-28T13:10:24.000Z</time>
      </trkpt>
      <trkpt lat="47.17882" lon="-1.60678">
        <ele>50</ele>
        <time>2021-02-28T13:10:26.000Z</time>
      </trkpt>
      <trkpt lat="47.17876" lon="-1.60696">
        <ele>50</ele>
        <time>2021-02-28T13:10:28.000Z</time>
      </trkpt>
      <trkpt lat="47.17872" lon="-1.60713">
        <ele>49</ele>
        <time>2021-02-28T13:10:30.000Z</time>
      </trkpt>
      <trkpt lat="47.17869" lon="-1.60731">
        <ele>49</ele>
        <time>2021-02-28T13:10:32.000Z</time>
      </trkpt>
      <trkpt lat="47.17866" lon="-1.60749">
        <ele>48</ele>
        <time>2021-02-28T13:10:34.000Z</time>
      </trkpt>
      <trkpt lat="47.17862" lon="-1.60767">
        <ele>49</ele>
        <time>2021-02-28T13:10:36.000Z</time>
      </trkpt>
      <trkpt lat="47.17859" lon="-1.60785">
        <ele>49</ele>
        <time>2021-02-28T13:10:38.000Z</time>
      </trkpt>
      <trkpt lat="47.17856" lon="-1.60802">
        <ele>50</ele>
        <time>2021-02-28T13:10:40.000Z</time>
      </trkpt>
      <trkpt lat="47.17852" lon="-1.6082">
        <ele>49</ele>
        <time>2021-02-28T13:10:42.000Z</time>
      </trkpt>
      <trkpt lat="47.17846" lon="-1.60837">
        <ele>50</ele>
        <time>2021-02-28T13:10:44.000Z</time>
      </trkpt>
      <trkpt lat="47.17839" lon="-1.60853">
        <ele>50</ele>
        <time>2021-02-28T13:10:46.000Z</time>
      </trkpt>
      <trkpt lat="47.1783" lon="-1.60868">
        <ele>52</ele>
        <time>2021-02-28T13:10:48.000Z</time>
      </trkpt>
      <trkpt lat="47.17821" lon="-1.60881">
        <ele>52</ele>
        <time>2021-02-28T13:10:50.000Z</time>
      </trkpt>
      <trkpt lat="47.1781" lon="-1.60893">
        <ele>52</ele>
        <time>2021-02-28T13:10:52.000Z</time>
      </trkpt>
      <trkpt lat="47.178" lon="-1.60902">
        <ele>52</ele>
        <time>2021-02-28T13:10:54.000Z</time>
      </trkpt>
      <trkpt lat="47.17789" lon="-1.6091">
        <ele>52</ele>
        <time>2021-02-28T13:10:56.000Z</time>
      </trkpt>
      <trkpt lat="47.17778" lon="-1.60919">
        <ele>51</ele>
        <time>2021-02-28T13:10:58.000Z</time>
      </trkpt>
      <trkpt lat="47.17767" lon="-1.60927">
        <ele>51</ele>
        <time>2021-02-28T13:11:00.000Z</time>
      </trkpt>
      <trkpt lat="47.17756" lon="-1.60935">
        <ele>51</ele>
        <time>2021-02-28T13:11:02.000Z</time>
      </trkpt>
      <trkpt lat="47.17745" lon="-1.60942">
        <ele>51</ele>
        <time>2021-02-28T13:11:04.000Z</time>
      </trkpt>
      <trkpt lat="47.17734" lon="-1.60949">
        <ele>51</ele>
        <time>2021-02-28T13:11:06.000Z</time>
      </trkpt>
      <trkpt lat="47.17722" lon="-1.60957">
        <ele>51</ele>
        <time>2021-02-28T13:11:08.000Z</time>
      </trkpt>
      <trkpt lat="47.1771" lon="-1.60966">
        <ele>51</ele>
        <time>2021-02-28T13:11:10.000Z</time>
      </trkpt>
      <trkpt lat="47.17699" lon="-1.60972">
        <ele>50</ele>
        <time>2021-02-28T13:11:12.000Z</time>
      </trkpt>
      <trkpt lat="47.17686" lon="-1.60973">
        <ele>50</ele>
        <time>2021-02-28T13:11:14.000Z</time>
      </trkpt>
      <trkpt lat="47.17672" lon="-1.60971">
        <ele>49</ele>
        <time>2021-02-28T13:11:16.000Z</time>
      </trkpt>
      <trkpt lat="47.17659" lon="-1.60971">
        <ele>48</ele>
        <time>2021-02-28T13:11:18.000Z</time>
      </trkpt>
      <trkpt lat="47.17648" lon="-1.60981">
        <ele>48</ele>
        <time>2021-02-28T13:11:20.000Z</time>
      </trkpt>
      <trkpt lat="47.17637" lon="-1.60992">
        <ele>48</ele>
        <time>2021-02-28T13:11:22.000Z</time>
      </trkpt>
      <trkpt lat="47.17627" lon="-1.61002">
        <ele>48</ele>
        <time>2021-02-28T13:11:24.000Z</time>
      </trkpt>
      <trkpt lat="47.17616" lon="-1.61012">
        <ele>48</ele>
        <time>2021-02-28T13:11:26.000Z</time>
      </trkpt>
      <trkpt lat="47.17604" lon="-1.61022">
        <ele>48</ele>
        <time>2021-02-28T13:11:28.000Z</time>
      </trkpt>
      <trkpt lat="47.17593" lon="-1.61032">
        <ele>48</ele>
        <time>2021-02-28T13:11:30.000Z</time>
      </trkpt>
      <trkpt lat="47.17583" lon="-1.61042">
        <ele>47</ele>
        <time>2021-02-28T13:11:32.000Z</time>
      </trkpt>
      <trkpt lat="47.17572" lon="-1.61051">
        <ele>48</ele>
        <time>2021-02-28T13:11:34.000Z</time>
      </trkpt>
      <trkpt lat="47.17561" lon="-1.61061">
        <ele>48</ele>
        <time>2021-02-28T13:11:36.000Z</time>
      </trkpt>
      <trkpt lat="47.1755" lon="-1.61069">
        <ele>49</ele>
        <time>2021-02-28T13:11:38.000Z</time>
      </trkpt>
      <trkpt lat="47.17539" lon="-1.61079">
        <ele>49</ele>
        <time>2021-02-28T13:11:40.000Z</time>
      </trkpt>
      <trkpt lat="47.17528" lon="-1.61088">
        <ele>49</ele>
        <time>2021-02-28T13:11:42.000Z</time>
      </trkpt>
      <trkpt lat="47.17517" lon="-1.61097">
        <ele>50</ele>
        <time>2021-02-28T13:11:44.000Z</time>
      </trkpt>
      <trkpt lat="47.17506" lon="-1.61103">
        <ele>50</ele>
        <time>2021-02-28T13:11:46.000Z</time>
      </trkpt>
      <trkpt lat="47.17495" lon="-1.61105">
        <ele>49</ele>
        <time>2021-02-28T13:11:48.000Z</time>
      </trkpt>
      <trkpt lat="47.17483" lon="-1.61104">
        <ele>50</ele>
        <time>2021-02-28T13:11:50.000Z</time>
      </trkpt>
      <trkpt lat="47.17472" lon="-1.61099">
        <ele>50</ele>
        <time>2021-02-28T13:11:52.000Z</time>
      </trkpt>
      <trkpt lat="47.17462" lon="-1.6109">
        <ele>51</ele>
        <time>2021-02-28T13:11:54.000Z</time>
      </trkpt>
      <trkpt lat="47.17452" lon="-1.61082">
        <ele>52</ele>
        <time>2021-02-28T13:11:56.000Z</time>
      </trkpt>
      <trkpt lat="47.17445" lon="-1.61071">
        <ele>52</ele>
        <time>2021-02-28T13:11:58.000Z</time>
      </trkpt>
      <trkpt lat="47.17439" lon="-1.6106">
        <ele>53</ele>
        <time>2021-02-28T13:12:00.000Z</time>
      </trkpt>
      <trkpt lat="47.17435" lon="-1.61048">
        <ele>53</ele>
        <time>2021-02-28T13:12:02.000Z</time>
      </trkpt>
      <trkpt lat="47.17431" lon="-1.61035">
        <ele>54</ele>
        <time>2021-02-28T13:12:04.000Z</time>
      </trkpt>
      <trkpt lat="47.17427" lon="-1.61022">
        <ele>54</ele>
        <time>2021-02-28T13:12:07.000Z</time>
      </trkpt>
      <trkpt lat="47.17422" lon="-1.61038">
        <ele>53</ele>
        <time>2021-02-28T13:12:12.000Z</time>
      </trkpt>
      <trkpt lat="47.17427" lon="-1.61051">
        <ele>54</ele>
        <time>2021-02-28T13:12:14.000Z</time>
      </trkpt>
      <trkpt lat="47.17432" lon="-1.61065">
        <ele>54</ele>
        <time>2021-02-28T13:12:16.000Z</time>
      </trkpt>
      <trkpt lat="47.17438" lon="-1.6108">
        <ele>54</ele>
        <time>2021-02-28T13:12:18.000Z</time>
      </trkpt>
      <trkpt lat="47.17444" lon="-1.61095">
        <ele>55</ele>
        <time>2021-02-28T13:12:20.000Z</time>
      </trkpt>
      <trkpt lat="47.1745" lon="-1.61109">
        <ele>55</ele>
        <time>2021-02-28T13:12:22.000Z</time>
      </trkpt>
      <trkpt lat="47.17455" lon="-1.61122">
        <ele>56</ele>
        <time>2021-02-28T13:12:24.000Z</time>
      </trkpt>
      <trkpt lat="47.17461" lon="-1.61135">
        <ele>57</ele>
        <time>2021-02-28T13:12:26.000Z</time>
      </trkpt>
      <trkpt lat="47.17466" lon="-1.61149">
        <ele>57</ele>
        <time>2021-02-28T13:12:28.000Z</time>
      </trkpt>
      <trkpt lat="47.17471" lon="-1.61162">
        <ele>58</ele>
        <time>2021-02-28T13:12:30.000Z</time>
      </trkpt>
      <trkpt lat="47.17477" lon="-1.61175">
        <ele>58</ele>
        <time>2021-02-28T13:12:32.000Z</time>
      </trkpt>
      <trkpt lat="47.17482" lon="-1.61189">
        <ele>58</ele>
        <time>2021-02-28T13:12:34.000Z</time>
      </trkpt>
      <trkpt lat="47.17487" lon="-1.61202">
        <ele>58</ele>
        <time>2021-02-28T13:12:36.000Z</time>
      </trkpt>
      <trkpt lat="47.17492" lon="-1.61215">
        <ele>59</ele>
        <time>2021-02-28T13:12:38.000Z</time>
      </trkpt>
      <trkpt lat="47.17498" lon="-1.61228">
        <ele>59</ele>
        <time>2021-02-28T13:12:40.000Z</time>
      </trkpt>
      <trkpt lat="47.17504" lon="-1.6124">
        <ele>59</ele>
        <time>2021-02-28T13:12:42.000Z</time>
      </trkpt>
      <trkpt lat="47.1751" lon="-1.61252">
        <ele>59</ele>
        <time>2021-02-28T13:12:44.000Z</time>
      </trkpt>
      <trkpt lat="47.17517" lon="-1.61264">
        <ele>59</ele>
        <time>2021-02-28T13:12:46.000Z</time>
      </trkpt>
      <trkpt lat="47.17524" lon="-1.61275">
        <ele>59</ele>
        <time>2021-02-28T13:12:48.000Z</time>
      </trkpt>
      <trkpt lat="47.17533" lon="-1.61285">
        <ele>59</ele>
        <time>2021-02-28T13:12:50.000Z</time>
      </trkpt>
      <trkpt lat="47.17543" lon="-1.6129">
        <ele>60</ele>
        <time>2021-02-28T13:12:52.000Z</time>
      </trkpt>
      <trkpt lat="47.17553" lon="-1.61297">
        <ele>60</ele>
        <time>2021-02-28T13:12:54.000Z</time>
      </trkpt>
      <trkpt lat="47.1756" lon="-1.6131">
        <ele>59</ele>
        <time>2021-02-28T13:12:56.000Z</time>
      </trkpt>
      <trkpt lat="47.17561" lon="-1.61327">
        <ele>59</ele>
        <time>2021-02-28T13:12:58.000Z</time>
      </trkpt>
      <trkpt lat="47.17557" lon="-1.61344">
        <ele>59</ele>
        <time>2021-02-28T13:13:00.000Z</time>
      </trkpt>
      <trkpt lat="47.17547" lon="-1.61355">
        <ele>59</ele>
        <time>2021-02-28T13:13:02.000Z</time>
      </trkpt>
      <trkpt lat="47.17537" lon="-1.61364">
        <ele>59</ele>
        <time>2021-02-28T13:13:04.000Z</time>
      </trkpt>
      <trkpt lat="47.17531" lon="-1.61379">
        <ele>59</ele>
        <time>2021-02-28T13:13:06.000Z</time>
      </trkpt>
      <trkpt lat="47.17527" lon="-1.61395">
        <ele>59</ele>
        <time>2021-02-28T13:13:08.000Z</time>
      </trkpt>
      <trkpt lat="47.17523" lon="-1.6141">
        <ele>60</ele>
        <time>2021-02-28T13:13:10.000Z</time>
      </trkpt>
      <trkpt lat="47.17519" lon="-1.61426">
        <ele>60</ele>
        <time>2021-02-28T13:13:12.000Z</time>
      </trkpt>
      <trkpt lat="47.17515" lon="-1.61442">
        <ele>61</ele>
        <time>2021-02-28T13:13:14.000Z</time>
      </trkpt>
      <trkpt lat="47.1751" lon="-1.61457">
        <ele>61</ele>
        <time>2021-02-28T13:13:16.000Z</time>
      </trkpt>
      <trkpt lat="47.17497" lon="-1.61467">
        <ele>62</ele>
        <time>2021-02-28T13:13:18.000Z</time>
      </trkpt>
      <trkpt lat="47.17485" lon="-1.61471">
        <ele>62</ele>
        <time>2021-02-28T13:13:20.000Z</time>
      </trkpt>
      <trkpt lat="47.17472" lon="-1.61477">
        <ele>63</ele>
        <time>2021-02-28T13:13:22.000Z</time>
      </trkpt>
      <trkpt lat="47.1746" lon="-1.61483">
        <ele>62</ele>
        <time>2021-02-28T13:13:24.000Z</time>
      </trkpt>
      <trkpt lat="47.17448" lon="-1.61488">
        <ele>62</ele>
        <time>2021-02-28T13:13:26.000Z</time>
      </trkpt>
      <trkpt lat="47.17437" lon="-1.61493">
        <ele>63</ele>
        <time>2021-02-28T13:13:28.000Z</time>
      </trkpt>
      <trkpt lat="47.17426" lon="-1.615">
        <ele>63</ele>
        <time>2021-02-28T13:13:30.000Z</time>
      </trkpt>
      <trkpt lat="47.17416" lon="-1.61508">
        <ele>63</ele>
        <time>2021-02-28T13:13:32.000Z</time>
      </trkpt>
      <trkpt lat="47.17406" lon="-1.61516">
        <ele>63</ele>
        <time>2021-02-28T13:13:34.000Z</time>
      </trkpt>
      <trkpt lat="47.17396" lon="-1.61524">
        <ele>63</ele>
        <time>2021-02-28T13:13:36.000Z</time>
      </trkpt>
      <trkpt lat="47.17387" lon="-1.61532">
        <ele>64</ele>
        <time>2021-02-28T13:13:38.000Z</time>
      </trkpt>
      <trkpt lat="47.17379" lon="-1.61542">
        <ele>64</ele>
        <time>2021-02-28T13:13:40.000Z</time>
      </trkpt>
      <trkpt lat="47.17371" lon="-1.61552">
        <ele>64</ele>
        <time>2021-02-28T13:13:42.000Z</time>
      </trkpt>
      <trkpt lat="47.17361" lon="-1.6156">
        <ele>64</ele>
        <time>2021-02-28T13:13:44.000Z</time>
      </trkpt>
      <trkpt lat="47.17354" lon="-1.61572">
        <ele>65</ele>
        <time>2021-02-28T13:13:46.000Z</time>
      </trkpt>
      <trkpt lat="47.17346" lon="-1.6158">
        <ele>66</ele>
        <time>2021-02-28T13:13:48.000Z</time>
      </trkpt>
      <trkpt lat="47.17338" lon="-1.61589">
        <ele>67</ele>
        <time>2021-02-28T13:13:50.000Z</time>
      </trkpt>
      <trkpt lat="47.17328" lon="-1.61597">
        <ele>69</ele>
        <time>2021-02-28T13:13:52.000Z</time>
      </trkpt>
      <trkpt lat="47.1732" lon="-1.61608">
        <ele>70</ele>
        <time>2021-02-28T13:13:54.000Z</time>
      </trkpt>
      <trkpt lat="47.17313" lon="-1.61619">
        <ele>70</ele>
        <time>2021-02-28T13:13:56.000Z</time>
      </trkpt>
      <trkpt lat="47.17306" lon="-1.61631">
        <ele>69</ele>
        <time>2021-02-28T13:13:58.000Z</time>
      </trkpt>
      <trkpt lat="47.17298" lon="-1.61643">
        <ele>69</ele>
        <time>2021-02-28T13:14:00.000Z</time>
      </trkpt>
      <trkpt lat="47.17292" lon="-1.61656">
        <ele>69</ele>
        <time>2021-02-28T13:14:02.000Z</time>
      </trkpt>
      <trkpt lat="47.17285" lon="-1.6167">
        <ele>69</ele>
        <time>2021-02-28T13:14:04.000Z</time>
      </trkpt>
      <trkpt lat="47.17279" lon="-1.61684">
        <ele>69</ele>
        <time>2021-02-28T13:14:06.000Z</time>
      </trkpt>
      <trkpt lat="47.17271" lon="-1.61698">
        <ele>68</ele>
        <time>2021-02-28T13:14:08.000Z</time>
      </trkpt>
      <trkpt lat="47.17264" lon="-1.61712">
        <ele>68</ele>
        <time>2021-02-28T13:14:10.000Z</time>
      </trkpt>
      <trkpt lat="47.17257" lon="-1.61727">
        <ele>68</ele>
        <time>2021-02-28T13:14:12.000Z</time>
      </trkpt>
      <trkpt lat="47.17251" lon="-1.61742">
        <ele>68</ele>
        <time>2021-02-28T13:14:14.000Z</time>
      </trkpt>
      <trkpt lat="47.17248" lon="-1.6176">
        <ele>68</ele>
        <time>2021-02-28T13:14:16.000Z</time>
      </trkpt>
      <trkpt lat="47.17244" lon="-1.61777">
        <ele>68</ele>
        <time>2021-02-28T13:14:18.000Z</time>
      </trkpt>
      <trkpt lat="47.17232" lon="-1.61789">
        <ele>68</ele>
        <time>2021-02-28T13:14:20.000Z</time>
      </trkpt>
      <trkpt lat="47.17222" lon="-1.61798">
        <ele>67</ele>
        <time>2021-02-28T13:14:22.000Z</time>
      </trkpt>
      <trkpt lat="47.17211" lon="-1.61807">
        <ele>67</ele>
        <time>2021-02-28T13:14:24.000Z</time>
      </trkpt>
      <trkpt lat="47.172" lon="-1.61817">
        <ele>67</ele>
        <time>2021-02-28T13:14:26.000Z</time>
      </trkpt>
      <trkpt lat="47.1719" lon="-1.61827">
        <ele>67</ele>
        <time>2021-02-28T13:14:28.000Z</time>
      </trkpt>
      <trkpt lat="47.17179" lon="-1.61836">
        <ele>67</ele>
        <time>2021-02-28T13:14:30.000Z</time>
      </trkpt>
      <trkpt lat="47.17169" lon="-1.61845">
        <ele>67</ele>
        <time>2021-02-28T13:14:32.000Z</time>
      </trkpt>
      <trkpt lat="47.17158" lon="-1.61855">
        <ele>67</ele>
        <time>2021-02-28T13:14:34.000Z</time>
      </trkpt>
      <trkpt lat="47.17148" lon="-1.61865">
        <ele>67</ele>
        <time>2021-02-28T13:14:36.000Z</time>
      </trkpt>
      <trkpt lat="47.17138" lon="-1.61875">
        <ele>67</ele>
        <time>2021-02-28T13:14:38.000Z</time>
      </trkpt>
      <trkpt lat="47.17128" lon="-1.61886">
        <ele>67</ele>
        <time>2021-02-28T13:14:40.000Z</time>
      </trkpt>
      <trkpt lat="47.17117" lon="-1.61896">
        <ele>67</ele>
        <time>2021-02-28T13:14:42.000Z</time>
      </trkpt>
      <trkpt lat="47.17106" lon="-1.61906">
        <ele>67</ele>
        <time>2021-02-28T13:14:44.000Z</time>
      </trkpt>
      <trkpt lat="47.17096" lon="-1.61916">
        <ele>67</ele>
        <time>2021-02-28T13:14:46.000Z</time>
      </trkpt>
      <trkpt lat="47.17085" lon="-1.61927">
        <ele>67</ele>
        <time>2021-02-28T13:14:48.000Z</time>
      </trkpt>
      <trkpt lat="47.17075" lon="-1.61937">
        <ele>66</ele>
        <time>2021-02-28T13:14:50.000Z</time>
      </trkpt>
      <trkpt lat="47.17065" lon="-1.61948">
        <ele>67</ele>
        <time>2021-02-28T13:14:52.000Z</time>
      </trkpt>
      <trkpt lat="47.17056" lon="-1.61961">
        <ele>67</ele>
        <time>2021-02-28T13:14:54.000Z</time>
      </trkpt>
      <trkpt lat="47.17047" lon="-1.61973">
        <ele>67</ele>
        <time>2021-02-28T13:14:56.000Z</time>
      </trkpt>
      <trkpt lat="47.17038" lon="-1.61987">
        <ele>67</ele>
        <time>2021-02-28T13:14:58.000Z</time>
      </trkpt>
      <trkpt lat="47.17029" lon="-1.62">
        <ele>67</ele>
        <time>2021-02-28T13:15:00.000Z</time>
      </trkpt>
      <trkpt lat="47.17019" lon="-1.62013">
        <ele>67</ele>
        <time>2021-02-28T13:15:02.000Z</time>
      </trkpt>
      <trkpt lat="47.1701" lon="-1.62026">
        <ele>67</ele>
        <time>2021-02-28T13:15:04.000Z</time>
      </trkpt>
      <trkpt lat="47.17002" lon="-1.6204">
        <ele>67</ele>
        <time>2021-02-28T13:15:06.000Z</time>
      </trkpt>
      <trkpt lat="47.16994" lon="-1.62055">
        <ele>67</ele>
        <time>2021-02-28T13:15:08.000Z</time>
      </trkpt>
      <trkpt lat="47.16986" lon="-1.6207">
        <ele>67</ele>
        <time>2021-02-28T13:15:10.000Z</time>
      </trkpt>
      <trkpt lat="47.16978" lon="-1.62085">
        <ele>67</ele>
        <time>2021-02-28T13:15:12.000Z</time>
      </trkpt>
      <trkpt lat="47.1697" lon="-1.62098">
        <ele>67</ele>
        <time>2021-02-28T13:15:14.000Z</time>
      </trkpt>
      <trkpt lat="47.16962" lon="-1.62113">
        <ele>67</ele>
        <time>2021-02-28T13:15:16.000Z</time>
      </trkpt>
      <trkpt lat="47.16954" lon="-1.62128">
        <ele>67</ele>
        <time>2021-02-28T13:15:18.000Z</time>
      </trkpt>
      <trkpt lat="47.16947" lon="-1.62142">
        <ele>67</ele>
        <time>2021-02-28T13:15:20.000Z</time>
      </trkpt>
      <trkpt lat="47.1694" lon="-1.62157">
        <ele>67</ele>
        <time>2021-02-28T13:15:22.000Z</time>
      </trkpt>
      <trkpt lat="47.16933" lon="-1.62172">
        <ele>67</ele>
        <time>2021-02-28T13:15:24.000Z</time>
      </trkpt>
      <trkpt lat="47.16926" lon="-1.62186">
        <ele>68</ele>
        <time>2021-02-28T13:15:26.000Z</time>
      </trkpt>
      <trkpt lat="47.16919" lon="-1.622">
        <ele>67</ele>
        <time>2021-02-28T13:15:28.000Z</time>
      </trkpt>
      <trkpt lat="47.1691" lon="-1.62213">
        <ele>68</ele>
        <time>2021-02-28T13:15:30.000Z</time>
      </trkpt>
      <trkpt lat="47.16901" lon="-1.62226">
        <ele>68</ele>
        <time>2021-02-28T13:15:32.000Z</time>
      </trkpt>
      <trkpt lat="47.16891" lon="-1.62238">
        <ele>68</ele>
        <time>2021-02-28T13:15:34.000Z</time>
      </trkpt>
      <trkpt lat="47.16881" lon="-1.6225">
        <ele>68</ele>
        <time>2021-02-28T13:15:36.000Z</time>
      </trkpt>
      <trkpt lat="47.16871" lon="-1.62261">
        <ele>68</ele>
        <time>2021-02-28T13:15:38.000Z</time>
      </trkpt>
      <trkpt lat="47.16862" lon="-1.62274">
        <ele>68</ele>
        <time>2021-02-28T13:15:40.000Z</time>
      </trkpt>
      <trkpt lat="47.16852" lon="-1.62286">
        <ele>68</ele>
        <time>2021-02-28T13:15:42.000Z</time>
      </trkpt>
      <trkpt lat="47.16843" lon="-1.62298">
        <ele>69</ele>
        <time>2021-02-28T13:15:44.000Z</time>
      </trkpt>
      <trkpt lat="47.16833" lon="-1.62308">
        <ele>69</ele>
        <time>2021-02-28T13:15:46.000Z</time>
      </trkpt>
      <trkpt lat="47.16821" lon="-1.62318">
        <ele>69</ele>
        <time>2021-02-28T13:15:48.000Z</time>
      </trkpt>
      <trkpt lat="47.1681" lon="-1.62326">
        <ele>68</ele>
        <time>2021-02-28T13:15:50.000Z</time>
      </trkpt>
      <trkpt lat="47.16799" lon="-1.62333">
        <ele>69</ele>
        <time>2021-02-28T13:15:52.000Z</time>
      </trkpt>
      <trkpt lat="47.16787" lon="-1.62339">
        <ele>68</ele>
        <time>2021-02-28T13:15:54.000Z</time>
      </trkpt>
      <trkpt lat="47.16775" lon="-1.62345">
        <ele>67</ele>
        <time>2021-02-28T13:15:56.000Z</time>
      </trkpt>
      <trkpt lat="47.16763" lon="-1.62352">
        <ele>66</ele>
        <time>2021-02-28T13:15:58.000Z</time>
      </trkpt>
      <trkpt lat="47.16752" lon="-1.62362">
        <ele>65</ele>
        <time>2021-02-28T13:16:00.000Z</time>
      </trkpt>
      <trkpt lat="47.16742" lon="-1.62375">
        <ele>65</ele>
        <time>2021-02-28T13:16:02.000Z</time>
      </trkpt>
      <trkpt lat="47.16735" lon="-1.62391">
        <ele>65</ele>
        <time>2021-02-28T13:16:04.000Z</time>
      </trkpt>
      <trkpt lat="47.16732" lon="-1.62409">
        <ele>65</ele>
        <time>2021-02-28T13:16:06.000Z</time>
      </trkpt>
      <trkpt lat="47.16729" lon="-1.62427">
        <ele>65</ele>
        <time>2021-02-28T13:16:08.000Z</time>
      </trkpt>
      <trkpt lat="47.16727" lon="-1.62443">
        <ele>66</ele>
        <time>2021-02-28T13:16:10.000Z</time>
      </trkpt>
      <trkpt lat="47.16723" lon="-1.62461">
        <ele>66</ele>
        <time>2021-02-28T13:16:12.000Z</time>
      </trkpt>
      <trkpt lat="47.16718" lon="-1.62477">
        <ele>66</ele>
        <time>2021-02-28T13:16:14.000Z</time>
      </trkpt>
      <trkpt lat="47.16719" lon="-1.62492">
        <ele>66</ele>
        <time>2021-02-28T13:16:16.000Z</time>
      </trkpt>
      <trkpt lat="47.16729" lon="-1.62499">
        <ele>66</ele>
        <time>2021-02-28T13:16:18.000Z</time>
      </trkpt>
      <trkpt lat="47.1674" lon="-1.62503">
        <ele>66</ele>
        <time>2021-02-28T13:16:20.000Z</time>
      </trkpt>
      <trkpt lat="47.16751" lon="-1.62508">
        <ele>67</ele>
        <time>2021-02-28T13:16:22.000Z</time>
      </trkpt>
      <trkpt lat="47.16761" lon="-1.62514">
        <ele>67</ele>
        <time>2021-02-28T13:16:24.000Z</time>
      </trkpt>
      <trkpt lat="47.16771" lon="-1.6252">
        <ele>67</ele>
        <time>2021-02-28T13:16:26.000Z</time>
      </trkpt>
      <trkpt lat="47.16781" lon="-1.62526">
        <ele>67</ele>
        <time>2021-02-28T13:16:28.000Z</time>
      </trkpt>
      <trkpt lat="47.1679" lon="-1.62533">
        <ele>67</ele>
        <time>2021-02-28T13:16:30.000Z</time>
      </trkpt>
      <trkpt lat="47.168" lon="-1.62539">
        <ele>67</ele>
        <time>2021-02-28T13:16:32.000Z</time>
      </trkpt>
      <trkpt lat="47.16809" lon="-1.62546">
        <ele>67</ele>
        <time>2021-02-28T13:16:34.000Z</time>
      </trkpt>
      <trkpt lat="47.16818" lon="-1.62555">
        <ele>68</ele>
        <time>2021-02-28T13:16:36.000Z</time>
      </trkpt>
      <trkpt lat="47.16827" lon="-1.62565">
        <ele>67</ele>
        <time>2021-02-28T13:16:38.000Z</time>
      </trkpt>
      <trkpt lat="47.16832" lon="-1.62581">
        <ele>67</ele>
        <time>2021-02-28T13:16:40.000Z</time>
      </trkpt>
      <trkpt lat="47.16828" lon="-1.62596">
        <ele>68</ele>
        <time>2021-02-28T13:16:42.000Z</time>
      </trkpt>
      <trkpt lat="47.1682" lon="-1.62608">
        <ele>67</ele>
        <time>2021-02-28T13:16:44.000Z</time>
      </trkpt>
      <trkpt lat="47.16813" lon="-1.6262">
        <ele>67</ele>
        <time>2021-02-28T13:16:46.000Z</time>
      </trkpt>
      <trkpt lat="47.16806" lon="-1.62632">
        <ele>68</ele>
        <time>2021-02-28T13:16:48.000Z</time>
      </trkpt>
      <trkpt lat="47.16799" lon="-1.62643">
        <ele>68</ele>
        <time>2021-02-28T13:16:50.000Z</time>
      </trkpt>
      <trkpt lat="47.16793" lon="-1.62654">
        <ele>68</ele>
        <time>2021-02-28T13:16:52.000Z</time>
      </trkpt>
      <trkpt lat="47.16784" lon="-1.62662">
        <ele>69</ele>
        <time>2021-02-28T13:16:55.000Z</time>
      </trkpt>
      <trkpt lat="47.16777" lon="-1.62653">
        <ele>69</ele>
        <time>2021-02-28T13:16:58.000Z</time>
      </trkpt>
    </trkseg>
  </trk>
</gpx>